
Distance (Route):
Temperature : 8.8°C
Humidity : 48.5%
Pressure : 0hPa| Receiver | Frames | First received | Last received |
|---|---|---|---|
| 9A1FER-3 | 462 | 2026-08-31 11:14:39 | 2026-08-31 13:17:52 |
| 9A1FER-10 | 450 | 2026-08-31 11:14:39 | 2026-08-31 13:19:05 |
| PETON7-10 | 259 | 2026-08-31 11:54:13 | 2026-08-31 13:11:10 |
| PG1ADW-2 | 122 | 2026-08-31 12:18:18 | 2026-08-31 13:09:57 |
| OE3JTB-15 | 106 | 2026-08-31 11:44:49 | 2026-08-31 13:15:19 |
| OE5DRO-10 | 96 | 2026-08-31 12:03:03 | 2026-08-31 13:09:19 |
| OE5DXL-15 | 86 | 2026-08-31 12:15:39 | 2026-08-31 13:08:27 |
| OM5KV | 61 | 2026-08-31 11:51:02 | 2026-08-31 12:02:44 |
| OE8JPQ-2 | 51 | 2026-08-31 12:45:05 | 2026-08-31 13:04:52 |
| DO3MHA-11 | 21 | 2026-08-31 12:53:45 | 2026-08-31 13:07:10 |
| DB0NH | 5 | 2026-08-31 13:01:28 | 2026-08-31 13:04:22 |
| DO3MHA-12 | 4 | 2026-08-31 12:55:13 | 2026-08-31 13:07:07 |
| LZ4TU-5 | 2 | 2026-08-31 13:01:23 | 2026-08-31 13:01:44 |
| Receiver | Date | Latitude | Longitude | Direction | Speed | Altitude | Climb | Temperature | Humidity | Pressure | Voltage | Killtimer | Uptime | BKT | XDATA |
|---|---|---|---|---|---|---|---|---|---|---|---|---|---|---|---|
| 9A1FER-10 | 2026-08-31 13:19:05 | 46.01249 | 17.16224 | 72° | 18km/h | 2996m | -16.9m/s | 8.8°C | 48.5% | 0hPa | 2.5V | 00:00:00 | 02:17:39 | 00:00:00 | |
| 9A1FER-10 | 2026-08-31 13:18:53 | 46.01236 | 17.16147 | 77° | 24km/h | 3199m | -16.9m/s | 7.0°C | 52.4% | 0hPa | 2.5V | 00:00:00 | 02:17:27 | 00:00:00 | |
| 9A1FER-10 | 2026-08-31 13:18:15 | 46.01198 | 17.15791 | 73° | 31km/h | 3855m | -18.0m/s | 1.6°C | 52.8% | 0hPa | 2.5V | 08:16:00 | 02:16:49 | 00:00:00 | |
| 9A1FER-10 | 2026-08-31 13:18:00 | 46.01158 | 17.15640 | 72° | 31km/h | 4124m | -18.0m/s | -0.6°C | 59.5% | 0hPa | 2.5V | 00:00:00 | 02:16:34 | 00:00:00 | |
| 9A1FER-3 | 2026-08-31 13:17:52 | 46.01138 | 17.15558 | 70° | 35km/h | 4270m | -18.0m/s | -1.7°C | 62.3% | 0hPa | 2.5V | 00:00:00 | 02:16:26 | 00:00:00 | |
| 9A1FER-10 | 2026-08-31 13:17:45 | 46.01115 | 17.15486 | 72° | 40km/h | 4397m | -18.3m/s | -2.5°C | 65.6% | 0hPa | 2.5V | 00:00:00 | 02:16:19 | 00:00:00 | |
| 9A1FER-3 | 2026-08-31 13:17:37 | 46.01086 | 17.15381 | 71° | 44km/h | 4547m | -19.0m/s | -2.8°C | 51.9% | 0hPa | 2.5V | 00:00:00 | 02:16:11 | 00:00:00 | |
| 9A1FER-10 | 2026-08-31 13:17:29 | 46.01060 | 17.15262 | 75° | 44km/h | 4699m | -18.8m/s | -3.5°C | 23.7% | 0hPa | 2.5V | 00:00:00 | 02:16:03 | 00:00:00 | |
| 9A1FER-3 | 2026-08-31 13:17:22 | 46.01038 | 17.15155 | 74° | 60km/h | 4833m | -18.9m/s | -4.1°C | 36.9% | 0hPa | 2.6V | 00:00:00 | 02:15:56 | 00:00:00 | |
| 9A1FER-10 | 2026-08-31 13:17:12 | 46.01013 | 17.14999 | 79° | 40km/h | 5025m | -19.4m/s | -5.3°C | 47.8% | 0hPa | 2.6V | 00:00:00 | 02:15:46 | 00:00:00 | |
| 9A1FER-10 | 2026-08-31 13:16:57 | 46.01005 | 17.14783 | 96° | 51km/h | 5311m | -19.2m/s | -6.5°C | 26.3% | 0hPa | 2.6V | 00:00:00 | 02:15:31 | 00:00:00 | |
| 9A1FER-10 | 2026-08-31 13:16:13 | 46.00897 | 17.14015 | 79° | 66km/h | 6152m | -19.6m/s | -10.4°C | 6.2% | 0hPa | 2.6V | 00:00:00 | 02:14:47 | 00:00:00 | |
| 9A1FER-3 | 2026-08-31 13:16:04 | 46.00863 | 17.13803 | 75° | 64km/h | 6327m | -19.5m/s | -11.6°C | 6.8% | 0hPa | 2.6V | 00:00:00 | 02:14:38 | 00:00:00 | |
| 9A1FER-10 | 2026-08-31 13:15:58 | 46.00836 | 17.13671 | 72° | 66km/h | 6445m | -20.0m/s | -12.4°C | 9.1% | 0hPa | 2.6V | 00:00:00 | 02:14:32 | 00:00:00 | |
| 9A1FER-3 | 2026-08-31 13:15:49 | 46.00784 | 17.13472 | 70° | 66km/h | 6622m | -19.6m/s | -13.4°C | 10.1% | 0hPa | 2.6V | 00:00:00 | 02:14:23 | 00:00:00 | |
| 9A1FER-10 | 2026-08-31 13:15:43 | 46.00748 | 17.13335 | 71° | 66km/h | 6741m | -19.9m/s | -14.1°C | 9.9% | 0hPa | 2.6V | 00:00:00 | 02:14:17 | 00:00:00 | |
| 9A1FER-3 | 2026-08-31 13:15:34 | 46.00700 | 17.13132 | 70° | 68km/h | 6920m | -20.2m/s | -15.6°C | 10.3% | 0hPa | 2.6V | 00:00:00 | 02:14:08 | 00:00:00 | |
| 9A1FER-10 | 2026-08-31 13:15:24 | 46.00636 | 17.12906 | 66° | 64km/h | 7120m | -20.3m/s | -16.9°C | 9.6% | 0hPa | 2.5V | 08:19:00 | 02:13:58 | 00:00:00 | |
| OE3JTB-15 | 2026-08-31 13:15:19 | 46.00599 | 17.12796 | 63° | 64km/h | 7222m | -20.3m/s | -17.5°C | 9.6% | 0hPa | 2.6V | 00:00:00 | 00:00:00 | 00:00:00 | |
| 9A1FER-3 | 2026-08-31 13:15:16 | 46.00576 | 17.12731 | 65° | 62km/h | 7283m | -20.4m/s | -17.8°C | 8.6% | 0hPa | 2.6V | 00:00:00 | 02:13:50 | 00:00:00 | |
| 9A1FER-3 | 2026-08-31 13:15:01 | 46.00476 | 17.12427 | 66° | 66km/h | 7591m | -20.8m/s | -19.9°C | 24.4% | 0hPa | 2.6V | 00:00:00 | 02:13:35 | 00:00:00 | |
| 9A1FER-10 | 2026-08-31 13:14:55 | 46.00439 | 17.12297 | 68° | 68km/h | 7715m | -20.6m/s | -21.1°C | 28.0% | 0hPa | 2.6V | 00:00:00 | 02:13:29 | 00:00:00 | |
| OE3JTB-15 | 2026-08-31 13:14:50 | 46.00408 | 17.12183 | 71° | 75km/h | 7821m | -20.7m/s | -22.1°C | 29.9% | 0hPa | 2.6V | 00:00:00 | 02:13:24 | 00:00:00 | |
| 9A1FER-3 | 2026-08-31 13:14:46 | 46.00385 | 17.12090 | 72° | 80km/h | 7904m | -21.3m/s | -22.9°C | 31.5% | 0hPa | 2.6V | 08:19:00 | 02:13:20 | 00:00:00 | |
| 9A1FER-10 | 2026-08-31 13:14:40 | 46.00353 | 17.11945 | 74° | 77km/h | 8029m | -21.3m/s | -24.1°C | 34.0% | 0hPa | 2.5V | 00:00:00 | 02:13:14 | 00:00:00 | |
| 9A1FER-10 | 2026-08-31 13:14:25 | 46.00268 | 17.11548 | 73° | 88km/h | 8343m | -21.0m/s | -26.5°C | 29.9% | 0hPa | 2.5V | 00:00:00 | 02:12:59 | 00:00:00 | |
| OE3JTB-15 | 2026-08-31 13:14:21 | 46.00244 | 17.11434 | 75° | 91km/h | 8427m | -21.5m/s | -27.2°C | 25.7% | 0hPa | 2.5V | 00:00:00 | 00:00:00 | 00:00:00 | |
| 9A1FER-3 | 2026-08-31 13:14:19 | 46.00233 | 17.11374 | 77° | 91km/h | 8470m | -21.4m/s | -27.4°C | 23.9% | 0hPa | 2.5V | 00:00:00 | 02:12:53 | 00:00:00 | |
| 9A1FER-10 | 2026-08-31 13:14:10 | 46.00186 | 17.11086 | 77° | 91km/h | 8665m | -21.8m/s | -28.6°C | 22.0% | 0hPa | 2.5V | 00:00:00 | 02:12:44 | 00:00:00 | |
| 9A1FER-3 | 2026-08-31 13:14:04 | 46.00154 | 17.10891 | 78° | 93km/h | 8798m | -22.1m/s | -29.6°C | 20.6% | 0hPa | 2.5V | 00:00:00 | 02:12:38 | 00:00:00 | |
| 9A1FER-10 | 2026-08-31 13:13:55 | 46.00111 | 17.10596 | 81° | 99km/h | 8998m | -22.1m/s | -30.8°C | 16.5% | 0hPa | 2.5V | 00:00:00 | 02:12:29 | 00:00:00 | |
| OE3JTB-15 | 2026-08-31 13:13:52 | 46.00097 | 17.10497 | 79° | 106km/h | 9065m | -22.4m/s | -31.3°C | 15.4% | 0hPa | 2.5V | 00:00:00 | 00:00:00 | 00:00:00 | |
| 9A1FER-3 | 2026-08-31 13:13:49 | 46.00083 | 17.10393 | 79° | 104km/h | 9132m | -22.1m/s | -31.7°C | 16.9% | 0hPa | 2.5V | 00:00:00 | 02:12:23 | 00:00:00 | |
| 9A1FER-10 | 2026-08-31 13:13:40 | 46.00034 | 17.10067 | 78° | 110km/h | 9338m | -23.0m/s | -33.1°C | 18.5% | 0hPa | 2.5V | 00:00:00 | 02:12:14 | 00:00:00 | |
| 9A1FER-3 | 2026-08-31 13:13:34 | 46.00002 | 17.09839 | 79° | 113km/h | 9475m | -23.0m/s | -34.2°C | 17.4% | 0hPa | 2.5V | 00:00:00 | 02:12:08 | 00:00:00 | |
| 9A1FER-10 | 2026-08-31 13:13:25 | 45.99954 | 17.09478 | 79° | 115km/h | 9681m | -23.5m/s | -35.7°C | 17.9% | 0hPa | 2.5V | 00:00:00 | 02:11:59 | 00:00:00 | |
| OE3JTB-15 | 2026-08-31 13:13:23 | 45.99943 | 17.09397 | 79° | 115km/h | 9728m | -23.1m/s | -35.9°C | 19.9% | 0hPa | 2.5V | 00:00:00 | 02:11:57 | 00:00:00 | |
| 9A1FER-10 | 2026-08-31 13:13:10 | 45.99873 | 17.08867 | 80° | 117km/h | 10036m | -23.8m/s | -38.8°C | 27.8% | 0hPa | 2.5V | 00:00:00 | 02:11:44 | 00:00:00 | |
| 9A1FER-3 | 2026-08-31 13:13:01 | 45.99828 | 17.08495 | 82° | 119km/h | 10251m | -24.0m/s | -40.8°C | 36.9% | 0hPa | 2.5V | 00:00:00 | 02:11:35 | 00:00:00 | |
| 9A1FER-10 | 2026-08-31 13:12:55 | 45.99802 | 17.08242 | 84° | 120km/h | 10394m | -23.7m/s | -42.0°C | 38.7% | 0hPa | 2.5V | 08:21:00 | 02:11:29 | 00:00:00 | |
| OE3JTB-15 | 2026-08-31 13:12:54 | 45.99798 | 17.08200 | 83° | 120km/h | 10417m | -23.5m/s | -42.2°C | 39.1% | 0hPa | 2.5V | 00:00:00 | 00:00:00 | 00:00:00 | |
| 9A1FER-3 | 2026-08-31 13:12:46 | 45.99762 | 17.07853 | 81° | 122km/h | 10609m | -24.7m/s | -43.9°C | 43.8% | 0hPa | 2.5V | 00:00:00 | 02:11:20 | 00:00:00 | |
| 9A1FER-10 | 2026-08-31 13:12:40 | 45.99734 | 17.07593 | 82° | 120km/h | 10755m | -24.3m/s | -45.3°C | 48.9% | 0hPa | 2.5V | 00:00:00 | 02:11:14 | 00:00:00 | |
| 9A1FER-3 | 2026-08-31 13:12:31 | 45.99690 | 17.07201 | 83° | 122km/h | 10968m | -23.2m/s | -47.2°C | 50.5% | 0hPa | 2.5V | 00:00:00 | 02:11:05 | 00:00:00 | |
| 9A1FER-10 | 2026-08-31 13:12:25 | 45.99662 | 17.06942 | 82° | 124km/h | 11108m | -23.3m/s | -48.2°C | 47.3% | 0hPa | 2.5V | 00:00:00 | 02:10:59 | 00:00:00 | |
| 9A1FER-3 | 2026-08-31 13:12:16 | 45.99629 | 17.06540 | 85° | 126km/h | 11316m | -23.2m/s | -49.5°C | 45.6% | 0hPa | 2.5V | 00:00:00 | 02:10:50 | 00:00:00 | |
| 9A1FER-10 | 2026-08-31 13:12:10 | 45.99610 | 17.06269 | 85° | 126km/h | 11456m | -23.0m/s | -50.5°C | 45.5% | 0hPa | 2.5V | 00:00:00 | 02:10:44 | 00:00:00 | |
| 9A1FER-3 | 2026-08-31 13:12:01 | 45.99583 | 17.05858 | 86° | 128km/h | 11665m | -23.1m/s | -52.1°C | 45.8% | 0hPa | 2.5V | 08:22:00 | 02:10:35 | 00:00:00 | |
| OE3JTB-15 | 2026-08-31 13:11:56 | 45.99571 | 17.05628 | 85° | 130km/h | 11781m | -23.4m/s | -53.0°C | 44.5% | 0hPa | 2.5V | 00:00:00 | 02:10:30 | 00:00:00 | |
| 9A1FER-10 | 2026-08-31 13:11:55 | 45.99568 | 17.05582 | 85° | 131km/h | 11805m | -23.3m/s | -53.2°C | 44.3% | 0hPa | 2.5V | 00:00:00 | 02:10:29 | 00:00:00 | |
| 9A1FER-3 | 2026-08-31 13:11:46 | 45.99542 | 17.05162 | 87° | 131km/h | 12020m | -23.9m/s | -54.6°C | 39.4% | 0hPa | 2.5V | 00:00:00 | 02:10:20 | 00:00:00 | |
| 9A1FER-10 | 2026-08-31 13:11:40 | 45.99531 | 17.04869 | 88° | 130km/h | 12166m | -24.6m/s | -55.6°C | 35.9% | 0hPa | 2.5V | 00:00:00 | 02:10:14 | 00:00:00 | |
| 9A1FER-3 | 2026-08-31 13:11:31 | 45.99518 | 17.04444 | 88° | 124km/h | 12384m | -24.1m/s | -56.4°C | 24.8% | 0hPa | 2.5V | 00:00:00 | 02:10:05 | 00:00:00 | |
| OE3JTB-15 | 2026-08-31 13:11:27 | 45.99511 | 17.04260 | 87° | 117km/h | 12482m | -24.7m/s | -56.6°C | 23.4% | 0hPa | 2.5V | 08:23:00 | 00:00:00 | 00:00:00 | |
| 9A1FER-10 | 2026-08-31 13:11:25 | 45.99506 | 17.04168 | 87° | 120km/h | 12532m | -25.1m/s | -56.8°C | 23.1% | 0hPa | 2.6V | 00:00:00 | 02:09:59 | 00:00:00 | |
| 9A1FER-3 | 2026-08-31 13:11:16 | 45.99492 | 17.03770 | 88° | 115km/h | 12758m | -24.5m/s | -58.3°C | 23.9% | 0hPa | 2.5V | 00:00:00 | 02:09:50 | 00:00:00 | |
| PETON7-10 | 2026-08-31 13:11:10 | 45.99484 | 17.03513 | 89° | 111km/h | 12908m | -25.2m/s | -59.0°C | 24.1% | 0hPa | 2.5V | 00:00:00 | 02:09:44 | 00:00:00 | |
| 9A1FER-3 | 2026-08-31 13:11:01 | 45.99480 | 17.03143 | 90° | 99km/h | 13140m | -25.7m/s | -60.2°C | 20.9% | 0hPa | 2.5V | 00:00:00 | 02:09:35 | 00:00:00 | |
| OE3JTB-15 | 2026-08-31 13:10:58 | 45.99479 | 17.03030 | 89° | 97km/h | 13216m | -25.4m/s | -60.3°C | 19.0% | 0hPa | 2.5V | 00:00:00 | 00:00:00 | 00:00:00 | |
| PETON7-10 | 2026-08-31 13:10:55 | 45.99475 | 17.02921 | 86° | 97km/h | 13293m | -25.5m/s | -60.5°C | 17.9% | 0hPa | 2.5V | 00:00:00 | 00:00:00 | 00:00:00 | |
| 9A1FER-3 | 2026-08-31 13:10:46 | 45.99458 | 17.02608 | 87° | 97km/h | 13532m | -26.1m/s | -61.4°C | 16.9% | 0hPa | 2.5V | 00:00:00 | 02:09:20 | 00:00:00 | |
| 9A1FER-10 | 2026-08-31 13:10:40 | 45.99450 | 17.02401 | 87° | 95km/h | 13691m | -26.7m/s | -61.9°C | 15.9% | 0hPa | 2.5V | 08:24:00 | 02:09:14 | 00:00:00 | |
| PETON7-10 | 2026-08-31 13:10:31 | 45.99442 | 17.02079 | 89° | 82km/h | 13937m | -27.8m/s | -62.2°C | 13.6% | 0hPa | 2.5V | 00:00:00 | 00:00:00 | 00:00:00 | |
| OE3JTB-15 | 2026-08-31 13:10:29 | 45.99440 | 17.02011 | 87° | 77km/h | 13993m | -27.8m/s | -62.0°C | 12.7% | 0hPa | 2.5V | 00:00:00 | 02:09:03 | 00:00:00 | |
| 9A1FER-10 | 2026-08-31 13:10:25 | 45.99435 | 17.01883 | 89° | 77km/h | 14106m | -27.9m/s | -61.7°C | 11.2% | 0hPa | 2.5V | 00:00:00 | 02:08:59 | 00:00:00 | |
| 9A1FER-3 | 2026-08-31 13:10:16 | 45.99430 | 17.01618 | 88° | 69km/h | 14362m | -28.6m/s | -60.9°C | 9.0% | 0hPa | 2.5V | 00:00:00 | 02:08:50 | 00:00:00 | |
| PETON7-10 | 2026-08-31 13:10:14 | 45.99428 | 17.01566 | 87° | 57km/h | 14419m | -28.9m/s | -60.8°C | 8.6% | 0hPa | 2.5V | 00:00:00 | 02:08:48 | 00:00:00 | |
| 9A1FER-10 | 2026-08-31 13:10:10 | 45.99420 | 17.01468 | 79° | 69km/h | 14536m | -29.1m/s | -61.3°C | 8.6% | 0hPa | 2.5V | 00:00:00 | 02:08:44 | 00:00:00 | |
| 9A1FER-3 | 2026-08-31 13:10:01 | 45.99377 | 17.01249 | 75° | 64km/h | 14800m | -29.5m/s | -60.5°C | 7.4% | 0hPa | 2.5V | 00:00:00 | 02:08:35 | 00:00:00 | |
| OE3JTB-15 | 2026-08-31 13:10:00 | 45.99372 | 17.01222 | 77° | 57km/h | 14829m | -29.4m/s | -60.5°C | 7.4% | 0hPa | 2.5V | 00:00:00 | 00:00:00 | 00:00:00 | |
| PG1ADW-2 | 2026-08-31 13:09:57 | 45.99360 | 17.01144 | 78° | 57km/h | 14920m | -30.1m/s | -59.8°C | 6.8% | 0hPa | 2.5V | 00:00:00 | 02:08:31 | 00:00:00 | |
| 9A1FER-10 | 2026-08-31 13:09:55 | 45.99353 | 17.01097 | 77° | 57km/h | 14980m | -29.7m/s | -59.5°C | 6.5% | 0hPa | 2.5V | 00:00:00 | 02:08:29 | 00:00:00 | |
| 9A1FER-3 | 2026-08-31 13:09:46 | 45.99318 | 17.00914 | 71° | 51km/h | 15252m | -30.4m/s | -58.2°C | 5.7% | 0hPa | 2.6V | 08:24:00 | 02:08:20 | 00:00:00 | |
| 9A1FER-10 | 2026-08-31 13:09:40 | 45.99289 | 17.00801 | 71° | 51km/h | 15436m | -30.6m/s | -58.6°C | 5.5% | 0hPa | 2.6V | 00:00:00 | 02:08:14 | 00:00:00 | |
| PG1ADW-2 | 2026-08-31 13:09:37 | 45.99277 | 17.00746 | 74° | 55km/h | 15529m | -30.8m/s | -59.1°C | 5.7% | 0hPa | 2.6V | 00:00:00 | 00:00:00 | 00:00:00 | |
| 9A1FER-3 | 2026-08-31 13:09:31 | 45.99256 | 17.00646 | 71° | 57km/h | 15716m | -31.7m/s | -59.3°C | 5.7% | 0hPa | 2.6V | 00:00:00 | 02:08:05 | 00:00:00 | |
| 9A1FER-10 | 2026-08-31 13:09:25 | 45.99227 | 17.00541 | 71° | 55km/h | 15907m | -31.7m/s | -60.2°C | 5.9% | 0hPa | 2.6V | 00:00:00 | 02:07:59 | 00:00:00 | |
| PETON7-10 | 2026-08-31 13:09:23 | 45.99218 | 17.00499 | 74° | 58km/h | 15971m | -32.2m/s | -60.2°C | 5.8% | 0hPa | 2.6V | 00:00:00 | 00:00:00 | 00:00:00 | |
| OE5DRO-10 | 2026-08-31 13:09:19 | 45.99204 | 17.00413 | 80° | 47km/h | 16102m | -33.8m/s | -60.6°C | 5.8% | 0hPa | 2.6V | 00:00:00 | 00:00:00 | 00:00:00 | |
| PG1ADW-2 | 2026-08-31 13:09:17 | 45.99199 | 17.00372 | 84° | 44km/h | 16169m | -34.0m/s | -60.4°C | 5.8% | 0hPa | 2.6V | 00:00:00 | 00:00:00 | 00:00:00 | |
| 9A1FER-3 | 2026-08-31 13:09:16 | 45.99198 | 17.00352 | 86° | 46km/h | 16203m | -34.0m/s | -59.8°C | 5.5% | 0hPa | 2.5V | 00:00:00 | 02:07:50 | 00:00:00 | |
| 9A1FER-10 | 2026-08-31 13:09:10 | 45.99199 | 17.00252 | 87° | 40km/h | 16405m | -33.3m/s | -58.5°C | 5.1% | 0hPa | 2.5V | 00:00:00 | 02:07:44 | 00:00:00 | |
| PETON7-10 | 2026-08-31 13:09:08 | 45.99196 | 17.00223 | 80° | 33km/h | 16473m | -33.8m/s | -58.0°C | 4.7% | 0hPa | 2.5V | 00:00:00 | 00:00:00 | 00:00:00 | |
| OE3JTB-15 | 2026-08-31 13:09:02 | 45.99182 | 17.00128 | 83° | 33km/h | 16678m | -34.9m/s | -58.8°C | 4.9% | 0hPa | 2.5V | 00:00:00 | 02:07:36 | 00:00:00 | |
| 9A1FER-3 | 2026-08-31 13:09:01 | 45.99181 | 17.00113 | 85° | 29km/h | 16713m | -34.9m/s | -58.7°C | 4.8% | 0hPa | 2.5V | 00:00:00 | 02:07:35 | 00:00:00 | |
| OE5DRO-10 | 2026-08-31 13:09:00 | 45.99180 | 17.00098 | 87° | 29km/h | 16748m | -34.6m/s | -58.8°C | 4.9% | 0hPa | 2.5V | 08:25:00 | 00:00:00 | 00:00:00 | |
| PG1ADW-2 | 2026-08-31 13:08:57 | 45.99178 | 17.00060 | 84° | 29km/h | 16852m | -34.8m/s | -58.2°C | 4.7% | 0hPa | 2.5V | 00:00:00 | 00:00:00 | 00:00:00 | |
| 9A1FER-10 | 2026-08-31 13:08:55 | 45.99176 | 17.00041 | 74° | 27km/h | 16921m | -34.3m/s | -58.2°C | 4.8% | 0hPa | 2.5V | 00:00:00 | 02:07:29 | 00:00:00 | |
| PETON7-10 | 2026-08-31 13:08:50 | 45.99161 | 17.00009 | 44° | 33km/h | 17095m | -34.5m/s | -58.3°C | 4.9% | 0hPa | 2.5V | 00:00:00 | 02:07:24 | 00:00:00 | |
| 9A1FER-3 | 2026-08-31 13:08:46 | 45.99141 | 16.99980 | 50° | 37km/h | 17234m | -35.4m/s | -58.7°C | 5.0% | 0hPa | 2.5V | 00:00:00 | 02:07:20 | 00:00:00 | |
| OE5DRO-10 | 2026-08-31 13:08:41 | 45.99117 | 16.99930 | 61° | 20km/h | 17413m | -35.4m/s | -58.8°C | 5.1% | 0hPa | 2.5V | 00:00:00 | 00:00:00 | 00:00:00 | |
| 9A1FER-10 | 2026-08-31 13:08:40 | 45.99112 | 16.99919 | 59° | 33km/h | 17449m | -35.8m/s | -58.5°C | 5.0% | 0hPa | 2.5V | 00:00:00 | 02:07:14 | 00:00:00 | |
| PG1ADW-2 | 2026-08-31 13:08:37 | 45.99100 | 16.99884 | 68° | 26km/h | 17557m | -35.9m/s | -58.7°C | 5.0% | 0hPa | 2.5V | 00:00:00 | 02:07:11 | 00:00:00 | |
| PETON7-10 | 2026-08-31 13:08:35 | 45.99095 | 16.99860 | 75° | 16km/h | 17630m | -36.7m/s | -58.3°C | 4.9% | 0hPa | 2.5V | 08:26:00 | 00:00:00 | 00:00:00 | |
| OE3JTB-15 | 2026-08-31 13:08:33 | 45.99090 | 16.99833 | 77° | 27km/h | 17705m | -37.8m/s | -57.5°C | 4.6% | 0hPa | 2.5V | 00:00:00 | 00:00:00 | 00:00:00 | |
| 9A1FER-3 | 2026-08-31 13:08:31 | 45.99086 | 16.99806 | 82° | 20km/h | 17781m | -37.3m/s | -56.9°C | 4.4% | 0hPa | 2.6V | 00:00:00 | 02:07:05 | 00:00:00 | |
| OE5DXL-15 | 2026-08-31 13:08:27 | 45.99082 | 16.99765 | 85° | 18km/h | 17930m | -37.0m/s | -55.6°C | 4.0% | 0hPa | 2.6V | 00:00:00 | 00:00:00 | 00:00:00 | |
| 9A1FER-10 | 2026-08-31 13:08:25 | 45.99081 | 16.99751 | 85° | 15km/h | 18005m | -37.1m/s | -55.6°C | 4.0% | 0hPa | 2.6V | 08:26:00 | 02:06:59 | 00:00:00 | |
| PG1ADW-2 | 2026-08-31 13:08:17 | 45.99073 | 16.99710 | 48° | 20km/h | 18309m | -37.7m/s | -56.6°C | 4.4% | 0hPa | 2.5V | 00:00:00 | 00:00:00 | 00:00:00 | |
| 9A1FER-3 | 2026-08-31 13:08:16 | 45.99071 | 16.99707 | 42° | 18km/h | 18347m | -37.9m/s | -56.8°C | 4.5% | 0hPa | 2.5V | 00:00:00 | 02:06:50 | 00:00:00 | |
| PETON7-10 | 2026-08-31 13:08:14 | 45.99066 | 16.99701 | 34° | 20km/h | 18425m | -40.0m/s | -57.0°C | 4.6% | 0hPa | 2.6V | 00:00:00 | 00:00:00 | 00:00:00 | |
| 9A1FER-10 | 2026-08-31 13:08:10 | 45.99051 | 16.99690 | 20° | 22km/h | 18582m | -39.2m/s | -56.3°C | 4.4% | 0hPa | 2.6V | 00:00:00 | 02:06:44 | 00:00:00 | |
| OE5DRO-10 | 2026-08-31 13:08:07 | 45.99038 | 16.99686 | 4° | 15km/h | 18701m | -39.7m/s | -56.1°C | 4.4% | 0hPa | 2.6V | 00:00:00 | 00:00:00 | 00:00:00 | |
| OE3JTB-15 | 2026-08-31 13:08:04 | 45.99021 | 16.99682 | 12° | 20km/h | 18823m | -41.7m/s | -56.1°C | 4.4% | 0hPa | 2.6V | 00:00:00 | 00:00:00 | 00:00:00 | |
| 9A1FER-3 | 2026-08-31 13:08:01 | 45.99003 | 16.99676 | 12° | 16km/h | 18949m | -42.5m/s | -55.7°C | 4.2% | 0hPa | 2.6V | 00:00:00 | 02:06:35 | 00:00:00 | |
| PETON7-10 | 2026-08-31 13:07:59 | 45.98990 | 16.99672 | 10° | 15km/h | 19034m | -42.4m/s | -55.5°C | 4.1% | 0hPa | 2.6V | 00:00:00 | 02:06:33 | 00:00:00 | |
| OE5DXL-15 | 2026-08-31 13:07:57 | 45.98979 | 16.99669 | 14° | 13km/h | 19120m | -43.3m/s | -55.5°C | 4.1% | 0hPa | 2.6V | 00:00:00 | 00:00:00 | 00:00:00 | |
| 9A1FER-10 | 2026-08-31 13:07:55 | 45.98970 | 16.99665 | 26° | 11km/h | 19207m | -43.0m/s | -55.2°C | 4.0% | 0hPa | 2.6V | 00:00:00 | 02:06:29 | 00:00:00 | |
| 9A1FER-3 | 2026-08-31 13:07:46 | 45.98954 | 16.99632 | 58° | 11km/h | 19611m | -45.4m/s | -55.0°C | 3.9% | 0hPa | 2.6V | 00:00:00 | 02:06:20 | 00:00:00 | |
| PETON7-10 | 2026-08-31 13:07:44 | 45.98951 | 16.99625 | 56° | 11km/h | 19702m | -45.7m/s | -55.1°C | 4.0% | 0hPa | 2.6V | 00:00:00 | 00:00:00 | 00:00:00 | |
| 9A1FER-10 | 2026-08-31 13:07:40 | 45.98943 | 16.99618 | 15° | 13km/h | 19884m | -45.7m/s | -54.3°C | 3.8% | 0hPa | 2.5V | 00:00:00 | 02:06:14 | 00:00:00 | |
| PG1ADW-2 | 2026-08-31 13:07:38 | 45.98933 | 16.99615 | 2° | 13km/h | 20021m | -45.1m/s | -54.8°C | 4.0% | 0hPa | 2.5V | 00:00:00 | 00:00:00 | 00:00:00 | |
| 9A1FER-3 | 2026-08-31 13:07:31 | 45.98916 | 16.99614 | 12° | 15km/h | 20290m | -45.1m/s | -55.7°C | 4.4% | 0hPa | 2.5V | 08:27:00 | 02:06:05 | 00:00:00 | |
| PETON7-10 | 2026-08-31 13:07:29 | 45.98910 | 16.99615 | 348° | 15km/h | 20380m | -45.2m/s | -55.5°C | 4.3% | 0hPa | 2.5V | 00:00:00 | 00:00:00 | 00:00:00 | |
| OE5DXL-15 | 2026-08-31 13:07:27 | 45.98904 | 16.99617 | 338° | 13km/h | 20472m | -45.7m/s | -54.8°C | 4.1% | 0hPa | 2.5V | 00:00:00 | 00:00:00 | 00:00:00 | |
| 9A1FER-10 | 2026-08-31 13:07:25 | 45.98898 | 16.99620 | 348° | 15km/h | 20564m | -46.1m/s | -54.8°C | 4.2% | 0hPa | 2.5V | 00:00:00 | 02:05:59 | 00:00:00 | |
| PG1ADW-2 | 2026-08-31 13:07:17 | 45.98867 | 16.99619 | 360° | 11km/h | 20933m | -45.8m/s | -54.3°C | 4.1% | 0hPa | 2.5V | 08:27:00 | 02:05:51 | 00:00:00 | |
| 9A1FER-3 | 2026-08-31 13:07:16 | 45.98862 | 16.99619 | 356° | 13km/h | 20979m | -45.3m/s | -54.2°C | 4.0% | 0hPa | 2.5V | 00:00:00 | 02:05:50 | 00:00:00 | |
| PETON7-10 | 2026-08-31 13:07:14 | 45.98855 | 16.99620 | 5° | 13km/h | 21070m | -46.5m/s | -54.0°C | 4.0% | 0hPa | 2.5V | 00:00:00 | 02:05:48 | 00:00:00 | |
| DO3MHA-11 | 2026-08-31 13:07:10 | 45.98841 | 16.99621 | 357° | 13km/h | 21256m | -47.5m/s | -53.4°C | 3.8% | 0hPa | 2.5V | 00:00:00 | 02:05:44 | 00:00:00 | |
| DO3MHA-12 | 2026-08-31 13:07:07 | 45.98829 | 16.99623 | 355° | 15km/h | 21398m | -47.0m/s | 0°C | 0% | 0hPa | 2.5V | 00:00:00 | 02:05:41 | 00:00:00 | |
| 9A1FER-3 | 2026-08-31 13:07:01 | 45.98814 | 16.99619 | 37° | 7km/h | 21684m | -48.8m/s | -52.8°C | 3.6% | 0hPa | 2.5V | 00:00:00 | 02:05:35 | 00:00:00 | |
| DO3MHA-11 | 2026-08-31 13:07:00 | 45.98812 | 16.99617 | 37° | 7km/h | 21733m | -48.4m/s | -52.7°C | 3.7% | 0hPa | 2.5V | 00:00:00 | 02:05:34 | 00:00:00 | |
| PETON7-10 | 2026-08-31 13:06:59 | 45.98811 | 16.99616 | 9° | 7km/h | 21781m | -48.0m/s | -52.5°C | 3.6% | 0hPa | 2.5V | 00:00:00 | 00:00:00 | 00:00:00 | |
| OE5DXL-15 | 2026-08-31 13:06:57 | 45.98809 | 16.99615 | 35° | 7km/h | 21878m | -49.3m/s | -52.4°C | 3.5% | 0hPa | 2.5V | 00:00:00 | 00:00:00 | 00:00:00 | |
| 9A1FER-10 | 2026-08-31 13:06:55 | 45.98807 | 16.99614 | 335° | 7km/h | 21976m | -49.9m/s | -51.9°C | 3.4% | 0hPa | 2.5V | 00:00:00 | 02:05:29 | 00:00:00 | |
| PETON7-10 | 2026-08-31 13:06:44 | 45.98786 | 16.99618 | 43° | 7km/h | 22535m | -51.6m/s | -52.4°C | 3.5% | 0hPa | 2.6V | 00:00:00 | 00:00:00 | 00:00:00 | |
| 9A1FER-10 | 2026-08-31 13:06:40 | 45.98782 | 16.99612 | 38° | 9km/h | 22742m | -52.6m/s | -52.0°C | 3.4% | 0hPa | 2.6V | 00:00:00 | 02:05:14 | 00:00:00 | |
| OE3JTB-15 | 2026-08-31 13:06:39 | 45.98782 | 16.99612 | 172° | 11km/h | 22795m | -52.9m/s | -51.9°C | 3.4% | 0hPa | 2.6V | 00:00:00 | 02:05:13 | 00:00:00 | |
| PG1ADW-2 | 2026-08-31 13:06:37 | 45.98781 | 16.99612 | 338° | 11km/h | 22901m | -53.8m/s | -52.2°C | 3.5% | 0hPa | 2.6V | 00:00:00 | 00:00:00 | 00:00:00 | |
| 9A1FER-3 | 2026-08-31 13:06:31 | 45.98768 | 16.99624 | 342° | 11km/h | 23217m | -53.0m/s | -52.6°C | 3.7% | 0hPa | 2.6V | 00:00:00 | 02:05:05 | 00:00:00 | |
| PETON7-10 | 2026-08-31 13:06:29 | 45.98761 | 16.99625 | 5° | 11km/h | 23323m | -53.9m/s | -52.7°C | 3.7% | 0hPa | 2.6V | 00:00:00 | 02:05:03 | 00:00:00 | |
| OE5DXL-15 | 2026-08-31 13:06:27 | 45.98754 | 16.99625 | 14° | 11km/h | 23430m | -53.8m/s | -52.8°C | 3.8% | 0hPa | 2.6V | 08:28:00 | 00:00:00 | 00:00:00 | |
| 9A1FER-10 | 2026-08-31 13:06:25 | 45.98749 | 16.99621 | 20° | 13km/h | 23538m | -54.1m/s | -52.8°C | 3.8% | 0hPa | 2.6V | 00:00:00 | 02:04:59 | 00:00:00 | |
| PG1ADW-2 | 2026-08-31 13:06:17 | 45.98731 | 16.99626 | 355° | 11km/h | 23973m | -54.2m/s | -52.0°C | 3.6% | 0hPa | 2.6V | 00:00:00 | 00:00:00 | 00:00:00 | |
| 9A1FER-3 | 2026-08-31 13:06:16 | 45.98728 | 16.99626 | 6° | 11km/h | 24027m | -54.6m/s | -52.0°C | 3.6% | 0hPa | 2.5V | 00:00:00 | 02:04:50 | 00:00:00 | |
| PETON7-10 | 2026-08-31 13:06:14 | 45.98721 | 16.99623 | 18° | 11km/h | 24137m | -54.6m/s | -51.9°C | 3.6% | 0hPa | 2.5V | 08:28:00 | 00:00:00 | 00:00:00 | |
| 9A1FER-10 | 2026-08-31 13:06:10 | 45.98705 | 16.99617 | 14° | 11km/h | 24353m | -54.0m/s | -51.4°C | 3.6% | 0hPa | 2.6V | 08:28:00 | 02:04:44 | 00:00:00 | |
| OE3JTB-15 | 2026-08-31 13:06:09 | 45.98702 | 16.99616 | 16° | 11km/h | 24406m | -53.1m/s | -51.2°C | 3.5% | 0hPa | 2.6V | 08:28:00 | 00:00:00 | 00:00:00 | |
| 9A1FER-3 | 2026-08-31 13:06:01 | 45.98688 | 16.99611 | 358° | 13km/h | 24822m | -52.4m/s | -51.1°C | 3.7% | 0hPa | 2.5V | 00:00:00 | 02:04:35 | 00:00:00 | |
| PETON7-10 | 2026-08-31 13:05:59 | 45.98682 | 16.99610 | 12° | 13km/h | 24929m | -53.8m/s | -51.4°C | 3.7% | 0hPa | 2.6V | 00:00:00 | 00:00:00 | 00:00:00 | |
| PG1ADW-2 | 2026-08-31 13:05:57 | 45.98676 | 16.99605 | 42° | 13km/h | 25037m | -53.6m/s | -51.0°C | 3.7% | 0hPa | 2.6V | 00:00:00 | 02:04:31 | 00:00:00 | |
| 9A1FER-10 | 2026-08-31 13:05:55 | 45.98670 | 16.99595 | 67° | 7km/h | 25143m | -52.8m/s | -50.8°C | 3.7% | 0hPa | 2.6V | 00:00:00 | 02:04:29 | 00:00:00 | |
| DO3MHA-11 | 2026-08-31 13:05:49 | 45.98673 | 16.99567 | 127° | 9km/h | 25465m | -55.2m/s | -48.8°C | 3.1% | 0hPa | 2.6V | 00:00:00 | 02:04:23 | 00:00:00 | |
| 9A1FER-3 | 2026-08-31 13:05:46 | 45.98678 | 16.99561 | 128° | 7km/h | 25631m | -55.9m/s | -49.1°C | 3.2% | 0hPa | 2.6V | 00:00:00 | 02:04:20 | 00:00:00 | |
| PETON7-10 | 2026-08-31 13:05:44 | 45.98680 | 16.99557 | 118° | 7km/h | 25744m | -56.7m/s | -48.7°C | 3.1% | 0hPa | 2.6V | 00:00:00 | 02:04:18 | 00:00:00 | |
| OE3JTB-15 | 2026-08-31 13:05:40 | 45.98685 | 16.99545 | 146° | 9km/h | 25970m | -56.7m/s | -48.4°C | 3.2% | 0hPa | 2.6V | 00:00:00 | 00:00:00 | 00:00:00 | |
| DO3MHA-11 | 2026-08-31 13:05:39 | 45.98688 | 16.99543 | 158° | 9km/h | 26027m | -56.9m/s | -48.2°C | 3.1% | 0hPa | 2.6V | 00:00:00 | 02:04:13 | 08:30:00 | |
| PG1ADW-2 | 2026-08-31 13:05:37 | 45.98692 | 16.99539 | 160° | 9km/h | 26142m | -58.8m/s | -47.9°C | 3.1% | 0hPa | 2.6V | 00:00:00 | 00:00:00 | 00:00:00 | |
| 9A1FER-3 | 2026-08-31 13:05:31 | 45.98697 | 16.99538 | 66° | 11km/h | 26501m | -61.1m/s | -47.9°C | 3.1% | 0hPa | 2.6V | 00:00:00 | 02:04:05 | 00:00:00 | |
| PETON7-10 | 2026-08-31 13:05:29 | 45.98696 | 16.99533 | 90° | 11km/h | 26623m | -60.5m/s | -47.4°C | 3.0% | 0hPa | 2.6V | 00:00:00 | 00:00:00 | 00:00:00 | |
| 9A1FER-10 | 2026-08-31 13:05:28 | 45.98697 | 16.99529 | 91° | 11km/h | 26684m | -60.7m/s | -47.3°C | 3.0% | 0hPa | 2.6V | 00:00:00 | 02:04:02 | 00:00:00 | |
| OE5DXL-15 | 2026-08-31 13:05:27 | 45.98697 | 16.99525 | 103° | 11km/h | 26744m | -59.2m/s | -47.1°C | 2.9% | 0hPa | 2.6V | 00:00:00 | 00:00:00 | 00:00:00 | |
| PG1ADW-2 | 2026-08-31 13:05:17 | 45.98707 | 16.99485 | 96° | 9km/h | 27348m | -60.4m/s | -46.7°C | 3.0% | 0hPa | 2.6V | 00:00:00 | 00:00:00 | 00:00:00 | |
| 9A1FER-3 | 2026-08-31 13:05:16 | 45.98707 | 16.99481 | 94° | 9km/h | 27409m | -61.3m/s | -46.4°C | 3.0% | 0hPa | 2.6V | 00:00:00 | 02:03:50 | 08:30:00 | |
| PETON7-10 | 2026-08-31 13:05:14 | 45.98707 | 16.99473 | 102° | 9km/h | 27532m | -62.6m/s | -45.9°C | 2.9% | 0hPa | 2.5V | 00:00:00 | 00:00:00 | 00:00:00 | |
| 9A1FER-10 | 2026-08-31 13:05:13 | 45.98708 | 16.99470 | 101° | 9km/h | 27595m | -61.5m/s | -45.8°C | 2.8% | 0hPa | 2.5V | 00:00:00 | 02:03:47 | 00:00:00 | |
| OE3JTB-15 | 2026-08-31 13:05:11 | 45.98708 | 16.99463 | 100° | 9km/h | 27719m | -62.2m/s | -45.5°C | 2.8% | 0hPa | 2.6V | 00:00:00 | 02:03:45 | 00:00:00 | |
| 9A1FER-3 | 2026-08-31 13:05:01 | 45.98703 | 16.99434 | 60° | 11km/h | 28360m | -68.7m/s | -44.3°C | 2.8% | 0hPa | 2.6V | 00:00:00 | 02:03:35 | 00:00:00 | |
| PETON7-10 | 2026-08-31 13:05:00 | 45.98699 | 16.99425 | 49° | 9km/h | 28500m | -71.3m/s | -44.0°C | 2.7% | 0hPa | 2.6V | 00:00:00 | 02:03:33 | 00:00:00 | |
| 9A1FER-10 | 2026-08-31 13:04:58 | 45.98696 | 16.99422 | 49° | 11km/h | 28571m | -72.4m/s | -44.0°C | 2.7% | 0hPa | 2.6V | 00:00:00 | 02:03:32 | 00:00:00 | |
| PG1ADW-2 | 2026-08-31 13:04:57 | 45.98694 | 16.99418 | 43° | 11km/h | 28645m | -74.5m/s | -43.7°C | 2.6% | 0hPa | 2.6V | 00:00:00 | 00:00:00 | 00:00:00 | |
| OE8JPQ-2 | 2026-08-31 13:04:52 | 45.98683 | 16.99405 | 44° | 11km/h | 29049m | -87.9m/s | -42.0°C | 2.3% | 0hPa | 2.6V | 00:00:00 | 00:00:00 | 00:00:00 | |
| 9A1FER-3 | 2026-08-31 13:04:46 | 45.98674 | 16.99390 | 54° | 11km/h | 29590m | -91.4m/s | -40.9°C | 2.1% | 0hPa | 2.6V | 00:00:00 | 02:03:20 | 00:00:00 | |
| PETON7-10 | 2026-08-31 13:04:44 | 45.98671 | 16.99386 | 42° | 11km/h | 29773m | -91.5m/s | -40.6°C | 2.1% | 0hPa | 2.6V | 00:00:00 | 00:00:00 | 00:00:00 | |
| OE3JTB-15 | 2026-08-31 13:04:42 | 45.98667 | 16.99380 | 35° | 16km/h | 29955m | -90.5m/s | -40.1°C | 2.0% | 0hPa | 2.5V | 00:00:00 | 00:00:00 | 00:00:00 | |
| 9A1FER-10 | 2026-08-31 13:04:38 | 45.98654 | 16.99368 | 42° | 13km/h | 30312m | -88.2m/s | -40.8°C | 2.1% | 0hPa | 2.5V | 00:00:00 | 02:03:12 | 00:00:00 | |
| PG1ADW-2 | 2026-08-31 13:04:37 | 45.98651 | 16.99364 | 44° | 13km/h | 30400m | -88.4m/s | -40.9°C | 2.2% | 0hPa | 2.5V | 00:00:00 | 02:03:11 | 00:00:00 | |
| OE8JPQ-2 | 2026-08-31 13:04:32 | 45.98642 | 16.99354 | 6° | 13km/h | 30832m | -84.2m/s | -40.6°C | 2.1% | 0hPa | 2.5V | 00:00:00 | 02:03:06 | 00:00:00 | |
| 9A1FER-3 | 2026-08-31 13:04:31 | 45.98640 | 16.99353 | 11° | 11km/h | 30917m | -85.2m/s | -40.6°C | 2.0% | 0hPa | 2.5V | 00:00:00 | 02:03:05 | 00:00:00 | |
| PETON7-10 | 2026-08-31 13:04:29 | 45.98636 | 16.99355 | 329° | 15km/h | 31085m | -82.7m/s | -40.5°C | 2.0% | 0hPa | 2.5V | 00:00:00 | 00:00:00 | 00:00:00 | |
| OE5DXL-15 | 2026-08-31 13:04:28 | 45.98631 | 16.99360 | 328° | 13km/h | 31245m | -78.5m/s | -40.4°C | 2.0% | 0hPa | 2.5V | 00:00:00 | 00:00:00 | 00:00:00 | |
| 9A1FER-10 | 2026-08-31 13:04:23 | 45.98617 | 16.99376 | 308° | 15km/h | 31545m | -69.5m/s | -39.9°C | 1.9% | 0hPa | 2.5V | 00:00:00 | 02:02:57 | 00:00:00 | |
| DB0NH | 2026-08-31 13:04:22 | 45.98614 | 16.99380 | 321° | 22km/h | 31616m | -71.4m/s | 0°C | 0% | 0hPa | 2.5V | 00:00:00 | 02:02:56 | 00:00:00 | |
| PG1ADW-2 | 2026-08-31 13:04:17 | 45.98599 | 16.99399 | 322° | 11km/h | 31899m | -42.1m/s | -39.8°C | 2.0% | 0hPa | 2.5V | 00:00:00 | 00:00:00 | 08:30:00 | |
| PETON7-10 | 2026-08-31 13:04:13 | 45.98589 | 16.99407 | 348° | 13km/h | 32014m | -13.0m/s | -39.6°C | 2.0% | 0hPa | 2.5V | 00:00:00 | 02:02:47 | 00:00:00 | |
| OE8JPQ-2 | 2026-08-31 13:04:12 | 45.98586 | 16.99408 | 340° | 13km/h | 32022m | -4.0m/s | -39.5°C | 2.0% | 0hPa | 2.5V | 00:00:00 | 00:00:00 | 00:00:00 | |
| 9A1FER-10 | 2026-08-31 13:04:08 | 45.98577 | 16.99410 | 18° | 13km/h | 32003m | 4.7m/s | -39.6°C | 2.0% | 0hPa | 2.7V | 00:00:00 | 02:02:42 | 00:00:00 | |
| PETON7-10 | 2026-08-31 13:03:58 | 45.98547 | 16.99417 | 6° | 18km/h | 31948m | 5.5m/s | -40.1°C | 2.0% | 0hPa | 2.7V | 00:00:00 | 00:00:00 | 08:30:00 | |
| PG1ADW-2 | 2026-08-31 13:03:57 | 45.98547 | 16.99416 | 42° | 18km/h | 31942m | 6.5m/s | -40.1°C | 2.0% | 0hPa | 2.6V | 00:00:00 | 00:00:00 | 00:00:00 | |
| 9A1FER-3 | 2026-08-31 13:03:54 | 45.98538 | 16.99404 | 43° | 26km/h | 31924m | 6.4m/s | -40.2°C | 2.0% | 0hPa | 2.6V | 00:00:00 | 02:02:28 | 00:00:00 | |
| 9A1FER-10 | 2026-08-31 13:03:53 | 45.98533 | 16.99399 | 40° | 18km/h | 31917m | 5.9m/s | -40.2°C | 2.0% | 0hPa | 2.6V | 00:00:00 | 02:02:27 | 00:00:00 | |
| OE8JPQ-2 | 2026-08-31 13:03:52 | 45.98528 | 16.99393 | 32° | 20km/h | 31912m | 4.8m/s | -40.2°C | 2.0% | 0hPa | 2.6V | 00:00:00 | 00:00:00 | 00:00:00 | |
| PETON7-10 | 2026-08-31 13:03:43 | 45.98489 | 16.99394 | 127° | 18km/h | 31863m | 5.1m/s | -40.3°C | 2.0% | 0hPa | 2.6V | 00:00:00 | 00:00:00 | 00:00:00 | |
| 9A1FER-3 | 2026-08-31 13:03:39 | 45.98481 | 16.99379 | 32° | 22km/h | 31841m | 5.7m/s | -40.6°C | 2.0% | 0hPa | 2.6V | 00:00:00 | 02:02:13 | 00:00:00 | |
| 9A1FER-10 | 2026-08-31 13:03:38 | 45.98475 | 16.99375 | 23° | 20km/h | 31835m | 5.9m/s | -40.7°C | 2.0% | 0hPa | 2.7V | 00:00:00 | 02:02:12 | 08:30:00 | |
| PG1ADW-2 | 2026-08-31 13:03:37 | 45.98469 | 16.99372 | 16° | 22km/h | 31829m | 5.6m/s | -40.8°C | 2.0% | 0hPa | 2.7V | 00:00:00 | 00:00:00 | 00:00:00 | |
| OE8JPQ-2 | 2026-08-31 13:03:32 | 45.98441 | 16.99363 | 15° | 18km/h | 31801m | 5.2m/s | -41.2°C | 2.2% | 0hPa | 2.7V | 00:00:00 | 02:02:06 | 00:00:00 | |
| PETON7-10 | 2026-08-31 13:03:28 | 45.98430 | 16.99367 | 333° | 20km/h | 31777m | 5.4m/s | -41.3°C | 2.2% | 0hPa | 2.7V | 00:00:00 | 02:02:02 | 00:00:00 | |
| OE5DXL-15 | 2026-08-31 13:03:27 | 45.98426 | 16.99369 | 347° | 22km/h | 31771m | 6.3m/s | -41.3°C | 2.2% | 0hPa | 2.7V | 00:00:00 | 00:00:00 | 00:00:00 | |
| 9A1FER-3 | 2026-08-31 13:03:24 | 45.98408 | 16.99371 | 355° | 24km/h | 31753m | 6.3m/s | -41.1°C | 2.2% | 0hPa | 2.7V | 00:00:00 | 02:01:58 | 00:00:00 | |
| 9A1FER-10 | 2026-08-31 13:03:23 | 45.98400 | 16.99373 | 350° | 27km/h | 31747m | 5.9m/s | -41.0°C | 2.2% | 0hPa | 2.7V | 00:00:00 | 02:01:57 | 00:00:00 | |
| DB0NH | 2026-08-31 13:03:20 | 45.98379 | 16.99379 | 354° | 20km/h | 31731m | 6.6m/s | 0°C | 0% | 0hPa | 2.7V | 00:00:00 | 02:01:54 | 00:00:00 | |
| PG1ADW-2 | 2026-08-31 13:03:17 | 45.98366 | 16.99381 | 342° | 20km/h | 31713m | 6.7m/s | -41.1°C | 2.1% | 0hPa | 2.7V | 00:00:00 | 02:01:51 | 00:00:00 | |
| PETON7-10 | 2026-08-31 13:03:13 | 45.98355 | 16.99388 | 352° | 22km/h | 31690m | 6.3m/s | -41.2°C | 2.2% | 0hPa | 2.6V | 00:00:00 | 00:00:00 | 00:00:00 | |
| OE8JPQ-2 | 2026-08-31 13:03:12 | 45.98349 | 16.99389 | 359° | 24km/h | 31684m | 5.0m/s | -41.2°C | 2.2% | 0hPa | 2.6V | 00:00:00 | 00:00:00 | 08:30:00 | |
| 9A1FER-10 | 2026-08-31 13:03:04 | 45.98298 | 16.99408 | 352° | 22km/h | 31640m | 5.8m/s | -41.1°C | 2.2% | 0hPa | 2.6V | 00:00:00 | 02:01:38 | 00:00:00 | |
| PETON7-10 | 2026-08-31 13:02:58 | 45.98278 | 16.99424 | 316° | 22km/h | 31607m | 5.3m/s | -41.1°C | 2.1% | 0hPa | 2.6V | 00:00:00 | 00:00:00 | 00:00:00 | |
| PG1ADW-2 | 2026-08-31 13:02:57 | 45.98273 | 16.99430 | 323° | 22km/h | 31601m | 6.6m/s | -41.1°C | 2.1% | 0hPa | 2.6V | 00:00:00 | 00:00:00 | 00:00:00 | |
| 9A1FER-3 | 2026-08-31 13:02:56 | 45.98267 | 16.99436 | 330° | 22km/h | 31595m | 5.6m/s | -41.0°C | 2.1% | 0hPa | 2.6V | 00:00:00 | 02:01:30 | 00:00:00 | |
| OE8JPQ-2 | 2026-08-31 13:02:52 | 45.98241 | 16.99456 | 326° | 18km/h | 31572m | 5.3m/s | -41.1°C | 2.1% | 0hPa | 2.6V | 00:00:00 | 00:00:00 | 00:00:00 | |
| DB0NH | 2026-08-31 13:02:50 | 45.98233 | 16.99464 | 335° | 16km/h | 31561m | 6.6m/s | 0°C | 0% | 0hPa | 2.6V | 00:00:00 | 02:01:24 | 00:00:00 | |
| 9A1FER-10 | 2026-08-31 13:02:49 | 45.98229 | 16.99465 | 349° | 18km/h | 31555m | 6.2m/s | -41.4°C | 2.1% | 0hPa | 2.6V | 00:00:00 | 02:01:23 | 00:00:00 | |
| PETON7-10 | 2026-08-31 13:02:43 | 45.98212 | 16.99482 | 323° | 16km/h | 31523m | 6.0m/s | -41.6°C | 2.1% | 0hPa | 2.7V | 00:00:00 | 02:01:17 | 00:00:00 | |
| 9A1FER-3 | 2026-08-31 13:02:41 | 45.98200 | 16.99491 | 337° | 15km/h | 31511m | 5.5m/s | -41.4°C | 2.1% | 0hPa | 2.7V | 00:00:00 | 02:01:15 | 08:30:00 | |
| PG1ADW-2 | 2026-08-31 13:02:37 | 45.98178 | 16.99507 | 323° | 15km/h | 31488m | 5.6m/s | -41.7°C | 2.2% | 0hPa | 2.7V | 00:00:00 | 00:00:00 | 00:00:00 | |
| 9A1FER-10 | 2026-08-31 13:02:34 | 45.98169 | 16.99517 | 337° | 13km/h | 31471m | 6.1m/s | -41.7°C | 2.2% | 0hPa | 2.7V | 00:00:00 | 02:01:08 | 00:00:00 | |
| OE8JPQ-2 | 2026-08-31 13:02:32 | 45.98164 | 16.99519 | 348° | 13km/h | 31460m | 5.7m/s | -41.8°C | 2.2% | 0hPa | 2.7V | 00:00:00 | 02:01:06 | 00:00:00 | |
| PETON7-10 | 2026-08-31 13:02:28 | 45.98157 | 16.99526 | 325° | 15km/h | 31437m | 6.3m/s | -41.9°C | 2.2% | 0hPa | 2.7V | 00:00:00 | 00:00:00 | 00:00:00 | |
| OE5DXL-15 | 2026-08-31 13:02:27 | 45.98153 | 16.99529 | 329° | 13km/h | 31431m | 5.7m/s | -41.8°C | 2.2% | 0hPa | 2.7V | 00:00:00 | 00:00:00 | 00:00:00 | |
| 9A1FER-3 | 2026-08-31 13:02:26 | 45.98149 | 16.99533 | 324° | 16km/h | 31425m | 4.8m/s | -41.8°C | 2.2% | 0hPa | 2.7V | 00:00:00 | 02:01:00 | 00:00:00 | |
| 9A1FER-10 | 2026-08-31 13:02:19 | 45.98136 | 16.99571 | 259° | 11km/h | 31386m | 5.3m/s | -42.0°C | 2.2% | 0hPa | 2.7V | 00:00:00 | 02:00:53 | 00:00:00 | |
| DB0NH | 2026-08-31 13:02:18 | 45.98137 | 16.99573 | 222° | 11km/h | 31380m | 6.6m/s | 0°C | 0% | 0hPa | 2.7V | 00:00:00 | 02:00:52 | 00:00:00 | |
| PG1ADW-2 | 2026-08-31 13:02:17 | 45.98139 | 16.99575 | 199° | 11km/h | 31373m | 6.5m/s | -42.1°C | 2.3% | 0hPa | 2.7V | 00:00:00 | 00:00:00 | 00:00:00 | |
| PETON7-10 | 2026-08-31 13:02:13 | 45.98146 | 16.99580 | 287° | 11km/h | 31352m | 6.5m/s | -42.1°C | 2.2% | 0hPa | 2.6V | 00:00:00 | 00:00:00 | 00:00:00 | |
| OE8JPQ-2 | 2026-08-31 13:02:12 | 45.98145 | 16.99582 | 308° | 11km/h | 31346m | 5.5m/s | -42.1°C | 2.2% | 0hPa | 2.6V | 00:00:00 | 00:00:00 | 00:00:00 | |
| 9A1FER-3 | 2026-08-31 13:02:11 | 45.98143 | 16.99587 | 305° | 11km/h | 31340m | 5.7m/s | -42.2°C | 2.3% | 0hPa | 2.6V | 00:00:00 | 02:00:45 | 00:00:00 | |
| 9A1FER-10 | 2026-08-31 13:02:04 | 45.98132 | 16.99619 | 195° | 9km/h | 31301m | 6.3m/s | -42.2°C | 2.3% | 0hPa | 2.6V | 00:00:00 | 02:00:38 | 00:00:00 | |
| PETON7-10 | 2026-08-31 13:01:58 | 45.98140 | 16.99612 | 13° | 9km/h | 31266m | 5.2m/s | -42.6°C | 2.3% | 0hPa | 2.6V | 00:00:00 | 02:00:32 | 00:00:00 | |
| OE5DXL-15 | 2026-08-31 13:01:57 | 45.98138 | 16.99612 | 340° | 11km/h | 31261m | 5.0m/s | -42.5°C | 2.3% | 0hPa | 2.6V | 00:00:00 | 00:00:00 | 08:30:00 | |
| 9A1FER-3 | 2026-08-31 13:01:56 | 45.98136 | 16.99614 | 322° | 11km/h | 31254m | 6.7m/s | -42.6°C | 2.3% | 0hPa | 2.6V | 00:00:00 | 02:00:30 | 00:00:00 | |
| OE8JPQ-2 | 2026-08-31 13:01:52 | 45.98130 | 16.99630 | 303° | 9km/h | 31233m | 5.6m/s | -42.9°C | 2.4% | 0hPa | 2.7V | 00:00:00 | 00:00:00 | 00:00:00 | |
| 9A1FER-10 | 2026-08-31 13:01:50 | 45.98126 | 16.99633 | 79° | 9km/h | 31216m | 5.9m/s | -42.7°C | 2.4% | 0hPa | 2.7V | 00:00:00 | 02:00:23 | 00:00:00 | |
| LZ4TU-5 | 2026-08-31 13:01:44 | 45.98133 | 16.99623 | 128° | 13km/h | 31192m | 6.8m/s | 0°C | 0% | 0hPa | 2.7V | 00:00:00 | 00:00:00 | 00:00:00 | |
| PETON7-10 | 2026-08-31 13:01:43 | 45.98136 | 16.99614 | 120° | 11km/h | 31180m | 4.8m/s | -42.8°C | 2.3% | 0hPa | 2.7V | 00:00:00 | 00:00:00 | 08:30:00 | |
| 9A1FER-3 | 2026-08-31 13:01:41 | 45.98140 | 16.99609 | 160° | 11km/h | 31168m | 6.5m/s | -42.8°C | 2.4% | 0hPa | 2.6V | 00:00:00 | 02:00:15 | 00:00:00 | |
| PG1ADW-2 | 2026-08-31 13:01:37 | 45.98145 | 16.99608 | 107° | 13km/h | 31145m | 5.6m/s | 0°C | 0% | 0hPa | 2.6V | 00:00:00 | 00:00:00 | 00:00:00 | |
| 9A1FER-10 | 2026-08-31 13:01:34 | 45.98146 | 16.99602 | 125° | 15km/h | 31127m | 6.3m/s | -42.6°C | 2.3% | 0hPa | 2.6V | 00:00:00 | 02:00:08 | 00:00:00 | |
| OE8JPQ-2 | 2026-08-31 13:01:32 | 45.98150 | 16.99595 | 129° | 18km/h | 31116m | 5.0m/s | -42.5°C | 2.3% | 0hPa | 2.6V | 00:00:00 | 02:00:06 | 00:00:00 | |
| DB0NH | 2026-08-31 13:01:28 | 45.98159 | 16.99570 | 117° | 13km/h | 31093m | 5.1m/s | 0°C | 0% | 0hPa | 2.6V | 00:00:00 | 02:00:02 | 00:00:00 | |
| OE5DXL-15 | 2026-08-31 13:01:27 | 45.98161 | 16.99565 | 127° | 20km/h | 31087m | 6.7m/s | -42.5°C | 2.2% | 0hPa | 2.6V | 00:00:00 | 02:00:01 | 00:00:00 | |
| 9A1FER-3 | 2026-08-31 13:01:26 | 45.98164 | 16.99561 | 145° | 18km/h | 31080m | 5.4m/s | -42.5°C | 2.2% | 0hPa | 2.6V | 00:00:00 | 02:00:00 | 00:00:00 | |
| LZ4TU-5 | 2026-08-31 13:01:23 | 45.98168 | 16.99558 | 151° | 7km/h | 31070m | 6.0m/s | 0°C | 0% | 0hPa | 2.6V | 00:00:00 | 00:00:00 | 00:00:00 | |
| 9A1FER-10 | 2026-08-31 13:01:19 | 45.98173 | 16.99535 | 113° | 24km/h | 31041m | 5.6m/s | -42.8°C | 2.3% | 0hPa | 2.6V | 00:00:00 | 01:59:53 | 08:30:00 | |
| PG1ADW-2 | 2026-08-31 13:01:17 | 45.98179 | 16.99522 | 127° | 24km/h | 31029m | 5.1m/s | 0°C | 0% | 0hPa | 2.7V | 00:00:00 | 00:00:00 | 08:30:00 | |
| PETON7-10 | 2026-08-31 13:01:13 | 45.98192 | 16.99493 | 114° | 24km/h | 31007m | 6.1m/s | -43.0°C | 2.4% | 0hPa | 2.7V | 00:00:00 | 01:59:47 | 00:00:00 | |
| OE8JPQ-2 | 2026-08-31 13:01:12 | 45.98194 | 16.99484 | 112° | 24km/h | 31001m | 5.6m/s | -43.0°C | 2.4% | 0hPa | 2.7V | 00:00:00 | 00:00:00 | 00:00:00 | |
| 9A1FER-3 | 2026-08-31 13:01:11 | 45.98197 | 16.99475 | 115° | 24km/h | 30995m | 5.4m/s | -42.9°C | 2.3% | 0hPa | 2.7V | 00:00:00 | 01:59:45 | 00:00:00 | |
| 9A1FER-10 | 2026-08-31 13:01:04 | 45.98215 | 16.99425 | 101° | 24km/h | 30954m | 5.2m/s | -42.9°C | 2.3% | 0hPa | 2.7V | 00:00:00 | 01:59:38 | 00:00:00 | |
| PETON7-10 | 2026-08-31 13:00:58 | 45.98219 | 16.99374 | 96° | 26km/h | 30919m | 6.1m/s | -42.8°C | 2.3% | 0hPa | 2.7V | 00:00:00 | 00:00:00 | 00:00:00 | |
| OE5DXL-15 | 2026-08-31 13:00:57 | 45.98220 | 16.99366 | 93° | 29km/h | 30913m | 6.3m/s | -42.8°C | 2.3% | 0hPa | 2.6V | 00:00:00 | 00:00:00 | 00:00:00 | |
| 9A1FER-3 | 2026-08-31 13:00:56 | 45.98220 | 16.99357 | 91° | 26km/h | 30907m | 5.2m/s | -42.8°C | 2.3% | 0hPa | 2.6V | 00:00:00 | 01:59:30 | 00:00:00 | |
| OE8JPQ-2 | 2026-08-31 13:00:52 | 45.98218 | 16.99322 | 79° | 29km/h | 30884m | 5.3m/s | -42.9°C | 2.4% | 0hPa | 2.6V | 00:00:00 | 00:00:00 | 00:00:00 | |
| 9A1FER-10 | 2026-08-31 13:00:49 | 45.98214 | 16.99296 | 81° | 29km/h | 30866m | 5.6m/s | -43.0°C | 2.4% | 0hPa | 2.6V | 00:00:00 | 01:59:23 | 00:00:00 | |
| PETON7-10 | 2026-08-31 13:00:43 | 45.98205 | 16.99240 | 78° | 31km/h | 30831m | 6.7m/s | -43.1°C | 2.4% | 0hPa | 2.6V | 00:00:00 | 00:00:00 | 00:00:00 | |
| 9A1FER-3 | 2026-08-31 13:00:41 | 45.98202 | 16.99218 | 76° | 31km/h | 30820m | 5.2m/s | -43.1°C | 2.3% | 0hPa | 2.6V | 00:00:00 | 01:59:15 | 00:00:00 | |
| OE5DRO-10 | 2026-08-31 13:00:38 | 45.98194 | 16.99186 | 66° | 31km/h | 30802m | 5.3m/s | -43.1°C | 2.3% | 0hPa | 2.6V | 00:00:00 | 00:00:00 | 00:00:00 | |
| 9A1FER-10 | 2026-08-31 13:00:34 | 45.98181 | 16.99143 | 65° | 33km/h | 30778m | 5.3m/s | -43.4°C | 2.4% | 0hPa | 2.6V | 00:00:00 | 01:59:08 | 00:00:00 | |
| OE8JPQ-2 | 2026-08-31 13:00:32 | 45.98173 | 16.99122 | 60° | 31km/h | 30766m | 5.9m/s | -43.4°C | 2.4% | 0hPa | 2.7V | 00:00:00 | 01:59:06 | 00:00:00 | |
| PETON7-10 | 2026-08-31 13:00:28 | 45.98159 | 16.99084 | 65° | 33km/h | 30742m | 5.1m/s | -43.1°C | 2.4% | 0hPa | 2.7V | 00:00:00 | 01:59:02 | 00:00:00 | |
| OE5DXL-15 | 2026-08-31 13:00:27 | 45.98155 | 16.99073 | 63° | 29km/h | 30737m | 5.7m/s | -43.1°C | 2.4% | 0hPa | 2.7V | 00:00:00 | 00:00:00 | 00:00:00 | |
| 9A1FER-3 | 2026-08-31 13:00:26 | 45.98151 | 16.99063 | 60° | 33km/h | 30731m | 6.6m/s | -43.0°C | 2.4% | 0hPa | 2.7V | 00:00:00 | 01:59:00 | 08:30:00 | |
| 9A1FER-10 | 2026-08-31 13:00:19 | 45.98118 | 16.98992 | 52° | 29km/h | 30691m | 6.6m/s | -43.1°C | 2.4% | 0hPa | 2.6V | 00:00:00 | 01:58:53 | 00:00:00 | |
| OE5DRO-10 | 2026-08-31 13:00:18 | 45.98108 | 16.98976 | 46° | 29km/h | 30680m | 4.4m/s | -43.2°C | 2.4% | 0hPa | 2.6V | 00:00:00 | 00:00:00 | 00:00:00 | |
| PETON7-10 | 2026-08-31 13:00:13 | 45.98087 | 16.98943 | 50° | 27km/h | 30658m | 5.3m/s | -43.4°C | 2.4% | 0hPa | 2.6V | 00:00:00 | 00:00:00 | 00:00:00 | |
| OE8JPQ-2 | 2026-08-31 13:00:12 | 45.98081 | 16.98934 | 49° | 26km/h | 30652m | 6.2m/s | -43.4°C | 2.4% | 0hPa | 2.7V | 00:00:00 | 00:00:00 | 08:30:00 | |
| 9A1FER-3 | 2026-08-31 13:00:11 | 45.98075 | 16.98924 | 47° | 27km/h | 30646m | 6.2m/s | -43.5°C | 2.4% | 0hPa | 2.6V | 00:00:00 | 01:58:45 | 00:00:00 | |
| 9A1FER-10 | 2026-08-31 13:00:04 | 45.98055 | 16.98867 | 71° | 24km/h | 30605m | 6.5m/s | -43.5°C | 2.4% | 0hPa | 2.6V | 00:00:00 | 01:58:38 | 00:00:00 | |
| PETON7-10 | 2026-08-31 12:59:58 | 45.98028 | 16.98821 | 44° | 22km/h | 30570m | 5.0m/s | -43.4°C | 2.4% | 0hPa | 2.6V | 00:00:00 | 00:00:00 | 00:00:00 | |
| OE5DXL-15 | 2026-08-31 12:59:57 | 45.98023 | 16.98814 | 39° | 24km/h | 30564m | 6.5m/s | -43.4°C | 2.4% | 0hPa | 2.6V | 00:00:00 | 00:00:00 | 00:00:00 | |
| 9A1FER-3 | 2026-08-31 12:59:56 | 45.98018 | 16.98810 | 32° | 24km/h | 30558m | 6.0m/s | -43.5°C | 2.5% | 0hPa | 2.6V | 00:00:00 | 01:58:30 | 00:00:00 | |
| OE8JPQ-2 | 2026-08-31 12:59:52 | 45.98006 | 16.98795 | 61° | 24km/h | 30534m | 5.0m/s | -43.4°C | 2.5% | 0hPa | 2.6V | 00:00:00 | 00:00:00 | 00:00:00 | |
| 9A1FER-10 | 2026-08-31 12:59:49 | 45.97998 | 16.98777 | 45° | 26km/h | 30519m | 6.0m/s | -43.5°C | 2.5% | 0hPa | 2.6V | 00:00:00 | 01:58:23 | 00:00:00 | |
| PETON7-10 | 2026-08-31 12:59:43 | 45.97962 | 16.98747 | 24° | 26km/h | 30483m | 6.6m/s | -43.5°C | 2.4% | 0hPa | 2.6V | 00:00:00 | 01:58:17 | 00:00:00 | |
| 9A1FER-3 | 2026-08-31 12:59:41 | 45.97947 | 16.98740 | 13° | 26km/h | 30471m | 5.2m/s | -43.4°C | 2.4% | 0hPa | 2.6V | 00:00:00 | 01:58:15 | 00:00:00 | |
| OE3JTB-15 | 2026-08-31 12:59:39 | 45.97933 | 16.98735 | 16° | 24km/h | 30459m | 6.5m/s | -43.4°C | 2.3% | 0hPa | 2.6V | 00:00:00 | 00:00:00 | 00:00:00 | |
| 9A1FER-10 | 2026-08-31 12:59:34 | 45.97908 | 16.98729 | 12° | 24km/h | 30429m | 5.1m/s | -43.5°C | 2.4% | 0hPa | 2.6V | 00:00:00 | 01:58:08 | 00:00:00 | |
| OE8JPQ-2 | 2026-08-31 12:59:32 | 45.97898 | 16.98723 | 32° | 26km/h | 30417m | 6.0m/s | -43.4°C | 2.4% | 0hPa | 2.6V | 00:00:00 | 01:58:06 | 00:00:00 | |
| PETON7-10 | 2026-08-31 12:59:28 | 45.97873 | 16.98702 | 29° | 24km/h | 30393m | 5.0m/s | -43.4°C | 2.4% | 0hPa | 2.6V | 00:00:00 | 00:00:00 | 08:30:00 | |
| OE5DXL-15 | 2026-08-31 12:59:27 | 45.97867 | 16.98696 | 32° | 22km/h | 30388m | 5.6m/s | -43.4°C | 2.4% | 0hPa | 2.6V | 00:00:00 | 00:00:00 | 00:00:00 | |
| 9A1FER-3 | 2026-08-31 12:59:26 | 45.97861 | 16.98690 | 37° | 24km/h | 30382m | 6.4m/s | -43.4°C | 2.4% | 0hPa | 2.6V | 00:00:00 | 01:58:00 | 00:00:00 | |
| PG1ADW-2 | 2026-08-31 12:59:23 | 45.97845 | 16.98673 | 30° | 22km/h | 30365m | 7.0m/s | -43.3°C | 2.4% | 0hPa | 2.6V | 00:00:00 | 00:00:00 | 00:00:00 | |
| OE5DRO-10 | 2026-08-31 12:59:22 | 45.97841 | 16.98671 | 15° | 22km/h | 30358m | 6.2m/s | -43.2°C | 2.4% | 0hPa | 2.6V | 00:00:00 | 00:00:00 | 00:00:00 | |
| 9A1FER-10 | 2026-08-31 12:59:19 | 45.97828 | 16.98668 | 17° | 24km/h | 30341m | 6.8m/s | -43.2°C | 2.4% | 0hPa | 2.6V | 00:00:00 | 01:57:53 | 00:00:00 | |
| PETON7-10 | 2026-08-31 12:59:13 | 45.97793 | 16.98646 | 26° | 20km/h | 30305m | 6.4m/s | -43.4°C | 2.4% | 0hPa | 2.6V | 00:00:00 | 00:00:00 | 00:00:00 | |
| OE8JPQ-2 | 2026-08-31 12:59:12 | 45.97786 | 16.98641 | 30° | 20km/h | 30299m | 6.0m/s | -43.4°C | 2.4% | 0hPa | 2.6V | 00:00:00 | 00:00:00 | 00:00:00 | |
| 9A1FER-3 | 2026-08-31 12:59:11 | 45.97780 | 16.98636 | 29° | 18km/h | 30294m | 4.6m/s | -43.4°C | 2.4% | 0hPa | 2.7V | 00:00:00 | 01:57:45 | 00:00:00 | |
| OE3JTB-15 | 2026-08-31 12:59:10 | 45.97774 | 16.98632 | 21° | 16km/h | 30289m | 5.3m/s | -43.4°C | 2.4% | 0hPa | 2.7V | 00:00:00 | 00:00:00 | 00:00:00 | |
| 9A1FER-10 | 2026-08-31 12:59:04 | 45.97744 | 16.98636 | 358° | 18km/h | 30252m | 5.6m/s | -43.1°C | 2.4% | 0hPa | 2.7V | 00:00:00 | 01:57:38 | 08:30:00 | |
| OE5DRO-10 | 2026-08-31 12:59:03 | 45.97740 | 16.98636 | 360° | 15km/h | 30246m | 6.2m/s | -43.2°C | 2.4% | 0hPa | 2.6V | 00:00:00 | 00:00:00 | 00:00:00 | |
| PETON7-10 | 2026-08-31 12:58:58 | 45.97722 | 16.98629 | 28° | 16km/h | 30216m | 5.2m/s | -43.2°C | 2.4% | 0hPa | 2.6V | 00:00:00 | 01:57:32 | 00:00:00 | |
| OE5DXL-15 | 2026-08-31 12:58:57 | 45.97717 | 16.98626 | 20° | 15km/h | 30211m | 5.6m/s | -43.1°C | 2.4% | 0hPa | 2.6V | 00:00:00 | 00:00:00 | 00:00:00 | |
| 9A1FER-3 | 2026-08-31 12:58:56 | 45.97712 | 16.98625 | 7° | 16km/h | 30205m | 6.6m/s | -43.0°C | 2.4% | 0hPa | 2.7V | 00:00:00 | 01:57:30 | 00:00:00 | |
| OE8JPQ-2 | 2026-08-31 12:58:52 | 45.97690 | 16.98627 | 355° | 16km/h | 30181m | 5.2m/s | -42.8°C | 2.3% | 0hPa | 2.7V | 00:00:00 | 00:00:00 | 00:00:00 | |
| 9A1FER-10 | 2026-08-31 12:58:49 | 45.97677 | 16.98631 | 339° | 16km/h | 30163m | 5.6m/s | -42.8°C | 2.3% | 0hPa | 2.7V | 00:00:00 | 01:57:23 | 00:00:00 | |
| PG1ADW-2 | 2026-08-31 12:58:43 | 45.97663 | 16.98621 | 36° | 13km/h | 30129m | 6.5m/s | -43.0°C | 2.4% | 0hPa | 2.7V | 00:00:00 | 00:00:00 | 00:00:00 | |
| 9A1FER-3 | 2026-08-31 12:58:41 | 45.97657 | 16.98619 | 358° | 13km/h | 30117m | 5.6m/s | -43.0°C | 2.4% | 0hPa | 2.7V | 00:00:00 | 01:57:15 | 00:00:00 | |
| OE3JTB-15 | 2026-08-31 12:58:40 | 45.97652 | 16.98619 | 356° | 11km/h | 30111m | 6.7m/s | -43.1°C | 2.3% | 0hPa | 2.7V | 00:00:00 | 01:57:14 | 00:00:00 | |
| 9A1FER-10 | 2026-08-31 12:58:34 | 45.97620 | 16.98630 | 320° | 9km/h | 30077m | 5.5m/s | -42.8°C | 2.3% | 0hPa | 2.7V | 00:00:00 | 01:57:08 | 00:00:00 | |
| OE8JPQ-2 | 2026-08-31 12:58:32 | 45.97617 | 16.98635 | 339° | 7km/h | 30065m | 6.7m/s | -42.8°C | 2.3% | 0hPa | 2.7V | 00:00:00 | 01:57:06 | 00:00:00 | |
| PETON7-10 | 2026-08-31 12:58:28 | 45.97616 | 16.98629 | 118° | 9km/h | 30042m | 6.0m/s | -42.5°C | 2.3% | 0hPa | 2.7V | 00:00:00 | 00:00:00 | 00:00:00 | |
| OE5DXL-15 | 2026-08-31 12:58:27 | 45.97616 | 16.98628 | 101° | 9km/h | 30036m | 4.9m/s | -42.4°C | 2.3% | 0hPa | 2.7V | 00:00:00 | 00:00:00 | 00:00:00 | |
| 9A1FER-3 | 2026-08-31 12:58:26 | 45.97616 | 16.98628 | 17° | 9km/h | 30031m | 5.7m/s | -42.4°C | 2.3% | 0hPa | 2.7V | 00:00:00 | 01:57:00 | 00:00:00 | |
| PG1ADW-2 | 2026-08-31 12:58:23 | 45.97609 | 16.98628 | 341° | 9km/h | 30013m | 5.7m/s | -42.5°C | 2.2% | 0hPa | 2.7V | 00:00:00 | 01:56:57 | 00:00:00 | |
| 9A1FER-10 | 2026-08-31 12:58:19 | 45.97598 | 16.98643 | 305° | 7km/h | 29990m | 6.0m/s | -42.8°C | 2.3% | 0hPa | 2.7V | 00:00:00 | 01:56:53 | 00:00:00 | |
| PETON7-10 | 2026-08-31 12:58:12 | 45.97599 | 16.98645 | 177° | 11km/h | 29949m | 5.5m/s | -42.7°C | 2.3% | 0hPa | 2.6V | 00:00:00 | 01:56:46 | 00:00:00 | |
| 9A1FER-3 | 2026-08-31 12:58:11 | 45.97600 | 16.98644 | 144° | 11km/h | 29943m | 6.4m/s | -42.7°C | 2.3% | 0hPa | 2.6V | 00:00:00 | 01:56:45 | 08:30:00 | |
| 9A1FER-10 | 2026-08-31 12:58:04 | 45.97595 | 16.98669 | 275° | 9km/h | 29903m | 5.8m/s | -43.0°C | 2.3% | 0hPa | 2.6V | 00:00:00 | 01:56:38 | 00:00:00 | |
| PG1ADW-2 | 2026-08-31 12:58:03 | 45.97595 | 16.98671 | 242° | 11km/h | 29898m | 4.9m/s | -43.1°C | 2.3% | 0hPa | 2.6V | 00:00:00 | 00:00:00 | 08:30:00 | |
| PETON7-10 | 2026-08-31 12:57:57 | 45.97612 | 16.98680 | 184° | 11km/h | 29864m | 6.5m/s | -43.4°C | 2.3% | 0hPa | 2.7V | 00:00:00 | 00:00:00 | 00:00:00 | |
| 9A1FER-3 | 2026-08-31 12:57:56 | 45.97614 | 16.98680 | 167° | 13km/h | 29857m | 5.9m/s | -43.6°C | 2.3% | 0hPa | 2.7V | 00:00:00 | 01:56:30 | 00:00:00 | |
| OE8JPQ-2 | 2026-08-31 12:57:52 | 45.97619 | 16.98679 | 210° | 18km/h | 29834m | 4.8m/s | -43.5°C | 2.4% | 0hPa | 2.7V | 00:00:00 | 00:00:00 | 00:00:00 | |
| 9A1FER-10 | 2026-08-31 12:57:49 | 45.97623 | 16.98679 | 174° | 20km/h | 29817m | 5.0m/s | -43.6°C | 2.4% | 0hPa | 2.7V | 00:00:00 | 01:56:23 | 00:00:00 | |
| PG1ADW-2 | 2026-08-31 12:57:43 | 45.97654 | 16.98678 | 161° | 20km/h | 29783m | 5.5m/s | -43.5°C | 2.5% | 0hPa | 2.7V | 00:00:00 | 00:00:00 | 00:00:00 | |
| PETON7-10 | 2026-08-31 12:57:42 | 45.97659 | 16.98674 | 154° | 22km/h | 29778m | 5.4m/s | -43.4°C | 2.5% | 0hPa | 2.7V | 00:00:00 | 00:00:00 | 00:00:00 | |
| 9A1FER-3 | 2026-08-31 12:57:41 | 45.97665 | 16.98670 | 154° | 22km/h | 29772m | 6.8m/s | -43.4°C | 2.4% | 0hPa | 2.7V | 00:00:00 | 01:56:15 | 00:00:00 | |
| 9A1FER-10 | 2026-08-31 12:57:34 | 45.97698 | 16.98649 | 163° | 18km/h | 29731m | 6.4m/s | -43.8°C | 2.4% | 0hPa | 2.7V | 00:00:00 | 01:56:08 | 00:00:00 | |
| OE8JPQ-2 | 2026-08-31 12:57:32 | 45.97710 | 16.98646 | 176° | 16km/h | 29720m | 4.8m/s | -43.7°C | 2.4% | 0hPa | 2.6V | 00:00:00 | 01:56:06 | 00:00:00 | |
| OE3JTB-15 | 2026-08-31 12:57:31 | 45.97716 | 16.98645 | 174° | 13km/h | 29715m | 5.2m/s | -43.7°C | 2.4% | 0hPa | 2.6V | 00:00:00 | 00:00:00 | 00:00:00 | |
| OE5DXL-15 | 2026-08-31 12:57:27 | 45.97736 | 16.98633 | 145° | 11km/h | 29692m | 6.2m/s | -43.4°C | 2.4% | 0hPa | 2.6V | 00:00:00 | 00:00:00 | 08:30:00 | |
| 9A1FER-3 | 2026-08-31 12:57:26 | 45.97740 | 16.98630 | 147° | 13km/h | 29686m | 6.0m/s | -43.3°C | 2.4% | 0hPa | 2.6V | 00:00:00 | 01:56:00 | 00:00:00 | |
| PG1ADW-2 | 2026-08-31 12:57:23 | 45.97747 | 16.98622 | 135° | 11km/h | 29669m | 6.9m/s | -43.2°C | 2.3% | 0hPa | 2.7V | 00:00:00 | 00:00:00 | 00:00:00 | |
| 9A1FER-10 | 2026-08-31 12:57:19 | 45.97759 | 16.98606 | 158° | 9km/h | 29646m | 6.2m/s | -43.5°C | 2.4% | 0hPa | 2.7V | 00:00:00 | 01:55:53 | 00:00:00 | |
| OE5DRO-10 | 2026-08-31 12:57:13 | 45.97777 | 16.98596 | 147° | 11km/h | 29613m | 5.1m/s | -43.7°C | 2.4% | 0hPa | 2.7V | 00:00:00 | 00:00:00 | 00:00:00 | |
| OE8JPQ-2 | 2026-08-31 12:57:12 | 45.97779 | 16.98594 | 155° | 7km/h | 29607m | 6.4m/s | -43.7°C | 2.4% | 0hPa | 2.7V | 00:00:00 | 00:00:00 | 08:30:00 | |
| 9A1FER-3 | 2026-08-31 12:57:11 | 45.97781 | 16.98593 | 164° | 7km/h | 29601m | 5.6m/s | -43.8°C | 2.4% | 0hPa | 2.7V | 00:00:00 | 01:55:45 | 00:00:00 | |
| 9A1FER-10 | 2026-08-31 12:57:05 | 45.97784 | 16.98577 | 50° | 9km/h | 29561m | 5.5m/s | -44.2°C | 2.4% | 0hPa | 2.7V | 00:00:00 | 01:55:38 | 00:00:00 | |
| PG1ADW-2 | 2026-08-31 12:57:03 | 45.97783 | 16.98576 | 49° | 13km/h | 29555m | 5.5m/s | -44.2°C | 2.4% | 0hPa | 2.7V | 00:00:00 | 01:55:37 | 00:00:00 | |
| OE3JTB-15 | 2026-08-31 12:57:02 | 45.97782 | 16.98574 | 75° | 13km/h | 29549m | 6.7m/s | -44.2°C | 2.4% | 0hPa | 2.6V | 00:00:00 | 01:55:36 | 00:00:00 | |
| DO3MHA-11 | 2026-08-31 12:57:01 | 45.97782 | 16.98571 | 99° | 9km/h | 29543m | 5.8m/s | -44.1°C | 2.4% | 0hPa | 2.6V | 00:00:00 | 01:55:35 | 00:00:00 | |
| PETON7-10 | 2026-08-31 12:56:57 | 45.97783 | 16.98562 | 36° | 15km/h | 29519m | 5.8m/s | -44.3°C | 2.5% | 0hPa | 2.6V | 00:00:00 | 00:00:00 | 00:00:00 | |
| 9A1FER-3 | 2026-08-31 12:56:56 | 45.97782 | 16.98562 | 33° | 16km/h | 29513m | 6.3m/s | -44.4°C | 2.5% | 0hPa | 2.6V | 00:00:00 | 01:55:30 | 00:00:00 | |
| OE8JPQ-2 | 2026-08-31 12:56:52 | 45.97773 | 16.98554 | 17° | 18km/h | 29489m | 6.8m/s | -44.3°C | 2.5% | 0hPa | 2.6V | 00:00:00 | 00:00:00 | 00:00:00 | |
| DO3MHA-11 | 2026-08-31 12:56:51 | 45.97769 | 16.98553 | 15° | 18km/h | 29483m | 5.5m/s | -44.3°C | 2.5% | 0hPa | 2.6V | 00:00:00 | 01:55:25 | 00:00:00 | |
| 9A1FER-10 | 2026-08-31 12:56:49 | 45.97760 | 16.98548 | 29° | 18km/h | 29471m | 6.7m/s | -44.4°C | 2.5% | 0hPa | 2.6V | 00:00:00 | 01:55:23 | 08:30:00 | |
| PG1ADW-2 | 2026-08-31 12:56:43 | 45.97736 | 16.98529 | 20° | 16km/h | 29436m | 5.8m/s | -44.5°C | 2.5% | 0hPa | 2.7V | 00:00:00 | 00:00:00 | 00:00:00 | |
| PETON7-10 | 2026-08-31 12:56:42 | 45.97731 | 16.98527 | 25° | 18km/h | 29430m | 6.7m/s | -44.5°C | 2.5% | 0hPa | 2.7V | 00:00:00 | 01:55:16 | 00:00:00 | |
| DO3MHA-11 | 2026-08-31 12:56:41 | 45.97727 | 16.98524 | 24° | 18km/h | 29424m | 5.4m/s | -44.4°C | 2.5% | 0hPa | 2.7V | 00:00:00 | 01:55:15 | 00:00:00 | |
| 9A1FER-10 | 2026-08-31 12:56:34 | 45.97698 | 16.98511 | 46° | 13km/h | 29384m | 4.8m/s | -44.3°C | 2.5% | 0hPa | 2.7V | 00:00:00 | 01:55:08 | 00:00:00 | |
| OE3JTB-15 | 2026-08-31 12:56:33 | 45.97695 | 16.98507 | 43° | 13km/h | 29378m | 6.6m/s | -44.3°C | 2.5% | 0hPa | 2.7V | 00:00:00 | 00:00:00 | 00:00:00 | |
| OE8JPQ-2 | 2026-08-31 12:56:32 | 45.97692 | 16.98503 | 35° | 11km/h | 29371m | 6.1m/s | -44.4°C | 2.5% | 0hPa | 2.6V | 00:00:00 | 01:55:06 | 00:00:00 | |
| DO3MHA-11 | 2026-08-31 12:56:31 | 45.97688 | 16.98500 | 28° | 15km/h | 29366m | 5.2m/s | -44.4°C | 2.5% | 0hPa | 2.6V | 00:00:00 | 01:55:05 | 00:00:00 | |
| OE5DXL-15 | 2026-08-31 12:56:27 | 45.97675 | 16.98487 | 40° | 11km/h | 29342m | 5.6m/s | -44.2°C | 2.5% | 0hPa | 2.6V | 00:00:00 | 00:00:00 | 00:00:00 | |
| 9A1FER-3 | 2026-08-31 12:56:26 | 45.97672 | 16.98484 | 28° | 11km/h | 29336m | 6.7m/s | -44.2°C | 2.5% | 0hPa | 2.6V | 00:00:00 | 01:55:00 | 00:00:00 | |
| PG1ADW-2 | 2026-08-31 12:56:23 | 45.97663 | 16.98483 | 359° | 11km/h | 29319m | 5.3m/s | -44.3°C | 2.5% | 0hPa | 2.6V | 00:00:00 | 00:00:00 | 00:00:00 | |
| DO3MHA-11 | 2026-08-31 12:56:21 | 45.97658 | 16.98481 | 36° | 15km/h | 29307m | 5.4m/s | -44.3°C | 2.5% | 0hPa | 2.6V | 00:00:00 | 01:54:55 | 00:00:00 | |
| 9A1FER-10 | 2026-08-31 12:56:19 | 45.97656 | 16.98477 | 53° | 13km/h | 29296m | 6.1m/s | -44.2°C | 2.5% | 0hPa | 2.6V | 00:00:00 | 01:54:53 | 00:00:00 | |
| PETON7-10 | 2026-08-31 12:56:12 | 45.97643 | 16.98461 | 46° | 13km/h | 29253m | 6.6m/s | -44.5°C | 2.6% | 0hPa | 2.6V | 00:00:00 | 00:00:00 | 00:00:00 | |
| 9A1FER-3 | 2026-08-31 12:56:11 | 45.97640 | 16.98457 | 38° | 11km/h | 29247m | 6.0m/s | -44.4°C | 2.5% | 0hPa | 2.6V | 00:00:00 | 01:54:45 | 00:00:00 | |
| 9A1FER-10 | 2026-08-31 12:56:04 | 45.97627 | 16.98429 | 121° | 9km/h | 29205m | 5.1m/s | -44.2°C | 2.5% | 0hPa | 2.6V | 00:00:00 | 01:54:38 | 00:00:00 | |
| PG1ADW-2 | 2026-08-31 12:56:03 | 45.97629 | 16.98427 | 137° | 7km/h | 29199m | 6.5m/s | -44.2°C | 2.4% | 0hPa | 2.7V | 00:00:00 | 00:00:00 | 00:00:00 | |
| DO3MHA-12 | 2026-08-31 12:55:59 | 45.97634 | 16.98414 | 97° | 9km/h | 29177m | 6.5m/s | 0°C | 0% | 0hPa | 2.7V | 00:00:00 | 01:54:33 | 00:00:00 | |
| DO3MHA-11 | 2026-08-31 12:55:57 | 45.97632 | 16.98408 | 47° | 9km/h | 29164m | 5.7m/s | -44.3°C | 2.5% | 0hPa | 2.7V | 00:00:00 | 01:54:31 | 00:00:00 | |
| 9A1FER-3 | 2026-08-31 12:55:56 | 45.97631 | 16.98406 | 43° | 7km/h | 29158m | 5.9m/s | -44.2°C | 2.5% | 0hPa | 2.7V | 00:00:00 | 01:54:30 | 08:30:00 | |
| OE8JPQ-2 | 2026-08-31 12:55:52 | 45.97623 | 16.98397 | 18° | 11km/h | 29134m | 7.0m/s | -44.0°C | 2.4% | 0hPa | 2.7V | 00:00:00 | 00:00:00 | 00:00:00 | |
| DO3MHA-12 | 2026-08-31 12:55:49 | 45.97618 | 16.98396 | 17° | 9km/h | 29117m | 6.8m/s | 0°C | 0% | 0hPa | 2.7V | 00:00:00 | 01:54:23 | 00:00:00 | |
| DO3MHA-11 | 2026-08-31 12:55:47 | 45.97616 | 16.98393 | 93° | 9km/h | 29105m | 5.0m/s | 0°C | 0% | 0hPa | 2.7V | 00:00:00 | 01:54:21 | 00:00:00 | |
| PG1ADW-2 | 2026-08-31 12:55:43 | 45.97615 | 16.98392 | 333° | 13km/h | 29082m | 5.3m/s | -44.3°C | 2.4% | 0hPa | 2.7V | 00:00:00 | 01:54:17 | 00:00:00 | |
| PETON7-10 | 2026-08-31 12:55:42 | 45.97613 | 16.98393 | 350° | 15km/h | 29076m | 6.3m/s | -44.4°C | 2.4% | 0hPa | 2.7V | 00:00:00 | 00:00:00 | 00:00:00 | |
| 9A1FER-3 | 2026-08-31 12:55:41 | 45.97610 | 16.98393 | 8° | 15km/h | 29069m | 6.4m/s | -44.5°C | 2.5% | 0hPa | 2.6V | 00:00:00 | 01:54:15 | 00:00:00 | |
| DO3MHA-11 | 2026-08-31 12:55:37 | 45.97595 | 16.98391 | 357° | 13km/h | 29046m | 5.5m/s | 0°C | 0% | 0hPa | 2.6V | 00:00:00 | 01:54:11 | 08:30:00 | |
| OE3JTB-15 | 2026-08-31 12:55:35 | 45.97587 | 16.98391 | 8° | 13km/h | 29034m | 6.9m/s | -44.5°C | 2.5% | 0hPa | 2.6V | 00:00:00 | 01:54:09 | 00:00:00 | |
| 9A1FER-10 | 2026-08-31 12:55:34 | 45.97583 | 16.98390 | 13° | 13km/h | 29028m | 5.7m/s | -44.5°C | 2.5% | 0hPa | 2.6V | 00:00:00 | 01:54:08 | 00:00:00 | |
| OE8JPQ-2 | 2026-08-31 12:55:32 | 45.97575 | 16.98388 | 360° | 13km/h | 29016m | 6.5m/s | -44.5°C | 2.5% | 0hPa | 2.6V | 00:00:00 | 01:54:06 | 00:00:00 | |
| DO3MHA-11 | 2026-08-31 12:55:27 | 45.97562 | 16.98384 | 49° | 13km/h | 28986m | 5.9m/s | 0°C | 0% | 0hPa | 2.6V | 00:00:00 | 01:54:01 | 00:00:00 | |
| 9A1FER-3 | 2026-08-31 12:55:26 | 45.97560 | 16.98382 | 43° | 13km/h | 28980m | 6.5m/s | -44.5°C | 2.6% | 0hPa | 2.6V | 00:00:00 | 01:54:00 | 00:00:00 | |
| PG1ADW-2 | 2026-08-31 12:55:23 | 45.97554 | 16.98373 | 52° | 15km/h | 28963m | 7.0m/s | -44.5°C | 2.5% | 0hPa | 2.6V | 00:00:00 | 00:00:00 | 00:00:00 | |
| 9A1FER-10 | 2026-08-31 12:55:19 | 45.97543 | 16.98355 | 38° | 13km/h | 28938m | 5.8m/s | -44.8°C | 2.5% | 0hPa | 2.6V | 00:00:00 | 01:53:53 | 00:00:00 | |
| DO3MHA-11 | 2026-08-31 12:55:17 | 45.97538 | 16.98349 | 42° | 13km/h | 28927m | 6.5m/s | 0°C | 0% | 0hPa | 2.7V | 00:00:00 | 01:53:51 | 00:00:00 | |
| DO3MHA-12 | 2026-08-31 12:55:13 | 45.97532 | 16.98333 | 68° | 11km/h | 28904m | 6.7m/s | 0°C | 0% | 0hPa | 2.7V | 00:00:00 | 01:53:47 | 00:00:00 | |
| PETON7-10 | 2026-08-31 12:55:12 | 45.97531 | 16.98330 | 66° | 13km/h | 28897m | 5.5m/s | -44.6°C | 2.5% | 0hPa | 2.7V | 00:00:00 | 01:53:46 | 00:00:00 | |
| 9A1FER-3 | 2026-08-31 12:55:11 | 45.97530 | 16.98327 | 71° | 13km/h | 28892m | 5.3m/s | -44.7°C | 2.5% | 0hPa | 2.7V | 00:00:00 | 01:53:45 | 00:00:00 | |
| DO3MHA-11 | 2026-08-31 12:55:07 | 45.97525 | 16.98305 | 66° | 16km/h | 28869m | 6.0m/s | 0°C | 0% | 0hPa | 2.7V | 00:00:00 | 01:53:41 | 00:00:00 | |
| OE3JTB-15 | 2026-08-31 12:55:06 | 45.97523 | 16.98300 | 54° | 16km/h | 28863m | 6.2m/s | -44.8°C | 2.5% | 0hPa | 2.7V | 00:00:00 | 00:00:00 | 00:00:00 | |
| PG1ADW-2 | 2026-08-31 12:55:03 | 45.97517 | 16.98293 | 36° | 16km/h | 28846m | 6.5m/s | -45.0°C | 2.6% | 0hPa | 2.7V | 00:00:00 | 00:00:00 | 08:30:00 | |
| PETON7-10 | 2026-08-31 12:54:57 | 45.97505 | 16.98274 | 43° | 18km/h | 28811m | 5.4m/s | -45.2°C | 2.6% | 0hPa | 2.7V | 00:00:00 | 00:00:00 | 08:30:00 | |
| DO3MHA-11 | 2026-08-31 12:54:56 | 45.97502 | 16.98270 | 49° | 20km/h | 28805m | 6.9m/s | 0°C | 0% | 0hPa | 2.6V | 00:00:00 | 01:53:30 | 00:00:00 | |
| OE8JPQ-2 | 2026-08-31 12:54:52 | 45.97487 | 16.98251 | 27° | 16km/h | 28781m | 5.8m/s | -45.1°C | 2.6% | 0hPa | 2.6V | 00:00:00 | 00:00:00 | 00:00:00 | |
| DO3MHA-11 | 2026-08-31 12:54:46 | 45.97460 | 16.98233 | 18° | 16km/h | 28747m | 6.4m/s | 0°C | 0% | 0hPa | 2.6V | 00:00:00 | 01:53:20 | 00:00:00 | |
| OE5DRO-10 | 2026-08-31 12:54:44 | 45.97452 | 16.98229 | 19° | 15km/h | 28736m | 5.1m/s | -45.5°C | 2.6% | 0hPa | 2.6V | 00:00:00 | 00:00:00 | 00:00:00 | |
| PG1ADW-2 | 2026-08-31 12:54:43 | 45.97447 | 16.98227 | 29° | 13km/h | 28730m | 6.7m/s | -45.5°C | 2.6% | 0hPa | 2.6V | 00:00:00 | 00:00:00 | 00:00:00 | |
| PETON7-10 | 2026-08-31 12:54:42 | 45.97444 | 16.98223 | 41° | 11km/h | 28724m | 5.6m/s | -45.4°C | 2.6% | 0hPa | 2.6V | 00:00:00 | 00:00:00 | 00:00:00 | |
| 9A1FER-3 | 2026-08-31 12:54:41 | 45.97440 | 16.98218 | 47° | 11km/h | 28718m | 5.3m/s | -45.5°C | 2.6% | 0hPa | 2.6V | 00:00:00 | 01:53:15 | 00:00:00 | |
| 9A1FER-10 | 2026-08-31 12:54:37 | 45.97431 | 16.98204 | 55° | 11km/h | 28694m | 6.6m/s | -45.7°C | 2.6% | 0hPa | 2.6V | 00:00:00 | 01:53:11 | 00:00:00 | |
| DO3MHA-11 | 2026-08-31 12:54:36 | 45.97429 | 16.98200 | 60° | 9km/h | 28688m | 5.5m/s | 0°C | 0% | 0hPa | 2.6V | 00:00:00 | 01:53:10 | 00:00:00 | |
| OE8JPQ-2 | 2026-08-31 12:54:32 | 45.97423 | 16.98192 | 1° | 9km/h | 28665m | 5.0m/s | -45.6°C | 2.6% | 0hPa | 2.6V | 00:00:00 | 01:53:06 | 00:00:00 | |
| OE5DXL-15 | 2026-08-31 12:54:28 | 45.97415 | 16.98181 | 61° | 11km/h | 28636m | 6.2m/s | -45.6°C | 2.7% | 0hPa | 2.6V | 00:00:00 | 00:00:00 | 00:00:00 | |
| DO3MHA-11 | 2026-08-31 12:54:26 | 45.97414 | 16.98177 | 70° | 11km/h | 28630m | 4.7m/s | 0°C | 0% | 0hPa | 2.6V | 00:00:00 | 01:53:00 | 00:00:00 | |
| OE5DRO-10 | 2026-08-31 12:54:25 | 45.97413 | 16.98173 | 77° | 16km/h | 28625m | 5.1m/s | -45.8°C | 2.7% | 0hPa | 2.6V | 00:00:00 | 00:00:00 | 00:00:00 | |
| PG1ADW-2 | 2026-08-31 12:54:23 | 45.97412 | 16.98161 | 84° | 11km/h | 28613m | 5.3m/s | -45.9°C | 2.7% | 0hPa | 2.6V | 00:00:00 | 01:52:57 | 00:00:00 | |
| 9A1FER-10 | 2026-08-31 12:54:22 | 45.97411 | 16.98154 | 83° | 9km/h | 28609m | 4.3m/s | -45.9°C | 2.8% | 0hPa | 2.6V | 00:00:00 | 01:52:56 | 00:00:00 | |
| DO3MHA-11 | 2026-08-31 12:54:16 | 45.97407 | 16.98140 | 71° | 11km/h | 28575m | 5.5m/s | 0°C | 0% | 0hPa | 2.6V | 00:00:00 | 01:52:50 | 00:00:00 | |
| PETON7-10 | 2026-08-31 12:54:12 | 45.97408 | 16.98131 | 119° | 13km/h | 28552m | 4.8m/s | -45.6°C | 2.6% | 0hPa | 2.6V | 00:00:00 | 00:00:00 | 00:00:00 | |
| 9A1FER-3 | 2026-08-31 12:54:11 | 45.97409 | 16.98128 | 111° | 13km/h | 28547m | 5.3m/s | -45.6°C | 2.6% | 0hPa | 2.6V | 00:00:00 | 01:52:45 | 00:00:00 | |
| OE3JTB-15 | 2026-08-31 12:54:08 | 45.97410 | 16.98113 | 90° | 15km/h | 28530m | 5.0m/s | -45.5°C | 2.5% | 0hPa | 2.6V | 00:00:00 | 01:52:42 | 00:00:00 | |
| PG1ADW-2 | 2026-08-31 12:54:03 | 45.97405 | 16.98091 | 67° | 15km/h | 28502m | 6.1m/s | -45.6°C | 2.6% | 0hPa | 2.6V | 00:00:00 | 00:00:00 | 00:00:00 | |
| OE5DRO-10 | 2026-08-31 12:53:58 | 45.97404 | 16.98069 | 104° | 15km/h | 28475m | 4.9m/s | -45.9°C | 2.7% | 0hPa | 2.6V | 00:00:00 | 00:00:00 | 00:00:00 | |
| PETON7-10 | 2026-08-31 12:53:57 | 45.97405 | 16.98064 | 104° | 15km/h | 28469m | 6.7m/s | -45.8°C | 2.7% | 0hPa | 2.6V | 00:00:00 | 00:00:00 | 00:00:00 | |
| 9A1FER-3 | 2026-08-31 12:53:56 | 45.97406 | 16.98056 | 101° | 15km/h | 28463m | 5.3m/s | -45.9°C | 2.7% | 0hPa | 2.6V | 00:00:00 | 01:52:30 | 00:00:00 | |
| OE8JPQ-2 | 2026-08-31 12:53:52 | 45.97410 | 16.98026 | 103° | 13km/h | 28441m | 5.5m/s | -45.8°C | 2.6% | 0hPa | 2.6V | 00:00:00 | 00:00:00 | 00:00:00 | |
| DO3MHA-11 | 2026-08-31 12:53:45 | 45.97414 | 16.97997 | 84° | 9km/h | 28402m | 4.4m/s | 0°C | 0% | 0hPa | 2.6V | 00:00:00 | 01:52:19 | 00:00:00 | |
| PG1ADW-2 | 2026-08-31 12:53:43 | 45.97414 | 16.97991 | 91° | 11km/h | 28391m | 6.2m/s | -45.8°C | 2.6% | 0hPa | 2.6V | 00:00:00 | 00:00:00 | 00:00:00 | |
| PETON7-10 | 2026-08-31 12:53:41 | 45.97415 | 16.97980 | 98° | 11km/h | 28381m | 4.2m/s | -46.0°C | 2.7% | 0hPa | 2.6V | 00:00:00 | 01:52:15 | 00:00:00 | |
| OE3JTB-15 | 2026-08-31 12:53:39 | 45.97416 | 16.97970 | 93° | 9km/h | 28370m | 6.0m/s | -46.0°C | 2.7% | 0hPa | 2.6V | 00:00:00 | 00:00:00 | 08:30:00 | |
| OE8JPQ-2 | 2026-08-31 12:53:32 | 45.97406 | 16.97945 | 44° | 9km/h | 28331m | 6.6m/s | -46.0°C | 2.6% | 0hPa | 2.7V | 00:00:00 | 01:52:06 | 00:00:00 | |
| OE5DXL-15 | 2026-08-31 12:53:27 | 45.97395 | 16.97934 | 36° | 7km/h | 28303m | 5.2m/s | -46.1°C | 2.6% | 0hPa | 2.7V | 00:00:00 | 00:00:00 | 00:00:00 | |
| 9A1FER-3 | 2026-08-31 12:53:26 | 45.97393 | 16.97932 | 21° | 7km/h | 28296m | 6.4m/s | -46.2°C | 2.7% | 0hPa | 2.7V | 00:00:00 | 01:52:00 | 00:00:00 | |
| PG1ADW-2 | 2026-08-31 12:53:23 | 45.97388 | 16.97929 | 45° | 7km/h | 28280m | 6.5m/s | -46.4°C | 2.7% | 0hPa | 2.7V | 00:00:00 | 00:00:00 | 00:00:00 | |
| OE8JPQ-2 | 2026-08-31 12:53:12 | 45.97373 | 16.97908 | 7° | 9km/h | 28217m | 5.6m/s | -46.7°C | 2.8% | 0hPa | 2.7V | 00:00:00 | 00:00:00 | 00:00:00 | |
| 9A1FER-3 | 2026-08-31 12:53:11 | 45.97372 | 16.97907 | 42° | 7km/h | 28210m | 6.6m/s | -46.7°C | 2.8% | 0hPa | 2.6V | 00:00:00 | 01:51:45 | 00:00:00 | |
| OE3JTB-15 | 2026-08-31 12:53:10 | 45.97371 | 16.97905 | 56° | 11km/h | 28205m | 5.0m/s | -46.6°C | 2.8% | 0hPa | 2.6V | 00:00:00 | 00:00:00 | 00:00:00 | |
| PG1ADW-2 | 2026-08-31 12:53:03 | 45.97362 | 16.97888 | 78° | 11km/h | 28166m | 5.1m/s | -46.6°C | 2.8% | 0hPa | 2.6V | 00:00:00 | 01:51:37 | 00:00:00 | |
| OE5DXL-15 | 2026-08-31 12:52:57 | 45.97363 | 16.97872 | 108° | 9km/h | 28132m | 5.2m/s | -46.7°C | 2.8% | 0hPa | 2.6V | 00:00:00 | 00:00:00 | 08:30:00 | |
| PETON7-10 | 2026-08-31 12:52:56 | 45.97364 | 16.97868 | 117° | 13km/h | 28126m | 6.1m/s | -46.7°C | 2.8% | 0hPa | 2.6V | 00:00:00 | 01:51:30 | 00:00:00 | |
| OE8JPQ-2 | 2026-08-31 12:52:52 | 45.97371 | 16.97851 | 125° | 11km/h | 28103m | 4.7m/s | -46.6°C | 2.8% | 0hPa | 2.6V | 00:00:00 | 00:00:00 | 00:00:00 | |
| PG1ADW-2 | 2026-08-31 12:52:43 | 45.97392 | 16.97822 | 110° | 7km/h | 28053m | 6.2m/s | -46.7°C | 2.8% | 0hPa | 2.6V | 00:00:00 | 00:00:00 | 00:00:00 | |
| 9A1FER-3 | 2026-08-31 12:52:41 | 45.97392 | 16.97819 | 86° | 7km/h | 28042m | 5.8m/s | -46.7°C | 2.7% | 0hPa | 2.6V | 00:00:00 | 01:51:15 | 00:00:00 | |
| 9A1FER-10 | 2026-08-31 12:52:37 | 45.97393 | 16.97806 | 123° | 7km/h | 28018m | 6.1m/s | -46.7°C | 2.7% | 0hPa | 2.6V | 00:00:00 | 01:51:11 | 08:30:00 | |
| OE8JPQ-2 | 2026-08-31 12:52:32 | 45.97402 | 16.97795 | 140° | 11km/h | 27991m | 5.3m/s | -46.8°C | 2.8% | 0hPa | 2.7V | 00:00:00 | 01:51:06 | 00:00:00 | |
| OE5DXL-15 | 2026-08-31 12:52:27 | 45.97404 | 16.97789 | 89° | 13km/h | 27962m | 5.4m/s | -47.0°C | 2.8% | 0hPa | 2.7V | 00:00:00 | 00:00:00 | 00:00:00 | |
| 9A1FER-3 | 2026-08-31 12:52:26 | 45.97404 | 16.97786 | 91° | 13km/h | 27956m | 5.8m/s | -46.9°C | 2.8% | 0hPa | 2.7V | 00:00:00 | 01:51:00 | 00:00:00 | |
| PETON7-10 | 2026-08-31 12:52:25 | 45.97405 | 16.97783 | 105° | 13km/h | 27950m | 5.7m/s | -46.8°C | 2.8% | 0hPa | 2.7V | 00:00:00 | 00:00:00 | 00:00:00 | |
| PG1ADW-2 | 2026-08-31 12:52:23 | 45.97407 | 16.97776 | 120° | 13km/h | 27939m | 6.6m/s | -46.9°C | 2.8% | 0hPa | 2.7V | 00:00:00 | 00:00:00 | 00:00:00 | |
| 9A1FER-10 | 2026-08-31 12:52:22 | 45.97409 | 16.97771 | 122° | 13km/h | 27933m | 5.8m/s | -46.8°C | 2.8% | 0hPa | 2.7V | 00:00:00 | 01:50:56 | 00:00:00 | |
| OE8JPQ-2 | 2026-08-31 12:52:12 | 45.97422 | 16.97732 | 87° | 13km/h | 27877m | 6.3m/s | -46.9°C | 2.8% | 0hPa | 2.7V | 00:00:00 | 00:00:00 | 00:00:00 | |
| 9A1FER-3 | 2026-08-31 12:52:11 | 45.97422 | 16.97729 | 88° | 13km/h | 27872m | 5.4m/s | -46.9°C | 2.8% | 0hPa | 2.7V | 00:00:00 | 01:50:45 | 00:00:00 | |
| PETON7-10 | 2026-08-31 12:52:10 | 45.97422 | 16.97725 | 93° | 13km/h | 27866m | 5.4m/s | -46.8°C | 2.8% | 0hPa | 2.6V | 00:00:00 | 01:50:44 | 00:00:00 | |
| 9A1FER-10 | 2026-08-31 12:52:07 | 45.97425 | 16.97711 | 113° | 13km/h | 27849m | 5.7m/s | -46.9°C | 2.8% | 0hPa | 2.6V | 00:00:00 | 01:50:41 | 00:00:00 | |
| PG1ADW-2 | 2026-08-31 12:52:03 | 45.97432 | 16.97696 | 124° | 11km/h | 27825m | 6.5m/s | -47.0°C | 2.8% | 0hPa | 2.6V | 00:00:00 | 00:00:00 | 08:30:00 | |
| OE5DXL-15 | 2026-08-31 12:51:57 | 45.97435 | 16.97669 | 66° | 7km/h | 27792m | 6.4m/s | -47.0°C | 2.8% | 0hPa | 2.7V | 00:00:00 | 00:00:00 | 00:00:00 | |
| 9A1FER-3 | 2026-08-31 12:51:56 | 45.97434 | 16.97664 | 67° | 7km/h | 27786m | 5.4m/s | -47.0°C | 2.7% | 0hPa | 2.7V | 00:00:00 | 01:50:30 | 00:00:00 | |
| PETON7-10 | 2026-08-31 12:51:55 | 45.97432 | 16.97660 | 64° | 7km/h | 27780m | 5.3m/s | -46.9°C | 2.8% | 0hPa | 2.7V | 00:00:00 | 00:00:00 | 00:00:00 | |
| OE8JPQ-2 | 2026-08-31 12:51:52 | 45.97428 | 16.97650 | 72° | 5km/h | 27763m | 5.0m/s | -46.9°C | 2.8% | 0hPa | 2.7V | 00:00:00 | 00:00:00 | 00:00:00 | |
| PG1ADW-2 | 2026-08-31 12:51:43 | 45.97430 | 16.97629 | 71° | 7km/h | 27712m | 5.0m/s | -47.1°C | 2.8% | 0hPa | 2.7V | 00:00:00 | 01:50:17 | 00:00:00 | |
| 9A1FER-3 | 2026-08-31 12:51:41 | 45.97428 | 16.97626 | 26° | 7km/h | 27700m | 5.4m/s | -47.1°C | 2.8% | 0hPa | 2.7V | 00:00:00 | 01:50:15 | 00:00:00 | |
| PETON7-10 | 2026-08-31 12:51:40 | 45.97427 | 16.97625 | 34° | 7km/h | 27694m | 4.8m/s | -47.2°C | 2.9% | 0hPa | 2.7V | 00:00:00 | 00:00:00 | 00:00:00 | |
| 9A1FER-10 | 2026-08-31 12:51:37 | 45.97425 | 16.97619 | 87° | 9km/h | 27678m | 4.7m/s | -47.3°C | 2.8% | 0hPa | 2.7V | 00:00:00 | 01:50:11 | 00:00:00 | |
| OE8JPQ-2 | 2026-08-31 12:51:32 | 45.97423 | 16.97608 | 78° | 15km/h | 27649m | 5.7m/s | -47.3°C | 2.8% | 0hPa | 2.7V | 00:00:00 | 01:50:06 | 00:00:00 | |
| OE5DXL-15 | 2026-08-31 12:51:27 | 45.97417 | 16.97593 | 60° | 13km/h | 27622m | 5.3m/s | -47.3°C | 2.9% | 0hPa | 2.7V | 00:00:00 | 00:00:00 | 00:00:00 | |
| 9A1FER-3 | 2026-08-31 12:51:26 | 45.97416 | 16.97590 | 80° | 16km/h | 27616m | 6.5m/s | -47.4°C | 2.9% | 0hPa | 2.7V | 00:00:00 | 01:50:00 | 08:30:00 | |
| PETON7-10 | 2026-08-31 12:51:25 | 45.97416 | 16.97586 | 89° | 16km/h | 27610m | 5.2m/s | -47.4°C | 2.9% | 0hPa | 2.6V | 00:00:00 | 01:49:59 | 00:00:00 | |
| PG1ADW-2 | 2026-08-31 12:51:23 | 45.97415 | 16.97577 | 75° | 15km/h | 27599m | 6.4m/s | -47.5°C | 2.9% | 0hPa | 2.6V | 00:00:00 | 00:00:00 | 00:00:00 | |
| 9A1FER-10 | 2026-08-31 12:51:22 | 45.97414 | 16.97571 | 69° | 15km/h | 27593m | 4.9m/s | -47.6°C | 2.9% | 0hPa | 2.6V | 00:00:00 | 01:49:56 | 00:00:00 | |
| OE3JTB-15 | 2026-08-31 12:51:14 | 45.97402 | 16.97525 | 66° | 11km/h | 27549m | 6.1m/s | -47.6°C | 2.9% | 0hPa | 2.6V | 00:00:00 | 01:49:48 | 00:00:00 | |
| OE8JPQ-2 | 2026-08-31 12:51:12 | 45.97401 | 16.97513 | 89° | 11km/h | 27538m | 4.6m/s | -47.6°C | 2.9% | 0hPa | 2.6V | 00:00:00 | 00:00:00 | 08:30:00 | |
| 9A1FER-3 | 2026-08-31 12:51:11 | 45.97401 | 16.97508 | 94° | 11km/h | 27533m | 4.9m/s | -47.6°C | 2.8% | 0hPa | 2.6V | 00:00:00 | 01:49:45 | 00:00:00 | |
| 9A1FER-10 | 2026-08-31 12:51:07 | 45.97400 | 16.97500 | 74° | 11km/h | 27512m | 5.3m/s | -47.7°C | 2.8% | 0hPa | 2.6V | 00:00:00 | 01:49:41 | 00:00:00 | |
| PG1ADW-2 | 2026-08-31 12:51:03 | 45.97395 | 16.97482 | 57° | 11km/h | 27491m | 5.6m/s | -48.0°C | 2.9% | 0hPa | 2.6V | 00:00:00 | 00:00:00 | 00:00:00 | |
| OE5DXL-15 | 2026-08-31 12:50:57 | 45.97383 | 16.97459 | 108° | 9km/h | 27457m | 5.5m/s | -48.0°C | 3.0% | 0hPa | 2.6V | 00:00:00 | 00:00:00 | 00:00:00 | |
| 9A1FER-3 | 2026-08-31 12:50:56 | 45.97384 | 16.97456 | 123° | 7km/h | 27452m | 4.6m/s | -48.1°C | 3.0% | 0hPa | 2.6V | 00:00:00 | 01:49:30 | 00:00:00 | |
| PETON7-10 | 2026-08-31 12:50:55 | 45.97385 | 16.97454 | 136° | 7km/h | 27447m | 6.7m/s | -48.1°C | 3.0% | 0hPa | 2.6V | 00:00:00 | 00:00:00 | 00:00:00 | |
| 9A1FER-10 | 2026-08-31 12:50:52 | 45.97386 | 16.97449 | 86° | 9km/h | 27429m | 6.6m/s | -48.1°C | 3.0% | 0hPa | 2.6V | 00:00:00 | 01:49:26 | 00:00:00 | |
| PG1ADW-2 | 2026-08-31 12:50:43 | 45.97380 | 16.97423 | 115° | 9km/h | 27378m | 6.2m/s | -48.2°C | 2.9% | 0hPa | 2.6V | 00:00:00 | 00:00:00 | 00:00:00 | |
| 9A1FER-3 | 2026-08-31 12:50:41 | 45.97382 | 16.97419 | 142° | 11km/h | 27367m | 4.7m/s | -48.2°C | 2.9% | 0hPa | 2.6V | 00:00:00 | 01:49:15 | 00:00:00 | |
| PETON7-10 | 2026-08-31 12:50:40 | 45.97383 | 16.97418 | 126° | 11km/h | 27362m | 5.4m/s | -48.2°C | 2.9% | 0hPa | 2.7V | 00:00:00 | 01:49:14 | 00:00:00 | |
| 9A1FER-10 | 2026-08-31 12:50:37 | 45.97384 | 16.97407 | 87° | 11km/h | 27344m | 5.6m/s | -48.2°C | 2.9% | 0hPa | 2.7V | 00:00:00 | 01:49:11 | 00:00:00 | |
| OE8JPQ-2 | 2026-08-31 12:50:32 | 45.97383 | 16.97390 | 103° | 11km/h | 27316m | 5.4m/s | -48.3°C | 3.0% | 0hPa | 2.7V | 00:00:00 | 01:49:06 | 00:00:00 | |
| OE5DXL-15 | 2026-08-31 12:50:27 | 45.97392 | 16.97373 | 143° | 11km/h | 27289m | 5.7m/s | -48.4°C | 3.0% | 0hPa | 2.7V | 00:00:00 | 00:00:00 | 00:00:00 | |
| 9A1FER-3 | 2026-08-31 12:50:26 | 45.97394 | 16.97370 | 128° | 11km/h | 27283m | 6.7m/s | -48.4°C | 3.0% | 0hPa | 2.7V | 00:00:00 | 01:49:00 | 00:00:00 | |
| PETON7-10 | 2026-08-31 12:50:25 | 45.97395 | 16.97367 | 118° | 11km/h | 27277m | 5.4m/s | -48.5°C | 3.0% | 0hPa | 2.7V | 00:00:00 | 00:00:00 | 08:30:00 | |
| PG1ADW-2 | 2026-08-31 12:50:23 | 45.97397 | 16.97362 | 122° | 11km/h | 27265m | 4.9m/s | -48.5°C | 3.0% | 0hPa | 2.6V | 00:00:00 | 01:48:57 | 00:00:00 | |
| 9A1FER-10 | 2026-08-31 12:50:22 | 45.97398 | 16.97360 | 119° | 11km/h | 27260m | 4.4m/s | -48.5°C | 3.1% | 0hPa | 2.6V | 00:00:00 | 01:48:56 | 08:30:00 | |
| OE3JTB-15 | 2026-08-31 12:50:16 | 45.97410 | 16.97335 | 142° | 11km/h | 27226m | 5.9m/s | -48.3°C | 3.0% | 0hPa | 2.6V | 00:00:00 | 00:00:00 | 00:00:00 | |
| OE8JPQ-2 | 2026-08-31 12:50:12 | 45.97415 | 16.97326 | 94° | 11km/h | 27202m | 5.6m/s | -48.5°C | 3.1% | 0hPa | 2.6V | 00:00:00 | 00:00:00 | 00:00:00 | |
| 9A1FER-3 | 2026-08-31 12:50:11 | 45.97415 | 16.97323 | 82° | 13km/h | 27196m | 6.4m/s | -48.5°C | 3.1% | 0hPa | 2.7V | 00:00:00 | 01:48:45 | 00:00:00 | |
| PETON7-10 | 2026-08-31 12:50:10 | 45.97415 | 16.97320 | 78° | 11km/h | 27190m | 5.9m/s | -48.5°C | 3.1% | 0hPa | 2.7V | 00:00:00 | 00:00:00 | 00:00:00 | |
| 9A1FER-10 | 2026-08-31 12:50:07 | 45.97416 | 16.97312 | 109° | 13km/h | 27173m | 6.5m/s | -48.6°C | 3.1% | 0hPa | 2.7V | 00:00:00 | 01:48:41 | 00:00:00 | |
| PG1ADW-2 | 2026-08-31 12:50:03 | 45.97425 | 16.97296 | 154° | 15km/h | 27149m | 4.9m/s | -48.4°C | 3.0% | 0hPa | 2.7V | 00:00:00 | 00:00:00 | 00:00:00 | |
| OE5DXL-15 | 2026-08-31 12:49:57 | 45.97442 | 16.97280 | 157° | 15km/h | 27114m | 5.5m/s | -48.2°C | 3.0% | 0hPa | 2.7V | 00:00:00 | 00:00:00 | 00:00:00 | |
| 9A1FER-3 | 2026-08-31 12:49:56 | 45.97443 | 16.97279 | 143° | 15km/h | 27108m | 5.2m/s | -48.3°C | 3.1% | 0hPa | 2.6V | 00:00:00 | 01:48:30 | 00:00:00 | |
| PETON7-10 | 2026-08-31 12:49:55 | 45.97445 | 16.97277 | 120° | 16km/h | 27103m | 6.4m/s | -48.3°C | 3.1% | 0hPa | 2.7V | 00:00:00 | 01:48:29 | 00:00:00 | |
| 9A1FER-10 | 2026-08-31 12:49:52 | 45.97447 | 16.97266 | 107° | 16km/h | 27085m | 6.5m/s | -48.4°C | 3.1% | 0hPa | 2.7V | 00:00:00 | 01:48:26 | 00:00:00 | |
| OE3JTB-15 | 2026-08-31 12:49:47 | 45.97449 | 16.97235 | 96° | 15km/h | 27055m | 6.4m/s | -48.2°C | 2.9% | 0hPa | 2.7V | 00:00:00 | 01:48:21 | 00:00:00 | |
| PG1ADW-2 | 2026-08-31 12:49:43 | 45.97453 | 16.97209 | 100° | 15km/h | 27031m | 5.7m/s | -48.2°C | 3.1% | 0hPa | 2.7V | 00:00:00 | 00:00:00 | 00:00:00 | |
| 9A1FER-3 | 2026-08-31 12:49:41 | 45.97455 | 16.97196 | 99° | 15km/h | 27020m | 6.0m/s | -48.0°C | 3.1% | 0hPa | 2.7V | 00:00:00 | 01:48:15 | 00:00:00 | |
| PETON7-10 | 2026-08-31 12:49:40 | 45.97455 | 16.97190 | 100° | 15km/h | 27014m | 6.1m/s | -48.0°C | 3.0% | 0hPa | 2.7V | 00:00:00 | 00:00:00 | 00:00:00 | |
| 9A1FER-10 | 2026-08-31 12:49:37 | 45.97455 | 16.97175 | 73° | 15km/h | 26997m | 6.8m/s | -48.1°C | 3.0% | 0hPa | 2.6V | 00:00:00 | 01:48:11 | 00:00:00 | |
| OE8JPQ-2 | 2026-08-31 12:49:32 | 45.97447 | 16.97146 | 84° | 13km/h | 26968m | 4.6m/s | -47.9°C | 2.9% | 0hPa | 2.6V | 00:00:00 | 01:48:06 | 00:00:00 | |
| 9A1FER-3 | 2026-08-31 12:49:26 | 45.97451 | 16.97118 | 129° | 11km/h | 26933m | 5.2m/s | -47.8°C | 2.9% | 0hPa | 2.6V | 00:00:00 | 01:48:00 | 00:00:00 | |
| PETON7-10 | 2026-08-31 12:49:25 | 45.97452 | 16.97115 | 127° | 11km/h | 26928m | 4.8m/s | -47.8°C | 2.9% | 0hPa | 2.6V | 00:00:00 | 00:00:00 | 00:00:00 | |
| PG1ADW-2 | 2026-08-31 12:49:23 | 45.97454 | 16.97108 | 92° | 11km/h | 26916m | 5.8m/s | -47.9°C | 3.0% | 0hPa | 2.6V | 00:00:00 | 00:00:00 | 00:00:00 | |
| 9A1FER-10 | 2026-08-31 12:49:22 | 45.97454 | 16.97103 | 81° | 11km/h | 26910m | 5.3m/s | -47.9°C | 2.9% | 0hPa | 2.6V | 00:00:00 | 01:47:56 | 00:00:00 | |
| OE3JTB-15 | 2026-08-31 12:49:18 | 45.97449 | 16.97090 | 48° | 15km/h | 26886m | 6.9m/s | -47.8°C | 2.9% | 0hPa | 2.6V | 00:00:00 | 00:00:00 | 08:30:00 | |
| OE8JPQ-2 | 2026-08-31 12:49:12 | 45.97445 | 16.97067 | 113° | 15km/h | 26851m | 6.6m/s | -48.0°C | 2.9% | 0hPa | 2.6V | 00:00:00 | 00:00:00 | 00:00:00 | |
| 9A1FER-3 | 2026-08-31 12:49:11 | 45.97446 | 16.97063 | 109° | 15km/h | 26845m | 5.8m/s | -47.9°C | 2.9% | 0hPa | 2.7V | 00:00:00 | 01:47:45 | 08:30:00 | |
| PETON7-10 | 2026-08-31 12:49:10 | 45.97447 | 16.97059 | 101° | 15km/h | 26839m | 5.4m/s | -47.9°C | 2.9% | 0hPa | 2.6V | 00:00:00 | 01:47:44 | 00:00:00 | |
| 9A1FER-10 | 2026-08-31 12:49:07 | 45.97445 | 16.97052 | 28° | 15km/h | 26822m | 5.8m/s | -48.0°C | 2.9% | 0hPa | 2.6V | 00:00:00 | 01:47:41 | 00:00:00 | |
| PG1ADW-2 | 2026-08-31 12:49:03 | 45.97431 | 16.97041 | 34° | 16km/h | 26797m | 6.1m/s | -48.2°C | 3.0% | 0hPa | 2.6V | 00:00:00 | 01:47:37 | 08:30:00 | |
| OE5DRO-10 | 2026-08-31 12:49:01 | 45.97426 | 16.97033 | 64° | 13km/h | 26786m | 6.0m/s | -48.3°C | 3.0% | 0hPa | 2.6V | 00:00:00 | 00:00:00 | 00:00:00 | |
| OE5DXL-15 | 2026-08-31 12:48:57 | 45.97425 | 16.97007 | 100° | 13km/h | 26762m | 6.3m/s | -48.2°C | 3.0% | 0hPa | 2.7V | 00:00:00 | 00:00:00 | 00:00:00 | |
| 9A1FER-3 | 2026-08-31 12:48:56 | 45.97425 | 16.97002 | 98° | 15km/h | 26756m | 5.3m/s | -48.3°C | 3.0% | 0hPa | 2.7V | 00:00:00 | 01:47:30 | 00:00:00 | |
| PETON7-10 | 2026-08-31 12:48:55 | 45.97425 | 16.96999 | 71° | 15km/h | 26751m | 5.5m/s | -48.3°C | 3.0% | 0hPa | 2.7V | 00:00:00 | 00:00:00 | 00:00:00 | |
| 9A1FER-10 | 2026-08-31 12:48:52 | 45.97417 | 16.96993 | 11° | 15km/h | 26733m | 5.3m/s | -48.3°C | 2.9% | 0hPa | 2.6V | 00:00:00 | 01:47:26 | 00:00:00 | |
| OE3JTB-15 | 2026-08-31 12:48:49 | 45.97403 | 16.96991 | 9° | 13km/h | 26715m | 6.1m/s | -48.4°C | 2.9% | 0hPa | 2.6V | 00:00:00 | 00:00:00 | 00:00:00 | |
| PG1ADW-2 | 2026-08-31 12:48:43 | 45.97381 | 16.96977 | 29° | 11km/h | 26680m | 6.1m/s | -48.5°C | 3.1% | 0hPa | 2.6V | 00:00:00 | 00:00:00 | 00:00:00 | |
| OE5DRO-10 | 2026-08-31 12:48:42 | 45.97379 | 16.96975 | 23° | 11km/h | 26673m | 6.2m/s | -48.5°C | 3.0% | 0hPa | 2.6V | 00:00:00 | 00:00:00 | 00:00:00 | |
| 9A1FER-3 | 2026-08-31 12:48:41 | 45.97376 | 16.96974 | 9° | 11km/h | 26668m | 4.8m/s | -48.5°C | 3.0% | 0hPa | 2.6V | 00:00:00 | 01:47:15 | 00:00:00 | |
| PETON7-10 | 2026-08-31 12:48:40 | 45.97373 | 16.96974 | 353° | 13km/h | 26662m | 5.9m/s | -48.5°C | 3.0% | 0hPa | 2.6V | 00:00:00 | 00:00:00 | 00:00:00 | |
| 9A1FER-10 | 2026-08-31 12:48:38 | 45.97364 | 16.96980 | 334° | 13km/h | 26644m | 6.3m/s | -48.5°C | 2.9% | 0hPa | 2.6V | 00:00:00 | 01:47:11 | 00:00:00 | |
| OE8JPQ-2 | 2026-08-31 12:48:32 | 45.97347 | 16.96986 | 353° | 11km/h | 26615m | 5.2m/s | -48.6°C | 3.0% | 0hPa | 2.6V | 00:00:00 | 01:47:06 | 00:00:00 | |
| OE5DXL-15 | 2026-08-31 12:48:27 | 45.97336 | 16.96989 | 308° | 15km/h | 26585m | 5.3m/s | -48.7°C | 3.1% | 0hPa | 2.6V | 00:00:00 | 00:00:00 | 08:30:00 | |
| 9A1FER-3 | 2026-08-31 12:48:26 | 45.97335 | 16.96992 | 305° | 15km/h | 26580m | 4.2m/s | -48.8°C | 3.1% | 0hPa | 2.6V | 00:00:00 | 01:47:00 | 00:00:00 | |
| PETON7-10 | 2026-08-31 12:48:25 | 45.97333 | 16.96995 | 315° | 15km/h | 26575m | 6.5m/s | -48.8°C | 3.1% | 0hPa | 2.7V | 00:00:00 | 01:46:59 | 00:00:00 | |
| PG1ADW-2 | 2026-08-31 12:48:23 | 45.97327 | 16.97001 | 333° | 15km/h | 26563m | 4.9m/s | -48.9°C | 3.1% | 0hPa | 2.7V | 00:00:00 | 00:00:00 | 00:00:00 | |
| 9A1FER-10 | 2026-08-31 12:48:22 | 45.97323 | 16.97004 | 330° | 16km/h | 26558m | 5.2m/s | -48.9°C | 3.1% | 0hPa | 2.7V | 00:00:00 | 01:46:56 | 00:00:00 | |
| OE5DRO-10 | 2026-08-31 12:48:21 | 45.97320 | 16.97007 | 322° | 16km/h | 26552m | 6.9m/s | -49.0°C | 3.1% | 0hPa | 2.7V | 00:00:00 | 00:00:00 | 00:00:00 | |
| OE3JTB-15 | 2026-08-31 12:48:20 | 45.97317 | 16.97011 | 310° | 16km/h | 26546m | 5.5m/s | -49.1°C | 3.1% | 0hPa | 2.7V | 00:00:00 | 01:46:54 | 00:00:00 | |
| OE8JPQ-2 | 2026-08-31 12:48:12 | 45.97306 | 16.97046 | 274° | 16km/h | 26500m | 6.1m/s | -49.0°C | 3.1% | 0hPa | 2.7V | 00:00:00 | 00:00:00 | 08:30:00 | |
| 9A1FER-3 | 2026-08-31 12:48:11 | 45.97305 | 16.97053 | 277° | 16km/h | 26494m | 5.9m/s | -48.9°C | 3.1% | 0hPa | 2.6V | 00:00:00 | 01:46:45 | 00:00:00 | |
| PETON7-10 | 2026-08-31 12:48:10 | 45.97305 | 16.97059 | 275° | 16km/h | 26489m | 4.3m/s | -48.9°C | 3.1% | 0hPa | 2.6V | 00:00:00 | 00:00:00 | 08:30:00 | |
| PG1ADW-2 | 2026-08-31 12:48:03 | 45.97308 | 16.97099 | 282° | 16km/h | 26451m | 4.5m/s | -48.9°C | 3.0% | 0hPa | 2.6V | 00:00:00 | 00:00:00 | 00:00:00 | |
| OE5DXL-15 | 2026-08-31 12:47:57 | 45.97312 | 16.97132 | 241° | 16km/h | 26416m | 5.0m/s | -49.0°C | 3.0% | 0hPa | 2.7V | 00:00:00 | 00:00:00 | 00:00:00 | |
| 9A1FER-3 | 2026-08-31 12:47:56 | 45.97314 | 16.97137 | 227° | 18km/h | 26410m | 6.6m/s | -49.0°C | 3.1% | 0hPa | 2.7V | 00:00:00 | 01:46:30 | 00:00:00 | |
| PETON7-10 | 2026-08-31 12:47:55 | 45.97318 | 16.97142 | 216° | 18km/h | 26404m | 5.8m/s | -49.1°C | 3.1% | 0hPa | 2.7V | 00:00:00 | 00:00:00 | 00:00:00 | |
| OE5DRO-10 | 2026-08-31 12:47:54 | 45.97323 | 16.97146 | 209° | 20km/h | 26398m | 4.9m/s | -49.1°C | 3.2% | 0hPa | 2.7V | 00:00:00 | 00:00:00 | 08:30:00 | |
| OE8JPQ-2 | 2026-08-31 12:47:51 | 45.97335 | 16.97156 | 214° | 16km/h | 26381m | 5.1m/s | -49.1°C | 3.2% | 0hPa | 2.7V | 00:00:00 | 00:00:00 | 00:00:00 | |
| PG1ADW-2 | 2026-08-31 12:47:43 | 45.97354 | 16.97190 | 205° | 18km/h | 26336m | 5.1m/s | -49.0°C | 3.0% | 0hPa | 2.7V | 00:00:00 | 01:46:17 | 00:00:00 | |
| 9A1FER-3 | 2026-08-31 12:47:41 | 45.97364 | 16.97193 | 181° | 16km/h | 26326m | 6.3m/s | -49.0°C | 3.0% | 0hPa | 2.7V | 00:00:00 | 01:46:15 | 00:00:00 | |
| PETON7-10 | 2026-08-31 12:47:40 | 45.97370 | 16.97192 | 170° | 16km/h | 26319m | 6.2m/s | -49.0°C | 3.0% | 0hPa | 2.7V | 00:00:00 | 01:46:14 | 00:00:00 | |
| OE5DRO-10 | 2026-08-31 12:47:35 | 45.97397 | 16.97186 | 181° | 15km/h | 26291m | 6.7m/s | -49.1°C | 3.1% | 0hPa | 2.7V | 00:00:00 | 00:00:00 | 00:00:00 | |
| OE8JPQ-2 | 2026-08-31 12:47:29 | 45.97406 | 16.97191 | 166° | 22km/h | 26258m | 6.1m/s | 0°C | 0% | 0hPa | 2.7V | 00:00:00 | 01:46:03 | 00:00:00 | |
| OE5DXL-15 | 2026-08-31 12:47:27 | 45.97414 | 16.97185 | 147° | 18km/h | 26247m | 5.1m/s | -49.2°C | 3.1% | 0hPa | 2.7V | 00:00:00 | 00:00:00 | 00:00:00 | |
| 9A1FER-3 | 2026-08-31 12:47:26 | 45.97420 | 16.97180 | 151° | 20km/h | 26241m | 5.9m/s | -49.4°C | 3.1% | 0hPa | 2.7V | 00:00:00 | 01:46:00 | 00:00:00 | |
| PETON7-10 | 2026-08-31 12:47:25 | 45.97426 | 16.97175 | 156° | 20km/h | 26235m | 6.0m/s | -49.5°C | 3.1% | 0hPa | 2.7V | 00:00:00 | 00:00:00 | 00:00:00 | |
| PG1ADW-2 | 2026-08-31 12:47:23 | 45.97439 | 16.97168 | 157° | 16km/h | 26226m | 4.4m/s | -49.5°C | 3.2% | 0hPa | 2.6V | 00:00:00 | 00:00:00 | 00:00:00 | |
| OE3JTB-15 | 2026-08-31 12:47:22 | 45.97445 | 16.97164 | 151° | 16km/h | 26220m | 6.0m/s | -49.4°C | 3.1% | 0hPa | 2.6V | 00:00:00 | 00:00:00 | 00:00:00 | |
| 9A1FER-3 | 2026-08-31 12:47:11 | 45.97475 | 16.97112 | 131° | 16km/h | 26158m | 4.5m/s | -49.3°C | 3.1% | 0hPa | 2.6V | 00:00:00 | 01:45:45 | 00:00:00 | |
| PETON7-10 | 2026-08-31 12:47:10 | 45.97479 | 16.97105 | 128° | 15km/h | 26153m | 5.6m/s | -49.4°C | 3.1% | 0hPa | 2.6V | 00:00:00 | 00:00:00 | 00:00:00 | |
| OE8JPQ-2 | 2026-08-31 12:47:09 | 45.97482 | 16.97098 | 122° | 15km/h | 26147m | 5.9m/s | 0°C | 0% | 0hPa | 2.6V | 00:00:00 | 00:00:00 | 00:00:00 | |
| PG1ADW-2 | 2026-08-31 12:47:03 | 45.97490 | 16.97074 | 80° | 18km/h | 26114m | 6.2m/s | -49.5°C | 3.1% | 0hPa | 2.6V | 00:00:00 | 00:00:00 | 00:00:00 | |
| OE5DXL-15 | 2026-08-31 12:46:57 | 45.97487 | 16.97042 | 93° | 16km/h | 26079m | 6.5m/s | -49.9°C | 3.2% | 0hPa | 2.6V | 00:00:00 | 00:00:00 | 00:00:00 | |
| 9A1FER-3 | 2026-08-31 12:46:56 | 45.97487 | 16.97034 | 88° | 20km/h | 26073m | 5.6m/s | -49.9°C | 3.2% | 0hPa | 2.7V | 00:00:00 | 01:45:30 | 08:30:00 | |
| PETON7-10 | 2026-08-31 12:46:55 | 45.97487 | 16.97025 | 87° | 20km/h | 26067m | 5.7m/s | -49.8°C | 3.2% | 0hPa | 2.6V | 00:00:00 | 01:45:29 | 00:00:00 | |
| 9A1FER-10 | 2026-08-31 12:46:54 | 45.97487 | 16.97018 | 87° | 20km/h | 26062m | 5.8m/s | -49.7°C | 3.2% | 0hPa | 2.6V | 00:00:00 | 01:45:28 | 00:00:00 | |
| OE3JTB-15 | 2026-08-31 12:46:53 | 45.97486 | 16.97012 | 81° | 16km/h | 26056m | 4.4m/s | -49.7°C | 3.2% | 0hPa | 2.6V | 00:00:00 | 01:45:27 | 00:00:00 | |
| OE8JPQ-2 | 2026-08-31 12:46:50 | 45.97473 | 16.96992 | 24° | 18km/h | 26035m | 4.8m/s | 0°C | 0% | 0hPa | 2.6V | 00:00:00 | 00:00:00 | 00:00:00 | |
| PG1ADW-2 | 2026-08-31 12:46:43 | 45.97444 | 16.96967 | 58° | 13km/h | 26002m | 5.8m/s | -50.1°C | 3.2% | 0hPa | 2.6V | 00:00:00 | 00:00:00 | 00:00:00 | |
| 9A1FER-3 | 2026-08-31 12:46:41 | 45.97442 | 16.96956 | 94° | 13km/h | 25991m | 5.1m/s | -50.0°C | 3.2% | 0hPa | 2.6V | 00:00:00 | 01:45:15 | 00:00:00 | |
| PETON7-10 | 2026-08-31 12:46:40 | 45.97442 | 16.96950 | 98° | 13km/h | 25985m | 6.2m/s | -50.0°C | 3.2% | 0hPa | 2.6V | 00:00:00 | 00:00:00 | 00:00:00 | |
| 9A1FER-10 | 2026-08-31 12:46:39 | 45.97443 | 16.96945 | 88° | 11km/h | 25979m | 5.5m/s | -50.1°C | 3.3% | 0hPa | 2.6V | 00:00:00 | 01:45:13 | 00:00:00 | |
| OE8JPQ-2 | 2026-08-31 12:46:29 | 45.97416 | 16.96932 | 57° | 7km/h | 25926m | 5.9m/s | 0°C | 0% | 0hPa | 2.6V | 00:00:00 | 01:45:03 | 00:00:00 | |
| OE5DXL-15 | 2026-08-31 12:46:27 | 45.97416 | 16.96925 | 109° | 7km/h | 25915m | 5.5m/s | -50.0°C | 3.2% | 0hPa | 2.6V | 00:00:00 | 00:00:00 | 00:00:00 | |
| 9A1FER-3 | 2026-08-31 12:46:26 | 45.97417 | 16.96922 | 109° | 7km/h | 25909m | 5.7m/s | -49.9°C | 3.2% | 0hPa | 2.6V | 00:00:00 | 01:45:00 | 00:00:00 | |
| 9A1FER-10 | 2026-08-31 12:46:24 | 45.97419 | 16.96916 | 112° | 5km/h | 25898m | 6.1m/s | -49.8°C | 3.2% | 0hPa | 2.6V | 00:00:00 | 01:44:58 | 00:00:00 | |
| PG1ADW-2 | 2026-08-31 12:46:23 | 45.97419 | 16.96914 | 147° | 7km/h | 25892m | 5.2m/s | -49.8°C | 3.2% | 0hPa | 2.6V | 00:00:00 | 01:44:57 | 00:00:00 | |
| 9A1FER-3 | 2026-08-31 12:46:11 | 45.97403 | 16.96925 | 263° | 9km/h | 25826m | 4.7m/s | -49.9°C | 3.1% | 0hPa | 2.6V | 00:00:00 | 01:44:45 | 00:00:00 | |
| 9A1FER-10 | 2026-08-31 12:46:09 | 45.97403 | 16.96929 | 266° | 7km/h | 25816m | 6.2m/s | -49.9°C | 3.1% | 0hPa | 2.6V | 00:00:00 | 01:44:43 | 00:00:00 | |
| PG1ADW-2 | 2026-08-31 12:46:03 | 45.97398 | 16.96946 | 298° | 9km/h | 25783m | 6.2m/s | -50.0°C | 3.3% | 0hPa | 2.6V | 00:00:00 | 00:00:00 | 08:30:00 | |
| OE5DXL-15 | 2026-08-31 12:45:57 | 45.97393 | 16.96964 | 275° | 11km/h | 25750m | 5.3m/s | -50.0°C | 3.3% | 0hPa | 2.7V | 00:00:00 | 00:00:00 | 00:00:00 | |
| 9A1FER-3 | 2026-08-31 12:45:56 | 45.97393 | 16.96966 | 240° | 9km/h | 25745m | 6.1m/s | -50.0°C | 3.3% | 0hPa | 2.7V | 00:00:00 | 01:44:30 | 00:00:00 | |
| OE3JTB-15 | 2026-08-31 12:45:55 | 45.97394 | 16.96967 | 190° | 13km/h | 25739m | 4.4m/s | -50.1°C | 3.2% | 0hPa | 2.7V | 00:00:00 | 00:00:00 | 00:00:00 | |
| PETON7-10 | 2026-08-31 12:45:54 | 45.97395 | 16.96967 | 201° | 11km/h | 25734m | 5.4m/s | -50.0°C | 3.2% | 0hPa | 2.7V | 00:00:00 | 00:00:00 | 08:30:00 | |
| OE8JPQ-2 | 2026-08-31 12:45:49 | 45.97408 | 16.96977 | 205° | 13km/h | 25707m | 5.0m/s | 0°C | 0% | 0hPa | 2.6V | 00:00:00 | 00:00:00 | 00:00:00 | |
| PG1ADW-2 | 2026-08-31 12:45:43 | 45.97422 | 16.96982 | 148° | 13km/h | 25673m | 5.8m/s | -50.0°C | 3.3% | 0hPa | 2.6V | 00:00:00 | 00:00:00 | 00:00:00 | |
| 9A1FER-3 | 2026-08-31 12:45:41 | 45.97425 | 16.96979 | 150° | 13km/h | 25662m | 4.8m/s | -50.0°C | 3.3% | 0hPa | 2.6V | 00:00:00 | 01:44:15 | 00:00:00 | |
| 9A1FER-10 | 2026-08-31 12:45:39 | 45.97431 | 16.96975 | 151° | 15km/h | 25650m | 5.2m/s | -50.1°C | 3.3% | 0hPa | 2.6V | 00:00:00 | 01:44:13 | 00:00:00 | |
| OE5DXL-15 | 2026-08-31 12:45:27 | 45.97467 | 16.96947 | 127° | 20km/h | 25586m | 5.3m/s | -50.0°C | 3.3% | 0hPa | 2.6V | 00:00:00 | 00:00:00 | 00:00:00 | |
| 9A1FER-3 | 2026-08-31 12:45:26 | 45.97470 | 16.96941 | 121° | 16km/h | 25581m | 5.5m/s | -49.9°C | 3.3% | 0hPa | 2.6V | 00:00:00 | 01:44:00 | 00:00:00 | |
| PETON7-10 | 2026-08-31 12:45:24 | 45.97473 | 16.96930 | 109° | 18km/h | 25570m | 4.3m/s | -49.9°C | 3.2% | 0hPa | 2.6V | 00:00:00 | 01:43:58 | 00:00:00 | |
| PG1ADW-2 | 2026-08-31 12:45:23 | 45.97475 | 16.96924 | 106° | 18km/h | 25565m | 6.4m/s | -49.9°C | 3.2% | 0hPa | 2.6V | 00:00:00 | 00:00:00 | 00:00:00 | |
| 9A1FER-3 | 2026-08-31 12:45:11 | 45.97484 | 16.96851 | 98° | 24km/h | 25497m | 5.4m/s | -49.9°C | 3.1% | 0hPa | 2.6V | 00:00:00 | 01:43:45 | 00:00:00 | |
| PETON7-10 | 2026-08-31 12:45:09 | 45.97486 | 16.96834 | 100° | 24km/h | 25486m | 6.3m/s | -50.0°C | 3.1% | 0hPa | 2.6V | 00:00:00 | 00:00:00 | 00:00:00 | |
| OE8JPQ-2 | 2026-08-31 12:45:05 | 45.97491 | 16.96805 | 99° | 22km/h | 25464m | 5.8m/s | 0°C | 0% | 0hPa | 2.6V | 00:00:00 | 00:00:00 | 00:00:00 | |
| OE5DXL-15 | 2026-08-31 12:44:57 | 45.97476 | 16.96743 | 71° | 31km/h | 25423m | 4.6m/s | -50.3°C | 3.2% | 0hPa | 2.6V | 00:00:00 | 00:00:00 | 00:00:00 | |
| 9A1FER-3 | 2026-08-31 12:44:56 | 45.97474 | 16.96733 | 77° | 29km/h | 25418m | 5.4m/s | -50.4°C | 3.2% | 0hPa | 2.6V | 00:00:00 | 01:43:30 | 00:00:00 | |
| 9A1FER-10 | 2026-08-31 12:44:55 | 45.97472 | 16.96715 | 82° | 31km/h | 25408m | 4.6m/s | -50.6°C | 3.3% | 0hPa | 2.6V | 00:00:00 | 01:43:28 | 00:00:00 | |
| PETON7-10 | 2026-08-31 12:44:54 | 45.97472 | 16.96715 | 82° | 31km/h | 25408m | 4.6m/s | -50.6°C | 3.3% | 0hPa | 2.6V | 00:00:00 | 00:00:00 | 00:00:00 | |
| PG1ADW-2 | 2026-08-31 12:44:43 | 45.97432 | 16.96616 | 50° | 35km/h | 25349m | 4.7m/s | -51.2°C | 3.4% | 0hPa | 2.6V | 00:00:00 | 00:00:00 | 00:00:00 | |
| 9A1FER-3 | 2026-08-31 12:44:41 | 45.97419 | 16.96595 | 45° | 33km/h | 25337m | 5.4m/s | -50.9°C | 3.3% | 0hPa | 2.6V | 00:00:00 | 01:43:15 | 08:30:00 | |
| PETON7-10 | 2026-08-31 12:44:39 | 45.97406 | 16.96578 | 37° | 33km/h | 25325m | 5.1m/s | -50.8°C | 3.3% | 0hPa | 2.6V | 00:00:00 | 01:43:13 | 00:00:00 | |
| OE3JTB-15 | 2026-08-31 12:44:28 | 45.97329 | 16.96518 | 36° | 29km/h | 25263m | 5.4m/s | -51.2°C | 3.3% | 0hPa | 2.6V | 00:00:00 | 00:00:00 | 00:00:00 | |
| OE5DXL-15 | 2026-08-31 12:44:27 | 45.97322 | 16.96510 | 34° | 29km/h | 25257m | 5.8m/s | -51.2°C | 3.3% | 0hPa | 2.6V | 00:00:00 | 00:00:00 | 00:00:00 | |
| 9A1FER-3 | 2026-08-31 12:44:26 | 45.97314 | 16.96503 | 32° | 31km/h | 25252m | 4.8m/s | -51.3°C | 3.3% | 0hPa | 2.6V | 00:00:00 | 01:43:00 | 00:00:00 | |
| 9A1FER-10 | 2026-08-31 12:44:24 | 45.97298 | 16.96490 | 26° | 29km/h | 25240m | 5.7m/s | -51.5°C | 3.4% | 0hPa | 2.6V | 00:00:00 | 01:42:58 | 00:00:00 | |
| PG1ADW-2 | 2026-08-31 12:44:23 | 45.97291 | 16.96486 | 18° | 27km/h | 25235m | 5.0m/s | -51.5°C | 3.5% | 0hPa | 2.7V | 00:00:00 | 00:00:00 | 00:00:00 | |
| 9A1FER-3 | 2026-08-31 12:44:11 | 45.97202 | 16.96465 | 18° | 26km/h | 25167m | 5.2m/s | -51.4°C | 3.4% | 0hPa | 2.7V | 00:00:00 | 01:42:45 | 00:00:00 | |
| PETON7-10 | 2026-08-31 12:44:09 | 45.97190 | 16.96460 | 16° | 26km/h | 25155m | 5.2m/s | -51.4°C | 3.4% | 0hPa | 2.7V | 00:00:00 | 00:00:00 | 00:00:00 | |
| PG1ADW-2 | 2026-08-31 12:44:03 | 45.97154 | 16.96458 | 351° | 26km/h | 25122m | 5.3m/s | -51.7°C | 3.4% | 0hPa | 2.7V | 00:00:00 | 00:00:00 | 00:00:00 | |
| OE3JTB-15 | 2026-08-31 12:43:59 | 45.97127 | 16.96466 | 353° | 22km/h | 25100m | 5.0m/s | -51.8°C | 3.4% | 0hPa | 2.6V | 00:00:00 | 01:42:33 | 00:00:00 | |
| OE5DXL-15 | 2026-08-31 12:43:57 | 45.97114 | 16.96468 | 357° | 20km/h | 25088m | 4.6m/s | -51.7°C | 3.4% | 0hPa | 2.6V | 00:00:00 | 00:00:00 | 08:30:00 | |
| 9A1FER-3 | 2026-08-31 12:43:56 | 45.97106 | 16.96468 | 356° | 22km/h | 25084m | 4.4m/s | -51.7°C | 3.4% | 0hPa | 2.6V | 00:00:00 | 01:42:30 | 00:00:00 | |
| PETON7-10 | 2026-08-31 12:43:54 | 45.97095 | 16.96471 | 344° | 22km/h | 25073m | 5.5m/s | -51.7°C | 3.4% | 0hPa | 2.6V | 00:00:00 | 01:42:28 | 00:00:00 | |
| PG1ADW-2 | 2026-08-31 12:43:43 | 45.97040 | 16.96516 | 354° | 16km/h | 25011m | 6.4m/s | -52.4°C | 3.6% | 0hPa | 2.6V | 00:00:00 | 01:42:17 | 00:00:00 | |
| 9A1FER-3 | 2026-08-31 12:43:41 | 45.97032 | 16.96517 | 357° | 16km/h | 24998m | 5.8m/s | -52.7°C | 3.7% | 0hPa | 2.6V | 00:00:00 | 01:42:15 | 00:00:00 | |
| PETON7-10 | 2026-08-31 12:43:39 | 45.97025 | 16.96520 | 332° | 15km/h | 24988m | 4.1m/s | -52.5°C | 3.7% | 0hPa | 2.6V | 00:00:00 | 00:00:00 | 08:30:00 | |
| OE3JTB-15 | 2026-08-31 12:43:30 | 45.97006 | 16.96575 | 306° | 9km/h | 24938m | 5.0m/s | -52.1°C | 3.6% | 0hPa | 2.6V | 00:00:00 | 00:00:00 | 00:00:00 | |
| OE5DXL-15 | 2026-08-31 12:43:27 | 45.96998 | 16.96582 | 340° | 9km/h | 24922m | 4.4m/s | -52.1°C | 3.6% | 0hPa | 2.7V | 00:00:00 | 00:00:00 | 00:00:00 | |
| 9A1FER-3 | 2026-08-31 12:43:26 | 45.96995 | 16.96584 | 331° | 13km/h | 24916m | 6.0m/s | -52.1°C | 3.6% | 0hPa | 2.7V | 00:00:00 | 01:42:00 | 00:00:00 | |
| PETON7-10 | 2026-08-31 12:43:24 | 45.96993 | 16.96590 | 282° | 13km/h | 24905m | 5.3m/s | -51.9°C | 3.6% | 0hPa | 2.7V | 00:00:00 | 00:00:00 | 00:00:00 | |
| PG1ADW-2 | 2026-08-31 12:43:23 | 45.96992 | 16.96594 | 281° | 9km/h | 24899m | 6.6m/s | -52.0°C | 3.6% | 0hPa | 2.7V | 00:00:00 | 00:00:00 | 00:00:00 | |
| 9A1FER-10 | 2026-08-31 12:43:17 | 45.96988 | 16.96626 | 316° | 13km/h | 24866m | 6.4m/s | -51.8°C | 3.5% | 0hPa | 2.7V | 00:00:00 | 01:41:51 | 00:00:00 | |
| 9A1FER-3 | 2026-08-31 12:43:11 | 45.96972 | 16.96625 | 10° | 7km/h | 24834m | 5.6m/s | -51.7°C | 3.5% | 0hPa | 2.7V | 00:00:00 | 01:41:45 | 00:00:00 | |
| PETON7-10 | 2026-08-31 12:43:08 | 45.96968 | 16.96627 | 328° | 7km/h | 24818m | 5.6m/s | -51.8°C | 3.4% | 0hPa | 2.7V | 00:00:00 | 01:41:42 | 00:00:00 | |
| PG1ADW-2 | 2026-08-31 12:43:03 | 45.96966 | 16.96633 | 337° | 9km/h | 24792m | 5.0m/s | -51.8°C | 3.5% | 0hPa | 2.7V | 00:00:00 | 00:00:00 | 08:30:00 | |
| 9A1FER-10 | 2026-08-31 12:43:02 | 45.96964 | 16.96650 | 2° | 13km/h | 24787m | 5.1m/s | -51.8°C | 3.5% | 0hPa | 2.7V | 00:00:00 | 01:41:36 | 00:00:00 | |
| OE3JTB-15 | 2026-08-31 12:43:00 | 45.96957 | 16.96627 | 60° | 9km/h | 24770m | 5.3m/s | -51.9°C | 3.6% | 0hPa | 2.7V | 00:00:00 | 00:00:00 | 00:00:00 | |
| OE5DXL-15 | 2026-08-31 12:42:57 | 45.96955 | 16.96621 | 67° | 11km/h | 24758m | 5.3m/s | -51.9°C | 3.6% | 0hPa | 2.7V | 00:00:00 | 00:00:00 | 00:00:00 | |
| 9A1FER-3 | 2026-08-31 12:42:56 | 45.96955 | 16.96619 | 72° | 9km/h | 24753m | 4.6m/s | -51.9°C | 3.6% | 0hPa | 2.7V | 00:00:00 | 01:41:30 | 00:00:00 | |
| PETON7-10 | 2026-08-31 12:42:53 | 45.96954 | 16.96610 | 93° | 9km/h | 24737m | 5.1m/s | -51.9°C | 3.6% | 0hPa | 2.7V | 00:00:00 | 00:00:00 | 00:00:00 | |
| PG1ADW-2 | 2026-08-31 12:42:43 | 45.96937 | 16.96586 | 47° | 11km/h | 24679m | 5.9m/s | -51.5°C | 3.5% | 0hPa | 2.7V | 00:00:00 | 00:00:00 | 00:00:00 | |
| 9A1FER-3 | 2026-08-31 12:42:41 | 45.96936 | 16.96582 | 64° | 11km/h | 24668m | 6.3m/s | -51.5°C | 3.5% | 0hPa | 2.7V | 00:00:00 | 01:41:15 | 00:00:00 | |
| PETON7-10 | 2026-08-31 12:42:38 | 45.96934 | 16.96579 | 46° | 11km/h | 24651m | 6.4m/s | -51.4°C | 3.4% | 0hPa | 2.7V | 00:00:00 | 00:00:00 | 00:00:00 | |
| OE3JTB-15 | 2026-08-31 12:42:30 | 45.96906 | 16.96566 | 6° | 15km/h | 24607m | 6.5m/s | -51.7°C | 3.4% | 0hPa | 2.7V | 00:00:00 | 01:41:04 | 00:00:00 | |
| 9A1FER-10 | 2026-08-31 12:42:28 | 45.96900 | 16.96567 | 351° | 15km/h | 24595m | 5.0m/s | -51.6°C | 3.5% | 0hPa | 2.7V | 00:00:00 | 01:41:02 | 08:30:00 | |
| 9A1FER-3 | 2026-08-31 12:42:27 | 45.96896 | 16.96567 | 10° | 15km/h | 24584m | 4.6m/s | -51.5°C | 3.4% | 0hPa | 2.6V | 00:00:00 | 01:41:00 | 08:30:00 | |
| PETON7-10 | 2026-08-31 12:42:23 | 45.96892 | 16.96569 | 322° | 15km/h | 24567m | 4.6m/s | -51.5°C | 3.4% | 0hPa | 2.6V | 00:00:00 | 01:40:57 | 00:00:00 | |
| 9A1FER-3 | 2026-08-31 12:42:11 | 45.96846 | 16.96576 | 26° | 22km/h | 24502m | 4.6m/s | -52.0°C | 3.5% | 0hPa | 2.6V | 00:00:00 | 01:40:45 | 00:00:00 | |
| PETON7-10 | 2026-08-31 12:42:08 | 45.96836 | 16.96568 | 25° | 26km/h | 24485m | 4.8m/s | -52.1°C | 3.5% | 0hPa | 2.6V | 00:00:00 | 00:00:00 | 00:00:00 | |
| OE5DRO-10 | 2026-08-31 12:42:05 | 45.96819 | 16.96563 | 4° | 24km/h | 24469m | 4.6m/s | -52.1°C | 3.5% | 0hPa | 2.7V | 00:00:00 | 00:00:00 | 00:00:00 | |
| PG1ADW-2 | 2026-08-31 12:42:03 | 45.96804 | 16.96560 | 11° | 24km/h | 24457m | 5.2m/s | -52.4°C | 3.5% | 0hPa | 2.6V | 00:00:00 | 00:00:00 | 00:00:00 | |
| OE3JTB-15 | 2026-08-31 12:42:01 | 45.96790 | 16.96556 | 11° | 24km/h | 24447m | 6.1m/s | -52.4°C | 3.6% | 0hPa | 2.6V | 00:00:00 | 00:00:00 | 00:00:00 | |
| OE5DXL-15 | 2026-08-31 12:41:57 | 45.96768 | 16.96547 | 24° | 24km/h | 24425m | 4.9m/s | -52.4°C | 3.6% | 0hPa | 2.6V | 00:00:00 | 00:00:00 | 00:00:00 | |
| 9A1FER-3 | 2026-08-31 12:41:56 | 45.96762 | 16.96543 | 21° | 24km/h | 24420m | 5.7m/s | -52.5°C | 3.6% | 0hPa | 2.6V | 00:00:00 | 01:40:30 | 00:00:00 | |
| 9A1FER-10 | 2026-08-31 12:41:55 | 45.96756 | 16.96541 | 14° | 24km/h | 24414m | 5.8m/s | -52.5°C | 3.6% | 0hPa | 2.6V | 00:00:00 | 01:40:29 | 00:00:00 | |
| PETON7-10 | 2026-08-31 12:41:53 | 45.96743 | 16.96537 | 12° | 24km/h | 24402m | 6.3m/s | -52.5°C | 3.6% | 0hPa | 2.6V | 00:00:00 | 00:00:00 | 00:00:00 | |
| OE5DRO-10 | 2026-08-31 12:41:45 | 45.96699 | 16.96523 | 14° | 26km/h | 24358m | 5.8m/s | -52.8°C | 3.6% | 0hPa | 2.6V | 00:00:00 | 00:00:00 | 00:00:00 | |
| 9A1FER-3 | 2026-08-31 12:41:41 | 45.96677 | 16.96519 | 11° | 26km/h | 24336m | 5.3m/s | -52.7°C | 3.7% | 0hPa | 2.6V | 00:00:00 | 01:40:15 | 00:00:00 | |
| 9A1FER-10 | 2026-08-31 12:41:40 | 45.96669 | 16.96517 | 10° | 26km/h | 24331m | 4.4m/s | -52.7°C | 3.7% | 0hPa | 2.7V | 00:00:00 | 01:40:14 | 00:00:00 | |
| PETON7-10 | 2026-08-31 12:41:38 | 45.96655 | 16.96514 | 5° | 26km/h | 24319m | 5.0m/s | -52.7°C | 3.7% | 0hPa | 2.6V | 00:00:00 | 01:40:12 | 00:00:00 | |
| OE3JTB-15 | 2026-08-31 12:41:31 | 45.96610 | 16.96504 | 6° | 18km/h | 24281m | 5.4m/s | -52.7°C | 3.6% | 0hPa | 2.6V | 00:00:00 | 00:00:00 | 00:00:00 | |
| OE5DXL-15 | 2026-08-31 12:41:27 | 45.96585 | 16.96499 | 359° | 15km/h | 24260m | 5.7m/s | -52.7°C | 3.6% | 0hPa | 2.6V | 00:00:00 | 00:00:00 | 00:00:00 | |
| 9A1FER-3 | 2026-08-31 12:41:26 | 45.96579 | 16.96500 | 357° | 20km/h | 24254m | 5.0m/s | -52.8°C | 3.6% | 0hPa | 2.6V | 00:00:00 | 01:40:00 | 00:00:00 | |
| 9A1FER-10 | 2026-08-31 12:41:25 | 45.96572 | 16.96500 | 360° | 20km/h | 24249m | 5.9m/s | -52.8°C | 3.6% | 0hPa | 2.6V | 00:00:00 | 01:39:59 | 00:00:00 | |
| PETON7-10 | 2026-08-31 12:41:23 | 45.96558 | 16.96499 | 3° | 18km/h | 24239m | 3.9m/s | -52.8°C | 3.6% | 0hPa | 2.6V | 00:00:00 | 00:00:00 | 08:30:00 | |
| 9A1FER-3 | 2026-08-31 12:41:11 | 45.96501 | 16.96499 | 13° | 7km/h | 24174m | 4.9m/s | -53.4°C | 3.7% | 0hPa | 2.6V | 00:00:00 | 01:39:45 | 00:00:00 | |
| 9A1FER-10 | 2026-08-31 12:41:10 | 45.96498 | 16.96498 | 7° | 5km/h | 24169m | 5.9m/s | -53.3°C | 3.7% | 0hPa | 2.6V | 00:00:00 | 01:39:44 | 00:00:00 | |
| PETON7-10 | 2026-08-31 12:41:08 | 45.96492 | 16.96499 | 342° | 7km/h | 24158m | 4.4m/s | -53.4°C | 3.7% | 0hPa | 2.6V | 00:00:00 | 00:00:00 | 00:00:00 | |
| OE5DRO-10 | 2026-08-31 12:41:07 | 45.96489 | 16.96501 | 347° | 5km/h | 24153m | 5.5m/s | -53.4°C | 3.8% | 0hPa | 2.6V | 00:00:00 | 00:00:00 | 00:00:00 | |
| PG1ADW-2 | 2026-08-31 12:41:03 | 45.96482 | 16.96502 | 334° | 5km/h | 24129m | 5.5m/s | -53.1°C | 3.7% | 0hPa | 2.7V | 00:00:00 | 01:39:37 | 00:00:00 | |
| OE3JTB-15 | 2026-08-31 12:41:02 | 45.96481 | 16.96503 | 328° | 5km/h | 24124m | 5.3m/s | -53.1°C | 3.7% | 0hPa | 2.6V | 00:00:00 | 01:39:36 | 00:00:00 | |
| OE5DXL-15 | 2026-08-31 12:40:57 | 45.96481 | 16.96504 | 282° | 7km/h | 24097m | 4.2m/s | -53.4°C | 3.8% | 0hPa | 2.6V | 00:00:00 | 00:00:00 | 00:00:00 | |
| 9A1FER-3 | 2026-08-31 12:40:56 | 45.96480 | 16.96506 | 292° | 5km/h | 24092m | 5.6m/s | -53.4°C | 3.8% | 0hPa | 2.7V | 00:00:00 | 01:39:30 | 00:00:00 | |
| 9A1FER-10 | 2026-08-31 12:40:55 | 45.96480 | 16.96507 | 330° | 5km/h | 24086m | 6.2m/s | -53.4°C | 3.8% | 0hPa | 2.7V | 00:00:00 | 01:39:29 | 00:00:00 | |
| PETON7-10 | 2026-08-31 12:40:53 | 45.96477 | 16.96508 | 354° | 5km/h | 24075m | 5.0m/s | -53.4°C | 3.8% | 0hPa | 2.6V | 00:00:00 | 01:39:27 | 00:00:00 | |
| OE5DRO-10 | 2026-08-31 12:40:48 | 45.96474 | 16.96513 | 225° | 7km/h | 24048m | 4.7m/s | -53.1°C | 3.7% | 0hPa | 2.6V | 00:00:00 | 00:00:00 | 00:00:00 | |
| PG1ADW-2 | 2026-08-31 12:40:43 | 45.96477 | 16.96527 | 262° | 9km/h | 24022m | 5.6m/s | -53.0°C | 3.6% | 0hPa | 2.6V | 00:00:00 | 00:00:00 | 00:00:00 | |
| 9A1FER-3 | 2026-08-31 12:40:41 | 45.96479 | 16.96530 | 207° | 9km/h | 24011m | 5.2m/s | -53.0°C | 3.7% | 0hPa | 2.6V | 00:00:00 | 01:39:15 | 00:00:00 | |
| 9A1FER-10 | 2026-08-31 12:40:40 | 45.96480 | 16.96531 | 206° | 9km/h | 24005m | 6.6m/s | -52.9°C | 3.6% | 0hPa | 2.6V | 00:00:00 | 01:39:14 | 00:00:00 | |
| PETON7-10 | 2026-08-31 12:40:37 | 45.96485 | 16.96535 | 207° | 9km/h | 23987m | 6.5m/s | -53.0°C | 3.7% | 0hPa | 2.6V | 00:00:00 | 00:00:00 | 00:00:00 | |
| OE3JTB-15 | 2026-08-31 12:40:33 | 45.96486 | 16.96546 | 294° | 9km/h | 23960m | 4.6m/s | -53.1°C | 3.7% | 0hPa | 2.6V | 00:00:00 | 00:00:00 | 08:30:00 | |
| OE5DRO-10 | 2026-08-31 12:40:28 | 45.96480 | 16.96561 | 287° | 11km/h | 23938m | 5.8m/s | -53.2°C | 3.7% | 0hPa | 2.7V | 00:00:00 | 00:00:00 | 00:00:00 | |
| OE5DXL-15 | 2026-08-31 12:40:27 | 45.96479 | 16.96566 | 276° | 9km/h | 23933m | 5.1m/s | -53.3°C | 3.8% | 0hPa | 2.7V | 00:00:00 | 00:00:00 | 00:00:00 | |
| 9A1FER-3 | 2026-08-31 12:40:26 | 45.96479 | 16.96569 | 263° | 11km/h | 23927m | 5.8m/s | -53.4°C | 3.8% | 0hPa | 2.7V | 00:00:00 | 01:39:00 | 00:00:00 | |
| 9A1FER-10 | 2026-08-31 12:40:25 | 45.96480 | 16.96572 | 231° | 11km/h | 23922m | 5.5m/s | -53.4°C | 3.8% | 0hPa | 2.7V | 00:00:00 | 01:38:59 | 00:00:00 | |
| PG1ADW-2 | 2026-08-31 12:40:23 | 45.96483 | 16.96575 | 203° | 9km/h | 23912m | 6.0m/s | -53.6°C | 3.8% | 0hPa | 2.7V | 00:00:00 | 00:00:00 | 00:00:00 | |
| PETON7-10 | 2026-08-31 12:40:22 | 45.96486 | 16.96577 | 211° | 11km/h | 23906m | 5.7m/s | -53.7°C | 3.9% | 0hPa | 2.7V | 00:00:00 | 00:00:00 | 00:00:00 | |
| 9A1FER-3 | 2026-08-31 12:40:11 | 45.96485 | 16.96618 | 292° | 7km/h | 23844m | 6.5m/s | -53.5°C | 3.9% | 0hPa | 2.7V | 00:00:00 | 01:38:45 | 08:30:00 | |
| 9A1FER-10 | 2026-08-31 12:40:10 | 45.96485 | 16.96622 | 283° | 7km/h | 23838m | 5.3m/s | -53.4°C | 3.9% | 0hPa | 2.7V | 00:00:00 | 01:38:44 | 08:30:00 | |
| OE5DRO-10 | 2026-08-31 12:40:08 | 45.96484 | 16.96627 | 306° | 7km/h | 23827m | 6.2m/s | -53.3°C | 3.8% | 0hPa | 2.6V | 00:00:00 | 00:00:00 | 08:30:00 | |
| PETON7-10 | 2026-08-31 12:40:07 | 45.96483 | 16.96627 | 355° | 7km/h | 23822m | 5.0m/s | -53.2°C | 3.8% | 0hPa | 2.6V | 00:00:00 | 01:38:41 | 00:00:00 | |
| OE3JTB-15 | 2026-08-31 12:40:04 | 45.96482 | 16.96627 | 12° | 13km/h | 23805m | 4.6m/s | -53.1°C | 3.7% | 0hPa | 2.6V | 00:00:00 | 00:00:00 | 00:00:00 | |
| OE5DXL-15 | 2026-08-31 12:39:57 | 45.96469 | 16.96638 | 323° | 9km/h | 23766m | 6.0m/s | -53.2°C | 3.7% | 0hPa | 2.6V | 00:00:00 | 00:00:00 | 00:00:00 | |
| 9A1FER-3 | 2026-08-31 12:39:56 | 45.96467 | 16.96640 | 331° | 11km/h | 23760m | 4.9m/s | -53.2°C | 3.8% | 0hPa | 2.6V | 00:00:00 | 01:38:30 | 00:00:00 | |
| 9A1FER-10 | 2026-08-31 12:39:55 | 45.96464 | 16.96642 | 331° | 11km/h | 23755m | 5.4m/s | -53.1°C | 3.8% | 0hPa | 2.6V | 00:00:00 | 01:38:29 | 00:00:00 | |
| OE5DRO-10 | 2026-08-31 12:39:50 | 45.96455 | 16.96644 | 10° | 9km/h | 23723m | 6.1m/s | -53.1°C | 3.7% | 0hPa | 2.6V | 00:00:00 | 00:00:00 | 00:00:00 | |
| PETON7-10 | 2026-08-31 12:39:46 | 45.96447 | 16.96641 | 19° | 9km/h | 23706m | 6.7m/s | -53.2°C | 3.7% | 0hPa | 2.6V | 00:00:00 | 00:00:00 | 00:00:00 | |
| PG1ADW-2 | 2026-08-31 12:39:43 | 45.96435 | 16.96636 | 10° | 11km/h | 23689m | 5.3m/s | -53.3°C | 3.7% | 0hPa | 2.7V | 00:00:00 | 01:38:17 | 00:00:00 | |
| 9A1FER-3 | 2026-08-31 12:39:41 | 45.96429 | 16.96635 | 2° | 9km/h | 23678m | 6.0m/s | -53.2°C | 3.8% | 0hPa | 2.7V | 00:00:00 | 01:38:15 | 00:00:00 | |
| 9A1FER-10 | 2026-08-31 12:39:40 | 45.96426 | 16.96635 | 360° | 9km/h | 23673m | 4.6m/s | -53.2°C | 3.7% | 0hPa | 2.7V | 00:00:00 | 01:38:14 | 00:00:00 | |
| PETON7-10 | 2026-08-31 12:39:31 | 45.96418 | 16.96626 | 74° | 15km/h | 23624m | 4.6m/s | -53.5°C | 3.8% | 0hPa | 2.7V | 00:00:00 | 00:00:00 | 00:00:00 | |
| OE5DRO-10 | 2026-08-31 12:39:30 | 45.96417 | 16.96622 | 65° | 15km/h | 23619m | 5.8m/s | -53.4°C | 3.8% | 0hPa | 2.7V | 00:00:00 | 00:00:00 | 00:00:00 | |
| OE5DXL-15 | 2026-08-31 12:39:27 | 45.96409 | 16.96608 | 45° | 16km/h | 23602m | 6.0m/s | -53.3°C | 3.9% | 0hPa | 2.7V | 00:00:00 | 01:38:01 | 08:30:00 | |
| 9A1FER-10 | 2026-08-31 12:39:25 | 45.96405 | 16.96601 | 46° | 16km/h | 23591m | 4.6m/s | -53.2°C | 3.8% | 0hPa | 2.6V | 00:00:00 | 01:37:59 | 00:00:00 | |
| PG1ADW-2 | 2026-08-31 12:39:23 | 45.96399 | 16.96595 | 37° | 16km/h | 23581m | 5.6m/s | -53.2°C | 3.8% | 0hPa | 2.6V | 00:00:00 | 00:00:00 | 00:00:00 | |
| PETON7-10 | 2026-08-31 12:39:16 | 45.96381 | 16.96565 | 48° | 18km/h | 23543m | 5.3m/s | -53.3°C | 3.7% | 0hPa | 2.6V | 00:00:00 | 01:37:50 | 00:00:00 | |
| 9A1FER-3 | 2026-08-31 12:39:11 | 45.96367 | 16.96543 | 37° | 20km/h | 23517m | 4.6m/s | -53.2°C | 3.7% | 0hPa | 2.6V | 00:00:00 | 01:37:45 | 00:00:00 | |
| 9A1FER-10 | 2026-08-31 12:39:10 | 45.96363 | 16.96539 | 34° | 18km/h | 23512m | 4.4m/s | -53.2°C | 3.7% | 0hPa | 2.6V | 00:00:00 | 01:37:44 | 00:00:00 | |
| OE3JTB-15 | 2026-08-31 12:39:06 | 45.96349 | 16.96524 | 34° | 15km/h | 23492m | 6.4m/s | -53.4°C | 3.8% | 0hPa | 2.6V | 00:00:00 | 01:37:40 | 00:00:00 | |
| PG1ADW-2 | 2026-08-31 12:39:03 | 45.96334 | 16.96513 | 23° | 20km/h | 23475m | 5.8m/s | -53.4°C | 3.9% | 0hPa | 2.6V | 00:00:00 | 00:00:00 | 00:00:00 | |
| PETON7-10 | 2026-08-31 12:39:01 | 45.96325 | 16.96509 | 14° | 20km/h | 23464m | 6.2m/s | -53.4°C | 3.8% | 0hPa | 2.6V | 00:00:00 | 00:00:00 | 08:30:00 | |
| OE5DXL-15 | 2026-08-31 12:38:57 | 45.96306 | 16.96503 | 18° | 18km/h | 23442m | 4.9m/s | -53.4°C | 3.8% | 0hPa | 2.7V | 00:00:00 | 00:00:00 | 00:00:00 | |
| 9A1FER-3 | 2026-08-31 12:38:56 | 45.96302 | 16.96501 | 23° | 20km/h | 23438m | 4.3m/s | -53.3°C | 3.7% | 0hPa | 2.7V | 00:00:00 | 01:37:30 | 00:00:00 | |
| 9A1FER-10 | 2026-08-31 12:38:55 | 45.96298 | 16.96499 | 25° | 20km/h | 23432m | 6.3m/s | -53.3°C | 3.8% | 0hPa | 2.7V | 00:00:00 | 01:37:29 | 00:00:00 | |
| OE5DRO-10 | 2026-08-31 12:38:52 | 45.96284 | 16.96491 | 21° | 18km/h | 23417m | 5.9m/s | -53.4°C | 3.8% | 0hPa | 2.7V | 00:00:00 | 00:00:00 | 00:00:00 | |
| PETON7-10 | 2026-08-31 12:38:46 | 45.96252 | 16.96482 | 356° | 18km/h | 23385m | 5.9m/s | -53.2°C | 3.9% | 0hPa | 2.7V | 00:00:00 | 00:00:00 | 00:00:00 | |
| PG1ADW-2 | 2026-08-31 12:38:43 | 45.96238 | 16.96485 | 352° | 18km/h | 23368m | 5.6m/s | -53.1°C | 3.8% | 0hPa | 2.7V | 00:00:00 | 00:00:00 | 00:00:00 | |
| 9A1FER-3 | 2026-08-31 12:38:41 | 45.96230 | 16.96487 | 350° | 18km/h | 23356m | 5.7m/s | -53.3°C | 3.8% | 0hPa | 2.7V | 00:00:00 | 01:37:15 | 00:00:00 | |
| 9A1FER-10 | 2026-08-31 12:38:40 | 45.96227 | 16.96488 | 350° | 18km/h | 23351m | 3.9m/s | -53.2°C | 3.8% | 0hPa | 2.7V | 00:00:00 | 01:37:14 | 00:00:00 | |
| PETON7-10 | 2026-08-31 12:38:31 | 45.96186 | 16.96504 | 323° | 18km/h | 23304m | 6.1m/s | -53.0°C | 3.8% | 0hPa | 2.7V | 00:00:00 | 01:37:05 | 00:00:00 | |
| OE5DRO-10 | 2026-08-31 12:38:28 | 45.96176 | 16.96516 | 322° | 18km/h | 23287m | 5.0m/s | -52.8°C | 3.8% | 0hPa | 2.7V | 00:00:00 | 00:00:00 | 00:00:00 | |
| OE5DXL-15 | 2026-08-31 12:38:27 | 45.96172 | 16.96520 | 319° | 18km/h | 23282m | 6.2m/s | -52.8°C | 3.7% | 0hPa | 2.7V | 00:00:00 | 00:00:00 | 00:00:00 | |
| 9A1FER-3 | 2026-08-31 12:38:26 | 45.96169 | 16.96525 | 314° | 18km/h | 23276m | 5.1m/s | -52.7°C | 3.7% | 0hPa | 2.7V | 00:00:00 | 01:37:00 | 00:00:00 | |
| 9A1FER-10 | 2026-08-31 12:38:25 | 45.96166 | 16.96529 | 316° | 18km/h | 23271m | 4.6m/s | -52.8°C | 3.6% | 0hPa | 2.7V | 00:00:00 | 01:36:59 | 00:00:00 | |
| 9A1FER-3 | 2026-08-31 12:38:11 | 45.96121 | 16.96596 | 303° | 16km/h | 23199m | 4.7m/s | -52.9°C | 3.7% | 0hPa | 2.7V | 00:00:00 | 01:36:45 | 00:00:00 | |
| 9A1FER-10 | 2026-08-31 12:38:10 | 45.96118 | 16.96603 | 301° | 15km/h | 23194m | 4.5m/s | -53.0°C | 3.7% | 0hPa | 2.7V | 00:00:00 | 01:36:44 | 00:00:00 | |
| OE5DRO-10 | 2026-08-31 12:38:09 | 45.96115 | 16.96612 | 296° | 13km/h | 23189m | 5.7m/s | -53.0°C | 3.7% | 0hPa | 2.7V | 00:00:00 | 00:00:00 | 00:00:00 | |
| PG1ADW-2 | 2026-08-31 12:38:03 | 45.96102 | 16.96650 | 294° | 9km/h | 23159m | 6.3m/s | -52.9°C | 3.8% | 0hPa | 2.7V | 00:00:00 | 00:00:00 | 00:00:00 | |
| PETON7-10 | 2026-08-31 12:38:01 | 45.96101 | 16.96658 | 276° | 9km/h | 23148m | 4.7m/s | -52.8°C | 3.8% | 0hPa | 2.7V | 00:00:00 | 00:00:00 | 00:00:00 | |
| OE5DXL-15 | 2026-08-31 12:37:57 | 45.96100 | 16.96672 | 254° | 9km/h | 23125m | 5.5m/s | -52.7°C | 3.6% | 0hPa | 2.7V | 00:00:00 | 00:00:00 | 00:00:00 | |
| 9A1FER-3 | 2026-08-31 12:37:56 | 45.96101 | 16.96674 | 253° | 9km/h | 23120m | 4.7m/s | -52.7°C | 3.7% | 0hPa | 2.6V | 00:00:00 | 01:36:30 | 08:30:00 | |
| 9A1FER-10 | 2026-08-31 12:37:55 | 45.96101 | 16.96677 | 269° | 9km/h | 23115m | 6.3m/s | -52.7°C | 3.7% | 0hPa | 2.6V | 00:00:00 | 01:36:29 | 08:30:00 | |
| OE5DRO-10 | 2026-08-31 12:37:50 | 45.96102 | 16.96694 | 243° | 9km/h | 23088m | 4.6m/s | -52.6°C | 3.7% | 0hPa | 2.6V | 00:00:00 | 00:00:00 | 00:00:00 | |
| PETON7-10 | 2026-08-31 12:37:46 | 45.96105 | 16.96706 | 235° | 9km/h | 23068m | 6.1m/s | -52.6°C | 3.6% | 0hPa | 2.6V | 00:00:00 | 01:36:20 | 00:00:00 | |
| PG1ADW-2 | 2026-08-31 12:37:43 | 45.96109 | 16.96712 | 239° | 9km/h | 23051m | 5.4m/s | -52.7°C | 3.7% | 0hPa | 2.6V | 00:00:00 | 00:00:00 | 00:00:00 | |
| 9A1FER-3 | 2026-08-31 12:37:41 | 45.96112 | 16.96719 | 241° | 9km/h | 23042m | 4.7m/s | -52.6°C | 3.7% | 0hPa | 2.6V | 00:00:00 | 01:36:15 | 00:00:00 | |
| 9A1FER-10 | 2026-08-31 12:37:40 | 45.96113 | 16.96722 | 230° | 9km/h | 23036m | 6.1m/s | -52.6°C | 3.7% | 0hPa | 2.6V | 00:00:00 | 01:36:14 | 00:00:00 | |
| OE5DRO-10 | 2026-08-31 12:37:31 | 45.96128 | 16.96739 | 193° | 11km/h | 22989m | 5.7m/s | -52.7°C | 3.7% | 0hPa | 2.6V | 00:00:00 | 00:00:00 | 00:00:00 | |
| OE5DXL-15 | 2026-08-31 12:37:27 | 45.96138 | 16.96739 | 178° | 13km/h | 22968m | 4.4m/s | -52.9°C | 3.7% | 0hPa | 2.6V | 00:00:00 | 00:00:00 | 00:00:00 | |
| 9A1FER-3 | 2026-08-31 12:37:26 | 45.96142 | 16.96739 | 183° | 13km/h | 22962m | 6.2m/s | -52.8°C | 3.6% | 0hPa | 2.6V | 00:00:00 | 01:36:00 | 00:00:00 | |
| 9A1FER-10 | 2026-08-31 12:37:25 | 45.96145 | 16.96740 | 187° | 13km/h | 22957m | 5.1m/s | -52.8°C | 3.7% | 0hPa | 2.6V | 00:00:00 | 01:35:59 | 00:00:00 | |
| PG1ADW-2 | 2026-08-31 12:37:23 | 45.96152 | 16.96740 | 181° | 11km/h | 22946m | 5.4m/s | -52.8°C | 3.7% | 0hPa | 2.6V | 00:00:00 | 00:00:00 | 00:00:00 | |
| PETON7-10 | 2026-08-31 12:37:15 | 45.96171 | 16.96719 | 131° | 13km/h | 22906m | 5.1m/s | -52.8°C | 3.8% | 0hPa | 2.6V | 00:00:00 | 00:00:00 | 00:00:00 | |
| 9A1FER-3 | 2026-08-31 12:37:11 | 45.96178 | 16.96704 | 132° | 13km/h | 22887m | 4.4m/s | -52.9°C | 3.7% | 0hPa | 2.6V | 00:00:00 | 01:35:45 | 00:00:00 | |
| 9A1FER-10 | 2026-08-31 12:37:10 | 45.96180 | 16.96701 | 147° | 13km/h | 22882m | 4.4m/s | -52.9°C | 3.7% | 0hPa | 2.6V | 00:00:00 | 01:35:44 | 00:00:00 | |
| PG1ADW-2 | 2026-08-31 12:37:03 | 45.96189 | 16.96684 | 101° | 15km/h | 22845m | 4.2m/s | -52.5°C | 3.7% | 0hPa | 2.6V | 00:00:00 | 01:35:37 | 08:30:00 | |
| PETON7-10 | 2026-08-31 12:37:00 | 45.96189 | 16.96664 | 85° | 13km/h | 22829m | 5.1m/s | -52.5°C | 3.6% | 0hPa | 2.7V | 00:00:00 | 01:35:34 | 00:00:00 | |
| OE5DXL-15 | 2026-08-31 12:36:57 | 45.96189 | 16.96646 | 91° | 13km/h | 22813m | 5.4m/s | -52.6°C | 3.6% | 0hPa | 2.7V | 00:00:00 | 00:00:00 | 00:00:00 | |
| 9A1FER-3 | 2026-08-31 12:36:56 | 45.96189 | 16.96643 | 76° | 13km/h | 22807m | 5.8m/s | -52.6°C | 3.7% | 0hPa | 2.7V | 00:00:00 | 01:35:30 | 00:00:00 | |
| 9A1FER-10 | 2026-08-31 12:36:55 | 45.96188 | 16.96640 | 50° | 13km/h | 22802m | 4.4m/s | -52.6°C | 3.6% | 0hPa | 2.7V | 00:00:00 | 01:35:29 | 00:00:00 | |
| PETON7-10 | 2026-08-31 12:36:45 | 45.96177 | 16.96599 | 67° | 15km/h | 22749m | 5.9m/s | -52.6°C | 3.7% | 0hPa | 2.7V | 00:00:00 | 00:00:00 | 08:30:00 | |
| 9A1FER-3 | 2026-08-31 12:36:41 | 45.96167 | 16.96582 | 42° | 15km/h | 22729m | 4.3m/s | -52.5°C | 3.7% | 0hPa | 2.6V | 00:00:00 | 01:35:15 | 00:00:00 | |
| 9A1FER-10 | 2026-08-31 12:36:40 | 45.96164 | 16.96579 | 34° | 15km/h | 22723m | 5.6m/s | -52.5°C | 3.6% | 0hPa | 2.6V | 00:00:00 | 01:35:14 | 00:00:00 | |
| PETON7-10 | 2026-08-31 12:36:30 | 45.96138 | 16.96548 | 53° | 11km/h | 22671m | 5.0m/s | -52.5°C | 3.6% | 0hPa | 2.6V | 00:00:00 | 00:00:00 | 00:00:00 | |
| OE5DXL-15 | 2026-08-31 12:36:27 | 45.96130 | 16.96535 | 45° | 11km/h | 22655m | 4.4m/s | -52.6°C | 3.6% | 0hPa | 2.6V | 00:00:00 | 00:00:00 | 00:00:00 | |
| 9A1FER-3 | 2026-08-31 12:36:26 | 45.96127 | 16.96530 | 44° | 9km/h | 22650m | 5.8m/s | -52.7°C | 3.6% | 0hPa | 2.7V | 00:00:00 | 01:35:00 | 00:00:00 | |
| 9A1FER-10 | 2026-08-31 12:36:25 | 45.96124 | 16.96527 | 42° | 9km/h | 22644m | 5.6m/s | -52.7°C | 3.6% | 0hPa | 2.7V | 00:00:00 | 01:34:59 | 00:00:00 | |
| PG1ADW-2 | 2026-08-31 12:36:23 | 45.96121 | 16.96524 | 360° | 9km/h | 22634m | 5.7m/s | -52.8°C | 3.7% | 0hPa | 2.7V | 00:00:00 | 00:00:00 | 00:00:00 | |
| PETON7-10 | 2026-08-31 12:36:15 | 45.96109 | 16.96528 | 29° | 11km/h | 22591m | 5.9m/s | -53.0°C | 3.7% | 0hPa | 2.7V | 00:00:00 | 01:34:49 | 00:00:00 | |
| 9A1FER-3 | 2026-08-31 12:36:11 | 45.96099 | 16.96523 | 15° | 13km/h | 22569m | 4.7m/s | -52.9°C | 3.6% | 0hPa | 2.7V | 00:00:00 | 01:34:45 | 00:00:00 | |
| PG1ADW-2 | 2026-08-31 12:36:03 | 45.96076 | 16.96523 | 357° | 15km/h | 22527m | 4.2m/s | -52.9°C | 3.7% | 0hPa | 2.7V | 00:00:00 | 00:00:00 | 00:00:00 | |
| OE5DRO-10 | 2026-08-31 12:36:01 | 45.96071 | 16.96522 | 16° | 15km/h | 22517m | 5.8m/s | -53.0°C | 3.8% | 0hPa | 2.6V | 00:00:00 | 00:00:00 | 08:30:00 | |
| PETON7-10 | 2026-08-31 12:36:00 | 45.96067 | 16.96521 | 18° | 15km/h | 22511m | 5.6m/s | -52.9°C | 3.7% | 0hPa | 2.6V | 00:00:00 | 00:00:00 | 00:00:00 | |
| OE5DXL-15 | 2026-08-31 12:35:57 | 45.96056 | 16.96516 | 18° | 18km/h | 22495m | 5.4m/s | -53.1°C | 3.8% | 0hPa | 2.6V | 00:00:00 | 00:00:00 | 00:00:00 | |
| 9A1FER-3 | 2026-08-31 12:35:56 | 45.96052 | 16.96514 | 15° | 16km/h | 22489m | 5.8m/s | -53.0°C | 3.7% | 0hPa | 2.6V | 00:00:00 | 01:34:30 | 00:00:00 | |
| 9A1FER-10 | 2026-08-31 12:35:55 | 45.96048 | 16.96513 | 9° | 16km/h | 22484m | 4.5m/s | -53.0°C | 3.7% | 0hPa | 2.6V | 00:00:00 | 01:34:29 | 00:00:00 | |
| PETON7-10 | 2026-08-31 12:35:45 | 45.96012 | 16.96523 | 3° | 20km/h | 22429m | 6.2m/s | -52.9°C | 3.7% | 0hPa | 2.6V | 00:00:00 | 00:00:00 | 00:00:00 | |
| PG1ADW-2 | 2026-08-31 12:35:43 | 45.96001 | 16.96521 | 12° | 18km/h | 22418m | 6.3m/s | -53.0°C | 3.8% | 0hPa | 2.6V | 00:00:00 | 01:34:17 | 00:00:00 | |
| 9A1FER-3 | 2026-08-31 12:35:41 | 45.95990 | 16.96518 | 6° | 18km/h | 22407m | 6.0m/s | -53.0°C | 3.8% | 0hPa | 2.6V | 00:00:00 | 01:34:15 | 08:30:00 | |
| 9A1FER-10 | 2026-08-31 12:35:40 | 45.95985 | 16.96518 | 357° | 18km/h | 22401m | 5.9m/s | -52.9°C | 3.7% | 0hPa | 2.6V | 00:00:00 | 01:34:14 | 08:30:00 | |
| PETON7-10 | 2026-08-31 12:35:29 | 45.95939 | 16.96554 | 358° | 15km/h | 22340m | 5.5m/s | -53.0°C | 3.8% | 0hPa | 2.7V | 00:00:00 | 01:34:03 | 00:00:00 | |
| OE5DXL-15 | 2026-08-31 12:35:27 | 45.95931 | 16.96554 | 356° | 16km/h | 22329m | 5.0m/s | -52.9°C | 3.8% | 0hPa | 2.7V | 00:00:00 | 00:00:00 | 00:00:00 | |
| 9A1FER-3 | 2026-08-31 12:35:26 | 45.95927 | 16.96555 | 350° | 15km/h | 22323m | 6.1m/s | -52.9°C | 3.8% | 0hPa | 2.7V | 00:00:00 | 01:34:00 | 00:00:00 | |
| 9A1FER-10 | 2026-08-31 12:35:25 | 45.95924 | 16.96556 | 340° | 15km/h | 22318m | 4.5m/s | -52.9°C | 3.8% | 0hPa | 2.7V | 00:00:00 | 01:33:59 | 00:00:00 | |
| PG1ADW-2 | 2026-08-31 12:35:23 | 45.95918 | 16.96562 | 314° | 16km/h | 22308m | 5.5m/s | -52.9°C | 3.8% | 0hPa | 2.7V | 00:00:00 | 00:00:00 | 00:00:00 | |
| PETON7-10 | 2026-08-31 12:35:14 | 45.95893 | 16.96594 | 344° | 18km/h | 22259m | 4.4m/s | -52.5°C | 3.6% | 0hPa | 2.7V | 00:00:00 | 00:00:00 | 00:00:00 | |
| 9A1FER-3 | 2026-08-31 12:35:11 | 45.95882 | 16.96601 | 323° | 18km/h | 22244m | 5.0m/s | -52.4°C | 3.6% | 0hPa | 2.6V | 00:00:00 | 01:33:45 | 00:00:00 | |
| 9A1FER-10 | 2026-08-31 12:35:10 | 45.95880 | 16.96604 | 311° | 16km/h | 22239m | 4.8m/s | -52.3°C | 3.6% | 0hPa | 2.6V | 00:00:00 | 01:33:44 | 00:00:00 | |
| PETON7-10 | 2026-08-31 12:34:59 | 45.95847 | 16.96665 | 323° | 11km/h | 22180m | 5.7m/s | -52.0°C | 3.6% | 0hPa | 2.6V | 00:00:00 | 00:00:00 | 00:00:00 | |
| OE5DXL-15 | 2026-08-31 12:34:57 | 45.95842 | 16.96671 | 323° | 9km/h | 22170m | 6.2m/s | -52.0°C | 3.5% | 0hPa | 2.6V | 00:00:00 | 00:00:00 | 08:30:00 | |
| 9A1FER-3 | 2026-08-31 12:34:56 | 45.95840 | 16.96673 | 306° | 11km/h | 22164m | 4.9m/s | -51.9°C | 3.5% | 0hPa | 2.6V | 00:00:00 | 01:33:30 | 00:00:00 | |
| 9A1FER-10 | 2026-08-31 12:34:55 | 45.95840 | 16.96674 | 263° | 9km/h | 22160m | 4.2m/s | -51.9°C | 3.5% | 0hPa | 2.7V | 00:00:00 | 01:33:29 | 00:00:00 | |
| PETON7-10 | 2026-08-31 12:34:44 | 45.95821 | 16.96710 | 323° | 7km/h | 22102m | 5.6m/s | -52.2°C | 3.6% | 0hPa | 2.6V | 00:00:00 | 01:33:18 | 00:00:00 | |
| PG1ADW-2 | 2026-08-31 12:34:43 | 45.95819 | 16.96713 | 329° | 7km/h | 22097m | 5.2m/s | -52.2°C | 3.6% | 0hPa | 2.6V | 00:00:00 | 00:00:00 | 00:00:00 | |
| 9A1FER-3 | 2026-08-31 12:34:41 | 45.95817 | 16.96715 | 292° | 5km/h | 22086m | 5.0m/s | -52.2°C | 3.6% | 0hPa | 2.6V | 00:00:00 | 01:33:15 | 00:00:00 | |
| 9A1FER-10 | 2026-08-31 12:34:40 | 45.95817 | 16.96716 | 208° | 7km/h | 22081m | 4.4m/s | -52.1°C | 3.5% | 0hPa | 2.6V | 00:00:00 | 01:33:14 | 00:00:00 | |
| PETON7-10 | 2026-08-31 12:34:29 | 45.95808 | 16.96714 | 354° | 15km/h | 22024m | 4.3m/s | -52.6°C | 3.6% | 0hPa | 2.6V | 00:00:00 | 00:00:00 | 08:30:00 | |
| OE5DXL-15 | 2026-08-31 12:34:27 | 45.95804 | 16.96712 | 56° | 15km/h | 22013m | 4.7m/s | -52.6°C | 3.7% | 0hPa | 2.7V | 00:00:00 | 00:00:00 | 00:00:00 | |
| 9A1FER-3 | 2026-08-31 12:34:26 | 45.95803 | 16.96709 | 75° | 15km/h | 22008m | 4.8m/s | -52.7°C | 3.6% | 0hPa | 2.7V | 00:00:00 | 01:33:00 | 00:00:00 | |
| 9A1FER-10 | 2026-08-31 12:34:25 | 45.95803 | 16.96706 | 86° | 15km/h | 22003m | 5.6m/s | -52.7°C | 3.6% | 0hPa | 2.7V | 00:00:00 | 01:32:59 | 00:00:00 | |
| PG1ADW-2 | 2026-08-31 12:34:23 | 45.95803 | 16.96698 | 84° | 15km/h | 21993m | 5.3m/s | -52.7°C | 3.6% | 0hPa | 2.7V | 00:00:00 | 01:32:57 | 00:00:00 | |
| PETON7-10 | 2026-08-31 12:34:14 | 45.95777 | 16.96660 | 36° | 15km/h | 21946m | 5.4m/s | -53.1°C | 3.7% | 0hPa | 2.7V | 00:00:00 | 00:00:00 | 00:00:00 | |
| 9A1FER-3 | 2026-08-31 12:34:11 | 45.95768 | 16.96648 | 54° | 15km/h | 21931m | 3.3m/s | -53.1°C | 3.8% | 0hPa | 2.7V | 00:00:00 | 01:32:45 | 00:00:00 | |
| 9A1FER-10 | 2026-08-31 12:34:10 | 45.95767 | 16.96645 | 53° | 15km/h | 21926m | 6.1m/s | -53.0°C | 3.7% | 0hPa | 2.6V | 00:00:00 | 01:32:44 | 00:00:00 | |
| PG1ADW-2 | 2026-08-31 12:34:03 | 45.95747 | 16.96629 | 15° | 13km/h | 21890m | 5.3m/s | -53.2°C | 3.7% | 0hPa | 2.6V | 00:00:00 | 00:00:00 | 08:30:00 | |
| PETON7-10 | 2026-08-31 12:33:59 | 45.95729 | 16.96623 | 351° | 11km/h | 21871m | 5.3m/s | -53.2°C | 3.8% | 0hPa | 2.7V | 00:00:00 | 01:32:33 | 00:00:00 | |
| OE5DXL-15 | 2026-08-31 12:33:57 | 45.95723 | 16.96627 | 325° | 11km/h | 21861m | 5.4m/s | -53.3°C | 3.8% | 0hPa | 2.7V | 00:00:00 | 00:00:00 | 00:00:00 | |
| 9A1FER-3 | 2026-08-31 12:33:56 | 45.95721 | 16.96629 | 327° | 11km/h | 21856m | 5.2m/s | -53.3°C | 3.8% | 0hPa | 2.7V | 00:00:00 | 01:32:30 | 00:00:00 | |
| 9A1FER-10 | 2026-08-31 12:33:55 | 45.95720 | 16.96630 | 328° | 11km/h | 21851m | 4.7m/s | -53.3°C | 3.8% | 0hPa | 2.7V | 00:00:00 | 01:32:29 | 00:00:00 | |
| PETON7-10 | 2026-08-31 12:33:44 | 45.95690 | 16.96627 | 16° | 13km/h | 21795m | 5.1m/s | -53.3°C | 3.6% | 0hPa | 2.7V | 00:00:00 | 00:00:00 | 00:00:00 | |
| PG1ADW-2 | 2026-08-31 12:33:43 | 45.95687 | 16.96626 | 2° | 13km/h | 21790m | 5.6m/s | -53.4°C | 3.7% | 0hPa | 2.6V | 00:00:00 | 00:00:00 | 00:00:00 | |
| 9A1FER-3 | 2026-08-31 12:33:41 | 45.95681 | 16.96626 | 360° | 11km/h | 21779m | 5.8m/s | -53.5°C | 3.8% | 0hPa | 2.6V | 00:00:00 | 01:32:15 | 00:00:00 | |
| 9A1FER-10 | 2026-08-31 12:33:40 | 45.95678 | 16.96626 | 9° | 11km/h | 21774m | 4.5m/s | -53.6°C | 3.8% | 0hPa | 2.6V | 00:00:00 | 01:32:14 | 00:00:00 | |
| PETON7-10 | 2026-08-31 12:33:29 | 45.95648 | 16.96613 | 38° | 13km/h | 21717m | 5.6m/s | -53.5°C | 3.8% | 0hPa | 2.6V | 00:00:00 | 00:00:00 | 00:00:00 | |
| OE5DXL-15 | 2026-08-31 12:33:27 | 45.95643 | 16.96610 | 21° | 18km/h | 21707m | 3.8m/s | -53.6°C | 3.8% | 0hPa | 2.6V | 00:00:00 | 00:00:00 | 00:00:00 | |
| 9A1FER-3 | 2026-08-31 12:33:26 | 45.95640 | 16.96608 | 21° | 16km/h | 21702m | 5.0m/s | -53.6°C | 3.9% | 0hPa | 2.6V | 00:00:00 | 01:32:00 | 08:30:00 | |
| 9A1FER-10 | 2026-08-31 12:33:25 | 45.95636 | 16.96606 | 26° | 16km/h | 21697m | 5.3m/s | -53.6°C | 3.8% | 0hPa | 2.6V | 00:00:00 | 01:31:59 | 08:30:00 | |
| PG1ADW-2 | 2026-08-31 12:33:23 | 45.95630 | 16.96601 | 26° | 18km/h | 21687m | 4.5m/s | -53.5°C | 3.8% | 0hPa | 2.7V | 00:00:00 | 00:00:00 | 00:00:00 | |
| PETON7-10 | 2026-08-31 12:33:14 | 45.95598 | 16.96590 | 26° | 22km/h | 21642m | 4.6m/s | -53.7°C | 3.8% | 0hPa | 2.7V | 00:00:00 | 01:31:48 | 00:00:00 | |
| OE5DRO-10 | 2026-08-31 12:33:12 | 45.95588 | 16.96583 | 19° | 18km/h | 21633m | 5.2m/s | -53.8°C | 3.8% | 0hPa | 2.7V | 00:00:00 | 00:00:00 | 00:00:00 | |
| 9A1FER-3 | 2026-08-31 12:33:11 | 45.95583 | 16.96581 | 10° | 24km/h | 21628m | 5.0m/s | -53.8°C | 3.8% | 0hPa | 2.7V | 00:00:00 | 01:31:45 | 00:00:00 | |
| 9A1FER-10 | 2026-08-31 12:33:10 | 45.95578 | 16.96581 | 2° | 24km/h | 21623m | 4.4m/s | -53.8°C | 3.8% | 0hPa | 2.7V | 00:00:00 | 01:31:44 | 00:00:00 | |
| PG1ADW-2 | 2026-08-31 12:33:03 | 45.95543 | 16.96585 | 3° | 24km/h | 21588m | 4.5m/s | -53.8°C | 3.9% | 0hPa | 2.7V | 00:00:00 | 01:31:37 | 00:00:00 | |
| PETON7-10 | 2026-08-31 12:32:59 | 45.95518 | 16.96578 | 19° | 24km/h | 21567m | 5.7m/s | -53.9°C | 3.8% | 0hPa | 2.6V | 00:00:00 | 00:00:00 | 00:00:00 | |
| 9A1FER-3 | 2026-08-31 12:32:56 | 45.95497 | 16.96568 | 14° | 24km/h | 21553m | 5.3m/s | -53.8°C | 3.8% | 0hPa | 2.7V | 00:00:00 | 01:31:30 | 00:00:00 | |
| 9A1FER-10 | 2026-08-31 12:32:55 | 45.95490 | 16.96567 | 6° | 24km/h | 21548m | 4.3m/s | -53.8°C | 3.7% | 0hPa | 2.7V | 00:00:00 | 01:31:29 | 00:00:00 | |
| PETON7-10 | 2026-08-31 12:32:44 | 45.95431 | 16.96575 | 11° | 22km/h | 21493m | 4.4m/s | -54.2°C | 3.9% | 0hPa | 2.7V | 00:00:00 | 00:00:00 | 00:00:00 | |
| PG1ADW-2 | 2026-08-31 12:32:43 | 45.95424 | 16.96573 | 11° | 20km/h | 21487m | 5.5m/s | -54.2°C | 3.8% | 0hPa | 2.7V | 00:00:00 | 00:00:00 | 00:00:00 | |
| 9A1FER-3 | 2026-08-31 12:32:41 | 45.95412 | 16.96571 | 359° | 20km/h | 21478m | 4.3m/s | -54.2°C | 3.9% | 0hPa | 2.7V | 00:00:00 | 01:31:15 | 00:00:00 | |
| 9A1FER-10 | 2026-08-31 12:32:40 | 45.95406 | 16.96572 | 348° | 20km/h | 21473m | 5.7m/s | -54.2°C | 3.9% | 0hPa | 2.7V | 00:00:00 | 01:31:14 | 00:00:00 | |
| PETON7-10 | 2026-08-31 12:32:29 | 45.95352 | 16.96592 | 2° | 18km/h | 21417m | 5.6m/s | -54.7°C | 4.1% | 0hPa | 2.7V | 00:00:00 | 01:31:03 | 00:00:00 | |
| OE5DXL-15 | 2026-08-31 12:32:27 | 45.95342 | 16.96592 | 357° | 16km/h | 21406m | 5.9m/s | -54.7°C | 4.0% | 0hPa | 2.7V | 00:00:00 | 00:00:00 | 00:00:00 | |
| 9A1FER-3 | 2026-08-31 12:32:26 | 45.95338 | 16.96593 | 351° | 18km/h | 21401m | 4.4m/s | -54.7°C | 4.0% | 0hPa | 2.7V | 00:00:00 | 01:31:00 | 00:00:00 | |
| 9A1FER-10 | 2026-08-31 12:32:25 | 45.95333 | 16.96595 | 343° | 18km/h | 21396m | 5.2m/s | -54.8°C | 4.1% | 0hPa | 2.7V | 00:00:00 | 01:30:59 | 00:00:00 | |
| PG1ADW-2 | 2026-08-31 12:32:23 | 45.95325 | 16.96600 | 331° | 16km/h | 21386m | 4.5m/s | -54.6°C | 4.1% | 0hPa | 2.7V | 00:00:00 | 00:00:00 | 00:00:00 | |
| PETON7-10 | 2026-08-31 12:32:14 | 45.95285 | 16.96619 | 350° | 13km/h | 21341m | 5.0m/s | -54.3°C | 4.0% | 0hPa | 2.7V | 00:00:00 | 00:00:00 | 08:30:00 | |
| 9A1FER-3 | 2026-08-31 12:32:11 | 45.95270 | 16.96625 | 341° | 13km/h | 21326m | 5.2m/s | -54.4°C | 4.1% | 0hPa | 2.6V | 00:00:00 | 01:30:45 | 00:00:00 | |
| 9A1FER-10 | 2026-08-31 12:32:10 | 45.95266 | 16.96627 | 343° | 13km/h | 21321m | 5.2m/s | -54.4°C | 4.1% | 0hPa | 2.6V | 00:00:00 | 01:30:44 | 00:00:00 | |
| PG1ADW-2 | 2026-08-31 12:32:03 | 45.95250 | 16.96640 | 339° | 13km/h | 21283m | 5.5m/s | -54.3°C | 3.9% | 0hPa | 2.6V | 00:00:00 | 00:00:00 | 00:00:00 | |
| PETON7-10 | 2026-08-31 12:31:58 | 45.95234 | 16.96640 | 358° | 13km/h | 21257m | 5.2m/s | -54.0°C | 3.8% | 0hPa | 2.6V | 00:00:00 | 00:00:00 | 00:00:00 | |
| OE5DXL-15 | 2026-08-31 12:31:57 | 45.95230 | 16.96640 | 357° | 15km/h | 21252m | 4.9m/s | -54.0°C | 3.8% | 0hPa | 2.6V | 00:00:00 | 00:00:00 | 00:00:00 | |
| 9A1FER-3 | 2026-08-31 12:31:56 | 45.95227 | 16.96641 | 2° | 13km/h | 21247m | 5.5m/s | -54.1°C | 3.8% | 0hPa | 2.6V | 00:00:00 | 01:30:30 | 00:00:00 | |
| 9A1FER-10 | 2026-08-31 12:31:55 | 45.95224 | 16.96640 | 2° | 13km/h | 21242m | 4.7m/s | -54.1°C | 3.8% | 0hPa | 2.6V | 00:00:00 | 01:30:29 | 00:00:00 | |
| PETON7-10 | 2026-08-31 12:31:43 | 45.95188 | 16.96625 | 33° | 16km/h | 21178m | 4.7m/s | -54.6°C | 3.9% | 0hPa | 2.6V | 00:00:00 | 01:30:17 | 00:00:00 | |
| 9A1FER-3 | 2026-08-31 12:31:41 | 45.95182 | 16.96619 | 37° | 16km/h | 21167m | 4.4m/s | -54.7°C | 4.0% | 0hPa | 2.6V | 00:00:00 | 01:30:15 | 00:00:00 | |
| 9A1FER-10 | 2026-08-31 12:31:40 | 45.95178 | 16.96616 | 29° | 16km/h | 21163m | 4.3m/s | -54.7°C | 4.0% | 0hPa | 2.6V | 00:00:00 | 01:30:14 | 00:00:00 | |
| PETON7-10 | 2026-08-31 12:31:28 | 45.95132 | 16.96600 | 14° | 18km/h | 21099m | 4.5m/s | -54.7°C | 4.1% | 0hPa | 2.6V | 00:00:00 | 00:00:00 | 00:00:00 | |
| OE5DXL-15 | 2026-08-31 12:31:27 | 45.95127 | 16.96598 | 10° | 18km/h | 21095m | 5.2m/s | -54.6°C | 4.0% | 0hPa | 2.7V | 00:00:00 | 00:00:00 | 00:00:00 | |
| 9A1FER-3 | 2026-08-31 12:31:26 | 45.95123 | 16.96597 | 9° | 18km/h | 21089m | 4.9m/s | -54.6°C | 4.0% | 0hPa | 2.7V | 00:00:00 | 01:30:00 | 00:00:00 | |
| 9A1FER-10 | 2026-08-31 12:31:25 | 45.95119 | 16.96597 | 5° | 18km/h | 21085m | 4.6m/s | -54.6°C | 4.0% | 0hPa | 2.7V | 00:00:00 | 01:29:59 | 00:00:00 | |
| PG1ADW-2 | 2026-08-31 12:31:23 | 45.95110 | 16.96597 | 350° | 20km/h | 21074m | 4.6m/s | -54.6°C | 4.0% | 0hPa | 2.7V | 00:00:00 | 00:00:00 | 00:00:00 | |
| PETON7-10 | 2026-08-31 12:31:13 | 45.95070 | 16.96621 | 357° | 18km/h | 21024m | 5.4m/s | -54.7°C | 4.0% | 0hPa | 2.7V | 00:00:00 | 00:00:00 | 00:00:00 | |
| 9A1FER-3 | 2026-08-31 12:31:12 | 45.95060 | 16.96621 | 2° | 18km/h | 21014m | 5.3m/s | -54.6°C | 3.9% | 0hPa | 2.7V | 00:00:00 | 01:29:45 | 08:30:00 | |
| OE5DRO-10 | 2026-08-31 12:31:04 | 45.95021 | 16.96629 | 344° | 16km/h | 20978m | 4.1m/s | -54.6°C | 4.0% | 0hPa | 2.7V | 00:00:00 | 00:00:00 | 00:00:00 | |
| PG1ADW-2 | 2026-08-31 12:31:03 | 45.95017 | 16.96630 | 345° | 16km/h | 20974m | 4.9m/s | -54.6°C | 4.0% | 0hPa | 2.6V | 00:00:00 | 00:00:00 | 08:30:00 | |
| OE5DXL-15 | 2026-08-31 12:30:57 | 45.94995 | 16.96630 | 17° | 18km/h | 20944m | 5.0m/s | -54.7°C | 3.9% | 0hPa | 2.6V | 00:00:00 | 00:00:00 | 00:00:00 | |
| PETON7-10 | 2026-08-31 12:30:56 | 45.94992 | 16.96629 | 11° | 18km/h | 20939m | 5.6m/s | -54.7°C | 3.9% | 0hPa | 2.6V | 00:00:00 | 01:29:30 | 00:00:00 | |
| 9A1FER-10 | 2026-08-31 12:30:55 | 45.94988 | 16.96628 | 6° | 18km/h | 20933m | 4.9m/s | -54.7°C | 3.9% | 0hPa | 2.6V | 00:00:00 | 01:29:29 | 00:00:00 | |
| OE5DRO-10 | 2026-08-31 12:30:44 | 45.94944 | 16.96616 | 33° | 15km/h | 20876m | 5.8m/s | -55.1°C | 4.0% | 0hPa | 2.6V | 00:00:00 | 00:00:00 | 00:00:00 | |
| PG1ADW-2 | 2026-08-31 12:30:43 | 45.94940 | 16.96612 | 34° | 20km/h | 20871m | 4.9m/s | -55.2°C | 4.0% | 0hPa | 2.6V | 00:00:00 | 00:00:00 | 00:00:00 | |
| 9A1FER-3 | 2026-08-31 12:30:41 | 45.94930 | 16.96604 | 22° | 20km/h | 20860m | 6.0m/s | -55.5°C | 4.1% | 0hPa | 2.6V | 00:00:00 | 01:29:15 | 00:00:00 | |
| 9A1FER-10 | 2026-08-31 12:30:40 | 45.94925 | 16.96602 | 12° | 20km/h | 20855m | 4.6m/s | -55.5°C | 4.2% | 0hPa | 2.6V | 00:00:00 | 01:29:14 | 00:00:00 | |
| OE5DXL-15 | 2026-08-31 12:30:27 | 45.94862 | 16.96588 | 7° | 11km/h | 20789m | 6.1m/s | -55.5°C | 4.2% | 0hPa | 2.6V | 00:00:00 | 00:00:00 | 08:30:00 | |
| 9A1FER-3 | 2026-08-31 12:30:26 | 45.94858 | 16.96587 | 1° | 13km/h | 20784m | 4.3m/s | -55.4°C | 4.2% | 0hPa | 2.7V | 00:00:00 | 01:29:00 | 00:00:00 | |
| 9A1FER-10 | 2026-08-31 12:30:25 | 45.94854 | 16.96588 | 355° | 13km/h | 20779m | 4.9m/s | -55.3°C | 4.2% | 0hPa | 2.7V | 00:00:00 | 01:28:59 | 00:00:00 | |
| PG1ADW-2 | 2026-08-31 12:30:23 | 45.94846 | 16.96590 | 348° | 13km/h | 20769m | 4.4m/s | -55.3°C | 4.1% | 0hPa | 2.6V | 00:00:00 | 01:28:57 | 00:00:00 | |
| 9A1FER-3 | 2026-08-31 12:30:11 | 45.94812 | 16.96597 | 344° | 11km/h | 20708m | 6.0m/s | -55.2°C | 4.1% | 0hPa | 2.6V | 00:00:00 | 01:28:45 | 00:00:00 | |
| 9A1FER-10 | 2026-08-31 12:30:10 | 45.94810 | 16.96598 | 336° | 9km/h | 20703m | 4.5m/s | -55.2°C | 4.1% | 0hPa | 2.6V | 00:00:00 | 01:28:44 | 00:00:00 | |
| PETON7-10 | 2026-08-31 12:30:09 | 45.94808 | 16.96600 | 331° | 9km/h | 20697m | 5.8m/s | -55.2°C | 4.1% | 0hPa | 2.6V | 00:00:00 | 01:28:43 | 00:00:00 | |
| OE5DRO-10 | 2026-08-31 12:30:04 | 45.94793 | 16.96614 | 319° | 9km/h | 20673m | 4.8m/s | -55.2°C | 4.2% | 0hPa | 2.6V | 00:00:00 | 00:00:00 | 00:00:00 | |
| OE5DXL-15 | 2026-08-31 12:29:57 | 45.94784 | 16.96627 | 320° | 7km/h | 20636m | 5.5m/s | -55.1°C | 4.1% | 0hPa | 2.6V | 00:00:00 | 00:00:00 | 00:00:00 | |
| 9A1FER-3 | 2026-08-31 12:29:56 | 45.94782 | 16.96629 | 311° | 9km/h | 20631m | 5.0m/s | -55.0°C | 4.0% | 0hPa | 2.6V | 00:00:00 | 01:28:30 | 00:00:00 | |
| 9A1FER-10 | 2026-08-31 12:29:55 | 45.94781 | 16.96631 | 308° | 9km/h | 20626m | 4.7m/s | -55.1°C | 4.0% | 0hPa | 2.6V | 00:00:00 | 01:28:29 | 00:00:00 | |
| PETON7-10 | 2026-08-31 12:29:54 | 45.94780 | 16.96634 | 313° | 9km/h | 20620m | 6.1m/s | -55.2°C | 4.0% | 0hPa | 2.6V | 00:00:00 | 00:00:00 | 08:30:00 | |
| OE5DRO-10 | 2026-08-31 12:29:45 | 45.94770 | 16.96661 | 234° | 13km/h | 20573m | 4.3m/s | -55.3°C | 4.1% | 0hPa | 2.7V | 00:00:00 | 00:00:00 | 00:00:00 | |
| PG1ADW-2 | 2026-08-31 12:29:43 | 45.94771 | 16.96666 | 257° | 5km/h | 20562m | 5.3m/s | -55.2°C | 4.1% | 0hPa | 2.6V | 00:00:00 | 00:00:00 | 00:00:00 | |
| 9A1FER-3 | 2026-08-31 12:29:41 | 45.94772 | 16.96671 | 257° | 5km/h | 20551m | 4.6m/s | -55.2°C | 4.2% | 0hPa | 2.6V | 00:00:00 | 01:28:15 | 00:00:00 | |
| 9A1FER-10 | 2026-08-31 12:29:40 | 45.94772 | 16.96673 | 280° | 4km/h | 20547m | 4.8m/s | -55.3°C | 4.2% | 0hPa | 2.6V | 00:00:00 | 01:28:14 | 00:00:00 | |
| PETON7-10 | 2026-08-31 12:29:39 | 45.94771 | 16.96675 | 296° | 4km/h | 20541m | 5.7m/s | -55.3°C | 4.2% | 0hPa | 2.6V | 00:00:00 | 00:00:00 | 00:00:00 | |
| OE5DXL-15 | 2026-08-31 12:29:27 | 45.94764 | 16.96687 | 281° | 11km/h | 20480m | 5.1m/s | -55.1°C | 4.1% | 0hPa | 2.6V | 00:00:00 | 00:00:00 | 00:00:00 | |
| 9A1FER-3 | 2026-08-31 12:29:26 | 45.94764 | 16.96689 | 285° | 11km/h | 20475m | 3.8m/s | -55.1°C | 4.1% | 0hPa | 2.6V | 00:00:00 | 01:28:00 | 00:00:00 | |
| 9A1FER-10 | 2026-08-31 12:29:25 | 45.94764 | 16.96692 | 288° | 11km/h | 20470m | 5.4m/s | -55.0°C | 4.1% | 0hPa | 2.6V | 00:00:00 | 01:27:59 | 00:00:00 | |
| PETON7-10 | 2026-08-31 12:29:24 | 45.94763 | 16.96695 | 290° | 11km/h | 20465m | 5.7m/s | -54.9°C | 4.0% | 0hPa | 2.6V | 00:00:00 | 01:27:58 | 00:00:00 | |
| PG1ADW-2 | 2026-08-31 12:29:23 | 45.94762 | 16.96699 | 290° | 11km/h | 20460m | 4.2m/s | -54.9°C | 4.1% | 0hPa | 2.6V | 00:00:00 | 00:00:00 | 00:00:00 | |
| 9A1FER-3 | 2026-08-31 12:29:11 | 45.94734 | 16.96712 | 351° | 13km/h | 20399m | 4.1m/s | -55.0°C | 3.9% | 0hPa | 2.6V | 00:00:00 | 01:27:45 | 00:00:00 | |
| 9A1FER-10 | 2026-08-31 12:29:10 | 45.94731 | 16.96713 | 339° | 13km/h | 20395m | 4.4m/s | -55.1°C | 3.9% | 0hPa | 2.6V | 00:00:00 | 01:27:44 | 00:00:00 | |
| PETON7-10 | 2026-08-31 12:29:08 | 45.94726 | 16.96718 | 316° | 13km/h | 20384m | 4.5m/s | -55.3°C | 4.0% | 0hPa | 2.6V | 00:00:00 | 00:00:00 | 00:00:00 | |
| PG1ADW-2 | 2026-08-31 12:29:03 | 45.94717 | 16.96730 | 351° | 13km/h | 20359m | 5.5m/s | -55.2°C | 4.1% | 0hPa | 2.6V | 00:00:00 | 01:27:37 | 00:00:00 | |
| OE5DXL-15 | 2026-08-31 12:28:57 | 45.94696 | 16.96716 | 25° | 15km/h | 20328m | 4.9m/s | -55.5°C | 4.1% | 0hPa | 2.6V | 00:00:00 | 00:00:00 | 00:00:00 | |
| 9A1FER-3 | 2026-08-31 12:28:56 | 45.94692 | 16.96714 | 24° | 13km/h | 20323m | 5.2m/s | -55.5°C | 4.2% | 0hPa | 2.6V | 00:00:00 | 01:27:30 | 08:30:00 | |
| 9A1FER-10 | 2026-08-31 12:28:55 | 45.94688 | 16.96711 | 20° | 13km/h | 20319m | 3.8m/s | -55.5°C | 4.2% | 0hPa | 2.6V | 00:00:00 | 01:27:29 | 08:30:00 | |
| PETON7-10 | 2026-08-31 12:28:53 | 45.94682 | 16.96711 | 347° | 13km/h | 20309m | 5.2m/s | -55.7°C | 4.2% | 0hPa | 2.7V | 00:00:00 | 00:00:00 | 00:00:00 | |
| PG1ADW-2 | 2026-08-31 12:28:43 | 45.94657 | 16.96705 | 47° | 18km/h | 20259m | 5.8m/s | -55.6°C | 4.1% | 0hPa | 2.7V | 00:00:00 | 00:00:00 | 00:00:00 | |
| 9A1FER-3 | 2026-08-31 12:28:41 | 45.94649 | 16.96697 | 27° | 18km/h | 20249m | 4.3m/s | -55.7°C | 4.2% | 0hPa | 2.7V | 00:00:00 | 01:27:15 | 00:00:00 | |
| 9A1FER-10 | 2026-08-31 12:28:40 | 45.94645 | 16.96695 | 22° | 18km/h | 20244m | 5.2m/s | -55.7°C | 4.3% | 0hPa | 2.7V | 00:00:00 | 01:27:14 | 00:00:00 | |
| PETON7-10 | 2026-08-31 12:28:38 | 45.94637 | 16.96692 | 357° | 16km/h | 20235m | 4.9m/s | -55.6°C | 4.3% | 0hPa | 2.7V | 00:00:00 | 01:27:12 | 00:00:00 | |
| OE5DXL-15 | 2026-08-31 12:28:27 | 45.94590 | 16.96701 | 20° | 13km/h | 20177m | 3.9m/s | -55.0°C | 4.1% | 0hPa | 2.7V | 00:00:00 | 00:00:00 | 00:00:00 | |
| 9A1FER-3 | 2026-08-31 12:28:26 | 45.94586 | 16.96699 | 23° | 15km/h | 20173m | 5.3m/s | -55.0°C | 4.1% | 0hPa | 2.7V | 00:00:00 | 01:27:00 | 00:00:00 | |
| 9A1FER-10 | 2026-08-31 12:28:25 | 45.94582 | 16.96696 | 24° | 15km/h | 20168m | 4.7m/s | -54.8°C | 4.0% | 0hPa | 2.7V | 00:00:00 | 01:26:59 | 00:00:00 | |
| PETON7-10 | 2026-08-31 12:28:23 | 45.94575 | 16.96693 | 8° | 15km/h | 20158m | 5.7m/s | -54.9°C | 4.0% | 0hPa | 2.7V | 00:00:00 | 00:00:00 | 00:00:00 | |
| 9A1FER-3 | 2026-08-31 12:28:11 | 45.94533 | 16.96694 | 15° | 11km/h | 20099m | 3.5m/s | -54.6°C | 4.0% | 0hPa | 2.6V | 00:00:00 | 01:26:45 | 00:00:00 | |
| 9A1FER-10 | 2026-08-31 12:28:10 | 45.94529 | 16.96692 | 16° | 11km/h | 20094m | 5.4m/s | -54.7°C | 4.1% | 0hPa | 2.7V | 00:00:00 | 01:26:44 | 00:00:00 | |
| PETON7-10 | 2026-08-31 12:28:08 | 45.94522 | 16.96690 | 1° | 9km/h | 20084m | 4.5m/s | -54.6°C | 3.9% | 0hPa | 2.7V | 00:00:00 | 00:00:00 | 00:00:00 | |
| OE5DRO-10 | 2026-08-31 12:28:07 | 45.94519 | 16.96691 | 343° | 9km/h | 20079m | 5.2m/s | -54.6°C | 3.9% | 0hPa | 2.7V | 00:00:00 | 00:00:00 | 00:00:00 | |
| PG1ADW-2 | 2026-08-31 12:28:03 | 45.94511 | 16.96701 | 309° | 9km/h | 20059m | 5.1m/s | -54.6°C | 4.0% | 0hPa | 2.7V | 00:00:00 | 00:00:00 | 08:30:00 | |
| OE5DXL-15 | 2026-08-31 12:27:57 | 45.94500 | 16.96703 | 19° | 11km/h | 20029m | 4.7m/s | -54.4°C | 4.0% | 0hPa | 2.6V | 00:00:00 | 00:00:00 | 00:00:00 | |
| 9A1FER-3 | 2026-08-31 12:27:56 | 45.94497 | 16.96701 | 27° | 9km/h | 20024m | 5.9m/s | -54.3°C | 4.0% | 0hPa | 2.6V | 00:00:00 | 01:26:30 | 00:00:00 | |
| 9A1FER-10 | 2026-08-31 12:27:55 | 45.94495 | 16.96700 | 31° | 9km/h | 20018m | 4.7m/s | -54.3°C | 3.9% | 0hPa | 2.6V | 00:00:00 | 01:26:29 | 00:00:00 | |
| PETON7-10 | 2026-08-31 12:27:53 | 45.94490 | 16.96697 | 4° | 9km/h | 20008m | 4.7m/s | -54.4°C | 4.0% | 0hPa | 2.6V | 00:00:00 | 01:26:27 | 00:00:00 | |
| OE5DRO-10 | 2026-08-31 12:27:48 | 45.94478 | 16.96697 | 352° | 15km/h | 19982m | 4.9m/s | -54.2°C | 3.9% | 0hPa | 2.6V | 00:00:00 | 00:00:00 | 08:30:00 | |
| PG1ADW-2 | 2026-08-31 12:27:43 | 45.94471 | 16.96696 | 351° | 15km/h | 19957m | 4.3m/s | -54.2°C | 4.0% | 0hPa | 2.7V | 00:00:00 | 01:26:17 | 00:00:00 | |
| 9A1FER-3 | 2026-08-31 12:27:41 | 45.94466 | 16.96697 | 6° | 16km/h | 19948m | 5.5m/s | -54.2°C | 4.0% | 0hPa | 2.7V | 00:00:00 | 01:26:15 | 00:00:00 | |
| 9A1FER-10 | 2026-08-31 12:27:40 | 45.94463 | 16.96696 | 12° | 16km/h | 19942m | 4.8m/s | -54.2°C | 3.9% | 0hPa | 2.7V | 00:00:00 | 01:26:14 | 00:00:00 | |
| PETON7-10 | 2026-08-31 12:27:38 | 45.94455 | 16.96695 | 1° | 16km/h | 19931m | 4.8m/s | -54.2°C | 3.9% | 0hPa | 2.7V | 00:00:00 | 00:00:00 | 08:30:00 | |
| OE5DRO-10 | 2026-08-31 12:27:29 | 45.94417 | 16.96700 | 340° | 13km/h | 19885m | 5.9m/s | -54.2°C | 3.9% | 0hPa | 2.6V | 00:00:00 | 00:00:00 | 00:00:00 | |
| OE5DXL-15 | 2026-08-31 12:27:27 | 45.94409 | 16.96704 | 347° | 11km/h | 19875m | 5.3m/s | -54.2°C | 4.0% | 0hPa | 2.6V | 00:00:00 | 00:00:00 | 00:00:00 | |
| 9A1FER-10 | 2026-08-31 12:27:25 | 45.94401 | 16.96705 | 1° | 11km/h | 19865m | 4.5m/s | -54.1°C | 3.9% | 0hPa | 2.6V | 00:00:00 | 01:25:59 | 00:00:00 | |
| PETON7-10 | 2026-08-31 12:27:23 | 45.94393 | 16.96705 | 357° | 11km/h | 19855m | 3.8m/s | -54.0°C | 3.9% | 0hPa | 2.6V | 00:00:00 | 00:00:00 | 00:00:00 | |
| 9A1FER-3 | 2026-08-31 12:27:11 | 45.94363 | 16.96693 | 46° | 9km/h | 19793m | 5.5m/s | -54.0°C | 3.7% | 0hPa | 2.6V | 00:00:00 | 01:25:45 | 00:00:00 | |
| 9A1FER-10 | 2026-08-31 12:27:10 | 45.94361 | 16.96690 | 46° | 9km/h | 19789m | 3.4m/s | -54.0°C | 3.7% | 0hPa | 2.6V | 00:00:00 | 01:25:44 | 00:00:00 | |
| PETON7-10 | 2026-08-31 12:27:08 | 45.94356 | 16.96684 | 34° | 11km/h | 19778m | 4.7m/s | -54.1°C | 3.8% | 0hPa | 2.6V | 00:00:00 | 01:25:42 | 00:00:00 | |
| PG1ADW-2 | 2026-08-31 12:27:03 | 45.94350 | 16.96672 | 93° | 13km/h | 19752m | 4.6m/s | -54.3°C | 3.8% | 0hPa | 2.6V | 00:00:00 | 00:00:00 | 00:00:00 | |
| OE5DXL-15 | 2026-08-31 12:26:57 | 45.94354 | 16.96653 | 79° | 16km/h | 19723m | 5.3m/s | -54.4°C | 3.8% | 0hPa | 2.6V | 00:00:00 | 00:00:00 | 00:00:00 | |
| 9A1FER-3 | 2026-08-31 12:26:56 | 45.94353 | 16.96649 | 72° | 15km/h | 19718m | 4.9m/s | -54.5°C | 3.8% | 0hPa | 2.6V | 00:00:00 | 01:25:30 | 00:00:00 | |
| 9A1FER-10 | 2026-08-31 12:26:55 | 45.94352 | 16.96644 | 67° | 15km/h | 19713m | 3.6m/s | -54.6°C | 3.9% | 0hPa | 2.6V | 00:00:00 | 01:25:29 | 00:00:00 | |
| PETON7-10 | 2026-08-31 12:26:53 | 45.94347 | 16.96634 | 55° | 16km/h | 19703m | 5.0m/s | -54.8°C | 3.9% | 0hPa | 2.6V | 00:00:00 | 00:00:00 | 00:00:00 | |
| OE5DRO-10 | 2026-08-31 12:26:51 | 45.94343 | 16.96625 | 66° | 16km/h | 19694m | 5.7m/s | -55.0°C | 4.0% | 0hPa | 2.7V | 00:00:00 | 00:00:00 | 00:00:00 | |
| PG1ADW-2 | 2026-08-31 12:26:43 | 45.94347 | 16.96587 | 83° | 18km/h | 19655m | 5.4m/s | -55.2°C | 4.1% | 0hPa | 2.7V | 00:00:00 | 00:00:00 | 00:00:00 | |
| 9A1FER-3 | 2026-08-31 12:26:41 | 45.94343 | 16.96576 | 60° | 18km/h | 19645m | 5.6m/s | -55.3°C | 4.1% | 0hPa | 2.7V | 00:00:00 | 01:25:15 | 08:30:00 | |
| 9A1FER-10 | 2026-08-31 12:26:40 | 45.94341 | 16.96570 | 57° | 18km/h | 19640m | 4.5m/s | -55.3°C | 4.1% | 0hPa | 2.7V | 00:00:00 | 01:25:14 | 08:30:00 | |
| PETON7-10 | 2026-08-31 12:26:38 | 45.94334 | 16.96558 | 47° | 18km/h | 19629m | 4.8m/s | -55.1°C | 4.0% | 0hPa | 2.6V | 00:00:00 | 00:00:00 | 00:00:00 | |
| OE5DRO-10 | 2026-08-31 12:26:32 | 45.94327 | 16.96526 | 100° | 18km/h | 19600m | 3.8m/s | -55.0°C | 4.1% | 0hPa | 2.6V | 00:00:00 | 00:00:00 | 00:00:00 | |
| OE5DXL-15 | 2026-08-31 12:26:27 | 45.94326 | 16.96492 | 72° | 18km/h | 19577m | 5.5m/s | -55.1°C | 4.1% | 0hPa | 2.6V | 00:00:00 | 00:00:00 | 00:00:00 | |
| 9A1FER-10 | 2026-08-31 12:26:26 | 45.94321 | 16.96479 | 56° | 18km/h | 19566m | 4.3m/s | -55.0°C | 4.0% | 0hPa | 2.6V | 00:00:00 | 01:24:59 | 00:00:00 | |
| PETON7-10 | 2026-08-31 12:26:23 | 45.94315 | 16.96468 | 48° | 18km/h | 19556m | 6.1m/s | -55.2°C | 4.1% | 0hPa | 2.6V | 00:00:00 | 01:24:57 | 00:00:00 | |
| OE5DRO-10 | 2026-08-31 12:26:13 | 45.94302 | 16.96406 | 59° | 16km/h | 19505m | 4.3m/s | -55.2°C | 4.0% | 0hPa | 2.6V | 00:00:00 | 00:00:00 | 00:00:00 | |
| 9A1FER-3 | 2026-08-31 12:26:11 | 45.94296 | 16.96396 | 44° | 16km/h | 19495m | 4.2m/s | -55.1°C | 4.0% | 0hPa | 2.6V | 00:00:00 | 01:24:45 | 00:00:00 | |
| 9A1FER-10 | 2026-08-31 12:26:10 | 45.94293 | 16.96392 | 40° | 16km/h | 19490m | 6.4m/s | -55.2°C | 4.1% | 0hPa | 2.6V | 00:00:00 | 01:24:44 | 00:00:00 | |
| PETON7-10 | 2026-08-31 12:26:08 | 45.94287 | 16.96383 | 48° | 16km/h | 19480m | 5.5m/s | -55.2°C | 4.1% | 0hPa | 2.6V | 00:00:00 | 00:00:00 | 00:00:00 | |
| PG1ADW-2 | 2026-08-31 12:26:03 | 45.94284 | 16.96353 | 105° | 15km/h | 19454m | 4.6m/s | -55.1°C | 4.0% | 0hPa | 2.6V | 00:00:00 | 00:00:00 | 00:00:00 | |
| OE5DXL-15 | 2026-08-31 12:25:57 | 45.94287 | 16.96321 | 49° | 18km/h | 19425m | 5.9m/s | -55.1°C | 4.0% | 0hPa | 2.6V | 00:00:00 | 00:00:00 | 08:30:00 | |
| 9A1FER-3 | 2026-08-31 12:25:56 | 45.94285 | 16.96319 | 31° | 16km/h | 19420m | 4.5m/s | -55.2°C | 4.0% | 0hPa | 2.6V | 00:00:00 | 01:24:30 | 00:00:00 | |
| OE5DRO-10 | 2026-08-31 12:25:55 | 45.94280 | 16.96314 | 33° | 18km/h | 19410m | 5.3m/s | -55.4°C | 4.2% | 0hPa | 2.7V | 00:00:00 | 00:00:00 | 00:00:00 | |
| PETON7-10 | 2026-08-31 12:25:53 | 45.94277 | 16.96311 | 40° | 18km/h | 19405m | 4.2m/s | -55.4°C | 4.1% | 0hPa | 2.7V | 00:00:00 | 00:00:00 | 00:00:00 | |
| PG1ADW-2 | 2026-08-31 12:25:43 | 45.94258 | 16.96258 | 47° | 22km/h | 19357m | 4.7m/s | -55.4°C | 4.1% | 0hPa | 2.7V | 00:00:00 | 00:00:00 | 00:00:00 | |
| 9A1FER-3 | 2026-08-31 12:25:41 | 45.94250 | 16.96250 | 29° | 22km/h | 19347m | 4.5m/s | -55.5°C | 4.1% | 0hPa | 2.7V | 00:00:00 | 01:24:15 | 00:00:00 | |
| 9A1FER-10 | 2026-08-31 12:25:40 | 45.94246 | 16.96247 | 28° | 22km/h | 19342m | 4.9m/s | -55.6°C | 4.1% | 0hPa | 2.7V | 00:00:00 | 01:24:14 | 00:00:00 | |
| PETON7-10 | 2026-08-31 12:25:38 | 45.94236 | 16.96238 | 32° | 22km/h | 19333m | 4.1m/s | -55.5°C | 4.1% | 0hPa | 2.7V | 00:00:00 | 01:24:12 | 00:00:00 | |
| OE5DRO-10 | 2026-08-31 12:25:35 | 45.94222 | 16.96224 | 44° | 22km/h | 19317m | 5.8m/s | -55.5°C | 4.2% | 0hPa | 2.7V | 00:00:00 | 00:00:00 | 00:00:00 | |
| OE5DXL-15 | 2026-08-31 12:25:27 | 45.94191 | 16.96180 | 35° | 22km/h | 19279m | 5.1m/s | -55.8°C | 4.1% | 0hPa | 2.7V | 00:00:00 | 00:00:00 | 00:00:00 | |
| 9A1FER-3 | 2026-08-31 12:25:26 | 45.94186 | 16.96175 | 33° | 22km/h | 19274m | 4.6m/s | -55.7°C | 4.1% | 0hPa | 2.7V | 00:00:00 | 01:24:00 | 00:00:00 | |
| 9A1FER-10 | 2026-08-31 12:25:25 | 45.94181 | 16.96170 | 33° | 22km/h | 19269m | 5.1m/s | -55.8°C | 4.1% | 0hPa | 2.7V | 00:00:00 | 01:23:59 | 00:00:00 | |
| PETON7-10 | 2026-08-31 12:25:23 | 45.94169 | 16.96160 | 28° | 22km/h | 19259m | 5.8m/s | -55.9°C | 4.2% | 0hPa | 2.7V | 00:00:00 | 00:00:00 | 08:30:00 | |
| OE5DRO-10 | 2026-08-31 12:25:16 | 45.94134 | 16.96136 | 27° | 20km/h | 19224m | 5.5m/s | -55.7°C | 4.2% | 0hPa | 2.7V | 00:00:00 | 00:00:00 | 00:00:00 | |
| 9A1FER-3 | 2026-08-31 12:25:11 | 45.94111 | 16.96126 | 9° | 20km/h | 19200m | 5.1m/s | -55.6°C | 4.1% | 0hPa | 2.7V | 00:00:00 | 01:23:45 | 00:00:00 | |
| 9A1FER-10 | 2026-08-31 12:25:10 | 45.94104 | 16.96125 | 7° | 20km/h | 19195m | 4.1m/s | -55.7°C | 4.1% | 0hPa | 2.7V | 00:00:00 | 01:23:44 | 00:00:00 | |
| PETON7-10 | 2026-08-31 12:25:08 | 45.94091 | 16.96123 | 2° | 20km/h | 19186m | 4.8m/s | -55.7°C | 4.1% | 0hPa | 2.6V | 00:00:00 | 00:00:00 | 00:00:00 | |
| PG1ADW-2 | 2026-08-31 12:25:03 | 45.94065 | 16.96119 | 8° | 20km/h | 19161m | 4.7m/s | -55.9°C | 4.2% | 0hPa | 2.6V | 00:00:00 | 01:23:37 | 08:30:00 | |
| OE3JTB-15 | 2026-08-31 12:24:59 | 45.94038 | 16.96122 | 345° | 22km/h | 19131m | 5.6m/s | -56.1°C | 4.1% | 0hPa | 2.6V | 00:00:00 | 00:00:00 | 00:00:00 | |
| OE5DXL-15 | 2026-08-31 12:24:57 | 45.94038 | 16.96122 | 345° | 22km/h | 19131m | 5.6m/s | -56.1°C | 4.1% | 0hPa | 2.6V | 00:00:00 | 00:00:00 | 00:00:00 | |
| 9A1FER-3 | 2026-08-31 12:24:56 | 45.94032 | 16.96124 | 350° | 22km/h | 19126m | 5.0m/s | -56.2°C | 4.2% | 0hPa | 2.6V | 00:00:00 | 01:23:30 | 00:00:00 | |
| 9A1FER-10 | 2026-08-31 12:24:55 | 45.94027 | 16.96125 | 352° | 22km/h | 19121m | 4.9m/s | -56.2°C | 4.2% | 0hPa | 2.6V | 00:00:00 | 01:23:29 | 00:00:00 | |
| PETON7-10 | 2026-08-31 12:24:53 | 45.94017 | 16.96126 | 2° | 22km/h | 19112m | 4.7m/s | -56.3°C | 4.2% | 0hPa | 2.6V | 00:00:00 | 01:23:27 | 00:00:00 | |
| PG1ADW-2 | 2026-08-31 12:24:43 | 45.93963 | 16.96122 | 355° | 22km/h | 19062m | 5.4m/s | -56.6°C | 4.5% | 0hPa | 2.6V | 00:00:00 | 00:00:00 | 00:00:00 | |
| 9A1FER-3 | 2026-08-31 12:24:41 | 45.93950 | 16.96123 | 360° | 22km/h | 19052m | 5.6m/s | -56.7°C | 4.5% | 0hPa | 2.6V | 00:00:00 | 01:23:15 | 00:00:00 | |
| 9A1FER-10 | 2026-08-31 12:24:40 | 45.93945 | 16.96122 | 2° | 22km/h | 19047m | 4.8m/s | -56.6°C | 4.4% | 0hPa | 2.6V | 00:00:00 | 01:23:14 | 00:00:00 | |
| PETON7-10 | 2026-08-31 12:24:38 | 45.93933 | 16.96121 | 11° | 20km/h | 19036m | 4.8m/s | -56.7°C | 4.4% | 0hPa | 2.6V | 00:00:00 | 00:00:00 | 00:00:00 | |
| OE5DXL-15 | 2026-08-31 12:24:27 | 45.93877 | 16.96100 | 4° | 16km/h | 18984m | 4.7m/s | -56.4°C | 4.2% | 0hPa | 2.6V | 00:00:00 | 00:00:00 | 00:00:00 | |
| 9A1FER-3 | 2026-08-31 12:24:26 | 45.93872 | 16.96099 | 2° | 16km/h | 18979m | 5.1m/s | -56.4°C | 4.2% | 0hPa | 2.6V | 00:00:00 | 01:23:00 | 08:30:00 | |
| 9A1FER-10 | 2026-08-31 12:24:25 | 45.93866 | 16.96099 | 1° | 16km/h | 18974m | 4.1m/s | -56.4°C | 4.3% | 0hPa | 2.6V | 00:00:00 | 01:22:59 | 08:30:00 | |
| PETON7-10 | 2026-08-31 12:24:23 | 45.93856 | 16.96098 | 8° | 16km/h | 18965m | 5.4m/s | -56.6°C | 4.3% | 0hPa | 2.6V | 00:00:00 | 00:00:00 | 00:00:00 | |
| OE5DRO-10 | 2026-08-31 12:24:19 | 45.93837 | 16.96093 | 14° | 15km/h | 18945m | 5.2m/s | -56.7°C | 4.4% | 0hPa | 2.6V | 00:00:00 | 00:00:00 | 00:00:00 | |
| 9A1FER-3 | 2026-08-31 12:24:11 | 45.93810 | 16.96082 | 7° | 16km/h | 18906m | 4.2m/s | -57.0°C | 4.4% | 0hPa | 2.6V | 00:00:00 | 01:22:45 | 00:00:00 | |
| 9A1FER-10 | 2026-08-31 12:24:10 | 45.93806 | 16.96081 | 7° | 16km/h | 18901m | 4.7m/s | -57.1°C | 4.4% | 0hPa | 2.6V | 00:00:00 | 01:22:44 | 00:00:00 | |
| PETON7-10 | 2026-08-31 12:24:08 | 45.93797 | 16.96079 | 11° | 16km/h | 18892m | 3.7m/s | -57.2°C | 4.5% | 0hPa | 2.6V | 00:00:00 | 01:22:42 | 00:00:00 | |
| PG1ADW-2 | 2026-08-31 12:24:03 | 45.93779 | 16.96073 | 12° | 15km/h | 18868m | 4.5m/s | -57.3°C | 4.6% | 0hPa | 2.6V | 00:00:00 | 00:00:00 | 00:00:00 | |
| OE5DRO-10 | 2026-08-31 12:24:00 | 45.93769 | 16.96072 | 357° | 15km/h | 18853m | 5.1m/s | -57.2°C | 4.7% | 0hPa | 2.7V | 00:00:00 | 00:00:00 | 00:00:00 | |
| OE3JTB-15 | 2026-08-31 12:23:59 | 45.93765 | 16.96072 | 354° | 15km/h | 18849m | 4.5m/s | -57.2°C | 4.6% | 0hPa | 2.7V | 00:00:00 | 01:22:33 | 00:00:00 | |
| OE5DXL-15 | 2026-08-31 12:23:57 | 45.93756 | 16.96074 | 353° | 18km/h | 18838m | 4.7m/s | -57.1°C | 4.5% | 0hPa | 2.7V | 00:00:00 | 00:00:00 | 00:00:00 | |
| 9A1FER-3 | 2026-08-31 12:23:56 | 45.93752 | 16.96075 | 351° | 15km/h | 18834m | 5.0m/s | -57.0°C | 4.5% | 0hPa | 2.7V | 00:00:00 | 01:22:30 | 00:00:00 | |
| 9A1FER-10 | 2026-08-31 12:23:55 | 45.93747 | 16.96076 | 350° | 15km/h | 18829m | 4.7m/s | -57.0°C | 4.4% | 0hPa | 2.7V | 00:00:00 | 01:22:29 | 00:00:00 | |
| PETON7-10 | 2026-08-31 12:23:53 | 45.93737 | 16.96079 | 351° | 15km/h | 18819m | 5.6m/s | -57.1°C | 4.4% | 0hPa | 2.7V | 00:00:00 | 00:00:00 | 00:00:00 | |
| PG1ADW-2 | 2026-08-31 12:23:43 | 45.93704 | 16.96086 | 7° | 13km/h | 18769m | 4.9m/s | -56.8°C | 4.5% | 0hPa | 2.6V | 00:00:00 | 01:22:17 | 00:00:00 | |
| OE5DRO-10 | 2026-08-31 12:23:41 | 45.93696 | 16.96086 | 1° | 13km/h | 18759m | 4.2m/s | -56.9°C | 4.5% | 0hPa | 2.6V | 00:00:00 | 00:00:00 | 00:00:00 | |
| 9A1FER-10 | 2026-08-31 12:23:40 | 45.93692 | 16.96085 | 7° | 13km/h | 18755m | 4.8m/s | -56.8°C | 4.5% | 0hPa | 2.6V | 00:00:00 | 01:22:14 | 00:00:00 | |
| PETON7-10 | 2026-08-31 12:23:38 | 45.93685 | 16.96082 | 21° | 13km/h | 18744m | 4.2m/s | -56.7°C | 4.4% | 0hPa | 2.7V | 00:00:00 | 00:00:00 | 00:00:00 | |
| OE3JTB-15 | 2026-08-31 12:23:30 | 45.93667 | 16.96074 | 27° | 18km/h | 18703m | 5.4m/s | -57.1°C | 4.5% | 0hPa | 2.7V | 00:00:00 | 00:00:00 | 08:30:00 | |
| 9A1FER-3 | 2026-08-31 12:23:26 | 45.93654 | 16.96065 | 33° | 20km/h | 18683m | 5.8m/s | -57.0°C | 4.5% | 0hPa | 2.6V | 00:00:00 | 01:22:00 | 00:00:00 | |
| 9A1FER-10 | 2026-08-31 12:23:25 | 45.93650 | 16.96061 | 37° | 20km/h | 18678m | 4.3m/s | -56.9°C | 4.4% | 0hPa | 2.6V | 00:00:00 | 01:21:59 | 00:00:00 | |
| PETON7-10 | 2026-08-31 12:23:23 | 45.93642 | 16.96052 | 38° | 20km/h | 18668m | 4.3m/s | -56.9°C | 4.3% | 0hPa | 2.6V | 00:00:00 | 01:21:57 | 00:00:00 | |
| OE5DRO-10 | 2026-08-31 12:23:22 | 45.93638 | 16.96047 | 45° | 18km/h | 18664m | 5.0m/s | -57.0°C | 4.3% | 0hPa | 2.6V | 00:00:00 | 00:00:00 | 00:00:00 | |
| 9A1FER-3 | 2026-08-31 12:23:11 | 45.93604 | 16.95988 | 41° | 16km/h | 18610m | 4.3m/s | -57.1°C | 4.5% | 0hPa | 2.6V | 00:00:00 | 01:21:45 | 00:00:00 | |
| 9A1FER-10 | 2026-08-31 12:23:10 | 45.93600 | 16.95983 | 39° | 16km/h | 18606m | 4.9m/s | -57.3°C | 4.6% | 0hPa | 2.6V | 00:00:00 | 01:21:44 | 00:00:00 | |
| PETON7-10 | 2026-08-31 12:23:08 | 45.93592 | 16.95975 | 42° | 15km/h | 18596m | 4.8m/s | -57.6°C | 4.7% | 0hPa | 2.6V | 00:00:00 | 00:00:00 | 08:30:00 | |
| OE5DRO-10 | 2026-08-31 12:23:03 | 45.93577 | 16.95951 | 54° | 15km/h | 18574m | 5.7m/s | -57.6°C | 4.7% | 0hPa | 2.6V | 00:00:00 | 00:00:00 | 00:00:00 | |
| OE3JTB-15 | 2026-08-31 12:23:01 | 45.93573 | 16.95942 | 62° | 13km/h | 18564m | 4.6m/s | -57.5°C | 4.7% | 0hPa | 2.6V | 00:00:00 | 00:00:00 | 00:00:00 | |
| 9A1FER-3 | 2026-08-31 12:22:56 | 45.93562 | 16.95922 | 42° | 13km/h | 18540m | 3.7m/s | -57.2°C | 4.4% | 0hPa | 2.6V | 00:00:00 | 01:21:30 | 00:00:00 | |
| 9A1FER-10 | 2026-08-31 12:22:55 | 45.93560 | 16.95919 | 38° | 13km/h | 18535m | 5.1m/s | -57.1°C | 4.4% | 0hPa | 2.6V | 00:00:00 | 01:21:29 | 00:00:00 | |
| PETON7-10 | 2026-08-31 12:22:53 | 45.93554 | 16.95914 | 36° | 13km/h | 18526m | 5.1m/s | -57.2°C | 4.3% | 0hPa | 2.7V | 00:00:00 | 00:00:00 | 00:00:00 | |
| PG1ADW-2 | 2026-08-31 12:22:44 | 45.93530 | 16.95880 | 29° | 9km/h | 18479m | 4.4m/s | -57.3°C | 4.5% | 0hPa | 2.7V | 00:00:00 | 00:00:00 | 00:00:00 | |
| 9A1FER-3 | 2026-08-31 12:22:41 | 45.93525 | 16.95877 | 24° | 9km/h | 18468m | 4.8m/s | -57.5°C | 4.5% | 0hPa | 2.7V | 00:00:00 | 01:21:15 | 00:00:00 | |
| 9A1FER-10 | 2026-08-31 12:22:40 | 45.93522 | 16.95875 | 26° | 9km/h | 18463m | 5.2m/s | -57.8°C | 4.7% | 0hPa | 2.7V | 00:00:00 | 01:21:14 | 00:00:00 | |
| PETON7-10 | 2026-08-31 12:22:38 | 45.93517 | 16.95871 | 38° | 9km/h | 18454m | 3.7m/s | -57.9°C | 4.7% | 0hPa | 2.7V | 00:00:00 | 01:21:12 | 00:00:00 | |
| OE3JTB-15 | 2026-08-31 12:22:33 | 45.93500 | 16.95850 | 75° | 9km/h | 18415m | 5.0m/s | -57.8°C | 4.9% | 0hPa | 2.7V | 00:00:00 | 01:21:04 | 00:00:00 | |
| 9A1FER-3 | 2026-08-31 12:22:26 | 45.93501 | 16.95841 | 97° | 9km/h | 18397m | 4.7m/s | -57.5°C | 4.7% | 0hPa | 2.7V | 00:00:00 | 01:21:00 | 00:00:00 | |
| PETON7-10 | 2026-08-31 12:22:23 | 45.93501 | 16.95831 | 71° | 9km/h | 18382m | 5.4m/s | -57.4°C | 4.5% | 0hPa | 2.7V | 00:00:00 | 00:00:00 | 00:00:00 | |
| 9A1FER-3 | 2026-08-31 12:22:11 | 45.93501 | 16.95790 | 104° | 9km/h | 18325m | 4.4m/s | -56.9°C | 4.6% | 0hPa | 2.7V | 00:00:00 | 01:20:45 | 08:30:00 | |
| 9A1FER-10 | 2026-08-31 12:22:10 | 45.93501 | 16.95789 | 120° | 11km/h | 18320m | 5.6m/s | -57.0°C | 4.6% | 0hPa | 2.7V | 00:00:00 | 01:20:44 | 08:30:00 | |
| PETON7-10 | 2026-08-31 12:22:08 | 45.93502 | 16.95785 | 109° | 13km/h | 18310m | 4.4m/s | -56.9°C | 4.6% | 0hPa | 2.7V | 00:00:00 | 00:00:00 | 00:00:00 | |
| OE5DRO-10 | 2026-08-31 12:22:06 | 45.93503 | 16.95779 | 95° | 15km/h | 18301m | 3.8m/s | -56.8°C | 4.5% | 0hPa | 2.7V | 00:00:00 | 00:00:00 | 08:30:00 | |
| PG1ADW-2 | 2026-08-31 12:22:03 | 45.93505 | 16.95766 | 118° | 15km/h | 18287m | 4.6m/s | -56.8°C | 4.4% | 0hPa | 2.6V | 00:00:00 | 00:00:00 | 08:30:00 | |
| 9A1FER-3 | 2026-08-31 12:21:56 | 45.93513 | 16.95738 | 104° | 16km/h | 18254m | 3.8m/s | -56.4°C | 4.4% | 0hPa | 2.6V | 00:00:00 | 01:20:30 | 00:00:00 | |
| 9A1FER-10 | 2026-08-31 12:21:55 | 45.93514 | 16.95733 | 106° | 18km/h | 18249m | 5.5m/s | -56.4°C | 4.4% | 0hPa | 2.6V | 00:00:00 | 01:20:29 | 00:00:00 | |
| OE3JTB-15 | 2026-08-31 12:21:53 | 45.93523 | 16.95705 | 119° | 16km/h | 18225m | 4.9m/s | -56.4°C | 4.5% | 0hPa | 2.6V | 00:00:00 | 00:00:00 | 00:00:00 | |
| OE5DRO-10 | 2026-08-31 12:21:47 | 45.93529 | 16.95690 | 123° | 18km/h | 18211m | 5.3m/s | -56.5°C | 4.4% | 0hPa | 2.6V | 00:00:00 | 00:00:00 | 00:00:00 | |
| PG1ADW-2 | 2026-08-31 12:21:43 | 45.93537 | 16.95669 | 112° | 18km/h | 18193m | 4.5m/s | -56.5°C | 4.4% | 0hPa | 2.6V | 00:00:00 | 00:00:00 | 00:00:00 | |
| 9A1FER-3 | 2026-08-31 12:21:41 | 45.93541 | 16.95655 | 111° | 18km/h | 18184m | 4.7m/s | -56.3°C | 4.4% | 0hPa | 2.6V | 00:00:00 | 01:20:15 | 00:00:00 | |
| 9A1FER-10 | 2026-08-31 12:21:40 | 45.93543 | 16.95648 | 109° | 18km/h | 18179m | 4.7m/s | -56.2°C | 4.3% | 0hPa | 2.6V | 00:00:00 | 01:20:14 | 00:00:00 | |
| PETON7-10 | 2026-08-31 12:21:38 | 45.93546 | 16.95632 | 108° | 18km/h | 18169m | 4.2m/s | -56.2°C | 4.3% | 0hPa | 2.6V | 00:00:00 | 00:00:00 | 00:00:00 | |
| OE5DRO-10 | 2026-08-31 12:21:28 | 45.93566 | 16.95574 | 101° | 20km/h | 18123m | 4.5m/s | -56.1°C | 4.3% | 0hPa | 2.6V | 00:00:00 | 00:00:00 | 00:00:00 | |
| 9A1FER-3 | 2026-08-31 12:21:26 | 45.93566 | 16.95564 | 86° | 20km/h | 18114m | 4.1m/s | -56.1°C | 4.4% | 0hPa | 2.6V | 00:00:00 | 01:20:00 | 00:00:00 | |
| 9A1FER-10 | 2026-08-31 12:21:25 | 45.93566 | 16.95558 | 85° | 20km/h | 18109m | 5.2m/s | -56.1°C | 4.4% | 0hPa | 2.6V | 00:00:00 | 01:19:59 | 00:00:00 | |
| PETON7-10 | 2026-08-31 12:21:23 | 45.93565 | 16.95544 | 92° | 20km/h | 18100m | 4.9m/s | -56.0°C | 4.3% | 0hPa | 2.6V | 00:00:00 | 00:00:00 | 00:00:00 | |
| OE3JTB-15 | 2026-08-31 12:21:22 | 45.93570 | 16.95515 | 114° | 22km/h | 18081m | 4.6m/s | -56.1°C | 4.3% | 0hPa | 2.6V | 00:00:00 | 00:00:00 | 00:00:00 | |
| 9A1FER-3 | 2026-08-31 12:21:11 | 45.93583 | 16.95461 | 86° | 22km/h | 18043m | 5.5m/s | -56.1°C | 4.3% | 0hPa | 2.6V | 00:00:00 | 01:19:45 | 00:00:00 | |
| 9A1FER-10 | 2026-08-31 12:21:10 | 45.93582 | 16.95453 | 82° | 22km/h | 18038m | 4.8m/s | -56.1°C | 4.3% | 0hPa | 2.6V | 00:00:00 | 01:19:44 | 00:00:00 | |
| OE5DRO-10 | 2026-08-31 12:21:09 | 45.93581 | 16.95445 | 81° | 22km/h | 18033m | 5.5m/s | -56.1°C | 4.4% | 0hPa | 2.6V | 00:00:00 | 00:00:00 | 00:00:00 | |
| PETON7-10 | 2026-08-31 12:21:08 | 45.93580 | 16.95436 | 84° | 22km/h | 18028m | 3.8m/s | -56.0°C | 4.3% | 0hPa | 2.6V | 00:00:00 | 01:19:42 | 00:00:00 | |
| PG1ADW-2 | 2026-08-31 12:21:03 | 45.93583 | 16.95393 | 100° | 22km/h | 18005m | 3.8m/s | -56.0°C | 4.4% | 0hPa | 2.6V | 00:00:00 | 01:19:37 | 00:00:00 | |
| OE5DXL-15 | 2026-08-31 12:20:59 | 45.93585 | 16.95362 | 90° | 24km/h | 17985m | 5.6m/s | -55.9°C | 4.2% | 0hPa | 2.7V | 00:00:00 | 00:00:00 | 08:30:00 | |
| 9A1FER-3 | 2026-08-31 12:20:56 | 45.93583 | 16.95340 | 79° | 22km/h | 17972m | 5.8m/s | -55.9°C | 4.3% | 0hPa | 2.7V | 00:00:00 | 01:19:30 | 00:00:00 | |
| 9A1FER-10 | 2026-08-31 12:20:55 | 45.93582 | 16.95332 | 81° | 22km/h | 17967m | 4.7m/s | -55.9°C | 4.2% | 0hPa | 2.7V | 00:00:00 | 01:19:29 | 00:00:00 | |
| PETON7-10 | 2026-08-31 12:20:53 | 45.93580 | 16.95315 | 81° | 22km/h | 17958m | 5.9m/s | -55.8°C | 4.3% | 0hPa | 2.7V | 00:00:00 | 00:00:00 | 08:30:00 | |
| OE5DRO-10 | 2026-08-31 12:20:50 | 45.93578 | 16.95293 | 92° | 24km/h | 17943m | 5.2m/s | -55.8°C | 4.2% | 0hPa | 2.7V | 00:00:00 | 00:00:00 | 00:00:00 | |
| OE3JTB-15 | 2026-08-31 12:20:49 | 45.93579 | 16.95269 | 90° | 26km/h | 17928m | 5.4m/s | -55.9°C | 4.3% | 0hPa | 2.7V | 00:00:00 | 01:19:21 | 00:00:00 | |
| 9A1FER-3 | 2026-08-31 12:20:41 | 45.93582 | 16.95220 | 99° | 26km/h | 17897m | 6.6m/s | -56.1°C | 4.3% | 0hPa | 2.7V | 00:00:00 | 01:19:15 | 00:00:00 | |
| 9A1FER-10 | 2026-08-31 12:20:40 | 45.93583 | 16.95211 | 100° | 26km/h | 17891m | 5.3m/s | -56.0°C | 4.3% | 0hPa | 2.6V | 00:00:00 | 01:19:14 | 00:00:00 | |
| PETON7-10 | 2026-08-31 12:20:39 | 45.93584 | 16.95192 | 93° | 27km/h | 17880m | 4.5m/s | -56.1°C | 4.4% | 0hPa | 2.7V | 00:00:00 | 00:00:00 | 00:00:00 | |
| OE5DRO-10 | 2026-08-31 12:20:31 | 45.93589 | 16.95126 | 98° | 33km/h | 17846m | 4.0m/s | -56.3°C | 4.3% | 0hPa | 2.7V | 00:00:00 | 00:00:00 | 00:00:00 | |
| OE5DXL-15 | 2026-08-31 12:20:28 | 45.93590 | 16.95099 | 88° | 37km/h | 17832m | 5.0m/s | -56.4°C | 4.4% | 0hPa | 2.7V | 00:00:00 | 00:00:00 | 00:00:00 | |
| 9A1FER-3 | 2026-08-31 12:20:26 | 45.93589 | 16.95080 | 88° | 35km/h | 17822m | 4.8m/s | -56.3°C | 4.4% | 0hPa | 2.7V | 00:00:00 | 01:19:00 | 00:00:00 | |
| 9A1FER-10 | 2026-08-31 12:20:25 | 45.93589 | 16.95069 | 87° | 35km/h | 17816m | 5.4m/s | -56.3°C | 4.4% | 0hPa | 2.7V | 00:00:00 | 01:18:59 | 00:00:00 | |
| PETON7-10 | 2026-08-31 12:20:23 | 45.93588 | 16.95047 | 85° | 37km/h | 17806m | 5.3m/s | -56.2°C | 4.4% | 0hPa | 2.7V | 00:00:00 | 01:18:57 | 00:00:00 | |
| OE3JTB-15 | 2026-08-31 12:20:20 | 45.93582 | 16.94983 | 80° | 38km/h | 17782m | 5.3m/s | -56.3°C | 4.3% | 0hPa | 2.7V | 00:00:00 | 00:00:00 | 00:00:00 | |
| OE5DRO-10 | 2026-08-31 12:20:12 | 45.93572 | 16.94904 | 82° | 38km/h | 17752m | 4.3m/s | -56.6°C | 4.4% | 0hPa | 2.7V | 00:00:00 | 00:00:00 | 00:00:00 | |
| 9A1FER-3 | 2026-08-31 12:20:11 | 45.93571 | 16.94891 | 81° | 38km/h | 17747m | 5.3m/s | -56.7°C | 4.4% | 0hPa | 2.6V | 00:00:00 | 01:18:45 | 00:00:00 | |
| 9A1FER-10 | 2026-08-31 12:20:10 | 45.93569 | 16.94878 | 82° | 38km/h | 17743m | 3.9m/s | -56.6°C | 4.4% | 0hPa | 2.6V | 00:00:00 | 01:18:44 | 00:00:00 | |
| PETON7-10 | 2026-08-31 12:20:08 | 45.93567 | 16.94851 | 88° | 38km/h | 17732m | 5.1m/s | -56.7°C | 4.4% | 0hPa | 2.6V | 00:00:00 | 00:00:00 | 00:00:00 | |
| OE5DXL-15 | 2026-08-31 12:19:58 | 45.93553 | 16.94711 | 81° | 37km/h | 17685m | 4.7m/s | -56.9°C | 4.3% | 0hPa | 2.6V | 00:00:00 | 00:00:00 | 00:00:00 | |
| 9A1FER-3 | 2026-08-31 12:19:56 | 45.93551 | 16.94686 | 82° | 37km/h | 17676m | 4.8m/s | -57.2°C | 4.5% | 0hPa | 2.6V | 00:00:00 | 01:18:30 | 08:30:00 | |
| 9A1FER-10 | 2026-08-31 12:19:55 | 45.93549 | 16.94673 | 78° | 37km/h | 17671m | 4.7m/s | -57.2°C | 4.5% | 0hPa | 2.6V | 00:00:00 | 01:18:29 | 08:30:00 | |
| PETON7-10 | 2026-08-31 12:19:53 | 45.93545 | 16.94647 | 76° | 37km/h | 17661m | 5.7m/s | -57.2°C | 4.6% | 0hPa | 2.6V | 00:00:00 | 00:00:00 | 00:00:00 | |
| OE3JTB-15 | 2026-08-31 12:19:50 | 45.93527 | 16.94583 | 67° | 35km/h | 17636m | 4.5m/s | -57.4°C | 4.6% | 0hPa | 2.6V | 00:00:00 | 00:00:00 | 00:00:00 | |
| 9A1FER-3 | 2026-08-31 12:19:41 | 45.93509 | 16.94497 | 80° | 33km/h | 17603m | 4.4m/s | -57.7°C | 4.5% | 0hPa | 2.6V | 00:00:00 | 01:18:15 | 00:00:00 | |
| 9A1FER-10 | 2026-08-31 12:19:40 | 45.93507 | 16.94483 | 82° | 33km/h | 17597m | 6.0m/s | -57.7°C | 4.5% | 0hPa | 2.6V | 00:00:00 | 01:18:14 | 00:00:00 | |
| PETON7-10 | 2026-08-31 12:19:38 | 45.93503 | 16.94457 | 76° | 29km/h | 17588m | 5.4m/s | -57.8°C | 4.6% | 0hPa | 2.6V | 00:00:00 | 01:18:12 | 00:00:00 | |
| OE5DRO-10 | 2026-08-31 12:19:34 | 45.93493 | 16.94406 | 71° | 29km/h | 17567m | 5.6m/s | -58.0°C | 4.7% | 0hPa | 2.6V | 00:00:00 | 00:00:00 | 00:00:00 | |
| OE5DXL-15 | 2026-08-31 12:19:28 | 45.93482 | 16.94340 | 80° | 33km/h | 17538m | 5.2m/s | -58.0°C | 4.7% | 0hPa | 2.6V | 00:00:00 | 00:00:00 | 00:00:00 | |
| 9A1FER-3 | 2026-08-31 12:19:26 | 45.93479 | 16.94323 | 72° | 31km/h | 17528m | 4.3m/s | -58.0°C | 4.8% | 0hPa | 2.7V | 00:00:00 | 01:18:00 | 00:00:00 | |
| 9A1FER-10 | 2026-08-31 12:19:25 | 45.93476 | 16.94315 | 65° | 31km/h | 17524m | 5.0m/s | -58.0°C | 4.7% | 0hPa | 2.7V | 00:00:00 | 01:17:59 | 00:00:00 | |
| PETON7-10 | 2026-08-31 12:19:23 | 45.93469 | 16.94298 | 58° | 33km/h | 17514m | 5.3m/s | -58.0°C | 4.7% | 0hPa | 2.7V | 00:00:00 | 00:00:00 | 00:00:00 | |
| OE5DRO-10 | 2026-08-31 12:19:15 | 45.93444 | 16.94217 | 77° | 35km/h | 17476m | 4.3m/s | -58.3°C | 5.0% | 0hPa | 2.6V | 00:00:00 | 00:00:00 | 08:30:00 | |
| 9A1FER-3 | 2026-08-31 12:19:11 | 45.93436 | 16.94167 | 71° | 35km/h | 17458m | 5.0m/s | -58.3°C | 4.9% | 0hPa | 2.7V | 00:00:00 | 01:17:45 | 00:00:00 | |
| 9A1FER-10 | 2026-08-31 12:19:10 | 45.93432 | 16.94155 | 67° | 35km/h | 17454m | 3.7m/s | -58.2°C | 4.9% | 0hPa | 2.7V | 00:00:00 | 01:17:44 | 00:00:00 | |
| PETON7-10 | 2026-08-31 12:19:08 | 45.93425 | 16.94132 | 66° | 35km/h | 17444m | 4.8m/s | -58.2°C | 4.9% | 0hPa | 2.7V | 00:00:00 | 00:00:00 | 00:00:00 | |
| PG1ADW-2 | 2026-08-31 12:19:04 | 45.93408 | 16.94085 | 65° | 31km/h | 17425m | 5.4m/s | 0°C | 0% | 0hPa | 2.7V | 00:00:00 | 01:17:38 | 00:00:00 | |
| OE5DXL-15 | 2026-08-31 12:18:58 | 45.93386 | 16.94015 | 68° | 29km/h | 17398m | 4.7m/s | -57.9°C | 4.8% | 0hPa | 2.7V | 00:00:00 | 00:00:00 | 00:00:00 | |
| 9A1FER-3 | 2026-08-31 12:18:56 | 45.93379 | 16.93994 | 65° | 31km/h | 17389m | 4.6m/s | -57.9°C | 4.8% | 0hPa | 2.7V | 00:00:00 | 01:17:30 | 00:00:00 | |
| 9A1FER-10 | 2026-08-31 12:18:55 | 45.93375 | 16.93983 | 65° | 31km/h | 17384m | 4.3m/s | -57.8°C | 4.7% | 0hPa | 2.7V | 00:00:00 | 01:17:29 | 00:00:00 | |
| PETON7-10 | 2026-08-31 12:18:53 | 45.93369 | 16.93962 | 66° | 31km/h | 17375m | 3.8m/s | -57.6°C | 4.7% | 0hPa | 2.7V | 00:00:00 | 01:17:27 | 00:00:00 | |
| OE3JTB-15 | 2026-08-31 12:18:48 | 45.93338 | 16.93893 | 48° | 27km/h | 17342m | 4.1m/s | -57.6°C | 4.6% | 0hPa | 2.7V | 00:00:00 | 00:00:00 | 08:30:00 | |
| 9A1FER-3 | 2026-08-31 12:18:41 | 45.93315 | 16.93853 | 55° | 26km/h | 17318m | 4.9m/s | -57.9°C | 4.6% | 0hPa | 2.6V | 00:00:00 | 01:17:15 | 00:00:00 | |
| 9A1FER-10 | 2026-08-31 12:18:40 | 45.93311 | 16.93845 | 61° | 24km/h | 17314m | 4.5m/s | -58.0°C | 4.7% | 0hPa | 2.6V | 00:00:00 | 01:17:14 | 00:00:00 | |
| PETON7-10 | 2026-08-31 12:18:38 | 45.93304 | 16.93827 | 60° | 22km/h | 17305m | 4.8m/s | -58.0°C | 4.7% | 0hPa | 2.6V | 00:00:00 | 00:00:00 | 08:30:00 | |
| OE5DRO-10 | 2026-08-31 12:18:34 | 45.93290 | 16.93793 | 52° | 22km/h | 17287m | 5.4m/s | -57.9°C | 4.7% | 0hPa | 2.6V | 00:00:00 | 00:00:00 | 00:00:00 | |
| OE5DXL-15 | 2026-08-31 12:18:28 | 45.93264 | 16.93759 | 42° | 24km/h | 17260m | 3.5m/s | 0°C | 0% | 0hPa | 2.6V | 00:00:00 | 00:00:00 | 00:00:00 | |
| 9A1FER-3 | 2026-08-31 12:18:26 | 45.93257 | 16.93749 | 49° | 24km/h | 17251m | 4.0m/s | -58.5°C | 5.0% | 0hPa | 2.6V | 00:00:00 | 01:17:00 | 00:00:00 | |
| 9A1FER-10 | 2026-08-31 12:18:25 | 45.93255 | 16.93745 | 49° | 24km/h | 17246m | 5.3m/s | -58.5°C | 5.0% | 0hPa | 2.6V | 00:00:00 | 01:16:59 | 00:00:00 | |
| PG1ADW-2 | 2026-08-31 12:18:18 | 45.93239 | 16.93697 | 68° | 35km/h | 17214m | 5.4m/s | 0°C | 0% | 0hPa | 2.6V | 00:00:00 | 00:00:00 | 00:00:00 | |
| PETON7-10 | 2026-08-31 12:18:16 | 45.93232 | 16.93677 | 62° | 26km/h | 17205m | 5.1m/s | -58.4°C | 4.8% | 0hPa | 2.6V | 00:00:00 | 00:00:00 | 00:00:00 | |
| OE5DRO-10 | 2026-08-31 12:18:15 | 45.93229 | 16.93667 | 58° | 24km/h | 17200m | 4.5m/s | -58.4°C | 4.8% | 0hPa | 2.6V | 00:00:00 | 00:00:00 | 00:00:00 | |
| 9A1FER-3 | 2026-08-31 12:18:11 | 45.93214 | 16.93634 | 57° | 22km/h | 17182m | 5.7m/s | -58.2°C | 4.9% | 0hPa | 2.6V | 00:00:00 | 01:16:45 | 00:00:00 | |
| 9A1FER-10 | 2026-08-31 12:18:10 | 45.93211 | 16.93627 | 59° | 22km/h | 17177m | 4.6m/s | -58.2°C | 4.9% | 0hPa | 2.6V | 00:00:00 | 01:16:44 | 00:00:00 | |
| PETON7-10 | 2026-08-31 12:18:01 | 45.93184 | 16.93563 | 55° | 22km/h | 17136m | 3.8m/s | -57.9°C | 4.9% | 0hPa | 2.6V | 00:00:00 | 01:16:35 | 00:00:00 | |
| OE5DXL-15 | 2026-08-31 12:17:58 | 45.93175 | 16.93542 | 57° | 20km/h | 17123m | 4.5m/s | 0°C | 0% | 0hPa | 2.6V | 00:00:00 | 00:00:00 | 00:00:00 | |
| 9A1FER-3 | 2026-08-31 12:17:56 | 45.93168 | 16.93530 | 52° | 20km/h | 17115m | 4.1m/s | -57.9°C | 4.8% | 0hPa | 2.6V | 00:00:00 | 01:16:30 | 00:00:00 | |
| 9A1FER-10 | 2026-08-31 12:17:55 | 45.93165 | 16.93524 | 57° | 20km/h | 17110m | 4.8m/s | -57.9°C | 4.8% | 0hPa | 2.6V | 00:00:00 | 01:16:29 | 00:00:00 | |
| PETON7-10 | 2026-08-31 12:17:46 | 45.93138 | 16.93466 | 64° | 18km/h | 17068m | 4.9m/s | -57.8°C | 4.8% | 0hPa | 2.6V | 00:00:00 | 00:00:00 | 00:00:00 | |
| 9A1FER-3 | 2026-08-31 12:17:41 | 45.93129 | 16.93438 | 70° | 20km/h | 17044m | 3.8m/s | -57.7°C | 4.8% | 0hPa | 2.6V | 00:00:00 | 01:16:15 | 08:30:00 | |
| 9A1FER-10 | 2026-08-31 12:17:40 | 45.93127 | 16.93432 | 69° | 20km/h | 17040m | 4.6m/s | -57.9°C | 4.8% | 0hPa | 2.6V | 00:00:00 | 01:16:14 | 08:30:00 | |
| OE5DRO-10 | 2026-08-31 12:17:37 | 45.93122 | 16.93413 | 71° | 22km/h | 17026m | 4.9m/s | -57.8°C | 4.9% | 0hPa | 2.6V | 00:00:00 | 00:00:00 | 00:00:00 | |
| PETON7-10 | 2026-08-31 12:17:31 | 45.93114 | 16.93376 | 79° | 24km/h | 17000m | 5.0m/s | -58.0°C | 4.8% | 0hPa | 2.6V | 00:00:00 | 00:00:00 | 00:00:00 | |
| OE5DXL-15 | 2026-08-31 12:17:28 | 45.93110 | 16.93350 | 74° | 38km/h | 16985m | 4.5m/s | 0°C | 0% | 0hPa | 2.6V | 00:00:00 | 00:00:00 | 00:00:00 | |
| 9A1FER-3 | 2026-08-31 12:17:26 | 45.93106 | 16.93334 | 76° | 24km/h | 16976m | 4.2m/s | -57.9°C | 4.8% | 0hPa | 2.6V | 00:00:00 | 01:16:00 | 00:00:00 | |
| 9A1FER-10 | 2026-08-31 12:17:25 | 45.93105 | 16.93325 | 77° | 24km/h | 16971m | 4.2m/s | -58.0°C | 4.8% | 0hPa | 2.6V | 00:00:00 | 01:15:59 | 00:00:00 | |
| OE5DRO-10 | 2026-08-31 12:17:18 | 45.93100 | 16.93269 | 88° | 33km/h | 16940m | 4.0m/s | -58.3°C | 5.0% | 0hPa | 2.6V | 00:00:00 | 00:00:00 | 00:00:00 | |
| PETON7-10 | 2026-08-31 12:17:16 | 45.93100 | 16.93252 | 92° | 31km/h | 16930m | 4.2m/s | -58.3°C | 5.0% | 0hPa | 2.6V | 00:00:00 | 01:15:50 | 00:00:00 | |
| 9A1FER-3 | 2026-08-31 12:17:11 | 45.93102 | 16.93203 | 104° | 37km/h | 16908m | 4.8m/s | -58.6°C | 5.0% | 0hPa | 2.6V | 00:00:00 | 01:15:45 | 00:00:00 | |
| 9A1FER-10 | 2026-08-31 12:17:10 | 45.93104 | 16.93193 | 105° | 37km/h | 16904m | 3.3m/s | -58.6°C | 5.1% | 0hPa | 2.6V | 00:00:00 | 01:15:44 | 00:00:00 | |
| OE3JTB-15 | 2026-08-31 12:17:08 | 45.93109 | 16.93148 | 94° | 42km/h | 16887m | 4.9m/s | -58.8°C | 5.1% | 0hPa | 2.6V | 00:00:00 | 00:00:00 | 00:00:00 | |
| PETON7-10 | 2026-08-31 12:17:01 | 45.93108 | 16.93080 | 90° | 44km/h | 16863m | 3.9m/s | -59.1°C | 5.3% | 0hPa | 2.6V | 00:00:00 | 00:00:00 | 00:00:00 | |
| OE5DRO-10 | 2026-08-31 12:16:58 | 45.93109 | 16.93037 | 96° | 46km/h | 16849m | 4.2m/s | -59.2°C | 5.3% | 0hPa | 2.7V | 00:00:00 | 00:00:00 | 00:00:00 | |
| 9A1FER-3 | 2026-08-31 12:16:56 | 45.93112 | 16.93007 | 99° | 46km/h | 16840m | 4.2m/s | -59.2°C | 5.3% | 0hPa | 2.7V | 00:00:00 | 01:15:30 | 00:00:00 | |
| 9A1FER-10 | 2026-08-31 12:16:55 | 45.93113 | 16.92992 | 100° | 46km/h | 16835m | 4.7m/s | -59.2°C | 5.4% | 0hPa | 2.6V | 00:00:00 | 01:15:29 | 00:00:00 | |
| PETON7-10 | 2026-08-31 12:16:46 | 45.93121 | 16.92842 | 88° | 44km/h | 16794m | 5.0m/s | -59.1°C | 5.4% | 0hPa | 2.7V | 00:00:00 | 00:00:00 | 00:00:00 | |
| 9A1FER-3 | 2026-08-31 12:16:41 | 45.93118 | 16.92759 | 87° | 44km/h | 16770m | 5.5m/s | -58.9°C | 5.3% | 0hPa | 2.7V | 00:00:00 | 01:15:15 | 00:00:00 | |
| 9A1FER-10 | 2026-08-31 12:16:40 | 45.93117 | 16.92744 | 88° | 44km/h | 16765m | 4.8m/s | -58.9°C | 5.3% | 0hPa | 2.7V | 00:00:00 | 01:15:14 | 00:00:00 | |
| OE5DRO-10 | 2026-08-31 12:16:39 | 45.93117 | 16.92729 | 89° | 44km/h | 16760m | 5.1m/s | -58.8°C | 5.2% | 0hPa | 2.7V | 00:00:00 | 00:00:00 | 00:00:00 | |
| PETON7-10 | 2026-08-31 12:16:31 | 45.93113 | 16.92607 | 85° | 47km/h | 16723m | 5.0m/s | -58.9°C | 5.4% | 0hPa | 2.7V | 00:00:00 | 01:15:05 | 00:00:00 | |
| 9A1FER-3 | 2026-08-31 12:16:26 | 45.93105 | 16.92525 | 81° | 49km/h | 16700m | 5.0m/s | -59.2°C | 5.5% | 0hPa | 2.7V | 00:00:00 | 01:15:00 | 00:00:00 | |
| 9A1FER-10 | 2026-08-31 12:16:25 | 45.93103 | 16.92509 | 82° | 49km/h | 16695m | 4.5m/s | -59.3°C | 5.5% | 0hPa | 2.7V | 00:00:00 | 01:14:59 | 00:00:00 | |
| OE5DRO-10 | 2026-08-31 12:16:20 | 45.93095 | 16.92424 | 83° | 49km/h | 16672m | 3.7m/s | -59.6°C | 5.6% | 0hPa | 2.7V | 00:00:00 | 00:00:00 | 08:30:00 | |
| PETON7-10 | 2026-08-31 12:16:16 | 45.93084 | 16.92355 | 74° | 47km/h | 16653m | 4.6m/s | -59.6°C | 5.9% | 0hPa | 2.6V | 00:00:00 | 00:00:00 | 08:30:00 | |
| 9A1FER-3 | 2026-08-31 12:16:11 | 45.93063 | 16.92269 | 74° | 47km/h | 16631m | 4.2m/s | -59.6°C | 5.8% | 0hPa | 2.7V | 00:00:00 | 01:14:45 | 00:00:00 | |
| 9A1FER-10 | 2026-08-31 12:16:10 | 45.93059 | 16.92251 | 75° | 47km/h | 16627m | 4.2m/s | -59.5°C | 5.8% | 0hPa | 2.6V | 00:00:00 | 01:14:44 | 00:00:00 | |
| OE5DRO-10 | 2026-08-31 12:16:01 | 45.93035 | 16.92100 | 73° | 44km/h | 16584m | 4.6m/s | -59.3°C | 5.7% | 0hPa | 2.7V | 00:00:00 | 00:00:00 | 00:00:00 | |
| PETON7-10 | 2026-08-31 12:16:00 | 45.93031 | 16.92083 | 71° | 46km/h | 16580m | 4.8m/s | -59.2°C | 5.6% | 0hPa | 2.7V | 00:00:00 | 00:00:00 | 00:00:00 | |
| 9A1FER-3 | 2026-08-31 12:15:56 | 45.93019 | 16.92018 | 82° | 44km/h | 16562m | 5.3m/s | -59.2°C | 5.7% | 0hPa | 2.7V | 00:00:00 | 01:14:30 | 00:00:00 | |
| 9A1FER-10 | 2026-08-31 12:15:55 | 45.93018 | 16.92003 | 84° | 42km/h | 16556m | 4.6m/s | -59.2°C | 5.8% | 0hPa | 2.7V | 00:00:00 | 01:14:29 | 00:00:00 | |
| PETON7-10 | 2026-08-31 12:15:45 | 45.93006 | 16.91844 | 81° | 46km/h | 16511m | 4.5m/s | -60.2°C | 6.1% | 0hPa | 2.7V | 00:00:00 | 01:14:19 | 00:00:00 | |
| 9A1FER-3 | 2026-08-31 12:15:41 | 45.93004 | 16.91786 | 96° | 44km/h | 16492m | 4.4m/s | -60.2°C | 6.2% | 0hPa | 2.7V | 00:00:00 | 01:14:15 | 00:00:00 | |
| 9A1FER-10 | 2026-08-31 12:15:40 | 45.93005 | 16.91772 | 101° | 44km/h | 16487m | 5.7m/s | -60.2°C | 6.2% | 0hPa | 2.7V | 00:00:00 | 01:14:14 | 00:00:00 | |
| OE5DXL-15 | 2026-08-31 12:15:39 | 45.93007 | 16.91757 | 104° | 46km/h | 16482m | 3.6m/s | 0°C | 0% | 0hPa | 2.7V | 00:00:00 | 00:00:00 | 00:00:00 | |
| 9A1FER-3 | 2026-08-31 12:15:26 | 45.93017 | 16.91549 | 92° | 46km/h | 16423m | 4.0m/s | -60.2°C | 6.3% | 0hPa | 2.7V | 00:00:00 | 01:14:00 | 08:30:00 | |
| 9A1FER-10 | 2026-08-31 12:15:25 | 45.93018 | 16.91535 | 91° | 46km/h | 16419m | 3.8m/s | -60.1°C | 6.2% | 0hPa | 2.6V | 00:00:00 | 01:13:59 | 08:30:00 | |
| OE5DRO-10 | 2026-08-31 12:15:22 | 45.93016 | 16.91487 | 88° | 47km/h | 16405m | 4.7m/s | -60.1°C | 6.2% | 0hPa | 2.6V | 00:00:00 | 00:00:00 | 00:00:00 | |
| 9A1FER-3 | 2026-08-31 12:15:11 | 45.93005 | 16.91301 | 86° | 47km/h | 16355m | 3.5m/s | -60.1°C | 6.3% | 0hPa | 2.6V | 00:00:00 | 01:13:45 | 00:00:00 | |
| 9A1FER-10 | 2026-08-31 12:15:10 | 45.93004 | 16.91286 | 86° | 49km/h | 16352m | 3.5m/s | -60.2°C | 6.3% | 0hPa | 2.6V | 00:00:00 | 01:13:44 | 00:00:00 | |
| 9A1FER-3 | 2026-08-31 12:14:56 | 45.92975 | 16.91042 | 74° | 53km/h | 16289m | 4.6m/s | -60.3°C | 6.3% | 0hPa | 2.6V | 00:00:00 | 01:13:30 | 00:00:00 | |
| 9A1FER-10 | 2026-08-31 12:14:55 | 45.92971 | 16.91024 | 75° | 53km/h | 16284m | 4.6m/s | -60.3°C | 6.4% | 0hPa | 2.6V | 00:00:00 | 01:13:29 | 00:00:00 | |
| OE5DRO-10 | 2026-08-31 12:14:44 | 45.92925 | 16.90824 | 66° | 53km/h | 16235m | 4.3m/s | -60.5°C | 6.6% | 0hPa | 2.6V | 00:00:00 | 00:00:00 | 00:00:00 | |
| 9A1FER-10 | 2026-08-31 12:14:40 | 45.92903 | 16.90754 | 68° | 53km/h | 16217m | 4.2m/s | -60.6°C | 6.7% | 0hPa | 2.6V | 00:00:00 | 01:13:14 | 00:00:00 | |
| PETON7-10 | 2026-08-31 12:14:28 | 45.92829 | 16.90547 | 63° | 53km/h | 16164m | 5.2m/s | -60.1°C | 6.5% | 0hPa | 2.6V | 00:00:00 | 01:13:02 | 00:00:00 | |
| 9A1FER-3 | 2026-08-31 12:14:26 | 45.92817 | 16.90512 | 69° | 53km/h | 16154m | 5.1m/s | -60.0°C | 6.5% | 0hPa | 2.6V | 00:00:00 | 01:13:00 | 00:00:00 | |
| 9A1FER-10 | 2026-08-31 12:14:25 | 45.92812 | 16.90493 | 71° | 53km/h | 16150m | 4.2m/s | -59.9°C | 6.6% | 0hPa | 2.6V | 00:00:00 | 01:12:59 | 00:00:00 | |
| PETON7-10 | 2026-08-31 12:14:13 | 45.92748 | 16.90280 | 65° | 57km/h | 16096m | 4.5m/s | -59.8°C | 6.4% | 0hPa | 2.6V | 00:00:00 | 00:00:00 | 00:00:00 | |
| 9A1FER-3 | 2026-08-31 12:14:11 | 45.92736 | 16.90245 | 67° | 57km/h | 16086m | 5.3m/s | -59.8°C | 6.4% | 0hPa | 2.7V | 00:00:00 | 01:12:45 | 00:00:00 | |
| 9A1FER-10 | 2026-08-31 12:14:10 | 45.92731 | 16.90225 | 69° | 57km/h | 16082m | 3.9m/s | -59.8°C | 6.4% | 0hPa | 2.7V | 00:00:00 | 01:12:44 | 00:00:00 | |
| OE5DRO-10 | 2026-08-31 12:14:06 | 45.92711 | 16.90147 | 71° | 60km/h | 16063m | 5.0m/s | -59.8°C | 6.4% | 0hPa | 2.7V | 00:00:00 | 00:00:00 | 00:00:00 | |
| 9A1FER-3 | 2026-08-31 12:13:56 | 45.92665 | 16.89951 | 75° | 64km/h | 16017m | 5.7m/s | -60.4°C | 6.6% | 0hPa | 2.7V | 00:00:00 | 01:12:30 | 00:00:00 | |
| 9A1FER-10 | 2026-08-31 12:13:55 | 45.92661 | 16.89930 | 74° | 64km/h | 16012m | 3.8m/s | -60.3°C | 6.7% | 0hPa | 2.7V | 00:00:00 | 01:12:29 | 00:00:00 | |
| OE5DRO-10 | 2026-08-31 12:13:47 | 45.92618 | 16.89756 | 71° | 64km/h | 15976m | 4.4m/s | -60.2°C | 6.6% | 0hPa | 2.7V | 00:00:00 | 00:00:00 | 00:00:00 | |
| OE3JTB-15 | 2026-08-31 12:13:44 | 45.92597 | 16.89668 | 70° | 60km/h | 15960m | 5.1m/s | -60.2°C | 6.8% | 0hPa | 2.7V | 00:00:00 | 00:00:00 | 00:00:00 | |
| 9A1FER-3 | 2026-08-31 12:13:41 | 45.92584 | 16.89626 | 67° | 64km/h | 15951m | 4.2m/s | -60.1°C | 6.8% | 0hPa | 2.7V | 00:00:00 | 01:12:15 | 00:00:00 | |
| OE5DRO-10 | 2026-08-31 12:13:28 | 45.92503 | 16.89351 | 66° | 58km/h | 15895m | 5.3m/s | -59.8°C | 6.7% | 0hPa | 2.7V | 00:00:00 | 00:00:00 | 08:30:00 | |
| 9A1FER-3 | 2026-08-31 12:13:26 | 45.92491 | 16.89311 | 69° | 58km/h | 15886m | 4.7m/s | -59.6°C | 6.7% | 0hPa | 2.6V | 00:00:00 | 01:12:00 | 00:00:00 | |
| 9A1FER-10 | 2026-08-31 12:13:25 | 45.92485 | 16.89291 | 69° | 58km/h | 15882m | 4.6m/s | -59.5°C | 6.7% | 0hPa | 2.6V | 00:00:00 | 01:11:59 | 00:00:00 | |
| PETON7-10 | 2026-08-31 12:13:15 | 45.92424 | 16.89103 | 66° | 58km/h | 15838m | 4.2m/s | -59.4°C | 6.5% | 0hPa | 2.6V | 00:00:00 | 00:00:00 | 00:00:00 | |
| 9A1FER-3 | 2026-08-31 12:13:11 | 45.92398 | 16.89027 | 63° | 53km/h | 15820m | 3.2m/s | -59.2°C | 6.8% | 0hPa | 2.6V | 00:00:00 | 01:11:45 | 08:30:00 | |
| 9A1FER-10 | 2026-08-31 12:13:10 | 45.92391 | 16.89009 | 62° | 53km/h | 15816m | 5.5m/s | -59.2°C | 6.9% | 0hPa | 2.6V | 00:00:00 | 01:11:44 | 08:30:00 | |
| OE5DRO-10 | 2026-08-31 12:13:09 | 45.92385 | 16.88992 | 61° | 51km/h | 15811m | 3.9m/s | -59.2°C | 7.0% | 0hPa | 2.7V | 00:00:00 | 00:00:00 | 00:00:00 | |
| 9A1FER-3 | 2026-08-31 12:12:57 | 45.92304 | 16.88774 | 64° | 47km/h | 15753m | 3.7m/s | -59.1°C | 6.8% | 0hPa | 2.7V | 00:00:00 | 01:11:30 | 00:00:00 | |
| 9A1FER-10 | 2026-08-31 12:12:55 | 45.92299 | 16.88758 | 66° | 46km/h | 15749m | 4.2m/s | -59.1°C | 6.9% | 0hPa | 2.7V | 00:00:00 | 01:11:29 | 00:00:00 | |
| OE5DRO-10 | 2026-08-31 12:12:50 | 45.92273 | 16.88679 | 65° | 44km/h | 15729m | 4.7m/s | -59.3°C | 7.0% | 0hPa | 2.7V | 00:00:00 | 00:00:00 | 00:00:00 | |
| OE3JTB-15 | 2026-08-31 12:12:46 | 45.92249 | 16.88598 | 69° | 46km/h | 15706m | 4.8m/s | -59.4°C | 7.2% | 0hPa | 2.7V | 00:00:00 | 00:00:00 | 00:00:00 | |
| 9A1FER-3 | 2026-08-31 12:12:41 | 45.92235 | 16.88540 | 71° | 44km/h | 15690m | 3.3m/s | -59.5°C | 7.4% | 0hPa | 2.7V | 00:00:00 | 01:11:15 | 00:00:00 | |
| 9A1FER-10 | 2026-08-31 12:12:40 | 45.92232 | 16.88527 | 73° | 44km/h | 15686m | 4.7m/s | -59.5°C | 7.4% | 0hPa | 2.7V | 00:00:00 | 01:11:14 | 00:00:00 | |
| OE5DRO-10 | 2026-08-31 12:12:31 | 45.92211 | 16.88393 | 80° | 49km/h | 15648m | 3.9m/s | -60.0°C | 7.8% | 0hPa | 2.7V | 00:00:00 | 00:00:00 | 00:00:00 | |
| PETON7-10 | 2026-08-31 12:12:30 | 45.92209 | 16.88376 | 82° | 51km/h | 15643m | 4.3m/s | -59.9°C | 7.8% | 0hPa | 2.7V | 00:00:00 | 01:11:04 | 00:00:00 | |
| 9A1FER-3 | 2026-08-31 12:12:26 | 45.92200 | 16.88307 | 80° | 51km/h | 15626m | 5.3m/s | -59.9°C | 7.7% | 0hPa | 2.7V | 00:00:00 | 01:11:00 | 00:00:00 | |
| 9A1FER-10 | 2026-08-31 12:12:25 | 45.92198 | 16.88290 | 82° | 51km/h | 15621m | 3.8m/s | -59.9°C | 7.7% | 0hPa | 2.7V | 00:00:00 | 01:10:59 | 00:00:00 | |
| OE3JTB-15 | 2026-08-31 12:12:17 | 45.92175 | 16.88146 | 72° | 57km/h | 15587m | 3.8m/s | -59.8°C | 7.4% | 0hPa | 2.6V | 00:00:00 | 00:00:00 | 00:00:00 | |
| PETON7-10 | 2026-08-31 12:12:14 | 45.92163 | 16.88093 | 70° | 58km/h | 15574m | 5.5m/s | -59.6°C | 7.4% | 0hPa | 2.6V | 00:00:00 | 00:00:00 | 08:30:00 | |
| OE5DRO-10 | 2026-08-31 12:12:12 | 45.92154 | 16.88058 | 72° | 58km/h | 15565m | 5.7m/s | -59.6°C | 7.2% | 0hPa | 2.7V | 00:00:00 | 00:00:00 | 00:00:00 | |
| 9A1FER-3 | 2026-08-31 12:12:11 | 45.92150 | 16.88039 | 74° | 58km/h | 15560m | 3.7m/s | -59.7°C | 7.3% | 0hPa | 2.7V | 00:00:00 | 01:10:45 | 00:00:00 | |
| 9A1FER-3 | 2026-08-31 12:11:56 | 45.92068 | 16.87744 | 69° | 51km/h | 15494m | 5.0m/s | -60.5°C | 7.6% | 0hPa | 2.7V | 00:00:00 | 01:10:30 | 00:00:00 | |
| 9A1FER-10 | 2026-08-31 12:11:55 | 45.92062 | 16.87724 | 70° | 51km/h | 15489m | 4.8m/s | -60.5°C | 7.5% | 0hPa | 2.7V | 00:00:00 | 01:10:29 | 00:00:00 | |
| OE5DRO-10 | 2026-08-31 12:11:53 | 45.92052 | 16.87686 | 71° | 49km/h | 15480m | 5.9m/s | -60.6°C | 7.5% | 0hPa | 2.7V | 00:00:00 | 00:00:00 | 00:00:00 | |
| PETON7-10 | 2026-08-31 12:11:50 | 45.92040 | 16.87631 | 72° | 47km/h | 15465m | 3.6m/s | -60.6°C | 7.6% | 0hPa | 2.7V | 00:00:00 | 00:00:00 | 00:00:00 | |
| OE3JTB-15 | 2026-08-31 12:11:48 | 45.92031 | 16.87596 | 72° | 49km/h | 15456m | 4.7m/s | -60.6°C | 7.6% | 0hPa | 2.7V | 00:00:00 | 01:10:22 | 00:00:00 | |
| 9A1FER-3 | 2026-08-31 12:11:41 | 45.92012 | 16.87479 | 85° | 47km/h | 15424m | 4.0m/s | -60.9°C | 7.9% | 0hPa | 2.7V | 00:00:00 | 01:10:15 | 00:00:00 | |
| 9A1FER-10 | 2026-08-31 12:11:40 | 45.92011 | 16.87462 | 83° | 49km/h | 15421m | 3.4m/s | -60.9°C | 7.8% | 0hPa | 2.7V | 00:00:00 | 01:10:14 | 00:00:00 | |
| PETON7-10 | 2026-08-31 12:11:35 | 45.91999 | 16.87380 | 79° | 51km/h | 15400m | 3.3m/s | -61.0°C | 7.6% | 0hPa | 2.7V | 00:00:00 | 01:10:09 | 00:00:00 | |
| OE5DRO-10 | 2026-08-31 12:11:34 | 45.91997 | 16.87363 | 81° | 53km/h | 15395m | 4.8m/s | -61.1°C | 7.7% | 0hPa | 2.7V | 00:00:00 | 00:00:00 | 00:00:00 | |
| 9A1FER-3 | 2026-08-31 12:11:26 | 45.91988 | 16.87219 | 86° | 55km/h | 15360m | 3.4m/s | -61.3°C | 8.0% | 0hPa | 2.7V | 00:00:00 | 01:10:00 | 00:00:00 | |
| 9A1FER-10 | 2026-08-31 12:11:25 | 45.91987 | 16.87199 | 87° | 55km/h | 15356m | 5.5m/s | -61.3°C | 8.1% | 0hPa | 2.7V | 00:00:00 | 01:09:59 | 00:00:00 | |
| PETON7-10 | 2026-08-31 12:11:20 | 45.91981 | 16.87100 | 83° | 55km/h | 15333m | 4.2m/s | -61.0°C | 8.1% | 0hPa | 2.7V | 00:00:00 | 00:00:00 | 00:00:00 | |
| OE3JTB-15 | 2026-08-31 12:11:19 | 45.91979 | 16.87080 | 82° | 55km/h | 15329m | 3.7m/s | -61.0°C | 8.0% | 0hPa | 2.7V | 00:00:00 | 00:00:00 | 00:00:00 | |
| OE5DRO-10 | 2026-08-31 12:11:15 | 45.91969 | 16.87003 | 78° | 55km/h | 15311m | 3.2m/s | -61.0°C | 8.0% | 0hPa | 2.7V | 00:00:00 | 00:00:00 | 00:00:00 | |
| 9A1FER-3 | 2026-08-31 12:11:11 | 45.91958 | 16.86925 | 81° | 55km/h | 15292m | 4.9m/s | -60.9°C | 7.8% | 0hPa | 2.7V | 00:00:00 | 01:09:45 | 00:00:00 | |
| 9A1FER-10 | 2026-08-31 12:11:10 | 45.91956 | 16.86906 | 81° | 55km/h | 15288m | 3.4m/s | -60.9°C | 7.8% | 0hPa | 2.7V | 00:00:00 | 01:09:44 | 00:00:00 | |
| PETON7-10 | 2026-08-31 12:11:05 | 45.91939 | 16.86812 | 74° | 57km/h | 15265m | 3.8m/s | -60.7°C | 7.7% | 0hPa | 2.7V | 00:00:00 | 00:00:00 | 00:00:00 | |
| OE5DRO-10 | 2026-08-31 12:10:56 | 45.91907 | 16.86640 | 78° | 60km/h | 15223m | 4.8m/s | -60.6°C | 7.9% | 0hPa | 2.7V | 00:00:00 | 00:00:00 | 00:00:00 | |
| 9A1FER-10 | 2026-08-31 12:10:55 | 45.91904 | 16.86619 | 78° | 58km/h | 15219m | 4.3m/s | -60.7°C | 8.0% | 0hPa | 2.7V | 00:00:00 | 01:09:29 | 08:30:00 | |
| OE3JTB-15 | 2026-08-31 12:10:50 | 45.91884 | 16.86518 | 72° | 60km/h | 15195m | 4.7m/s | -60.7°C | 8.0% | 0hPa | 2.7V | 00:00:00 | 00:00:00 | 00:00:00 | |
| 9A1FER-10 | 2026-08-31 12:10:41 | 45.91839 | 16.86315 | 77° | 60km/h | 15151m | 4.4m/s | -60.7°C | 8.1% | 0hPa | 2.7V | 00:00:00 | 01:09:14 | 00:00:00 | |
| OE5DRO-10 | 2026-08-31 12:10:37 | 45.91826 | 16.86248 | 72° | 58km/h | 15137m | 5.1m/s | -60.7°C | 8.1% | 0hPa | 2.7V | 00:00:00 | 00:00:00 | 08:30:00 | |
| PETON7-10 | 2026-08-31 12:10:35 | 45.91815 | 16.86206 | 69° | 58km/h | 15128m | 5.3m/s | -60.6°C | 8.2% | 0hPa | 2.6V | 00:00:00 | 00:00:00 | 00:00:00 | |
| 9A1FER-3 | 2026-08-31 12:10:26 | 45.91782 | 16.86020 | 74° | 57km/h | 15089m | 4.5m/s | -60.7°C | 8.5% | 0hPa | 2.7V | 00:00:00 | 01:09:00 | 00:00:00 | |
| 9A1FER-10 | 2026-08-31 12:10:25 | 45.91778 | 16.86000 | 73° | 57km/h | 15085m | 4.7m/s | -60.7°C | 8.5% | 0hPa | 2.7V | 00:00:00 | 01:08:59 | 00:00:00 | |
| OE3JTB-15 | 2026-08-31 12:10:21 | 45.91760 | 16.85920 | 72° | 62km/h | 15067m | 4.1m/s | -60.5°C | 8.5% | 0hPa | 2.7V | 00:00:00 | 01:08:55 | 00:00:00 | |
| PETON7-10 | 2026-08-31 12:10:20 | 45.91756 | 16.85900 | 74° | 58km/h | 15062m | 5.5m/s | -60.5°C | 8.4% | 0hPa | 2.7V | 00:00:00 | 00:00:00 | 00:00:00 | |
| OE5DRO-10 | 2026-08-31 12:10:17 | 45.91745 | 16.85843 | 76° | 60km/h | 15047m | 3.6m/s | -60.5°C | 8.5% | 0hPa | 2.7V | 00:00:00 | 00:00:00 | 00:00:00 | |
| 9A1FER-3 | 2026-08-31 12:10:11 | 45.91726 | 16.85726 | 78° | 64km/h | 15019m | 5.6m/s | -60.6°C | 8.5% | 0hPa | 2.7V | 00:00:00 | 01:08:45 | 00:00:00 | |
| 9A1FER-10 | 2026-08-31 12:10:10 | 45.91723 | 16.85705 | 78° | 66km/h | 15014m | 4.5m/s | -60.7°C | 8.6% | 0hPa | 2.6V | 00:00:00 | 01:08:44 | 00:00:00 | |
| PETON7-10 | 2026-08-31 12:10:05 | 45.91704 | 16.85595 | 77° | 68km/h | 14990m | 4.0m/s | -60.7°C | 8.6% | 0hPa | 2.6V | 00:00:00 | 01:08:39 | 00:00:00 | |
| OE5DRO-10 | 2026-08-31 12:09:58 | 45.91684 | 16.85432 | 82° | 73km/h | 14957m | 5.0m/s | -60.7°C | 8.8% | 0hPa | 2.6V | 00:00:00 | 00:00:00 | 00:00:00 | |
| 9A1FER-3 | 2026-08-31 12:09:56 | 45.91678 | 16.85382 | 81° | 73km/h | 14948m | 5.1m/s | -60.7°C | 8.9% | 0hPa | 2.6V | 00:00:00 | 01:08:30 | 00:00:00 | |
| 9A1FER-10 | 2026-08-31 12:09:55 | 45.91675 | 16.85358 | 80° | 73km/h | 14943m | 4.4m/s | -60.6°C | 8.9% | 0hPa | 2.6V | 00:00:00 | 01:08:29 | 00:00:00 | |
| OE3JTB-15 | 2026-08-31 12:09:52 | 45.91665 | 16.85283 | 80° | 73km/h | 14930m | 3.1m/s | -60.6°C | 9.0% | 0hPa | 2.6V | 00:00:00 | 00:00:00 | 08:30:00 | |
| PETON7-10 | 2026-08-31 12:09:50 | 45.91659 | 16.85230 | 81° | 73km/h | 14922m | 4.6m/s | -60.6°C | 9.0% | 0hPa | 2.7V | 00:00:00 | 00:00:00 | 08:30:00 | |
| 9A1FER-3 | 2026-08-31 12:09:41 | 45.91632 | 16.84994 | 80° | 73km/h | 14882m | 5.3m/s | -60.7°C | 9.4% | 0hPa | 2.7V | 00:00:00 | 01:08:15 | 00:00:00 | |
| 9A1FER-10 | 2026-08-31 12:09:40 | 45.91629 | 16.84968 | 80° | 73km/h | 14877m | 4.2m/s | -60.8°C | 9.6% | 0hPa | 2.7V | 00:00:00 | 01:08:14 | 00:00:00 | |
| OE5DRO-10 | 2026-08-31 12:09:39 | 45.91625 | 16.84942 | 79° | 73km/h | 14872m | 5.6m/s | -60.9°C | 9.7% | 0hPa | 2.7V | 00:00:00 | 00:00:00 | 00:00:00 | |
| PETON7-10 | 2026-08-31 12:09:35 | 45.91609 | 16.84838 | 80° | 71km/h | 14854m | 3.7m/s | -61.0°C | 9.6% | 0hPa | 2.7V | 00:00:00 | 00:00:00 | 00:00:00 | |
| 9A1FER-3 | 2026-08-31 12:09:26 | 45.91571 | 16.84607 | 75° | 68km/h | 14816m | 4.5m/s | -60.8°C | 10.2% | 0hPa | 2.7V | 00:00:00 | 01:08:00 | 00:00:00 | |
| 9A1FER-10 | 2026-08-31 12:09:25 | 45.91567 | 16.84582 | 76° | 68km/h | 14811m | 3.5m/s | -60.9°C | 10.3% | 0hPa | 2.7V | 00:00:00 | 01:07:59 | 00:00:00 | |
| OE3JTB-15 | 2026-08-31 12:09:23 | 45.91557 | 16.84534 | 73° | 64km/h | 14803m | 4.7m/s | -60.9°C | 10.4% | 0hPa | 2.7V | 00:00:00 | 00:00:00 | 00:00:00 | |
| OE5DRO-10 | 2026-08-31 12:09:20 | 45.91542 | 16.84462 | 73° | 62km/h | 14790m | 4.7m/s | -61.1°C | 10.4% | 0hPa | 2.7V | 00:00:00 | 00:00:00 | 00:00:00 | |
| 9A1FER-3 | 2026-08-31 12:09:11 | 45.91496 | 16.84255 | 75° | 62km/h | 14751m | 5.1m/s | -61.6°C | 11.1% | 0hPa | 2.7V | 00:00:00 | 01:07:45 | 00:00:00 | |
| 9A1FER-10 | 2026-08-31 12:09:10 | 45.91492 | 16.84232 | 75° | 60km/h | 14747m | 4.3m/s | -61.6°C | 11.4% | 0hPa | 2.7V | 00:00:00 | 01:07:44 | 00:00:00 | |
| PETON7-10 | 2026-08-31 12:09:05 | 45.91464 | 16.84103 | 70° | 60km/h | 14721m | 5.1m/s | -61.5°C | 11.5% | 0hPa | 2.7V | 00:00:00 | 00:00:00 | 00:00:00 | |
| OE5DRO-10 | 2026-08-31 12:08:58 | 45.91434 | 16.83980 | 77° | 64km/h | 14696m | 4.1m/s | -61.5°C | 12.1% | 0hPa | 2.7V | 00:00:00 | 00:00:00 | 00:00:00 | |
| 9A1FER-3 | 2026-08-31 12:08:56 | 45.91429 | 16.83939 | 82° | 60km/h | 14686m | 3.8m/s | -61.5°C | 12.3% | 0hPa | 2.7V | 00:00:00 | 01:07:30 | 00:00:00 | |
| 9A1FER-10 | 2026-08-31 12:08:55 | 45.91427 | 16.83919 | 85° | 62km/h | 14682m | 5.0m/s | -61.6°C | 12.3% | 0hPa | 2.7V | 00:00:00 | 01:07:29 | 00:00:00 | |
| OE3JTB-15 | 2026-08-31 12:08:54 | 45.91425 | 16.83897 | 86° | 62km/h | 14677m | 4.3m/s | -61.6°C | 12.4% | 0hPa | 2.7V | 00:00:00 | 01:07:28 | 00:00:00 | |
| PETON7-10 | 2026-08-31 12:08:49 | 45.91415 | 16.83790 | 81° | 64km/h | 14652m | 6.1m/s | -61.5°C | 11.7% | 0hPa | 2.7V | 00:00:00 | 00:00:00 | 00:00:00 | |
| 9A1FER-3 | 2026-08-31 12:08:41 | 45.91401 | 16.83609 | 87° | 64km/h | 14615m | 4.4m/s | -61.4°C | 11.7% | 0hPa | 2.7V | 00:00:00 | 01:07:15 | 08:30:00 | |
| 9A1FER-10 | 2026-08-31 12:08:40 | 45.91401 | 16.83585 | 89° | 64km/h | 14611m | 5.4m/s | -61.5°C | 12.0% | 0hPa | 2.7V | 00:00:00 | 01:07:14 | 08:30:00 | |
| PETON7-10 | 2026-08-31 12:08:34 | 45.91399 | 16.83448 | 91° | 66km/h | 14586m | 4.4m/s | -61.7°C | 12.9% | 0hPa | 2.7V | 00:00:00 | 01:07:08 | 00:00:00 | |
| OE5DRO-10 | 2026-08-31 12:08:29 | 45.91403 | 16.83333 | 93° | 68km/h | 14564m | 4.6m/s | -61.7°C | 12.7% | 0hPa | 2.7V | 00:00:00 | 00:00:00 | 00:00:00 | |
| 9A1FER-3 | 2026-08-31 12:08:26 | 45.91403 | 16.83264 | 91° | 68km/h | 14551m | 4.2m/s | -61.6°C | 12.5% | 0hPa | 2.7V | 00:00:00 | 01:07:00 | 00:00:00 | |
| 9A1FER-10 | 2026-08-31 12:08:25 | 45.91403 | 16.83240 | 90° | 68km/h | 14547m | 4.6m/s | -61.5°C | 12.6% | 0hPa | 2.7V | 00:00:00 | 01:06:59 | 00:00:00 | |
| PETON7-10 | 2026-08-31 12:08:17 | 45.91410 | 16.83048 | 96° | 69km/h | 14513m | 3.5m/s | -61.3°C | 12.9% | 0hPa | 2.7V | 00:00:00 | 00:00:00 | 00:00:00 | |
| 9A1FER-3 | 2026-08-31 12:08:11 | 45.91418 | 16.82900 | 96° | 71km/h | 14487m | 3.8m/s | -61.0°C | 13.1% | 0hPa | 2.7V | 00:00:00 | 01:06:45 | 00:00:00 | |
| 9A1FER-10 | 2026-08-31 12:08:10 | 45.91420 | 16.82875 | 96° | 71km/h | 14483m | 4.8m/s | -61.0°C | 13.2% | 0hPa | 2.7V | 00:00:00 | 01:06:44 | 00:00:00 | |
| OE5DRO-10 | 2026-08-31 12:08:07 | 45.91424 | 16.82800 | 94° | 75km/h | 14470m | 4.1m/s | -61.0°C | 13.4% | 0hPa | 2.7V | 00:00:00 | 00:00:00 | 00:00:00 | |
| PETON7-10 | 2026-08-31 12:08:02 | 45.91428 | 16.82673 | 94° | 75km/h | 14449m | 5.0m/s | -61.2°C | 13.8% | 0hPa | 2.7V | 00:00:00 | 00:00:00 | 00:00:00 | |
| 9A1FER-3 | 2026-08-31 12:07:56 | 45.91437 | 16.82514 | 95° | 75km/h | 14423m | 4.1m/s | -61.1°C | 13.8% | 0hPa | 2.7V | 00:00:00 | 01:06:30 | 00:00:00 | |
| 9A1FER-10 | 2026-08-31 12:07:55 | 45.91438 | 16.82486 | 95° | 75km/h | 14419m | 4.8m/s | -61.1°C | 13.9% | 0hPa | 2.7V | 00:00:00 | 01:06:29 | 00:00:00 | |
| PETON7-10 | 2026-08-31 12:07:47 | 45.91441 | 16.82267 | 91° | 75km/h | 14386m | 4.9m/s | -60.8°C | 14.7% | 0hPa | 2.7V | 00:00:00 | 01:06:21 | 00:00:00 | |
| OE5DRO-10 | 2026-08-31 12:07:44 | 45.91441 | 16.82185 | 89° | 75km/h | 14374m | 2.8m/s | 0°C | 0% | 0hPa | 2.7V | 00:00:00 | 00:00:00 | 00:00:00 | |
| 9A1FER-3 | 2026-08-31 12:07:41 | 45.91438 | 16.82103 | 87° | 75km/h | 14361m | 4.2m/s | -60.8°C | 14.5% | 0hPa | 2.7V | 00:00:00 | 01:06:15 | 00:00:00 | |
| 9A1FER-10 | 2026-08-31 12:07:40 | 45.91437 | 16.82075 | 87° | 75km/h | 14357m | 3.9m/s | -60.8°C | 14.6% | 0hPa | 2.7V | 00:00:00 | 01:06:14 | 00:00:00 | |
| PETON7-10 | 2026-08-31 12:07:32 | 45.91431 | 16.81857 | 87° | 73km/h | 14322m | 3.7m/s | -60.6°C | 15.3% | 0hPa | 2.7V | 00:00:00 | 00:00:00 | 08:30:00 | |
| OE3JTB-15 | 2026-08-31 12:07:27 | 45.91427 | 16.81724 | 89° | 73km/h | 14302m | 3.5m/s | -60.7°C | 15.9% | 0hPa | 2.7V | 00:00:00 | 01:06:01 | 00:00:00 | |
| 9A1FER-3 | 2026-08-31 12:07:26 | 45.91426 | 16.81697 | 90° | 71km/h | 14297m | 5.1m/s | -60.8°C | 16.4% | 0hPa | 2.7V | 00:00:00 | 01:06:00 | 00:00:00 | |
| 9A1FER-10 | 2026-08-31 12:07:25 | 45.91426 | 16.81670 | 90° | 71km/h | 14293m | 3.1m/s | -60.8°C | 16.8% | 0hPa | 2.7V | 00:00:00 | 01:05:59 | 00:00:00 | |
| PETON7-10 | 2026-08-31 12:07:17 | 45.91410 | 16.81462 | 79° | 71km/h | 14261m | 3.3m/s | -61.0°C | 17.5% | 0hPa | 2.7V | 00:00:00 | 00:00:00 | 00:00:00 | |
| 9A1FER-3 | 2026-08-31 12:07:11 | 45.91393 | 16.81314 | 84° | 73km/h | 14239m | 4.5m/s | -61.0°C | 18.0% | 0hPa | 2.7V | 00:00:00 | 01:05:45 | 00:00:00 | |
| 9A1FER-10 | 2026-08-31 12:07:10 | 45.91391 | 16.81289 | 85° | 75km/h | 14235m | 3.3m/s | -61.0°C | 18.1% | 0hPa | 2.7V | 00:00:00 | 01:05:44 | 00:00:00 | |
| OE5DRO-10 | 2026-08-31 12:07:06 | 45.91384 | 16.81186 | 87° | 78km/h | 14217m | 4.7m/s | 0°C | 0% | 0hPa | 2.7V | 00:00:00 | 00:00:00 | 00:00:00 | |
| PETON7-10 | 2026-08-31 12:07:02 | 45.91381 | 16.81078 | 90° | 78km/h | 14200m | 4.9m/s | -61.3°C | 18.7% | 0hPa | 2.7V | 00:00:00 | 01:05:36 | 00:00:00 | |
| OE3JTB-15 | 2026-08-31 12:06:58 | 45.91381 | 16.80969 | 92° | 84km/h | 14183m | 5.1m/s | -61.3°C | 18.9% | 0hPa | 2.7V | 00:00:00 | 00:00:00 | 00:00:00 | |
| 9A1FER-3 | 2026-08-31 12:06:56 | 45.91384 | 16.80913 | 94° | 82km/h | 14175m | 3.1m/s | -61.4°C | 19.2% | 0hPa | 2.7V | 00:00:00 | 01:05:30 | 00:00:00 | |
| 9A1FER-10 | 2026-08-31 12:06:55 | 45.91385 | 16.80884 | 93° | 82km/h | 14171m | 4.7m/s | -61.4°C | 19.2% | 0hPa | 2.7V | 00:00:00 | 01:05:29 | 00:00:00 | |
| PETON7-10 | 2026-08-31 12:06:47 | 45.91390 | 16.80650 | 94° | 86km/h | 14139m | 3.6m/s | -61.6°C | 20.1% | 0hPa | 2.7V | 00:00:00 | 00:00:00 | 00:00:00 | |
| 9A1FER-3 | 2026-08-31 12:06:41 | 45.91400 | 16.80465 | 96° | 88km/h | 14117m | 3.9m/s | -61.7°C | 20.3% | 0hPa | 2.7V | 00:00:00 | 01:05:15 | 00:00:00 | |
| 9A1FER-10 | 2026-08-31 12:06:40 | 45.91402 | 16.80433 | 95° | 88km/h | 14113m | 3.9m/s | -61.7°C | 20.4% | 0hPa | 2.7V | 00:00:00 | 01:05:14 | 00:00:00 | |
| PETON7-10 | 2026-08-31 12:06:32 | 45.91409 | 16.80175 | 92° | 84km/h | 14080m | 2.7m/s | -62.3°C | 23.1% | 0hPa | 2.7V | 00:00:00 | 00:00:00 | 00:00:00 | |
| OE3JTB-15 | 2026-08-31 12:06:29 | 45.91408 | 16.80082 | 90° | 89km/h | 14067m | 4.9m/s | -62.3°C | 22.7% | 0hPa | 2.7V | 00:00:00 | 00:00:00 | 00:00:00 | |
| OE5DRO-10 | 2026-08-31 12:06:28 | 45.91408 | 16.80051 | 89° | 88km/h | 14063m | 3.0m/s | 0°C | 0% | 0hPa | 2.7V | 00:00:00 | 00:00:00 | 00:00:00 | |
| 9A1FER-3 | 2026-08-31 12:06:26 | 45.91406 | 16.79990 | 86° | 88km/h | 14055m | 4.5m/s | -62.4°C | 22.4% | 0hPa | 2.7V | 00:00:00 | 01:05:00 | 08:30:00 | |
| 9A1FER-10 | 2026-08-31 12:06:25 | 45.91405 | 16.79960 | 86° | 88km/h | 14051m | 3.9m/s | -62.5°C | 22.4% | 0hPa | 2.7V | 00:00:00 | 01:04:59 | 08:30:00 | |
| PETON7-10 | 2026-08-31 12:06:17 | 45.91396 | 16.79714 | 88° | 91km/h | 14017m | 4.1m/s | -62.4°C | 23.5% | 0hPa | 2.7V | 00:00:00 | 01:04:51 | 00:00:00 | |
| 9A1FER-3 | 2026-08-31 12:06:11 | 45.91392 | 16.79517 | 89° | 95km/h | 13992m | 4.3m/s | -62.3°C | 24.2% | 0hPa | 2.7V | 00:00:00 | 01:04:45 | 00:00:00 | |
| 9A1FER-10 | 2026-08-31 12:06:10 | 45.91392 | 16.79483 | 90° | 95km/h | 13988m | 3.0m/s | -62.3°C | 24.1% | 0hPa | 2.7V | 00:00:00 | 01:04:44 | 00:00:00 | |
| OE5DRO-10 | 2026-08-31 12:06:09 | 45.91391 | 16.79449 | 89° | 104km/h | 13985m | 4.3m/s | 0°C | 0% | 0hPa | 2.7V | 00:00:00 | 00:00:00 | 00:00:00 | |
| PETON7-10 | 2026-08-31 12:06:02 | 45.91392 | 16.79216 | 92° | 99km/h | 13955m | 4.2m/s | -62.5°C | 25.5% | 0hPa | 2.7V | 00:00:00 | 00:00:00 | 00:00:00 | |
| OE3JTB-15 | 2026-08-31 12:06:00 | 45.91393 | 16.79147 | 92° | 104km/h | 13948m | 4.5m/s | -62.4°C | 25.6% | 0hPa | 2.7V | 00:00:00 | 01:04:34 | 00:00:00 | |
| 9A1FER-3 | 2026-08-31 12:05:56 | 45.91396 | 16.79005 | 91° | 104km/h | 13931m | 4.9m/s | -62.4°C | 25.7% | 0hPa | 2.7V | 00:00:00 | 01:04:30 | 00:00:00 | |
| 9A1FER-10 | 2026-08-31 12:05:55 | 45.91396 | 16.78969 | 91° | 104km/h | 13926m | 3.6m/s | -62.4°C | 25.9% | 0hPa | 2.7V | 00:00:00 | 01:04:29 | 00:00:00 | |
| PETON7-10 | 2026-08-31 12:05:47 | 45.91407 | 16.78675 | 94° | 106km/h | 13892m | 5.0m/s | -62.4°C | 27.4% | 0hPa | 2.7V | 00:00:00 | 00:00:00 | 00:00:00 | |
| 9A1FER-3 | 2026-08-31 12:05:41 | 45.91415 | 16.78441 | 90° | 104km/h | 13867m | 3.0m/s | -62.4°C | 27.8% | 0hPa | 2.7V | 00:00:00 | 01:04:15 | 00:00:00 | |
| 9A1FER-10 | 2026-08-31 12:05:40 | 45.91415 | 16.78403 | 91° | 102km/h | 13864m | 4.3m/s | -62.4°C | 27.6% | 0hPa | 2.7V | 00:00:00 | 01:04:14 | 00:00:00 | |
| PETON7-10 | 2026-08-31 12:05:31 | 45.91421 | 16.78062 | 90° | 99km/h | 13827m | 4.2m/s | -62.2°C | 27.1% | 0hPa | 2.7V | 00:00:00 | 01:04:05 | 00:00:00 | |
| 9A1FER-3 | 2026-08-31 12:05:26 | 45.91421 | 16.77882 | 91° | 99km/h | 13806m | 4.4m/s | -62.0°C | 26.9% | 0hPa | 2.7V | 00:00:00 | 01:04:00 | 00:00:00 | |
| 9A1FER-10 | 2026-08-31 12:05:25 | 45.91421 | 16.77846 | 92° | 99km/h | 13801m | 4.4m/s | -62.0°C | 26.7% | 0hPa | 2.7V | 00:00:00 | 01:03:59 | 00:00:00 | |
| OE5DRO-10 | 2026-08-31 12:05:12 | 45.91423 | 16.77378 | 88° | 97km/h | 13748m | 5.1m/s | 0°C | 0% | 0hPa | 2.7V | 00:00:00 | 00:00:00 | 00:00:00 | |
| 9A1FER-3 | 2026-08-31 12:05:11 | 45.91423 | 16.77343 | 88° | 97km/h | 13743m | 3.5m/s | -62.0°C | 26.5% | 0hPa | 2.7V | 00:00:00 | 01:03:45 | 00:00:00 | |
| 9A1FER-10 | 2026-08-31 12:05:10 | 45.91421 | 16.77309 | 87° | 97km/h | 13740m | 3.6m/s | -62.0°C | 26.6% | 0hPa | 2.7V | 00:00:00 | 01:03:44 | 00:00:00 | |
| PETON7-10 | 2026-08-31 12:05:07 | 45.91417 | 16.77203 | 87° | 95km/h | 13728m | 4.5m/s | -61.9°C | 26.6% | 0hPa | 2.7V | 00:00:00 | 00:00:00 | 08:30:00 | |
| OE3JTB-15 | 2026-08-31 12:05:02 | 45.91413 | 16.77029 | 88° | 97km/h | 13706m | 4.1m/s | -61.9°C | 26.1% | 0hPa | 2.7V | 00:00:00 | 00:00:00 | 00:00:00 | |
| 9A1FER-3 | 2026-08-31 12:04:56 | 45.91404 | 16.76823 | 86° | 95km/h | 13680m | 4.3m/s | -61.9°C | 25.9% | 0hPa | 2.7V | 00:00:00 | 01:03:30 | 00:00:00 | |
| 9A1FER-10 | 2026-08-31 12:04:55 | 45.91403 | 16.76788 | 87° | 95km/h | 13676m | 4.3m/s | -61.9°C | 26.0% | 0hPa | 2.7V | 00:00:00 | 01:03:29 | 00:00:00 | |
| OE5DRO-10 | 2026-08-31 12:04:53 | 45.91400 | 16.76717 | 88° | 95km/h | 13668m | 3.1m/s | 0°C | 0% | 0hPa | 2.7V | 00:00:00 | 00:00:00 | 00:00:00 | |
| PETON7-10 | 2026-08-31 12:04:52 | 45.91399 | 16.76682 | 87° | 97km/h | 13664m | 4.3m/s | -61.9°C | 25.3% | 0hPa | 2.7V | 00:00:00 | 00:00:00 | 00:00:00 | |
| 9A1FER-3 | 2026-08-31 12:04:41 | 45.91385 | 16.76303 | 89° | 97km/h | 13616m | 4.2m/s | -61.9°C | 25.6% | 0hPa | 2.7V | 00:00:00 | 01:03:15 | 00:00:00 | |
| 9A1FER-10 | 2026-08-31 12:04:40 | 45.91385 | 16.76268 | 89° | 97km/h | 13612m | 4.0m/s | -61.9°C | 25.6% | 0hPa | 2.7V | 00:00:00 | 01:03:14 | 00:00:00 | |
| PETON7-10 | 2026-08-31 12:04:36 | 45.91381 | 16.76127 | 87° | 97km/h | 13596m | 2.7m/s | -61.9°C | 26.2% | 0hPa | 2.7V | 00:00:00 | 01:03:10 | 00:00:00 | |
| OE5DRO-10 | 2026-08-31 12:04:34 | 45.91378 | 16.76057 | 87° | 99km/h | 13588m | 4.3m/s | 0°C | 0% | 0hPa | 2.7V | 00:00:00 | 00:00:00 | 00:00:00 | |
| OE3JTB-15 | 2026-08-31 12:04:33 | 45.91376 | 16.76022 | 87° | 97km/h | 13583m | 4.9m/s | -61.9°C | 26.4% | 0hPa | 2.7V | 00:00:00 | 01:03:07 | 00:00:00 | |
| 9A1FER-3 | 2026-08-31 12:04:26 | 45.91365 | 16.75779 | 86° | 97km/h | 13554m | 5.1m/s | -61.8°C | 26.7% | 0hPa | 2.7V | 00:00:00 | 01:03:00 | 00:00:00 | |
| 9A1FER-10 | 2026-08-31 12:04:25 | 45.91363 | 16.75745 | 85° | 97km/h | 13549m | 3.6m/s | -61.8°C | 26.8% | 0hPa | 2.7V | 00:00:00 | 01:02:59 | 00:00:00 | |
| PETON7-10 | 2026-08-31 12:04:21 | 45.91353 | 16.75606 | 85° | 97km/h | 13532m | 3.7m/s | -61.8°C | 26.6% | 0hPa | 2.7V | 00:00:00 | 00:00:00 | 00:00:00 | |
| 9A1FER-3 | 2026-08-31 12:04:11 | 45.91343 | 16.75254 | 88° | 97km/h | 13490m | 3.8m/s | -61.8°C | 27.9% | 0hPa | 2.7V | 00:00:00 | 01:02:45 | 08:30:00 | |
| 9A1FER-10 | 2026-08-31 12:04:10 | 45.91342 | 16.75220 | 88° | 97km/h | 13487m | 3.3m/s | -61.8°C | 27.9% | 0hPa | 2.7V | 00:00:00 | 01:02:44 | 08:30:00 | |
| PETON7-10 | 2026-08-31 12:04:06 | 45.91335 | 16.75080 | 86° | 97km/h | 13470m | 3.8m/s | -61.6°C | 27.5% | 0hPa | 2.7V | 00:00:00 | 00:00:00 | 00:00:00 | |
| OE3JTB-15 | 2026-08-31 12:04:04 | 45.91331 | 16.75010 | 86° | 99km/h | 13462m | 4.7m/s | -61.7°C | 27.7% | 0hPa | 2.7V | 00:00:00 | 00:00:00 | 00:00:00 | |
| 9A1FER-3 | 2026-08-31 12:03:56 | 45.91317 | 16.74729 | 87° | 99km/h | 13430m | 3.6m/s | -61.5°C | 26.7% | 0hPa | 2.7V | 00:00:00 | 01:02:30 | 00:00:00 | |
| 9A1FER-10 | 2026-08-31 12:03:55 | 45.91316 | 16.74695 | 88° | 99km/h | 13426m | 4.4m/s | -61.5°C | 26.8% | 0hPa | 2.7V | 00:00:00 | 01:02:29 | 00:00:00 | |
| PETON7-10 | 2026-08-31 12:03:50 | 45.91310 | 16.74520 | 89° | 100km/h | 13405m | 5.2m/s | -61.5°C | 28.3% | 0hPa | 2.7V | 00:00:00 | 01:02:24 | 00:00:00 | |
| 9A1FER-3 | 2026-08-31 12:03:41 | 45.91306 | 16.74190 | 91° | 99km/h | 13369m | 2.8m/s | -61.3°C | 28.6% | 0hPa | 2.7V | 00:00:00 | 01:02:15 | 00:00:00 | |
| 9A1FER-10 | 2026-08-31 12:03:40 | 45.91306 | 16.74154 | 91° | 99km/h | 13365m | 5.2m/s | -61.3°C | 28.6% | 0hPa | 2.7V | 00:00:00 | 01:02:14 | 00:00:00 | |
| OE3JTB-15 | 2026-08-31 12:03:35 | 45.91305 | 16.73976 | 91° | 100km/h | 13344m | 3.6m/s | -61.2°C | 27.6% | 0hPa | 2.7V | 00:00:00 | 00:00:00 | 00:00:00 | |
| PETON7-10 | 2026-08-31 12:03:34 | 45.91305 | 16.73941 | 90° | 100km/h | 13340m | 5.3m/s | -61.1°C | 27.5% | 0hPa | 2.7V | 00:00:00 | 00:00:00 | 00:00:00 | |
| 9A1FER-3 | 2026-08-31 12:03:26 | 45.91308 | 16.73653 | 91° | 100km/h | 13305m | 5.1m/s | -60.9°C | 28.4% | 0hPa | 2.7V | 00:00:00 | 01:02:00 | 00:00:00 | |
| 9A1FER-10 | 2026-08-31 12:03:25 | 45.91308 | 16.73615 | 91° | 100km/h | 13300m | 3.5m/s | -60.8°C | 28.4% | 0hPa | 2.7V | 00:00:00 | 01:01:59 | 00:00:00 | |
| PETON7-10 | 2026-08-31 12:03:19 | 45.91310 | 16.73394 | 92° | 100km/h | 13276m | 3.9m/s | -60.7°C | 27.4% | 0hPa | 2.7V | 00:00:00 | 00:00:00 | 00:00:00 | |
| 9A1FER-3 | 2026-08-31 12:03:11 | 45.91317 | 16.73109 | 90° | 100km/h | 13243m | 2.7m/s | -60.4°C | 27.4% | 0hPa | 2.7V | 00:00:00 | 01:01:45 | 00:00:00 | |
| OE3JTB-15 | 2026-08-31 12:03:06 | 45.91314 | 16.72923 | 89° | 100km/h | 13221m | 5.2m/s | -60.3°C | 28.6% | 0hPa | 2.7V | 00:00:00 | 01:01:40 | 00:00:00 | |
| PETON7-10 | 2026-08-31 12:03:04 | 45.91314 | 16.72851 | 90° | 100km/h | 13213m | 4.1m/s | -60.3°C | 28.7% | 0hPa | 2.7V | 00:00:00 | 01:01:38 | 00:00:00 | |
| OE5DRO-10 | 2026-08-31 12:03:03 | 45.91314 | 16.72815 | 90° | 97km/h | 13209m | 4.2m/s | 0°C | 0% | 0hPa | 2.7V | 00:00:00 | 00:00:00 | 00:00:00 | |
| 9A1FER-3 | 2026-08-31 12:02:56 | 45.91317 | 16.72583 | 92° | 102km/h | 13180m | 3.0m/s | -60.1°C | 28.4% | 0hPa | 2.7V | 00:00:00 | 01:01:30 | 00:00:00 | |
| 9A1FER-10 | 2026-08-31 12:02:55 | 45.91318 | 16.72530 | 91° | 102km/h | 13176m | 5.2m/s | -60.1°C | 28.2% | 0hPa | 2.7V | 00:00:00 | 01:01:29 | 00:00:00 | |
| PETON7-10 | 2026-08-31 12:02:49 | 45.91317 | 16.72309 | 90° | 104km/h | 13153m | 2.7m/s | -60.0°C | 27.5% | 0hPa | 2.7V | 00:00:00 | 00:00:00 | 08:30:00 | |
| OM5KV | 2026-08-31 12:02:44 | 45.91318 | 16.72163 | 92° | 100km/h | 13136m | 4.7m/s | -60.0°C | 21.0% | 0hPa | 2.7V | 00:00:00 | 00:00:00 | 00:00:00 | |
| 9A1FER-3 | 2026-08-31 12:02:41 | 45.91319 | 16.72015 | 91° | 108km/h | 13120m | 4.0m/s | -59.9°C | 26.5% | 0hPa | 2.7V | 00:00:00 | 01:01:15 | 00:00:00 | |
| 9A1FER-10 | 2026-08-31 12:02:40 | 45.91319 | 16.71977 | 91° | 108km/h | 13116m | 4.0m/s | -59.8°C | 26.3% | 0hPa | 2.7V | 00:00:00 | 01:01:14 | 00:00:00 | |
| OM5KV | 2026-08-31 12:02:38 | 45.91319 | 16.71940 | 91° | 104km/h | 13113m | 2.9m/s | -59.9°C | 20.2% | 0hPa | 2.7V | 00:00:00 | 00:00:00 | 00:00:00 | |
| OE3JTB-15 | 2026-08-31 12:02:37 | 45.91320 | 16.71864 | 92° | 110km/h | 13105m | 4.4m/s | -59.8°C | 25.9% | 0hPa | 2.7V | 00:00:00 | 00:00:00 | 00:00:00 | |
| PETON7-10 | 2026-08-31 12:02:33 | 45.91326 | 16.71710 | 94° | 108km/h | 13088m | 4.2m/s | -59.8°C | 25.1% | 0hPa | 2.7V | 00:00:00 | 00:00:00 | 00:00:00 | |
| OM5KV | 2026-08-31 12:02:27 | 45.91336 | 16.71473 | 93° | 110km/h | 13063m | 4.6m/s | -59.8°C | 18.8% | 0hPa | 2.7V | 00:00:00 | 00:00:00 | 00:00:00 | |
| 9A1FER-3 | 2026-08-31 12:02:26 | 45.91336 | 16.71433 | 93° | 110km/h | 13059m | 3.9m/s | -59.8°C | 24.6% | 0hPa | 2.7V | 00:00:00 | 01:01:00 | 00:00:00 | |
| 9A1FER-10 | 2026-08-31 12:02:25 | 45.91337 | 16.71393 | 92° | 110km/h | 13055m | 3.7m/s | -59.8°C | 24.6% | 0hPa | 2.7V | 00:00:00 | 01:00:59 | 00:00:00 | |
| OM5KV | 2026-08-31 12:02:18 | 45.91340 | 16.71160 | 92° | 108km/h | 13031m | 2.4m/s | -59.6°C | 18.2% | 0hPa | 2.7V | 00:00:00 | 00:00:00 | 00:00:00 | |
| PETON7-10 | 2026-08-31 12:02:17 | 45.91341 | 16.71081 | 92° | 110km/h | 13023m | 4.6m/s | -59.5°C | 23.4% | 0hPa | 2.7V | 00:00:00 | 01:00:51 | 00:00:00 | |
| 9A1FER-3 | 2026-08-31 12:02:11 | 45.91341 | 16.70840 | 89° | 111km/h | 12999m | 4.1m/s | -59.4°C | 23.0% | 0hPa | 2.7V | 00:00:00 | 01:00:45 | 00:00:00 | |
| 9A1FER-10 | 2026-08-31 12:02:10 | 45.91340 | 16.70800 | 89° | 111km/h | 12995m | 4.6m/s | -59.4°C | 23.0% | 0hPa | 2.7V | 00:00:00 | 01:00:44 | 00:00:00 | |
| OE3JTB-15 | 2026-08-31 12:02:08 | 45.91338 | 16.70721 | 88° | 111km/h | 12987m | 3.7m/s | -59.4°C | 23.2% | 0hPa | 2.7V | 00:00:00 | 00:00:00 | 00:00:00 | |
| OM5KV | 2026-08-31 12:02:04 | 45.91334 | 16.70601 | 87° | 108km/h | 12974m | 3.0m/s | -59.2°C | 17.8% | 0hPa | 2.7V | 00:00:00 | 00:00:00 | 00:00:00 | |
| PETON7-10 | 2026-08-31 12:02:02 | 45.91329 | 16.70482 | 88° | 111km/h | 12962m | 3.3m/s | -59.2°C | 23.5% | 0hPa | 2.7V | 00:00:00 | 00:00:00 | 00:00:00 | |
| OM5KV | 2026-08-31 12:01:58 | 45.91325 | 16.70362 | 89° | 111km/h | 12950m | 3.5m/s | -59.2°C | 18.0% | 0hPa | 2.7V | 00:00:00 | 00:00:00 | 00:00:00 | |
| 9A1FER-3 | 2026-08-31 12:01:56 | 45.91319 | 16.70238 | 86° | 111km/h | 12939m | 4.1m/s | -59.0°C | 23.5% | 0hPa | 2.7V | 00:00:00 | 01:00:30 | 08:30:00 | |
| 9A1FER-10 | 2026-08-31 12:01:55 | 45.91317 | 16.70198 | 87° | 111km/h | 12935m | 3.8m/s | -59.0°C | 23.5% | 0hPa | 2.7V | 00:00:00 | 01:00:29 | 08:30:00 | |
| OM5KV | 2026-08-31 12:01:51 | 45.91313 | 16.70075 | 88° | 111km/h | 12923m | 4.6m/s | -59.0°C | 18.0% | 0hPa | 2.7V | 00:00:00 | 00:00:00 | 00:00:00 | |
| PETON7-10 | 2026-08-31 12:01:47 | 45.91308 | 16.69876 | 89° | 111km/h | 12902m | 3.9m/s | -58.9°C | 24.2% | 0hPa | 2.7V | 00:00:00 | 00:00:00 | 00:00:00 | |
| 9A1FER-3 | 2026-08-31 12:01:41 | 45.91303 | 16.69632 | 89° | 113km/h | 12877m | 4.9m/s | -58.7°C | 24.0% | 0hPa | 2.7V | 00:00:00 | 01:00:15 | 00:00:00 | |
| 9A1FER-10 | 2026-08-31 12:01:40 | 45.91303 | 16.69591 | 89° | 113km/h | 12873m | 3.5m/s | -58.7°C | 24.1% | 0hPa | 2.7V | 00:00:00 | 01:00:14 | 00:00:00 | |
| OE3JTB-15 | 2026-08-31 12:01:39 | 45.91302 | 16.69550 | 89° | 113km/h | 12869m | 4.8m/s | -58.6°C | 23.8% | 0hPa | 2.7V | 00:00:00 | 01:00:13 | 00:00:00 | |
| OM5KV | 2026-08-31 12:01:35 | 45.91299 | 16.69430 | 89° | 110km/h | 12857m | 3.8m/s | -58.6°C | 18.7% | 0hPa | 2.7V | 00:00:00 | 00:00:00 | 00:00:00 | |
| PETON7-10 | 2026-08-31 12:01:32 | 45.91293 | 16.69269 | 88° | 115km/h | 12842m | 4.6m/s | -58.5°C | 24.3% | 0hPa | 2.7V | 00:00:00 | 01:00:06 | 00:00:00 | |
| 9A1FER-3 | 2026-08-31 12:01:26 | 45.91286 | 16.69019 | 88° | 113km/h | 12817m | 4.7m/s | -58.5°C | 24.5% | 0hPa | 2.7V | 00:00:00 | 01:00:00 | 00:00:00 | |
| 9A1FER-10 | 2026-08-31 12:01:25 | 45.91284 | 16.68976 | 88° | 113km/h | 12813m | 4.3m/s | -58.5°C | 24.8% | 0hPa | 2.7V | 00:00:00 | 00:59:59 | 00:00:00 | |
| OM5KV | 2026-08-31 12:01:19 | 45.91276 | 16.68767 | 87° | 111km/h | 12792m | 4.0m/s | -58.4°C | 19.1% | 0hPa | 2.7V | 00:00:00 | 00:00:00 | 00:00:00 | |
| PETON7-10 | 2026-08-31 12:01:17 | 45.91271 | 16.68647 | 87° | 115km/h | 12779m | 5.1m/s | -58.4°C | 24.7% | 0hPa | 2.7V | 00:00:00 | 00:00:00 | 00:00:00 | |
| OM5KV | 2026-08-31 12:01:12 | 45.91263 | 16.68483 | 87° | 115km/h | 12763m | 3.0m/s | -58.2°C | 18.8% | 0hPa | 2.7V | 00:00:00 | 00:00:00 | 00:00:00 | |
| 9A1FER-3 | 2026-08-31 12:01:11 | 45.91258 | 16.68401 | 85° | 115km/h | 12755m | 3.4m/s | -58.1°C | 24.1% | 0hPa | 2.7V | 00:00:00 | 00:59:45 | 00:00:00 | |
| 9A1FER-10 | 2026-08-31 12:01:10 | 45.91256 | 16.68361 | 86° | 115km/h | 12751m | 4.0m/s | -58.1°C | 24.0% | 0hPa | 2.7V | 00:00:00 | 00:59:44 | 00:00:00 | |
| PETON7-10 | 2026-08-31 12:00:56 | 45.91225 | 16.67779 | 87° | 113km/h | 12692m | 3.8m/s | -57.8°C | 25.7% | 0hPa | 2.7V | 00:00:00 | 00:00:00 | 00:00:00 | |
| 9A1FER-10 | 2026-08-31 12:00:55 | 45.91223 | 16.67739 | 87° | 113km/h | 12689m | 2.5m/s | -57.8°C | 25.5% | 0hPa | 2.7V | 00:00:00 | 00:59:29 | 00:00:00 | |
| 9A1FER-10 | 2026-08-31 12:00:41 | 45.91183 | 16.67125 | 85° | 115km/h | 12626m | 3.8m/s | -57.5°C | 27.5% | 0hPa | 2.7V | 00:00:00 | 00:59:14 | 00:00:00 | |
| OM5KV | 2026-08-31 12:00:35 | 45.91171 | 16.66920 | 86° | 115km/h | 12606m | 4.7m/s | -57.4°C | 23.0% | 0hPa | 2.7V | 00:00:00 | 00:00:00 | 00:00:00 | |
| 9A1FER-3 | 2026-08-31 12:00:26 | 45.91143 | 16.66541 | 85° | 115km/h | 12568m | 3.2m/s | -57.2°C | 32.5% | 0hPa | 2.7V | 00:00:00 | 00:59:00 | 00:00:00 | |
| 9A1FER-10 | 2026-08-31 12:00:25 | 45.91140 | 16.66500 | 84° | 117km/h | 12564m | 4.7m/s | -57.3°C | 32.8% | 0hPa | 2.7V | 00:00:00 | 00:58:59 | 00:00:00 | |
| OM5KV | 2026-08-31 12:00:13 | 45.91100 | 16.66044 | 84° | 119km/h | 12518m | 4.5m/s | -57.0°C | 28.6% | 0hPa | 2.7V | 00:00:00 | 00:00:00 | 00:00:00 | |
| OE3JTB-15 | 2026-08-31 12:00:12 | 45.91093 | 16.65959 | 84° | 119km/h | 12509m | 4.8m/s | -57.0°C | 36.5% | 0hPa | 2.7V | 00:00:00 | 00:58:46 | 00:00:00 | |
| 9A1FER-3 | 2026-08-31 12:00:11 | 45.91090 | 16.65915 | 85° | 117km/h | 12504m | 3.4m/s | -57.0°C | 37.2% | 0hPa | 2.7V | 00:00:00 | 00:58:45 | 00:00:00 | |
| 9A1FER-10 | 2026-08-31 12:00:10 | 45.91088 | 16.65872 | 85° | 117km/h | 12500m | 5.3m/s | -57.0°C | 38.1% | 0hPa | 2.7V | 00:00:00 | 00:58:44 | 00:00:00 | |
| OM5KV | 2026-08-31 12:00:07 | 45.91082 | 16.65786 | 86° | 119km/h | 12492m | 4.3m/s | -57.2°C | 33.0% | 0hPa | 2.7V | 00:00:00 | 00:00:00 | 00:00:00 | |
| OM5KV | 2026-08-31 12:00:00 | 45.91060 | 16.65490 | 85° | 117km/h | 12463m | 3.7m/s | -57.2°C | 36.1% | 0hPa | 2.7V | 00:00:00 | 00:00:00 | 00:00:00 | |
| OM5KV | 2026-08-31 11:59:56 | 45.91047 | 16.65280 | 86° | 115km/h | 12440m | 5.1m/s | -57.3°C | 39.6% | 0hPa | 2.7V | 00:00:00 | 00:00:00 | 00:00:00 | |
| 9A1FER-10 | 2026-08-31 11:59:55 | 45.91045 | 16.65238 | 86° | 120km/h | 12436m | 3.0m/s | -57.3°C | 47.9% | 0hPa | 2.7V | 00:00:00 | 00:58:29 | 00:00:00 | |
| OM5KV | 2026-08-31 11:59:50 | 45.91032 | 16.65021 | 87° | 122km/h | 12415m | 3.4m/s | -57.1°C | 41.2% | 0hPa | 2.7V | 00:00:00 | 00:00:00 | 00:00:00 | |
| PETON7-10 | 2026-08-31 11:59:46 | 45.91025 | 16.64845 | 88° | 122km/h | 12398m | 4.3m/s | -57.0°C | 47.8% | 0hPa | 2.7V | 00:00:00 | 00:00:00 | 00:00:00 | |
| OE3JTB-15 | 2026-08-31 11:59:43 | 45.91020 | 16.64714 | 88° | 124km/h | 12385m | 5.0m/s | -56.8°C | 47.9% | 0hPa | 2.7V | 00:00:00 | 00:00:00 | 00:00:00 | |
| 9A1FER-3 | 2026-08-31 11:59:41 | 45.91018 | 16.64627 | 88° | 124km/h | 12376m | 5.0m/s | -56.8°C | 48.1% | 0hPa | 2.7V | 00:00:00 | 00:58:15 | 08:30:00 | |
| 9A1FER-10 | 2026-08-31 11:59:40 | 45.91016 | 16.64584 | 88° | 126km/h | 12372m | 4.0m/s | -56.8°C | 48.5% | 0hPa | 2.7V | 00:00:00 | 00:58:14 | 08:30:00 | |
| 9A1FER-3 | 2026-08-31 11:59:26 | 45.91006 | 16.63949 | 88° | 124km/h | 12311m | 5.2m/s | -56.4°C | 48.6% | 0hPa | 2.7V | 00:00:00 | 00:58:00 | 00:00:00 | |
| 9A1FER-10 | 2026-08-31 11:59:25 | 45.91005 | 16.63903 | 88° | 126km/h | 12306m | 3.8m/s | -56.4°C | 48.6% | 0hPa | 2.7V | 00:00:00 | 00:57:59 | 00:00:00 | |
| OE3JTB-15 | 2026-08-31 11:59:14 | 45.90988 | 16.63409 | 89° | 126km/h | 12261m | 4.8m/s | -56.1°C | 48.7% | 0hPa | 2.7V | 00:00:00 | 00:00:00 | 00:00:00 | |
| 9A1FER-3 | 2026-08-31 11:59:11 | 45.90985 | 16.63269 | 89° | 126km/h | 12247m | 4.6m/s | -56.0°C | 48.4% | 0hPa | 2.7V | 00:00:00 | 00:57:45 | 00:00:00 | |
| 9A1FER-10 | 2026-08-31 11:59:10 | 45.90984 | 16.63223 | 89° | 126km/h | 12243m | 4.5m/s | -56.0°C | 49.0% | 0hPa | 2.7V | 00:00:00 | 00:57:44 | 00:00:00 | |
| PETON7-10 | 2026-08-31 11:59:02 | 45.90974 | 16.62858 | 88° | 126km/h | 12209m | 4.0m/s | -55.7°C | 48.0% | 0hPa | 2.7V | 00:00:00 | 00:57:36 | 00:00:00 | |
| 9A1FER-3 | 2026-08-31 11:58:56 | 45.90972 | 16.62582 | 91° | 126km/h | 12183m | 4.9m/s | -55.5°C | 48.3% | 0hPa | 2.7V | 00:00:00 | 00:57:30 | 00:00:00 | |
| 9A1FER-10 | 2026-08-31 11:58:55 | 45.90972 | 16.62536 | 90° | 126km/h | 12179m | 3.4m/s | -55.4°C | 48.3% | 0hPa | 2.7V | 00:00:00 | 00:57:29 | 00:00:00 | |
| PETON7-10 | 2026-08-31 11:58:45 | 45.90961 | 16.62079 | 87° | 122km/h | 12137m | 3.3m/s | -55.2°C | 49.7% | 0hPa | 2.7V | 00:00:00 | 00:00:00 | 00:00:00 | |
| 9A1FER-3 | 2026-08-31 11:58:41 | 45.90955 | 16.61900 | 87° | 122km/h | 12118m | 3.5m/s | -55.1°C | 50.2% | 0hPa | 2.7V | 00:00:00 | 00:57:15 | 00:00:00 | |
| 9A1FER-10 | 2026-08-31 11:58:40 | 45.90953 | 16.61856 | 88° | 122km/h | 12114m | 5.0m/s | -55.1°C | 49.9% | 0hPa | 2.7V | 00:00:00 | 00:57:14 | 00:00:00 | |
| PETON7-10 | 2026-08-31 11:58:30 | 45.90936 | 16.61414 | 87° | 126km/h | 12072m | 4.6m/s | -55.0°C | 52.6% | 0hPa | 2.7V | 00:00:00 | 00:00:00 | 00:00:00 | |
| 9A1FER-3 | 2026-08-31 11:58:26 | 45.90930 | 16.61238 | 87° | 126km/h | 12055m | 4.4m/s | -55.0°C | 54.4% | 0hPa | 2.7V | 00:00:00 | 00:57:00 | 00:00:00 | |
| 9A1FER-10 | 2026-08-31 11:58:25 | 45.90928 | 16.61193 | 87° | 126km/h | 12050m | 3.8m/s | -54.9°C | 54.3% | 0hPa | 2.7V | 00:00:00 | 00:56:59 | 00:00:00 | |
| OE3JTB-15 | 2026-08-31 11:58:16 | 45.90909 | 16.60780 | 87° | 124km/h | 12010m | 3.7m/s | -54.7°C | 52.9% | 0hPa | 2.7V | 00:00:00 | 00:00:00 | 00:00:00 | |
| PETON7-10 | 2026-08-31 11:58:15 | 45.90907 | 16.60734 | 86° | 124km/h | 12006m | 4.0m/s | -54.7°C | 52.9% | 0hPa | 2.7V | 00:00:00 | 00:56:49 | 00:00:00 | |
| 9A1FER-3 | 2026-08-31 11:58:11 | 45.90897 | 16.60551 | 86° | 124km/h | 11989m | 3.1m/s | -54.5°C | 54.2% | 0hPa | 2.7V | 00:00:00 | 00:56:45 | 00:00:00 | |
| 9A1FER-10 | 2026-08-31 11:58:10 | 45.90894 | 16.60506 | 85° | 124km/h | 11985m | 4.9m/s | -54.5°C | 54.8% | 0hPa | 2.7V | 00:00:00 | 00:56:44 | 00:00:00 | |
| PETON7-10 | 2026-08-31 11:58:00 | 45.90867 | 16.60061 | 85° | 124km/h | 11943m | 3.3m/s | -54.2°C | 54.1% | 0hPa | 2.7V | 00:00:00 | 00:00:00 | 00:00:00 | |
| 9A1FER-3 | 2026-08-31 11:57:56 | 45.90855 | 16.59883 | 84° | 124km/h | 11925m | 4.4m/s | -54.0°C | 52.7% | 0hPa | 2.7V | 00:00:00 | 00:56:30 | 00:00:00 | |
| OE3JTB-15 | 2026-08-31 11:57:47 | 45.90824 | 16.59480 | 85° | 122km/h | 11886m | 3.9m/s | -53.7°C | 51.2% | 0hPa | 2.7V | 00:00:00 | 00:00:00 | 00:00:00 | |
| PETON7-10 | 2026-08-31 11:57:45 | 45.90819 | 16.59390 | 86° | 122km/h | 11878m | 3.9m/s | -53.6°C | 50.6% | 0hPa | 2.7V | 00:00:00 | 00:00:00 | 00:00:00 | |
| 9A1FER-3 | 2026-08-31 11:57:41 | 45.90808 | 16.59212 | 85° | 122km/h | 11861m | 4.5m/s | -53.5°C | 50.4% | 0hPa | 2.7V | 00:00:00 | 00:56:15 | 00:00:00 | |
| 9A1FER-10 | 2026-08-31 11:57:40 | 45.90805 | 16.59168 | 84° | 122km/h | 11856m | 4.4m/s | -53.5°C | 51.5% | 0hPa | 2.7V | 00:00:00 | 00:56:14 | 00:00:00 | |
| PETON7-10 | 2026-08-31 11:57:31 | 45.90780 | 16.58732 | 85° | 122km/h | 11815m | 3.1m/s | 0°C | 0% | 0hPa | 2.7V | 00:00:00 | 00:56:04 | 00:00:00 | |
| 9A1FER-3 | 2026-08-31 11:57:26 | 45.90767 | 16.58552 | 83° | 122km/h | 11799m | 3.9m/s | -53.1°C | 52.0% | 0hPa | 2.7V | 00:00:00 | 00:56:00 | 08:30:00 | |
| 9A1FER-10 | 2026-08-31 11:57:25 | 45.90763 | 16.58508 | 83° | 122km/h | 11795m | 3.6m/s | -53.1°C | 51.3% | 0hPa | 2.7V | 00:00:00 | 00:55:59 | 08:30:00 | |
| OE3JTB-15 | 2026-08-31 11:57:18 | 45.90739 | 16.58199 | 83° | 120km/h | 11765m | 4.5m/s | -52.9°C | 48.7% | 0hPa | 2.7V | 00:00:00 | 00:55:52 | 00:00:00 | |
| PETON7-10 | 2026-08-31 11:57:15 | 45.90728 | 16.58067 | 85° | 120km/h | 11752m | 3.3m/s | 0°C | 0% | 0hPa | 2.7V | 00:00:00 | 00:00:00 | 00:00:00 | |
| 9A1FER-3 | 2026-08-31 11:57:11 | 45.90719 | 16.57890 | 87° | 120km/h | 11736m | 3.6m/s | -52.5°C | 47.9% | 0hPa | 2.7V | 00:00:00 | 00:55:45 | 00:00:00 | |
| 9A1FER-10 | 2026-08-31 11:57:10 | 45.90716 | 16.57846 | 86° | 120km/h | 11732m | 4.5m/s | -52.5°C | 48.4% | 0hPa | 2.7V | 00:00:00 | 00:55:44 | 00:00:00 | |
| PETON7-10 | 2026-08-31 11:57:00 | 45.90686 | 16.57417 | 85° | 120km/h | 11691m | 4.3m/s | 0°C | 0% | 0hPa | 2.7V | 00:00:00 | 00:00:00 | 00:00:00 | |
| 9A1FER-3 | 2026-08-31 11:56:56 | 45.90675 | 16.57241 | 86° | 120km/h | 11674m | 4.4m/s | -52.1°C | 48.4% | 0hPa | 2.7V | 00:00:00 | 00:55:30 | 00:00:00 | |
| 9A1FER-10 | 2026-08-31 11:56:55 | 45.90673 | 16.57197 | 86° | 120km/h | 11669m | 4.3m/s | -52.0°C | 48.4% | 0hPa | 2.7V | 00:00:00 | 00:55:29 | 00:00:00 | |
| OE3JTB-15 | 2026-08-31 11:56:49 | 45.90653 | 16.56938 | 84° | 120km/h | 11645m | 3.3m/s | -51.8°C | 47.1% | 0hPa | 2.7V | 00:00:00 | 00:00:00 | 08:30:00 | |
| PETON7-10 | 2026-08-31 11:56:45 | 45.90639 | 16.56765 | 85° | 120km/h | 11627m | 4.7m/s | 0°C | 0% | 0hPa | 2.7V | 00:00:00 | 00:55:19 | 00:00:00 | |
| 9A1FER-3 | 2026-08-31 11:56:41 | 45.90630 | 16.56587 | 87° | 120km/h | 11610m | 2.8m/s | -51.5°C | 46.3% | 0hPa | 2.7V | 00:00:00 | 00:55:15 | 00:00:00 | |
| 9A1FER-10 | 2026-08-31 11:56:40 | 45.90628 | 16.56542 | 86° | 120km/h | 11606m | 4.9m/s | -51.5°C | 46.4% | 0hPa | 2.9V | 00:00:00 | 00:55:14 | 00:00:00 | |
| PETON7-10 | 2026-08-31 11:56:30 | 45.90602 | 16.56106 | 86° | 120km/h | 11564m | 2.6m/s | 0°C | 0% | 0hPa | 2.9V | 00:00:00 | 00:00:00 | 00:00:00 | |
| 9A1FER-3 | 2026-08-31 11:56:26 | 45.90590 | 16.55930 | 84° | 122km/h | 11547m | 3.4m/s | -51.0°C | 45.7% | 0hPa | 2.9V | 00:00:00 | 00:55:00 | 00:00:00 | |
| 9A1FER-10 | 2026-08-31 11:56:25 | 45.90586 | 16.55887 | 83° | 122km/h | 11543m | 4.7m/s | -51.0°C | 45.8% | 0hPa | 2.9V | 00:00:00 | 00:54:59 | 00:00:00 | |
| 9A1FER-3 | 2026-08-31 11:56:11 | 45.90545 | 16.55273 | 85° | 120km/h | 11485m | 4.3m/s | -50.4°C | 43.3% | 0hPa | 2.9V | 00:00:00 | 00:54:45 | 00:00:00 | |
| 9A1FER-10 | 2026-08-31 11:56:10 | 45.90542 | 16.55229 | 85° | 120km/h | 11481m | 3.5m/s | -50.4°C | 43.4% | 0hPa | 2.9V | 00:00:00 | 00:54:44 | 00:00:00 | |
| PETON7-10 | 2026-08-31 11:56:00 | 45.90513 | 16.54792 | 86° | 120km/h | 11441m | 4.2m/s | 0°C | 0% | 0hPa | 2.9V | 00:00:00 | 00:00:00 | 00:00:00 | |
| 9A1FER-10 | 2026-08-31 11:55:56 | 45.90499 | 16.54573 | 83° | 120km/h | 11420m | 4.5m/s | -50.1°C | 43.9% | 0hPa | 2.9V | 00:00:00 | 00:54:29 | 00:00:00 | |
| OE3JTB-15 | 2026-08-31 11:55:44 | 45.90464 | 16.54094 | 86° | 117km/h | 11374m | 5.1m/s | -49.8°C | 46.2% | 0hPa | 2.9V | 00:00:00 | 00:00:00 | 00:00:00 | |
| PETON7-10 | 2026-08-31 11:55:43 | 45.90461 | 16.54052 | 85° | 117km/h | 11370m | 2.3m/s | 0°C | 0% | 0hPa | 2.9V | 00:00:00 | 00:54:17 | 00:00:00 | |
| 9A1FER-3 | 2026-08-31 11:55:41 | 45.90455 | 16.53967 | 83° | 119km/h | 11362m | 4.0m/s | -49.8°C | 47.0% | 0hPa | 2.9V | 00:00:00 | 00:54:15 | 00:00:00 | |
| 9A1FER-10 | 2026-08-31 11:55:40 | 45.90451 | 16.53925 | 82° | 119km/h | 11358m | 3.3m/s | -49.7°C | 46.6% | 0hPa | 2.9V | 00:00:00 | 00:54:14 | 00:00:00 | |
| OM5KV | 2026-08-31 11:55:38 | 45.90446 | 16.53882 | 83° | 119km/h | 11354m | 4.5m/s | -49.7°C | 41.0% | 0hPa | 2.9V | 00:00:00 | 00:00:00 | 00:00:00 | |
| OM5KV | 2026-08-31 11:55:32 | 45.90422 | 16.53628 | 84° | 119km/h | 11331m | 3.2m/s | -49.6°C | 41.3% | 0hPa | 2.9V | 00:00:00 | 00:00:00 | 00:00:00 | |
| OM5KV | 2026-08-31 11:55:28 | 45.90403 | 16.53415 | 84° | 119km/h | 11311m | 2.9m/s | -49.3°C | 39.3% | 0hPa | 2.9V | 00:00:00 | 00:00:00 | 00:00:00 | |
| 9A1FER-3 | 2026-08-31 11:55:26 | 45.90395 | 16.53330 | 82° | 117km/h | 11302m | 4.2m/s | -49.3°C | 45.0% | 0hPa | 2.9V | 00:00:00 | 00:54:00 | 00:00:00 | |
| 9A1FER-10 | 2026-08-31 11:55:25 | 45.90390 | 16.53287 | 82° | 117km/h | 11298m | 3.0m/s | -49.3°C | 45.3% | 0hPa | 2.9V | 00:00:00 | 00:53:59 | 00:00:00 | |
| OM5KV | 2026-08-31 11:55:21 | 45.90379 | 16.53158 | 85° | 120km/h | 11287m | 3.1m/s | -49.1°C | 40.1% | 0hPa | 2.9V | 00:00:00 | 00:00:00 | 00:00:00 | |
| OM5KV | 2026-08-31 11:55:17 | 45.90363 | 16.52945 | 85° | 117km/h | 11268m | 4.9m/s | -49.0°C | 40.5% | 0hPa | 2.9V | 00:00:00 | 00:00:00 | 00:00:00 | |
| OM5KV | 2026-08-31 11:55:12 | 45.90350 | 16.52737 | 86° | 113km/h | 11248m | 3.4m/s | -48.8°C | 39.9% | 0hPa | 2.9V | 00:00:00 | 00:00:00 | 00:00:00 | |
| 9A1FER-3 | 2026-08-31 11:55:11 | 45.90347 | 16.52695 | 85° | 120km/h | 11244m | 4.4m/s | -48.8°C | 45.4% | 0hPa | 2.9V | 00:00:00 | 00:53:45 | 08:30:00 | |
| 9A1FER-10 | 2026-08-31 11:55:10 | 45.90345 | 16.52653 | 85° | 120km/h | 11240m | 2.7m/s | -48.7°C | 45.2% | 0hPa | 2.9V | 00:00:00 | 00:53:44 | 08:30:00 | |
| OM5KV | 2026-08-31 11:55:06 | 45.90330 | 16.52478 | 84° | 124km/h | 11223m | 2.2m/s | -48.7°C | 40.5% | 0hPa | 2.9V | 00:00:00 | 00:00:00 | 00:00:00 | |
| PETON7-10 | 2026-08-31 11:54:57 | 45.90298 | 16.52091 | 84° | 117km/h | 11188m | 3.7m/s | 0°C | 0% | 0hPa | 2.9V | 00:00:00 | 00:00:00 | 00:00:00 | |
| 9A1FER-3 | 2026-08-31 11:54:56 | 45.90294 | 16.52048 | 84° | 117km/h | 11185m | 3.2m/s | -48.5°C | 49.0% | 0hPa | 2.9V | 00:00:00 | 00:53:30 | 00:00:00 | |
| 9A1FER-10 | 2026-08-31 11:54:55 | 45.90290 | 16.52005 | 84° | 117km/h | 11181m | 3.7m/s | -48.5°C | 49.5% | 0hPa | 2.9V | 00:00:00 | 00:53:29 | 00:00:00 | |
| OM5KV | 2026-08-31 11:54:50 | 45.90274 | 16.51795 | 84° | 115km/h | 11162m | 3.7m/s | -48.5°C | 44.3% | 0hPa | 2.9V | 00:00:00 | 00:00:00 | 00:00:00 | |
| PETON7-10 | 2026-08-31 11:54:42 | 45.90236 | 16.51460 | 80° | 117km/h | 11131m | 3.0m/s | 0°C | 0% | 0hPa | 2.9V | 00:00:00 | 00:53:16 | 00:00:00 | |
| 9A1FER-3 | 2026-08-31 11:54:41 | 45.90230 | 16.51418 | 80° | 117km/h | 11127m | 4.2m/s | -48.1°C | 49.6% | 0hPa | 2.9V | 00:00:00 | 00:53:15 | 00:00:00 | |
| 9A1FER-10 | 2026-08-31 11:54:40 | 45.90225 | 16.51376 | 80° | 117km/h | 11123m | 4.6m/s | -48.1°C | 49.5% | 0hPa | 2.9V | 00:00:00 | 00:53:14 | 00:00:00 | |
| OM5KV | 2026-08-31 11:54:37 | 45.90216 | 16.51294 | 83° | 115km/h | 11115m | 4.1m/s | -48.1°C | 43.9% | 0hPa | 2.9V | 00:00:00 | 00:00:00 | 00:00:00 | |
| OM5KV | 2026-08-31 11:54:32 | 45.90197 | 16.51046 | 84° | 115km/h | 11091m | 3.4m/s | -47.9°C | 44.7% | 0hPa | 2.9V | 00:00:00 | 00:00:00 | 00:00:00 | |
| OM5KV | 2026-08-31 11:54:29 | 45.90189 | 16.50964 | 82° | 117km/h | 11083m | 3.2m/s | -47.8°C | 45.0% | 0hPa | 2.9V | 00:00:00 | 00:00:00 | 00:00:00 | |
| 9A1FER-3 | 2026-08-31 11:54:26 | 45.90169 | 16.50794 | 81° | 117km/h | 11068m | 4.2m/s | -47.7°C | 49.6% | 0hPa | 2.9V | 00:00:00 | 00:53:00 | 00:00:00 | |
| 9A1FER-10 | 2026-08-31 11:54:25 | 45.90164 | 16.50752 | 81° | 117km/h | 11064m | 3.6m/s | -47.6°C | 49.4% | 0hPa | 2.9V | 00:00:00 | 00:52:59 | 00:00:00 | |
| OM5KV | 2026-08-31 11:54:21 | 45.90150 | 16.50587 | 85° | 111km/h | 11050m | 2.2m/s | -47.6°C | 44.2% | 0hPa | 2.9V | 00:00:00 | 00:00:00 | 00:00:00 | |
| OM5KV | 2026-08-31 11:54:14 | 45.90125 | 16.50293 | 83° | 120km/h | 11024m | 2.7m/s | -47.3°C | 46.1% | 0hPa | 2.9V | 00:00:00 | 00:00:00 | 00:00:00 | |
| PETON7-10 | 2026-08-31 11:54:13 | 45.90120 | 16.50250 | 82° | 119km/h | 11020m | 4.3m/s | 0°C | 0% | 0hPa | 2.9V | 00:00:00 | 00:00:00 | 00:00:00 | |
| 9A1FER-3 | 2026-08-31 11:54:11 | 45.90112 | 16.50164 | 83° | 119km/h | 11014m | 3.3m/s | -47.3°C | 51.4% | 0hPa | 2.9V | 00:00:00 | 00:52:45 | 00:00:00 | |
| 9A1FER-10 | 2026-08-31 11:54:10 | 45.90108 | 16.50121 | 84° | 119km/h | 11010m | 3.9m/s | -47.3°C | 51.6% | 0hPa | 2.9V | 00:00:00 | 00:52:44 | 00:00:00 | |
| OM5KV | 2026-08-31 11:54:09 | 45.90108 | 16.50121 | 84° | 120km/h | 11010m | 3.9m/s | -47.3°C | 46.0% | 0hPa | 2.9V | 00:00:00 | 00:00:00 | 00:00:00 | |
| OM5KV | 2026-08-31 11:54:07 | 45.90100 | 16.50034 | 84° | 120km/h | 11003m | 4.6m/s | -47.2°C | 45.6% | 0hPa | 2.9V | 00:00:00 | 00:00:00 | 00:00:00 | |
| 9A1FER-3 | 2026-08-31 11:53:56 | 45.90059 | 16.49523 | 83° | 119km/h | 10954m | 4.3m/s | -46.8°C | 50.2% | 0hPa | 2.9V | 00:00:00 | 00:52:30 | 00:00:00 | |
| 9A1FER-10 | 2026-08-31 11:53:55 | 45.90055 | 16.49480 | 83° | 119km/h | 10950m | 4.0m/s | -46.8°C | 49.7% | 0hPa | 2.9V | 00:00:00 | 00:52:29 | 00:00:00 | |
| OM5KV | 2026-08-31 11:53:54 | 45.90055 | 16.49480 | 83° | 120km/h | 10950m | 4.1m/s | -46.8°C | 44.3% | 0hPa | 2.9V | 00:00:00 | 00:00:00 | 00:00:00 | |
| OM5KV | 2026-08-31 11:53:50 | 45.90037 | 16.49264 | 84° | 120km/h | 10931m | 3.8m/s | -46.7°C | 42.5% | 0hPa | 2.9V | 00:00:00 | 00:00:00 | 00:00:00 | |
| OM5KV | 2026-08-31 11:53:41 | 45.90001 | 16.48880 | 83° | 119km/h | 10895m | 3.7m/s | -46.3°C | 43.2% | 0hPa | 2.9V | 00:00:00 | 00:00:00 | 00:00:00 | |
| 9A1FER-10 | 2026-08-31 11:53:40 | 45.89997 | 16.48838 | 83° | 117km/h | 10891m | 4.1m/s | -46.2°C | 48.4% | 0hPa | 2.9V | 00:00:00 | 00:52:14 | 00:00:00 | |
| OM5KV | 2026-08-31 11:53:32 | 45.89962 | 16.48506 | 82° | 113km/h | 10861m | 4.5m/s | -46.0°C | 42.0% | 0hPa | 2.9V | 00:00:00 | 00:00:00 | 00:00:00 | |
| 9A1FER-3 | 2026-08-31 11:53:26 | 45.89938 | 16.48253 | 83° | 117km/h | 10837m | 2.9m/s | -45.8°C | 47.6% | 0hPa | 2.9V | 00:00:00 | 00:52:00 | 00:00:00 | |
| 9A1FER-10 | 2026-08-31 11:53:25 | 45.89933 | 16.48211 | 82° | 117km/h | 10833m | 5.9m/s | -45.8°C | 47.3% | 0hPa | 2.9V | 00:00:00 | 00:51:59 | 00:00:00 | |
| OM5KV | 2026-08-31 11:53:20 | 45.89916 | 16.48042 | 84° | 115km/h | 10817m | 3.0m/s | -45.7°C | 41.2% | 0hPa | 2.9V | 00:00:00 | 00:00:00 | 00:00:00 | |
| OM5KV | 2026-08-31 11:53:17 | 45.89906 | 16.47917 | 85° | 115km/h | 10806m | 5.2m/s | 0°C | 0% | 0hPa | 2.9V | 00:00:00 | 00:00:00 | 00:00:00 | |
| OM5KV | 2026-08-31 11:53:15 | 45.89900 | 16.47834 | 85° | 117km/h | 10798m | 3.4m/s | -45.6°C | 41.3% | 0hPa | 2.9V | 00:00:00 | 00:00:00 | 00:00:00 | |
| 9A1FER-3 | 2026-08-31 11:53:11 | 45.89881 | 16.47624 | 84° | 117km/h | 10778m | 3.7m/s | -45.3°C | 45.3% | 0hPa | 2.9V | 00:00:00 | 00:51:45 | 00:00:00 | |
| 9A1FER-10 | 2026-08-31 11:53:10 | 45.89878 | 16.47582 | 84° | 117km/h | 10774m | 4.5m/s | -45.3°C | 45.3% | 0hPa | 2.9V | 00:00:00 | 00:51:44 | 00:00:00 | |
| OM5KV | 2026-08-31 11:53:09 | 45.89878 | 16.47582 | 84° | 117km/h | 10774m | 4.6m/s | -45.3°C | 40.4% | 0hPa | 2.9V | 00:00:00 | 00:00:00 | 00:00:00 | |
| OM5KV | 2026-08-31 11:53:06 | 45.89865 | 16.47412 | 86° | 119km/h | 10758m | 2.6m/s | 0°C | 0% | 0hPa | 2.9V | 00:00:00 | 00:00:00 | 00:00:00 | |
| OM5KV | 2026-08-31 11:53:00 | 45.89849 | 16.47200 | 85° | 117km/h | 10738m | 3.6m/s | 0°C | 0% | 0hPa | 2.9V | 00:00:00 | 00:00:00 | 00:00:00 | |
| OM5KV | 2026-08-31 11:52:57 | 45.89838 | 16.47075 | 84° | 117km/h | 10726m | 2.8m/s | -44.9°C | 39.1% | 0hPa | 2.9V | 00:00:00 | 00:00:00 | 00:00:00 | |
| 9A1FER-3 | 2026-08-31 11:52:56 | 45.89830 | 16.46991 | 82° | 117km/h | 10718m | 3.3m/s | -44.8°C | 43.2% | 0hPa | 2.9V | 00:00:00 | 00:51:30 | 08:30:00 | |
| 9A1FER-10 | 2026-08-31 11:52:55 | 45.89826 | 16.46948 | 82° | 117km/h | 10714m | 4.0m/s | -44.7°C | 43.0% | 0hPa | 2.9V | 00:00:00 | 00:51:29 | 08:30:00 | |
| OM5KV | 2026-08-31 11:52:53 | 45.89818 | 16.46863 | 85° | 119km/h | 10706m | 2.8m/s | -44.8°C | 38.4% | 0hPa | 2.9V | 00:00:00 | 00:00:00 | 00:00:00 | |
| OM5KV | 2026-08-31 11:52:47 | 45.89800 | 16.46652 | 83° | 115km/h | 10687m | 4.0m/s | 0°C | 0% | 0hPa | 2.9V | 00:00:00 | 00:00:00 | 00:00:00 | |
| OM5KV | 2026-08-31 11:52:46 | 45.89796 | 16.46611 | 84° | 113km/h | 10682m | 4.5m/s | -44.4°C | 37.3% | 0hPa | 2.9V | 00:00:00 | 00:00:00 | 00:00:00 | |
| OM5KV | 2026-08-31 11:52:42 | 45.89779 | 16.46405 | 84° | 117km/h | 10664m | 4.6m/s | 0°C | 0% | 0hPa | 2.9V | 00:00:00 | 00:00:00 | 00:00:00 | |
| 9A1FER-3 | 2026-08-31 11:52:41 | 45.89775 | 16.46363 | 83° | 117km/h | 10659m | 4.8m/s | -44.2°C | 40.4% | 0hPa | 2.9V | 00:00:00 | 00:51:15 | 00:00:00 | |
| 9A1FER-10 | 2026-08-31 11:52:40 | 45.89771 | 16.46320 | 83° | 117km/h | 10655m | 2.9m/s | -44.2°C | 40.3% | 0hPa | 2.9V | 00:00:00 | 00:51:14 | 00:00:00 | |
| OM5KV | 2026-08-31 11:52:34 | 45.89751 | 16.46106 | 84° | 117km/h | 10635m | 4.0m/s | -44.0°C | 35.5% | 0hPa | 2.9V | 00:00:00 | 00:00:00 | 00:00:00 | |
| OE3JTB-15 | 2026-08-31 11:52:33 | 45.89740 | 16.45938 | 86° | 117km/h | 10620m | 2.6m/s | 0°C | 0% | 0hPa | 2.9V | 00:00:00 | 00:51:05 | 00:00:00 | |
| OM5KV | 2026-08-31 11:52:29 | 45.89738 | 16.45895 | 87° | 117km/h | 10616m | 5.2m/s | -43.8°C | 34.4% | 0hPa | 2.9V | 00:00:00 | 00:00:00 | 00:00:00 | |
| 9A1FER-3 | 2026-08-31 11:52:26 | 45.89725 | 16.45729 | 84° | 119km/h | 10599m | 3.3m/s | -43.5°C | 38.2% | 0hPa | 2.9V | 00:00:00 | 00:51:00 | 00:00:00 | |
| OM5KV | 2026-08-31 11:52:20 | 45.89709 | 16.45518 | 85° | 119km/h | 10577m | 3.9m/s | 0°C | 0% | 0hPa | 2.9V | 00:00:00 | 00:00:00 | 00:00:00 | |
| OM5KV | 2026-08-31 11:52:14 | 45.89689 | 16.45262 | 85° | 117km/h | 10552m | 5.1m/s | 0°C | 0% | 0hPa | 2.9V | 00:00:00 | 00:00:00 | 00:00:00 | |
| 9A1FER-3 | 2026-08-31 11:52:11 | 45.89677 | 16.45092 | 86° | 115km/h | 10536m | 4.0m/s | -43.1°C | 37.5% | 0hPa | 2.9V | 00:00:00 | 00:50:45 | 00:00:00 | |
| 9A1FER-10 | 2026-08-31 11:52:10 | 45.89675 | 16.45049 | 86° | 115km/h | 10532m | 3.8m/s | -43.0°C | 37.4% | 0hPa | 2.7V | 00:00:00 | 00:50:44 | 00:00:00 | |
| OM5KV | 2026-08-31 11:52:06 | 45.89667 | 16.44922 | 85° | 117km/h | 10520m | 4.0m/s | -42.9°C | 33.0% | 0hPa | 2.9V | 00:00:00 | 00:00:00 | 00:00:00 | |
| OE3JTB-15 | 2026-08-31 11:52:05 | 45.89649 | 16.44714 | 84° | 113km/h | 10500m | 4.5m/s | -42.7°C | 37.6% | 0hPa | 2.9V | 00:00:00 | 00:00:00 | 00:00:00 | |
| OM5KV | 2026-08-31 11:52:00 | 45.89646 | 16.44673 | 85° | 115km/h | 10495m | 4.1m/s | -42.7°C | 33.6% | 0hPa | 2.9V | 00:00:00 | 00:00:00 | 00:00:00 | |
| 9A1FER-3 | 2026-08-31 11:51:56 | 45.89632 | 16.44466 | 86° | 113km/h | 10475m | 3.0m/s | -42.5°C | 37.7% | 0hPa | 2.9V | 00:00:00 | 00:50:30 | 00:00:00 | |
| 9A1FER-10 | 2026-08-31 11:51:55 | 45.89629 | 16.44425 | 85° | 113km/h | 10471m | 4.1m/s | -42.5°C | 37.4% | 0hPa | 2.9V | 00:00:00 | 00:50:29 | 00:00:00 | |
| OM5KV | 2026-08-31 11:51:54 | 45.89629 | 16.44425 | 86° | 117km/h | 10471m | 4.1m/s | -42.5°C | 33.4% | 0hPa | 2.9V | 00:00:00 | 00:00:00 | 00:00:00 | |
| OM5KV | 2026-08-31 11:51:47 | 45.89610 | 16.44128 | 85° | 115km/h | 10442m | 4.3m/s | -42.4°C | 0% | 0hPa | 2.9V | 00:00:00 | 00:00:00 | 00:00:00 | |
| 9A1FER-3 | 2026-08-31 11:51:41 | 45.89589 | 16.43850 | 85° | 113km/h | 10414m | 5.1m/s | -42.1°C | 38.1% | 0hPa | 2.9V | 00:00:00 | 00:50:15 | 00:00:00 | |
| 9A1FER-10 | 2026-08-31 11:51:40 | 45.89586 | 16.43810 | 85° | 113km/h | 10410m | 2.8m/s | -42.0°C | 38.5% | 0hPa | 2.9V | 00:00:00 | 00:50:14 | 00:00:00 | |
| OM5KV | 2026-08-31 11:51:34 | 45.89571 | 16.43605 | 86° | 115km/h | 10391m | 3.7m/s | 0°C | 0% | 0hPa | 2.9V | 00:00:00 | 00:00:00 | 00:00:00 | |
| OM5KV | 2026-08-31 11:51:30 | 45.89558 | 16.43399 | 86° | 115km/h | 10370m | 4.9m/s | 0°C | 0% | 0hPa | 2.9V | 00:00:00 | 00:00:00 | 00:00:00 | |
| 9A1FER-3 | 2026-08-31 11:51:26 | 45.89545 | 16.43239 | 84° | 111km/h | 10354m | 3.6m/s | -41.5°C | 36.6% | 0hPa | 2.9V | 00:00:00 | 00:50:00 | 00:00:00 | |
| 9A1FER-10 | 2026-08-31 11:51:25 | 45.89542 | 16.43199 | 83° | 111km/h | 10350m | 3.9m/s | -41.5°C | 36.5% | 0hPa | 2.9V | 00:00:00 | 00:49:59 | 00:00:00 | |
| OM5KV | 2026-08-31 11:51:23 | 45.89539 | 16.43160 | 84° | 111km/h | 10346m | 3.7m/s | 0°C | 0% | 0hPa | 2.7V | 00:00:00 | 00:00:00 | 00:00:00 | |
| OM5KV | 2026-08-31 11:51:19 | 45.89525 | 16.42963 | 87° | 110km/h | 10326m | 2.6m/s | 0°C | 0% | 0hPa | 2.7V | 00:00:00 | 00:00:00 | 00:00:00 | |
| OM5KV | 2026-08-31 11:51:13 | 45.89510 | 16.42762 | 84° | 111km/h | 10305m | 5.0m/s | 0°C | 0% | 0hPa | 2.7V | 00:00:00 | 00:00:00 | 00:00:00 | |
| 9A1FER-3 | 2026-08-31 11:51:11 | 45.89499 | 16.42640 | 83° | 111km/h | 10292m | 3.6m/s | -41.0°C | 33.1% | 0hPa | 2.7V | 00:00:00 | 00:49:45 | 00:00:00 | |
| 9A1FER-10 | 2026-08-31 11:51:10 | 45.89495 | 16.42599 | 83° | 111km/h | 10289m | 4.4m/s | -41.0°C | 32.6% | 0hPa | 2.7V | 00:00:00 | 00:49:44 | 00:00:00 | |
| OM5KV | 2026-08-31 11:51:08 | 45.89489 | 16.42518 | 85° | 111km/h | 10280m | 3.3m/s | 0°C | 0% | 0hPa | 2.7V | 00:00:00 | 00:00:00 | 00:00:00 | |
| OE3JTB-15 | 2026-08-31 11:51:06 | 45.89476 | 16.42356 | 85° | 110km/h | 10263m | 3.9m/s | -40.7°C | 31.3% | 0hPa | 2.7V | 00:00:00 | 00:49:38 | 00:00:00 | |
| OM5KV | 2026-08-31 11:51:02 | 45.89474 | 16.42316 | 85° | 111km/h | 10259m | 3.9m/s | 0°C | 0% | 0hPa | 2.7V | 00:00:00 | 00:00:00 | 00:00:00 | |
| 9A1FER-3 | 2026-08-31 11:50:56 | 45.89450 | 16.42035 | 83° | 110km/h | 10230m | 4.3m/s | -40.4°C | 30.5% | 0hPa | 2.7V | 00:00:00 | 00:49:30 | 00:00:00 | |
| 9A1FER-10 | 2026-08-31 11:50:55 | 45.89446 | 16.41996 | 83° | 110km/h | 10226m | 4.1m/s | -40.4°C | 30.4% | 0hPa | 2.7V | 00:00:00 | 00:49:29 | 00:00:00 | |
| OE3JTB-15 | 2026-08-31 11:50:37 | 45.89365 | 16.41247 | 83° | 108km/h | 10149m | 3.8m/s | -39.7°C | 27.4% | 0hPa | 2.7V | 00:00:00 | 00:00:00 | 00:00:00 | |
| 9A1FER-3 | 2026-08-31 11:50:26 | 45.89319 | 16.40857 | 80° | 108km/h | 10109m | 4.7m/s | -39.3°C | 26.6% | 0hPa | 2.9V | 00:00:00 | 00:49:00 | 00:00:00 | |
| 9A1FER-10 | 2026-08-31 11:50:25 | 45.89314 | 16.40819 | 79° | 108km/h | 10104m | 3.6m/s | -39.2°C | 26.4% | 0hPa | 2.9V | 00:00:00 | 00:48:59 | 00:00:00 | |
| 9A1FER-3 | 2026-08-31 11:50:11 | 45.89249 | 16.40282 | 81° | 106km/h | 10048m | 4.8m/s | -38.7°C | 21.7% | 0hPa | 2.9V | 00:00:00 | 00:48:45 | 00:00:00 | |
| OE3JTB-15 | 2026-08-31 11:50:10 | 45.89236 | 16.40165 | 81° | 106km/h | 10036m | 3.6m/s | -38.7°C | 21.2% | 0hPa | 2.9V | 00:00:00 | 00:00:00 | 00:00:00 | |
| 9A1FER-3 | 2026-08-31 11:49:56 | 45.89181 | 16.39715 | 81° | 106km/h | 9987m | 4.8m/s | -38.1°C | 20.8% | 0hPa | 2.9V | 00:00:00 | 00:48:30 | 00:00:00 | |
| 9A1FER-10 | 2026-08-31 11:49:55 | 45.89177 | 16.39677 | 81° | 108km/h | 9983m | 3.8m/s | -38.1°C | 21.1% | 0hPa | 2.7V | 00:00:00 | 00:48:29 | 00:00:00 | |
| 9A1FER-3 | 2026-08-31 11:49:41 | 45.89110 | 16.39144 | 80° | 106km/h | 9925m | 4.8m/s | -37.5°C | 21.0% | 0hPa | 2.7V | 00:00:00 | 00:48:15 | 00:00:00 | |
| OE3JTB-15 | 2026-08-31 11:49:39 | 45.89101 | 16.39066 | 81° | 106km/h | 9917m | 4.2m/s | -37.5°C | 20.6% | 0hPa | 2.7V | 00:00:00 | 00:48:13 | 00:00:00 | |
| 9A1FER-3 | 2026-08-31 11:49:26 | 45.89043 | 16.38582 | 79° | 106km/h | 9864m | 3.7m/s | -37.1°C | 19.3% | 0hPa | 2.7V | 00:00:00 | 00:48:00 | 00:00:00 | |
| 9A1FER-10 | 2026-08-31 11:49:25 | 45.89038 | 16.38546 | 79° | 106km/h | 9860m | 4.1m/s | -37.0°C | 19.5% | 0hPa | 2.7V | 00:00:00 | 00:47:59 | 00:00:00 | |
| 9A1FER-3 | 2026-08-31 11:49:11 | 45.88973 | 16.38015 | 81° | 110km/h | 9803m | 3.0m/s | -36.6°C | 24.1% | 0hPa | 2.7V | 00:00:00 | 00:47:45 | 00:00:00 | |
| 9A1FER-10 | 2026-08-31 11:49:10 | 45.88969 | 16.37977 | 81° | 110km/h | 9800m | 4.2m/s | -36.7°C | 24.8% | 0hPa | 2.7V | 00:00:00 | 00:47:44 | 00:00:00 | |
| 9A1FER-3 | 2026-08-31 11:48:56 | 45.88899 | 16.37425 | 79° | 108km/h | 9742m | 4.4m/s | -36.2°C | 23.9% | 0hPa | 2.9V | 00:00:00 | 00:47:30 | 00:00:00 | |
| 9A1FER-10 | 2026-08-31 11:48:55 | 45.88894 | 16.37387 | 79° | 108km/h | 9737m | 4.4m/s | -36.2°C | 24.1% | 0hPa | 2.9V | 00:00:00 | 00:47:29 | 00:00:00 | |
| 9A1FER-3 | 2026-08-31 11:48:41 | 45.88819 | 16.36851 | 80° | 110km/h | 9681m | 3.8m/s | -35.7°C | 21.1% | 0hPa | 2.9V | 00:00:00 | 00:47:15 | 00:00:00 | |
| 9A1FER-10 | 2026-08-31 11:48:40 | 45.88814 | 16.36813 | 80° | 110km/h | 9678m | 2.8m/s | -35.6°C | 21.0% | 0hPa | 2.9V | 00:00:00 | 00:47:14 | 00:00:00 | |
| 9A1FER-3 | 2026-08-31 11:48:26 | 45.88738 | 16.36265 | 80° | 108km/h | 9622m | 3.3m/s | -35.1°C | 21.3% | 0hPa | 2.9V | 00:00:00 | 00:47:00 | 08:30:00 | |
| 9A1FER-10 | 2026-08-31 11:48:25 | 45.88732 | 16.36227 | 79° | 108km/h | 9618m | 4.6m/s | -35.1°C | 21.6% | 0hPa | 2.9V | 00:00:00 | 00:46:59 | 08:30:00 | |
| OE3JTB-15 | 2026-08-31 11:48:12 | 45.88662 | 16.35727 | 81° | 110km/h | 9565m | 5.0m/s | -34.7°C | 20.3% | 0hPa | 2.7V | 00:00:00 | 00:46:46 | 00:00:00 | |
| 9A1FER-3 | 2026-08-31 11:48:11 | 45.88657 | 16.35687 | 81° | 110km/h | 9560m | 3.2m/s | -34.6°C | 20.2% | 0hPa | 2.7V | 00:00:00 | 00:46:45 | 00:00:00 | |
| 9A1FER-10 | 2026-08-31 11:48:10 | 45.88653 | 16.35648 | 82° | 110km/h | 9556m | 4.9m/s | -34.6°C | 20.1% | 0hPa | 2.7V | 00:00:00 | 00:46:44 | 00:00:00 | |
| 9A1FER-3 | 2026-08-31 11:47:56 | 45.88577 | 16.35103 | 79° | 110km/h | 9500m | 4.5m/s | -34.0°C | 20.2% | 0hPa | 2.7V | 00:00:00 | 00:46:30 | 00:00:00 | |
| 9A1FER-10 | 2026-08-31 11:47:55 | 45.88571 | 16.35064 | 78° | 110km/h | 9495m | 4.5m/s | -34.0°C | 20.2% | 0hPa | 2.7V | 00:00:00 | 00:46:29 | 00:00:00 | |
| OE3JTB-15 | 2026-08-31 11:47:43 | 45.88508 | 16.34596 | 78° | 110km/h | 9447m | 4.3m/s | -33.5°C | 19.0% | 0hPa | 2.7V | 00:00:00 | 00:00:00 | 00:00:00 | |
| 9A1FER-3 | 2026-08-31 11:47:41 | 45.88496 | 16.34519 | 77° | 110km/h | 9438m | 4.6m/s | -33.5°C | 18.7% | 0hPa | 2.9V | 00:00:00 | 00:46:15 | 00:00:00 | |
| 9A1FER-10 | 2026-08-31 11:47:40 | 45.88489 | 16.34480 | 78° | 110km/h | 9434m | 4.1m/s | -33.4°C | 18.1% | 0hPa | 2.9V | 00:00:00 | 00:46:14 | 00:00:00 | |
| 9A1FER-3 | 2026-08-31 11:47:26 | 45.88406 | 16.33935 | 77° | 108km/h | 9377m | 3.7m/s | -32.9°C | 13.3% | 0hPa | 2.9V | 00:00:00 | 00:46:00 | 00:00:00 | |
| 9A1FER-10 | 2026-08-31 11:47:25 | 45.88400 | 16.33896 | 77° | 108km/h | 9373m | 5.0m/s | -32.9°C | 13.2% | 0hPa | 2.9V | 00:00:00 | 00:45:59 | 00:00:00 | |
| OE3JTB-15 | 2026-08-31 11:47:14 | 45.88337 | 16.33473 | 78° | 106km/h | 9323m | 4.7m/s | -32.5°C | 13.2% | 0hPa | 2.9V | 00:00:00 | 00:00:00 | 00:00:00 | |
| 9A1FER-3 | 2026-08-31 11:47:11 | 45.88319 | 16.33360 | 78° | 108km/h | 9311m | 4.7m/s | -32.4°C | 13.0% | 0hPa | 2.9V | 00:00:00 | 00:45:45 | 00:00:00 | |
| 9A1FER-10 | 2026-08-31 11:47:10 | 45.88313 | 16.33322 | 79° | 108km/h | 9306m | 4.8m/s | -32.4°C | 13.0% | 0hPa | 2.9V | 00:00:00 | 00:45:44 | 00:00:00 | |
| 9A1FER-3 | 2026-08-31 11:46:56 | 45.88239 | 16.32783 | 80° | 104km/h | 9252m | 4.3m/s | -32.1°C | 15.1% | 0hPa | 2.9V | 00:00:00 | 00:45:30 | 00:00:00 | |
| 9A1FER-10 | 2026-08-31 11:46:55 | 45.88234 | 16.32746 | 80° | 104km/h | 9247m | 4.0m/s | -32.0°C | 15.4% | 0hPa | 2.9V | 00:00:00 | 00:45:29 | 00:00:00 | |
| OE3JTB-15 | 2026-08-31 11:46:45 | 45.88174 | 16.32303 | 77° | 100km/h | 9200m | 2.6m/s | -31.6°C | 16.3% | 0hPa | 2.9V | 00:00:00 | 00:45:17 | 00:00:00 | |
| 9A1FER-3 | 2026-08-31 11:46:41 | 45.88162 | 16.32231 | 79° | 100km/h | 9192m | 3.9m/s | -31.6°C | 16.4% | 0hPa | 2.9V | 00:00:00 | 00:45:15 | 00:00:00 | |
| 9A1FER-10 | 2026-08-31 11:46:40 | 45.88158 | 16.32195 | 80° | 100km/h | 9188m | 3.5m/s | -31.6°C | 16.3% | 0hPa | 2.9V | 00:00:00 | 00:45:14 | 00:00:00 | |
| 9A1FER-3 | 2026-08-31 11:46:26 | 45.88089 | 16.31691 | 81° | 99km/h | 9131m | 4.2m/s | -31.2°C | 18.0% | 0hPa | 2.9V | 00:00:00 | 00:45:00 | 00:00:00 | |
| OE3JTB-15 | 2026-08-31 11:46:16 | 45.88040 | 16.31302 | 81° | 97km/h | 9084m | 3.5m/s | -31.0°C | 19.3% | 0hPa | 2.9V | 00:00:00 | 00:00:00 | 00:00:00 | |
| 9A1FER-3 | 2026-08-31 11:46:11 | 45.88022 | 16.31161 | 80° | 99km/h | 9067m | 4.9m/s | -30.9°C | 19.4% | 0hPa | 2.9V | 00:00:00 | 00:44:45 | 08:30:00 | |
| 9A1FER-10 | 2026-08-31 11:46:10 | 45.88018 | 16.31127 | 81° | 99km/h | 9063m | 4.1m/s | -30.9°C | 19.6% | 0hPa | 2.7V | 00:00:00 | 00:44:44 | 08:30:00 | |
| 9A1FER-3 | 2026-08-31 11:45:56 | 45.87962 | 16.30637 | 80° | 97km/h | 9007m | 3.9m/s | -30.4°C | 20.1% | 0hPa | 2.9V | 00:00:00 | 00:44:30 | 00:00:00 | |
| 9A1FER-10 | 2026-08-31 11:45:55 | 45.87957 | 16.30603 | 81° | 99km/h | 9003m | 4.3m/s | -30.4°C | 20.2% | 0hPa | 2.9V | 00:00:00 | 00:44:29 | 00:00:00 | |
| OE3JTB-15 | 2026-08-31 11:45:47 | 45.87927 | 16.30330 | 82° | 97km/h | 8970m | 3.2m/s | -30.2°C | 20.7% | 0hPa | 2.9V | 00:00:00 | 00:00:00 | 00:00:00 | |
| 9A1FER-3 | 2026-08-31 11:45:41 | 45.87905 | 16.30114 | 81° | 97km/h | 8948m | 4.2m/s | -30.0°C | 19.9% | 0hPa | 2.9V | 00:00:00 | 00:44:15 | 00:00:00 | |
| 9A1FER-10 | 2026-08-31 11:45:40 | 45.87901 | 16.30078 | 82° | 97km/h | 8944m | 3.8m/s | -30.0°C | 19.8% | 0hPa | 2.9V | 00:00:00 | 00:44:14 | 00:00:00 | |
| 9A1FER-3 | 2026-08-31 11:45:26 | 45.87855 | 16.29595 | 82° | 97km/h | 8887m | 3.4m/s | -29.4°C | 18.3% | 0hPa | 2.9V | 00:00:00 | 00:44:00 | 00:00:00 | |
| 9A1FER-10 | 2026-08-31 11:45:24 | 45.87848 | 16.29525 | 83° | 95km/h | 8879m | 3.4m/s | -29.4°C | 18.1% | 0hPa | 2.9V | 00:00:00 | 00:43:58 | 00:00:00 | |
| OE3JTB-15 | 2026-08-31 11:45:18 | 45.87828 | 16.29317 | 82° | 95km/h | 8854m | 3.9m/s | 0°C | 0% | 0hPa | 2.9V | 00:00:00 | 00:43:52 | 00:00:00 | |
| 9A1FER-3 | 2026-08-31 11:45:11 | 45.87807 | 16.29077 | 83° | 95km/h | 8827m | 3.9m/s | -28.9°C | 17.1% | 0hPa | 2.9V | 00:00:00 | 00:43:45 | 00:00:00 | |
| 9A1FER-10 | 2026-08-31 11:45:09 | 45.87801 | 16.29008 | 83° | 95km/h | 8819m | 3.8m/s | -28.8°C | 16.9% | 0hPa | 2.9V | 00:00:00 | 00:43:43 | 00:00:00 | |
| 9A1FER-3 | 2026-08-31 11:44:56 | 45.87753 | 16.28568 | 82° | 93km/h | 8768m | 4.4m/s | -28.5°C | 17.2% | 0hPa | 2.9V | 00:00:00 | 00:43:30 | 00:00:00 | |
| 9A1FER-10 | 2026-08-31 11:44:54 | 45.87745 | 16.28500 | 82° | 95km/h | 8761m | 5.2m/s | -28.5°C | 17.5% | 0hPa | 2.9V | 00:00:00 | 00:43:28 | 00:00:00 | |
| OE3JTB-15 | 2026-08-31 11:44:49 | 45.87727 | 16.28329 | 81° | 93km/h | 8741m | 5.0m/s | 0°C | 0% | 0hPa | 2.9V | 00:00:00 | 00:00:00 | 08:30:00 | |
| 9A1FER-3 | 2026-08-31 11:44:41 | 45.87701 | 16.28062 | 82° | 93km/h | 8706m | 5.0m/s | -28.2°C | 20.4% | 0hPa | 2.9V | 00:00:00 | 00:43:15 | 00:00:00 | |
| 9A1FER-10 | 2026-08-31 11:44:39 | 45.87693 | 16.27993 | 81° | 93km/h | 8697m | 4.1m/s | -28.2°C | 20.0% | 0hPa | 2.9V | 00:00:00 | 00:43:13 | 00:00:00 | |
| 9A1FER-3 | 2026-08-31 11:44:26 | 45.87640 | 16.27566 | 78° | 89km/h | 8639m | 5.1m/s | -27.8°C | 20.4% | 0hPa | 2.9V | 00:00:00 | 00:43:00 | 00:00:00 | |
| 9A1FER-10 | 2026-08-31 11:44:24 | 45.87630 | 16.27500 | 78° | 89km/h | 8626m | 4.8m/s | -27.7°C | 20.6% | 0hPa | 2.9V | 00:00:00 | 00:42:58 | 00:00:00 | |
| 9A1FER-10 | 2026-08-31 11:44:09 | 45.87556 | 16.27020 | 81° | 91km/h | 8549m | 3.5m/s | -27.1°C | 20.9% | 0hPa | 2.9V | 00:00:00 | 00:42:43 | 00:00:00 | |
| 9A1FER-3 | 2026-08-31 11:43:56 | 45.87495 | 16.26600 | 79° | 89km/h | 8484m | 3.2m/s | -26.8°C | 21.4% | 0hPa | 2.9V | 00:00:00 | 00:42:30 | 08:30:00 | |
| 9A1FER-10 | 2026-08-31 11:43:54 | 45.87487 | 16.26533 | 80° | 88km/h | 8472m | 6.7m/s | -26.7°C | 21.1% | 0hPa | 2.9V | 00:00:00 | 00:42:28 | 08:30:00 | |
| 9A1FER-3 | 2026-08-31 11:43:41 | 45.87422 | 16.26130 | 79° | 84km/h | 8408m | 4.9m/s | -26.4°C | 22.9% | 0hPa | 2.9V | 00:00:00 | 00:42:15 | 00:00:00 | |
| 9A1FER-10 | 2026-08-31 11:43:39 | 45.87413 | 16.26069 | 78° | 84km/h | 8394m | 6.0m/s | -26.3°C | 23.0% | 0hPa | 2.9V | 00:00:00 | 00:42:13 | 00:00:00 | |
| 9A1FER-3 | 2026-08-31 11:43:26 | 45.87345 | 16.25688 | 75° | 82km/h | 8330m | 5.8m/s | -25.8°C | 23.3% | 0hPa | 2.9V | 00:00:00 | 00:42:00 | 00:00:00 | |
| 9A1FER-10 | 2026-08-31 11:43:24 | 45.87333 | 16.25629 | 74° | 80km/h | 8320m | 5.1m/s | -25.7°C | 22.9% | 0hPa | 2.9V | 00:00:00 | 00:41:58 | 00:00:00 | |
| 9A1FER-3 | 2026-08-31 11:43:11 | 45.87271 | 16.25258 | 76° | 78km/h | 8257m | 6.2m/s | -25.1°C | 22.3% | 0hPa | 2.9V | 00:00:00 | 00:41:45 | 00:00:00 | |
| 9A1FER-10 | 2026-08-31 11:43:09 | 45.87261 | 16.25203 | 75° | 78km/h | 8248m | 8.0m/s | -25.1°C | 22.1% | 0hPa | 2.7V | 00:00:00 | 00:41:43 | 00:00:00 | |
| 9A1FER-3 | 2026-08-31 11:42:56 | 45.87197 | 16.24845 | 81° | 78km/h | 8176m | 7.6m/s | -24.6°C | 23.8% | 0hPa | 2.9V | 00:00:00 | 00:41:30 | 00:00:00 | |
| 9A1FER-10 | 2026-08-31 11:42:54 | 45.87191 | 16.24793 | 82° | 78km/h | 8164m | 5.2m/s | -24.5°C | 23.9% | 0hPa | 2.9V | 00:00:00 | 00:41:28 | 00:00:00 | |
| 9A1FER-3 | 2026-08-31 11:42:41 | 45.87137 | 16.24430 | 78° | 78km/h | 8094m | 6.7m/s | -23.8°C | 23.9% | 0hPa | 2.9V | 00:00:00 | 00:41:15 | 00:00:00 | |
| 9A1FER-10 | 2026-08-31 11:42:39 | 45.87129 | 16.24377 | 77° | 78km/h | 8080m | 5.9m/s | -23.7°C | 24.0% | 0hPa | 2.9V | 00:00:00 | 00:41:13 | 00:00:00 | |
| 9A1FER-3 | 2026-08-31 11:42:26 | 45.87068 | 16.24020 | 77° | 78km/h | 8018m | 2.6m/s | -23.2°C | 27.6% | 0hPa | 2.9V | 00:00:00 | 00:41:00 | 00:00:00 | |
| 9A1FER-10 | 2026-08-31 11:42:24 | 45.87059 | 16.23965 | 78° | 78km/h | 8009m | 4.5m/s | -23.1°C | 27.4% | 0hPa | 2.9V | 00:00:00 | 00:40:58 | 00:00:00 | |
| 9A1FER-3 | 2026-08-31 11:42:11 | 45.87000 | 16.23603 | 73° | 75km/h | 7942m | 4.4m/s | -22.6°C | 27.4% | 0hPa | 2.9V | 00:00:00 | 00:40:45 | 00:00:00 | |
| 9A1FER-10 | 2026-08-31 11:42:09 | 45.86988 | 16.23552 | 73° | 75km/h | 7932m | 6.1m/s | -22.6°C | 27.7% | 0hPa | 2.9V | 00:00:00 | 00:40:43 | 00:00:00 | |
| 9A1FER-3 | 2026-08-31 11:41:56 | 45.86928 | 16.23207 | 80° | 71km/h | 7861m | 5.0m/s | -22.2°C | 30.9% | 0hPa | 2.9V | 00:00:00 | 00:40:30 | 00:00:00 | |
| 9A1FER-10 | 2026-08-31 11:41:54 | 45.86920 | 16.23157 | 77° | 71km/h | 7852m | 3.7m/s | -22.1°C | 31.4% | 0hPa | 2.9V | 00:00:00 | 00:40:28 | 00:00:00 | |
| 9A1FER-3 | 2026-08-31 11:41:41 | 45.86872 | 16.22828 | 79° | 69km/h | 7786m | 8.1m/s | -21.5°C | 30.1% | 0hPa | 2.9V | 00:00:00 | 00:40:15 | 08:30:00 | |
| 9A1FER-10 | 2026-08-31 11:41:39 | 45.86865 | 16.22775 | 81° | 69km/h | 7775m | 5.4m/s | -21.4°C | 30.0% | 0hPa | 2.9V | 00:00:00 | 00:40:13 | 08:30:00 | |
| 9A1FER-3 | 2026-08-31 11:41:26 | 45.86827 | 16.22454 | 82° | 68km/h | 7695m | 3.6m/s | -20.7°C | 28.3% | 0hPa | 2.9V | 00:00:00 | 00:40:00 | 00:00:00 | |
| 9A1FER-10 | 2026-08-31 11:41:24 | 45.86822 | 16.22408 | 80° | 68km/h | 7686m | 3.7m/s | -20.6°C | 28.2% | 0hPa | 2.9V | 00:00:00 | 00:39:58 | 00:00:00 | |
| 9A1FER-3 | 2026-08-31 11:41:11 | 45.86785 | 16.22096 | 88° | 66km/h | 7630m | 5.1m/s | -20.1°C | 26.7% | 0hPa | 2.9V | 00:00:00 | 00:39:45 | 00:00:00 | |
| 9A1FER-10 | 2026-08-31 11:41:09 | 45.86782 | 16.22048 | 84° | 66km/h | 7622m | 2.5m/s | -20.0°C | 26.7% | 0hPa | 2.9V | 00:00:00 | 00:39:43 | 00:00:00 | |
| 9A1FER-3 | 2026-08-31 11:40:56 | 45.86736 | 16.21746 | 81° | 66km/h | 7568m | 4.2m/s | -19.5°C | 25.5% | 0hPa | 2.9V | 00:00:00 | 00:39:30 | 00:00:00 | |
| 9A1FER-10 | 2026-08-31 11:40:54 | 45.86730 | 16.21699 | 78° | 64km/h | 7560m | 3.6m/s | -19.5°C | 25.5% | 0hPa | 2.9V | 00:00:00 | 00:39:28 | 00:00:00 | |
| 9A1FER-3 | 2026-08-31 11:40:41 | 45.86683 | 16.21404 | 83° | 60km/h | 7506m | 4.8m/s | -19.0°C | 23.1% | 0hPa | 2.9V | 00:00:00 | 00:39:15 | 00:00:00 | |
| 9A1FER-10 | 2026-08-31 11:40:39 | 45.86678 | 16.21362 | 78° | 60km/h | 7498m | 3.5m/s | -18.9°C | 22.6% | 0hPa | 2.9V | 00:00:00 | 00:39:13 | 00:00:00 | |
| 9A1FER-3 | 2026-08-31 11:40:26 | 45.86632 | 16.21082 | 83° | 58km/h | 7441m | 6.0m/s | -18.4°C | 20.8% | 0hPa | 2.9V | 00:00:00 | 00:39:00 | 00:00:00 | |
| 9A1FER-10 | 2026-08-31 11:40:24 | 45.86628 | 16.21039 | 82° | 58km/h | 7430m | 4.4m/s | -18.3°C | 20.6% | 0hPa | 2.9V | 00:00:00 | 00:38:58 | 00:00:00 | |
| 9A1FER-3 | 2026-08-31 11:40:11 | 45.86582 | 16.20775 | 77° | 58km/h | 7361m | 5.5m/s | -17.7°C | 17.1% | 0hPa | 2.9V | 00:00:00 | 00:38:45 | 00:00:00 | |
| 9A1FER-10 | 2026-08-31 11:40:09 | 45.86575 | 16.20730 | 79° | 57km/h | 7349m | 5.6m/s | -17.6°C | 16.7% | 0hPa | 2.9V | 00:00:00 | 00:38:43 | 00:00:00 | |
| 9A1FER-3 | 2026-08-31 11:39:56 | 45.86536 | 16.20469 | 76° | 57km/h | 7284m | 6.2m/s | -17.0°C | 12.1% | 0hPa | 2.9V | 00:00:00 | 00:38:30 | 00:00:00 | |
| 9A1FER-10 | 2026-08-31 11:39:54 | 45.86530 | 16.20429 | 78° | 57km/h | 7275m | 4.1m/s | -16.8°C | 11.9% | 0hPa | 2.9V | 00:00:00 | 00:38:28 | 00:00:00 | |
| 9A1FER-3 | 2026-08-31 11:39:41 | 45.86478 | 16.20171 | 76° | 58km/h | 7204m | 5.5m/s | -16.3°C | 6.2% | 0hPa | 2.9V | 00:00:00 | 00:38:15 | 00:00:00 | |
| 9A1FER-10 | 2026-08-31 11:39:39 | 45.86471 | 16.20131 | 76° | 60km/h | 7194m | 5.5m/s | -16.2°C | 6.2% | 0hPa | 2.9V | 00:00:00 | 00:38:13 | 00:00:00 | |
| 9A1FER-3 | 2026-08-31 11:39:26 | 45.86408 | 16.19866 | 69° | 60km/h | 7134m | 6.3m/s | -15.9°C | 7.0% | 0hPa | 2.9V | 00:00:00 | 00:38:00 | 08:30:00 | |
| 9A1FER-10 | 2026-08-31 11:39:24 | 45.86396 | 16.19824 | 69° | 60km/h | 7122m | 5.8m/s | -15.9°C | 7.3% | 0hPa | 2.9V | 00:00:00 | 00:37:58 | 08:30:00 | |
| 9A1FER-3 | 2026-08-31 11:39:11 | 45.86332 | 16.19556 | 68° | 64km/h | 7061m | 3.2m/s | -15.4°C | 7.9% | 0hPa | 3.0V | 00:00:00 | 00:37:45 | 00:00:00 | |
| 9A1FER-10 | 2026-08-31 11:39:09 | 45.86319 | 16.19515 | 66° | 64km/h | 7047m | 6.8m/s | -15.4°C | 7.8% | 0hPa | 3.0V | 00:00:00 | 00:37:43 | 00:00:00 | |
| 9A1FER-3 | 2026-08-31 11:38:56 | 45.86236 | 16.19242 | 61° | 64km/h | 6981m | 5.1m/s | -15.1°C | 8.6% | 0hPa | 3.0V | 00:00:00 | 00:37:30 | 00:00:00 | |
| 9A1FER-10 | 2026-08-31 11:38:54 | 45.86221 | 16.19203 | 64° | 64km/h | 6974m | 2.3m/s | -15.1°C | 8.6% | 0hPa | 3.0V | 00:00:00 | 00:37:28 | 00:00:00 | |
| 9A1FER-3 | 2026-08-31 11:38:41 | 45.86133 | 16.18930 | 67° | 64km/h | 6923m | 3.9m/s | -14.8°C | 8.0% | 0hPa | 3.0V | 00:00:00 | 00:37:15 | 00:00:00 | |
| 9A1FER-10 | 2026-08-31 11:38:39 | 45.86121 | 16.18886 | 69° | 64km/h | 6916m | 4.9m/s | -14.8°C | 7.9% | 0hPa | 3.0V | 00:00:00 | 00:37:13 | 00:00:00 | |
| 9A1FER-3 | 2026-08-31 11:38:26 | 45.86044 | 16.18608 | 71° | 68km/h | 6870m | 3.7m/s | -14.5°C | 8.0% | 0hPa | 3.0V | 00:00:00 | 00:37:00 | 00:00:00 | |
| 9A1FER-10 | 2026-08-31 11:38:24 | 45.86032 | 16.18564 | 69° | 68km/h | 6863m | 3.4m/s | -14.4°C | 8.1% | 0hPa | 3.0V | 00:00:00 | 00:36:58 | 00:00:00 | |
| 9A1FER-3 | 2026-08-31 11:38:11 | 45.85959 | 16.18267 | 74° | 66km/h | 6811m | 5.7m/s | -14.1°C | 7.9% | 0hPa | 3.0V | 00:00:00 | 00:36:45 | 00:00:00 | |
| 9A1FER-10 | 2026-08-31 11:38:09 | 45.85949 | 16.18222 | 73° | 66km/h | 6803m | 4.0m/s | -14.0°C | 7.9% | 0hPa | 3.0V | 00:00:00 | 00:36:43 | 00:00:00 | |
| 9A1FER-3 | 2026-08-31 11:37:56 | 45.85878 | 16.17925 | 68° | 64km/h | 6736m | 4.4m/s | -13.5°C | 8.2% | 0hPa | 3.0V | 00:00:00 | 00:36:30 | 00:00:00 | |
| 9A1FER-10 | 2026-08-31 11:37:54 | 45.85866 | 16.17884 | 67° | 66km/h | 6728m | 4.9m/s | -13.4°C | 8.1% | 0hPa | 3.0V | 00:00:00 | 00:36:28 | 00:00:00 | |
| 9A1FER-3 | 2026-08-31 11:37:41 | 45.85791 | 16.17597 | 71° | 64km/h | 6668m | 2.9m/s | -13.0°C | 7.6% | 0hPa | 3.0V | 00:00:00 | 00:36:15 | 00:00:00 | |
| 9A1FER-10 | 2026-08-31 11:37:39 | 45.85779 | 16.17552 | 70° | 66km/h | 6659m | 4.5m/s | -12.9°C | 7.5% | 0hPa | 3.0V | 00:00:00 | 00:36:13 | 00:00:00 | |
| 9A1FER-3 | 2026-08-31 11:37:26 | 45.85716 | 16.17262 | 76° | 66km/h | 6596m | 3.1m/s | -12.5°C | 7.8% | 0hPa | 3.0V | 00:00:00 | 00:36:00 | 00:00:00 | |
| 9A1FER-10 | 2026-08-31 11:37:24 | 45.85707 | 16.17214 | 74° | 66km/h | 6586m | 2.6m/s | -12.5°C | 8.4% | 0hPa | 3.0V | 00:00:00 | 00:35:58 | 00:00:00 | |
| 9A1FER-3 | 2026-08-31 11:37:11 | 45.85634 | 16.16920 | 72° | 62km/h | 6518m | 3.0m/s | -12.2°C | 9.5% | 0hPa | 3.0V | 00:00:00 | 00:35:45 | 08:30:00 | |
| 9A1FER-10 | 2026-08-31 11:37:09 | 45.85624 | 16.16876 | 69° | 62km/h | 6510m | 6.4m/s | -12.1°C | 9.4% | 0hPa | 3.0V | 00:00:00 | 00:35:43 | 08:30:00 | |
| 9A1FER-3 | 2026-08-31 11:36:56 | 45.85556 | 16.16603 | 67° | 64km/h | 6451m | 4.6m/s | -11.8°C | 9.0% | 0hPa | 3.0V | 00:00:00 | 00:35:30 | 00:00:00 | |
| 9A1FER-10 | 2026-08-31 11:36:54 | 45.85544 | 16.16560 | 71° | 62km/h | 6443m | 4.0m/s | -11.7°C | 9.1% | 0hPa | 3.0V | 00:00:00 | 00:35:28 | 00:00:00 | |
| 9A1FER-3 | 2026-08-31 11:36:41 | 45.85481 | 16.16278 | 72° | 62km/h | 6379m | 4.8m/s | -11.4°C | 9.2% | 0hPa | 3.0V | 00:00:00 | 00:35:15 | 00:00:00 | |
| 9A1FER-10 | 2026-08-31 11:36:39 | 45.85471 | 16.16237 | 73° | 62km/h | 6371m | 4.5m/s | -11.3°C | 9.0% | 0hPa | 3.0V | 00:00:00 | 00:35:13 | 00:00:00 | |
| 9A1FER-3 | 2026-08-31 11:36:27 | 45.85422 | 16.15951 | 70° | 64km/h | 6311m | 5.4m/s | -10.7°C | 8.5% | 0hPa | 3.0V | 00:00:00 | 00:35:00 | 00:00:00 | |
| 9A1FER-10 | 2026-08-31 11:36:24 | 45.85412 | 16.15909 | 72° | 64km/h | 6301m | 3.8m/s | -10.7°C | 8.4% | 0hPa | 3.0V | 00:00:00 | 00:34:58 | 00:00:00 | |
| 9A1FER-3 | 2026-08-31 11:36:11 | 45.85352 | 16.15620 | 68° | 64km/h | 6246m | 2.9m/s | -10.1°C | 6.8% | 0hPa | 3.0V | 00:00:00 | 00:34:45 | 00:00:00 | |
| 9A1FER-10 | 2026-08-31 11:36:09 | 45.85340 | 16.15577 | 70° | 66km/h | 6238m | 3.1m/s | -10.0°C | 6.7% | 0hPa | 3.0V | 00:00:00 | 00:34:43 | 00:00:00 | |
| 9A1FER-3 | 2026-08-31 11:35:56 | 45.85276 | 16.15284 | 70° | 64km/h | 6182m | 2.3m/s | -9.7°C | 6.6% | 0hPa | 3.0V | 00:00:00 | 00:34:30 | 00:00:00 | |
| 9A1FER-10 | 2026-08-31 11:35:54 | 45.85263 | 16.15240 | 67° | 64km/h | 6172m | 5.1m/s | -9.7°C | 5.5% | 0hPa | 3.0V | 00:00:00 | 00:34:28 | 00:00:00 | |
| 9A1FER-3 | 2026-08-31 11:35:41 | 45.85182 | 16.14962 | 68° | 64km/h | 6104m | 7.2m/s | -9.5°C | 6.8% | 0hPa | 3.0V | 00:00:00 | 00:34:15 | 00:00:00 | |
| 9A1FER-10 | 2026-08-31 11:35:39 | 45.85170 | 16.14921 | 68° | 64km/h | 6093m | 6.7m/s | -9.4°C | 7.0% | 0hPa | 3.0V | 00:00:00 | 00:34:13 | 00:00:00 | |
| 9A1FER-3 | 2026-08-31 11:35:26 | 45.85104 | 16.14630 | 71° | 64km/h | 6028m | 5.2m/s | -9.9°C | 21.1% | 0hPa | 3.0V | 00:00:00 | 00:34:00 | 00:00:00 | |
| 9A1FER-10 | 2026-08-31 11:35:24 | 45.85091 | 16.14588 | 65° | 64km/h | 6018m | 4.9m/s | -10.0°C | 24.7% | 0hPa | 3.0V | 00:00:00 | 00:33:58 | 00:00:00 | |
| 9A1FER-3 | 2026-08-31 11:35:11 | 45.85002 | 16.14314 | 67° | 57km/h | 5947m | 5.1m/s | -9.6°C | 28.9% | 0hPa | 3.0V | 00:00:00 | 00:33:45 | 00:00:00 | |
| 9A1FER-10 | 2026-08-31 11:35:09 | 45.84990 | 16.14274 | 69° | 57km/h | 5935m | 4.6m/s | -9.5°C | 29.5% | 0hPa | 3.0V | 00:00:00 | 00:33:43 | 00:00:00 | |
| 9A1FER-3 | 2026-08-31 11:34:56 | 45.84915 | 16.14031 | 69° | 58km/h | 5859m | 3.0m/s | -8.9°C | 20.2% | 0hPa | 3.0V | 00:00:00 | 00:33:30 | 08:30:00 | |
| 9A1FER-10 | 2026-08-31 11:34:54 | 45.84905 | 16.13990 | 72° | 58km/h | 5850m | 5.0m/s | -8.9°C | 18.5% | 0hPa | 3.0V | 00:00:00 | 00:33:28 | 08:30:00 | |
| 9A1FER-3 | 2026-08-31 11:34:41 | 45.84828 | 16.13742 | 66° | 55km/h | 5774m | 4.8m/s | -8.3°C | 17.7% | 0hPa | 3.0V | 00:00:00 | 00:33:15 | 00:00:00 | |
| 9A1FER-10 | 2026-08-31 11:34:39 | 45.84817 | 16.13704 | 68° | 55km/h | 5765m | 3.7m/s | -8.3°C | 17.4% | 0hPa | 3.0V | 00:00:00 | 00:33:13 | 00:00:00 | |
| 9A1FER-3 | 2026-08-31 11:34:26 | 45.84746 | 16.13468 | 69° | 51km/h | 5693m | 4.6m/s | -7.8°C | 18.2% | 0hPa | 3.0V | 00:00:00 | 00:33:00 | 00:00:00 | |
| 9A1FER-10 | 2026-08-31 11:34:24 | 45.84736 | 16.13432 | 71° | 51km/h | 5685m | 5.2m/s | -7.8°C | 22.5% | 0hPa | 3.0V | 00:00:00 | 00:32:58 | 00:00:00 | |
| 9A1FER-3 | 2026-08-31 11:34:11 | 45.84690 | 16.13206 | 80° | 55km/h | 5610m | 5.3m/s | -7.3°C | 31.0% | 0hPa | 3.0V | 00:00:00 | 00:32:45 | 00:00:00 | |
| 9A1FER-10 | 2026-08-31 11:34:09 | 45.84686 | 16.13170 | 81° | 55km/h | 5600m | 5.3m/s | -7.2°C | 30.2% | 0hPa | 2.9V | 00:00:00 | 00:32:43 | 00:00:00 | |
| 9A1FER-3 | 2026-08-31 11:33:56 | 45.84637 | 16.12923 | 73° | 57km/h | 5537m | 4.6m/s | -6.6°C | 26.7% | 0hPa | 3.0V | 00:00:00 | 00:32:30 | 00:00:00 | |
| 9A1FER-10 | 2026-08-31 11:33:54 | 45.84629 | 16.12884 | 76° | 57km/h | 5529m | 3.5m/s | -6.6°C | 25.7% | 0hPa | 3.0V | 00:00:00 | 00:32:28 | 00:00:00 | |
| 9A1FER-3 | 2026-08-31 11:33:41 | 45.84580 | 16.12624 | 78° | 53km/h | 5460m | 7.1m/s | -5.9°C | 21.5% | 0hPa | 3.0V | 00:00:00 | 00:32:15 | 00:00:00 | |
| 9A1FER-10 | 2026-08-31 11:33:39 | 45.84575 | 16.12587 | 80° | 53km/h | 5448m | 4.8m/s | -5.8°C | 21.4% | 0hPa | 3.0V | 00:00:00 | 00:32:13 | 00:00:00 | |
| 9A1FER-3 | 2026-08-31 11:33:26 | 45.84534 | 16.12343 | 77° | 53km/h | 5390m | 4.8m/s | -5.2°C | 11.1% | 0hPa | 3.0V | 00:00:00 | 00:32:00 | 00:00:00 | |
| 9A1FER-10 | 2026-08-31 11:33:24 | 45.84528 | 16.12306 | 80° | 53km/h | 5381m | 5.7m/s | -5.2°C | 10.1% | 0hPa | 3.0V | 00:00:00 | 00:31:58 | 00:00:00 | |
| 9A1FER-3 | 2026-08-31 11:33:11 | 45.84505 | 16.12057 | 81° | 46km/h | 5320m | 5.2m/s | -5.2°C | 5.2% | 0hPa | 3.0V | 00:00:00 | 00:31:45 | 00:00:00 | |
| 9A1FER-10 | 2026-08-31 11:33:09 | 45.84501 | 16.12020 | 81° | 44km/h | 5311m | 5.0m/s | -5.2°C | 6.8% | 0hPa | 3.0V | 00:00:00 | 00:31:43 | 00:00:00 | |
| 9A1FER-3 | 2026-08-31 11:32:56 | 45.84490 | 16.11812 | 88° | 46km/h | 5250m | 6.1m/s | -4.9°C | 14.4% | 0hPa | 3.0V | 00:00:00 | 00:31:30 | 00:00:00 | |
| 9A1FER-10 | 2026-08-31 11:32:54 | 45.84490 | 16.11781 | 90° | 46km/h | 5239m | 3.4m/s | -4.9°C | 23.1% | 0hPa | 3.0V | 00:00:00 | 00:31:28 | 00:00:00 | |
| 9A1FER-3 | 2026-08-31 11:32:41 | 45.84504 | 16.11564 | 101° | 46km/h | 5173m | 5.5m/s | -4.7°C | 10.9% | 0hPa | 3.0V | 00:00:00 | 00:31:15 | 08:30:00 | |
| 9A1FER-10 | 2026-08-31 11:32:39 | 45.84507 | 16.11531 | 97° | 44km/h | 5165m | 4.9m/s | -4.8°C | 15.5% | 0hPa | 3.0V | 00:00:00 | 00:31:13 | 08:30:00 | |
| 9A1FER-3 | 2026-08-31 11:32:26 | 45.84503 | 16.11320 | 83° | 40km/h | 5091m | 7.4m/s | -5.2°C | 45.2% | 0hPa | 3.0V | 00:00:00 | 00:31:00 | 00:00:00 | |
| 9A1FER-10 | 2026-08-31 11:32:24 | 45.84500 | 16.11290 | 78° | 40km/h | 5079m | 6.0m/s | -5.2°C | 44.8% | 0hPa | 3.0V | 00:00:00 | 00:30:58 | 00:00:00 | |
| 9A1FER-3 | 2026-08-31 11:32:11 | 45.84463 | 16.11112 | 76° | 46km/h | 5000m | 6.7m/s | -4.9°C | 49.4% | 0hPa | 3.0V | 00:00:00 | 00:30:45 | 00:00:00 | |
| 9A1FER-10 | 2026-08-31 11:32:09 | 45.84457 | 16.11079 | 78° | 46km/h | 4987m | 6.0m/s | -4.9°C | 49.2% | 0hPa | 3.0V | 00:00:00 | 00:30:43 | 00:00:00 | |
| 9A1FER-3 | 2026-08-31 11:31:56 | 45.84410 | 16.10874 | 69° | 44km/h | 4918m | 3.2m/s | -4.4°C | 49.3% | 0hPa | 3.0V | 00:00:00 | 00:30:30 | 00:00:00 | |
| 9A1FER-10 | 2026-08-31 11:31:54 | 45.84404 | 16.10847 | 75° | 44km/h | 4907m | 4.7m/s | -4.4°C | 44.6% | 0hPa | 3.0V | 00:00:00 | 00:30:28 | 00:00:00 | |
| 9A1FER-3 | 2026-08-31 11:31:41 | 45.84368 | 16.10645 | 74° | 47km/h | 4855m | 4.2m/s | -4.4°C | 60.5% | 0hPa | 3.0V | 00:00:00 | 00:30:15 | 00:00:00 | |
| 9A1FER-10 | 2026-08-31 11:31:39 | 45.84361 | 16.10614 | 73° | 47km/h | 4846m | 4.9m/s | -4.3°C | 61.2% | 0hPa | 3.0V | 00:00:00 | 00:30:13 | 00:00:00 | |
| 9A1FER-3 | 2026-08-31 11:31:26 | 45.84312 | 16.10404 | 70° | 42km/h | 4784m | 5.2m/s | -3.8°C | 60.9% | 0hPa | 3.0V | 00:00:00 | 00:30:00 | 00:00:00 | |
| 9A1FER-10 | 2026-08-31 11:31:24 | 45.84302 | 16.10373 | 64° | 42km/h | 4773m | 5.7m/s | -3.7°C | 59.2% | 0hPa | 3.0V | 00:00:00 | 00:29:58 | 00:00:00 | |
| 9A1FER-3 | 2026-08-31 11:31:11 | 45.84247 | 16.10197 | 67° | 42km/h | 4707m | 4.5m/s | -3.0°C | 27.2% | 0hPa | 3.0V | 00:00:00 | 00:29:45 | 00:00:00 | |
| 9A1FER-10 | 2026-08-31 11:31:10 | 45.84237 | 16.10167 | 64° | 40km/h | 4697m | 5.1m/s | -2.9°C | 17.5% | 0hPa | 3.0V | 00:00:00 | 00:29:43 | 00:00:00 | |
| 9A1FER-3 | 2026-08-31 11:30:56 | 45.84174 | 16.09998 | 67° | 38km/h | 4635m | 5.0m/s | -2.9°C | 25.2% | 0hPa | 3.0V | 00:00:00 | 00:29:30 | 00:00:00 | |
| 9A1FER-10 | 2026-08-31 11:30:54 | 45.84166 | 16.09971 | 72° | 38km/h | 4624m | 4.8m/s | -2.8°C | 26.0% | 0hPa | 3.0V | 00:00:00 | 00:29:28 | 00:00:00 | |
| 9A1FER-3 | 2026-08-31 11:30:41 | 45.84118 | 16.09804 | 66° | 37km/h | 4561m | 5.5m/s | -2.6°C | 21.4% | 0hPa | 3.0V | 00:00:00 | 00:29:15 | 00:00:00 | |
| 9A1FER-10 | 2026-08-31 11:30:39 | 45.84111 | 16.09781 | 70° | 37km/h | 4550m | 5.2m/s | -2.5°C | 21.3% | 0hPa | 3.0V | 00:00:00 | 00:29:13 | 00:00:00 | |
| 9A1FER-3 | 2026-08-31 11:30:26 | 45.84063 | 16.09623 | 68° | 35km/h | 4494m | 4.1m/s | -2.3°C | 40.9% | 0hPa | 3.0V | 00:00:00 | 00:29:00 | 08:30:00 | |
| 9A1FER-10 | 2026-08-31 11:30:24 | 45.84056 | 16.09598 | 70° | 35km/h | 4485m | 5.3m/s | -2.2°C | 41.4% | 0hPa | 3.0V | 00:00:00 | 00:28:58 | 08:30:00 | |
| 9A1FER-3 | 2026-08-31 11:30:11 | 45.84011 | 16.09447 | 73° | 33km/h | 4433m | 2.3m/s | -1.8°C | 49.8% | 0hPa | 3.0V | 00:00:00 | 00:28:45 | 00:00:00 | |
| 9A1FER-10 | 2026-08-31 11:30:09 | 45.84005 | 16.09425 | 68° | 33km/h | 4426m | 5.4m/s | -1.8°C | 50.1% | 0hPa | 3.0V | 00:00:00 | 00:28:43 | 00:00:00 | |
| 9A1FER-3 | 2026-08-31 11:29:56 | 45.83961 | 16.09282 | 59° | 33km/h | 4381m | 5.3m/s | -1.5°C | 45.5% | 0hPa | 3.0V | 00:00:00 | 00:28:30 | 00:00:00 | |
| 9A1FER-10 | 2026-08-31 11:29:54 | 45.83951 | 16.09258 | 63° | 31km/h | 4371m | 5.9m/s | -1.4°C | 41.4% | 0hPa | 3.0V | 00:00:00 | 00:28:28 | 00:00:00 | |
| 9A1FER-3 | 2026-08-31 11:29:41 | 45.83902 | 16.09130 | 66° | 31km/h | 4310m | 5.0m/s | -1.6°C | 58.1% | 0hPa | 3.0V | 00:00:00 | 00:28:15 | 00:00:00 | |
| 9A1FER-10 | 2026-08-31 11:29:39 | 45.83896 | 16.09112 | 63° | 31km/h | 4300m | 5.7m/s | -1.5°C | 59.7% | 0hPa | 3.0V | 00:00:00 | 00:28:13 | 00:00:00 | |
| 9A1FER-3 | 2026-08-31 11:29:26 | 45.83840 | 16.08990 | 57° | 29km/h | 4248m | 5.5m/s | -1.1°C | 58.9% | 0hPa | 3.0V | 00:00:00 | 00:28:00 | 00:00:00 | |
| 9A1FER-10 | 2026-08-31 11:29:25 | 45.83833 | 16.08972 | 61° | 29km/h | 4239m | 4.3m/s | -1.0°C | 58.2% | 0hPa | 3.0V | 00:00:00 | 00:27:58 | 00:00:00 | |
| 9A1FER-3 | 2026-08-31 11:29:11 | 45.83782 | 16.08850 | 50° | 27km/h | 4173m | 3.7m/s | -0.6°C | 51.4% | 0hPa | 3.0V | 00:00:00 | 00:27:45 | 00:00:00 | |
| 9A1FER-10 | 2026-08-31 11:29:09 | 45.83773 | 16.08836 | 45° | 29km/h | 4165m | 4.4m/s | -0.6°C | 56.5% | 0hPa | 3.0V | 00:00:00 | 00:27:43 | 00:00:00 | |
| 9A1FER-3 | 2026-08-31 11:28:56 | 45.83718 | 16.08728 | 53° | 27km/h | 4106m | 3.3m/s | -0.1°C | 56.1% | 0hPa | 3.0V | 00:00:00 | 00:27:30 | 00:00:00 | |
| 9A1FER-10 | 2026-08-31 11:28:54 | 45.83708 | 16.08711 | 50° | 27km/h | 4098m | 4.2m/s | -0.1°C | 56.3% | 0hPa | 3.0V | 00:00:00 | 00:27:28 | 00:00:00 | |
| 9A1FER-3 | 2026-08-31 11:28:41 | 45.83653 | 16.08608 | 58° | 26km/h | 4033m | 5.1m/s | 0.4°C | 53.1% | 0hPa | 3.0V | 00:00:00 | 00:27:15 | 00:00:00 | |
| 9A1FER-10 | 2026-08-31 11:28:39 | 45.83646 | 16.08590 | 64° | 26km/h | 4021m | 5.3m/s | 0.5°C | 52.9% | 0hPa | 3.0V | 00:00:00 | 00:27:13 | 00:00:00 | |
| 9A1FER-3 | 2026-08-31 11:28:26 | 45.83594 | 16.08494 | 55° | 27km/h | 3965m | 4.8m/s | 1.0°C | 51.0% | 0hPa | 3.0V | 00:00:00 | 00:27:00 | 00:00:00 | |
| 9A1FER-10 | 2026-08-31 11:28:24 | 45.83587 | 16.08477 | 60° | 27km/h | 3958m | 3.2m/s | 1.0°C | 51.0% | 0hPa | 3.0V | 00:00:00 | 00:26:58 | 00:00:00 | |
| 9A1FER-3 | 2026-08-31 11:28:11 | 45.83532 | 16.08378 | 54° | 27km/h | 3911m | 4.9m/s | 1.3°C | 52.4% | 0hPa | 3.0V | 00:00:00 | 00:26:45 | 08:30:00 | |
| 9A1FER-10 | 2026-08-31 11:28:09 | 45.83523 | 16.08363 | 51° | 27km/h | 3905m | 3.1m/s | 1.4°C | 52.1% | 0hPa | 3.0V | 00:00:00 | 00:26:43 | 08:30:00 | |
| 9A1FER-3 | 2026-08-31 11:27:56 | 45.83473 | 16.08260 | 50° | 27km/h | 3860m | 3.9m/s | 1.6°C | 54.3% | 0hPa | 3.0V | 00:00:00 | 00:26:30 | 00:00:00 | |
| 9A1FER-10 | 2026-08-31 11:27:54 | 45.83463 | 16.08243 | 53° | 27km/h | 3852m | 3.8m/s | 1.7°C | 55.0% | 0hPa | 3.0V | 00:00:00 | 00:26:28 | 00:00:00 | |
| 9A1FER-3 | 2026-08-31 11:27:41 | 45.83409 | 16.08142 | 60° | 29km/h | 3786m | 5.3m/s | 2.2°C | 54.3% | 0hPa | 3.0V | 00:00:00 | 00:26:15 | 00:00:00 | |
| 9A1FER-10 | 2026-08-31 11:27:39 | 45.83402 | 16.08124 | 60° | 29km/h | 3775m | 5.5m/s | 2.3°C | 54.2% | 0hPa | 3.0V | 00:00:00 | 00:26:13 | 00:00:00 | |
| 9A1FER-3 | 2026-08-31 11:27:26 | 45.83345 | 16.08014 | 47° | 27km/h | 3718m | 5.4m/s | 2.9°C | 52.4% | 0hPa | 3.0V | 00:00:00 | 00:26:00 | 00:00:00 | |
| 9A1FER-10 | 2026-08-31 11:27:24 | 45.83335 | 16.07997 | 55° | 27km/h | 3707m | 5.4m/s | 2.9°C | 52.7% | 0hPa | 3.0V | 00:00:00 | 00:25:58 | 00:00:00 | |
| 9A1FER-3 | 2026-08-31 11:27:11 | 45.83279 | 16.07897 | 47° | 27km/h | 3654m | 5.2m/s | 3.4°C | 53.6% | 0hPa | 3.0V | 00:00:00 | 00:25:45 | 00:00:00 | |
| 9A1FER-10 | 2026-08-31 11:27:09 | 45.83270 | 16.07882 | 51° | 29km/h | 3642m | 7.1m/s | 3.5°C | 53.5% | 0hPa | 3.0V | 00:00:00 | 00:25:43 | 00:00:00 | |
| 9A1FER-3 | 2026-08-31 11:26:56 | 45.83217 | 16.07772 | 58° | 29km/h | 3587m | 4.5m/s | 4.0°C | 51.0% | 0hPa | 3.0V | 00:00:00 | 00:25:30 | 00:00:00 | |
| 9A1FER-10 | 2026-08-31 11:26:54 | 45.83209 | 16.07753 | 57° | 29km/h | 3580m | 3.6m/s | 4.1°C | 50.7% | 0hPa | 3.0V | 00:00:00 | 00:25:28 | 00:00:00 | |
| 9A1FER-3 | 2026-08-31 11:26:41 | 45.83156 | 16.07640 | 58° | 29km/h | 3538m | 4.1m/s | 4.4°C | 49.3% | 0hPa | 3.0V | 00:00:00 | 00:25:15 | 00:00:00 | |
| 9A1FER-10 | 2026-08-31 11:26:39 | 45.83147 | 16.07619 | 59° | 27km/h | 3530m | 4.4m/s | 4.5°C | 49.3% | 0hPa | 3.0V | 00:00:00 | 00:25:13 | 00:00:00 | |
| 9A1FER-3 | 2026-08-31 11:26:26 | 45.83097 | 16.07512 | 60° | 27km/h | 3471m | 4.2m/s | 5.0°C | 48.3% | 0hPa | 3.0V | 00:00:00 | 00:25:00 | 00:00:00 | |
| 9A1FER-10 | 2026-08-31 11:26:24 | 45.83090 | 16.07496 | 60° | 27km/h | 3460m | 5.3m/s | 5.1°C | 48.3% | 0hPa | 3.0V | 00:00:00 | 00:24:58 | 00:00:00 | |
| 9A1FER-3 | 2026-08-31 11:26:11 | 45.83040 | 16.07392 | 55° | 26km/h | 3400m | 3.8m/s | 5.5°C | 49.8% | 0hPa | 3.0V | 00:00:00 | 00:24:45 | 00:00:00 | |
| 9A1FER-10 | 2026-08-31 11:26:09 | 45.83030 | 16.07376 | 50° | 24km/h | 3392m | 3.8m/s | 5.6°C | 49.8% | 0hPa | 3.0V | 00:00:00 | 00:24:43 | 00:00:00 | |
| 9A1FER-3 | 2026-08-31 11:25:56 | 45.82981 | 16.07287 | 57° | 24km/h | 3323m | 5.5m/s | 6.2°C | 50.2% | 0hPa | 3.0V | 00:00:00 | 00:24:30 | 08:30:00 | |
| 9A1FER-10 | 2026-08-31 11:25:54 | 45.82975 | 16.07272 | 64° | 22km/h | 3312m | 3.5m/s | 6.2°C | 50.9% | 0hPa | 3.0V | 00:00:00 | 00:24:28 | 08:30:00 | |
| 9A1FER-3 | 2026-08-31 11:25:41 | 45.82932 | 16.07188 | 52° | 16km/h | 3259m | 3.6m/s | 6.5°C | 52.8% | 0hPa | 3.0V | 00:00:00 | 00:24:15 | 00:00:00 | |
| 9A1FER-10 | 2026-08-31 11:25:39 | 45.82927 | 16.07179 | 52° | 16km/h | 3249m | 6.1m/s | 6.6°C | 52.4% | 0hPa | 3.0V | 00:00:00 | 00:24:13 | 00:00:00 | |
| 9A1FER-3 | 2026-08-31 11:25:26 | 45.82897 | 16.07113 | 52° | 16km/h | 3184m | 4.9m/s | 7.1°C | 51.7% | 0hPa | 3.0V | 00:00:00 | 00:24:00 | 00:00:00 | |
| 9A1FER-10 | 2026-08-31 11:25:24 | 45.82892 | 16.07104 | 48° | 15km/h | 3174m | 3.1m/s | 7.2°C | 51.7% | 0hPa | 3.0V | 00:00:00 | 00:23:58 | 00:00:00 | |
| 9A1FER-3 | 2026-08-31 11:25:11 | 45.82856 | 16.07049 | 50° | 16km/h | 3106m | 5.5m/s | 7.8°C | 49.7% | 0hPa | 3.0V | 00:00:00 | 00:23:45 | 00:00:00 | |
| 9A1FER-10 | 2026-08-31 11:25:09 | 45.82853 | 16.07044 | 65° | 16km/h | 3094m | 4.5m/s | 7.9°C | 49.3% | 0hPa | 3.0V | 00:00:00 | 00:23:43 | 00:00:00 | |
| 9A1FER-3 | 2026-08-31 11:24:56 | 45.82817 | 16.06979 | 57° | 18km/h | 3037m | 6.2m/s | 8.5°C | 47.4% | 0hPa | 3.0V | 00:00:00 | 00:23:30 | 00:00:00 | |
| 9A1FER-10 | 2026-08-31 11:24:54 | 45.82813 | 16.06970 | 57° | 18km/h | 3027m | 4.3m/s | 8.6°C | 47.2% | 0hPa | 3.0V | 00:00:00 | 00:23:28 | 00:00:00 | |
| 9A1FER-10 | 2026-08-31 11:24:39 | 45.82765 | 16.06892 | 44° | 18km/h | 2959m | 4.9m/s | 9.3°C | 45.2% | 0hPa | 3.0V | 00:00:00 | 00:23:13 | 00:00:00 | |
| 9A1FER-3 | 2026-08-31 11:24:26 | 45.82721 | 16.06834 | 42° | 18km/h | 2896m | 4.6m/s | 9.9°C | 42.3% | 0hPa | 3.0V | 00:00:00 | 00:23:00 | 00:00:00 | |
| 9A1FER-10 | 2026-08-31 11:24:24 | 45.82716 | 16.06827 | 56° | 20km/h | 2889m | 3.2m/s | 10.0°C | 41.6% | 0hPa | 3.0V | 00:00:00 | 00:22:58 | 00:00:00 | |
| 9A1FER-3 | 2026-08-31 11:24:11 | 45.82670 | 16.06760 | 34° | 26km/h | 2828m | 4.7m/s | 10.4°C | 34.0% | 0hPa | 3.0V | 00:00:00 | 00:22:45 | 00:00:00 | |
| 9A1FER-10 | 2026-08-31 11:24:09 | 45.82660 | 16.06750 | 38° | 26km/h | 2819m | 3.8m/s | 10.5°C | 34.6% | 0hPa | 3.0V | 00:00:00 | 00:22:43 | 00:00:00 | |
| 9A1FER-3 | 2026-08-31 11:23:56 | 45.82608 | 16.06659 | 60° | 22km/h | 2752m | 4.1m/s | 10.2°C | 28.6% | 0hPa | 3.0V | 00:00:00 | 00:22:30 | 00:00:00 | |
| 9A1FER-10 | 2026-08-31 11:23:54 | 45.82602 | 16.06646 | 59° | 22km/h | 2744m | 4.7m/s | 10.0°C | 30.7% | 0hPa | 3.0V | 00:00:00 | 00:22:28 | 00:00:00 | |
| 9A1FER-3 | 2026-08-31 11:23:41 | 45.82558 | 16.06563 | 47° | 20km/h | 2689m | 3.5m/s | 10.0°C | 32.2% | 0hPa | 3.0V | 00:00:00 | 00:22:15 | 08:30:00 | |
| 9A1FER-10 | 2026-08-31 11:23:39 | 45.82551 | 16.06551 | 63° | 20km/h | 2683m | 3.1m/s | 10.1°C | 33.8% | 0hPa | 3.0V | 00:00:00 | 00:22:13 | 08:30:00 | |
| 9A1FER-3 | 2026-08-31 11:23:33 | 45.82524 | 16.06469 | 60° | 24km/h | 2630m | 5.6m/s | 10.1°C | 50.8% | 0hPa | 3.0V | 00:00:00 | 00:22:00 | 00:00:00 | |
| 9A1FER-10 | 2026-08-31 11:23:28 | 45.82520 | 16.06457 | 66° | 26km/h | 2619m | 4.5m/s | 10.2°C | 51.7% | 0hPa | 3.0V | 00:00:00 | 00:21:58 | 00:00:00 | |
| 9A1FER-3 | 2026-08-31 11:23:11 | 45.82484 | 16.06349 | 70° | 26km/h | 2565m | 4.8m/s | 10.7°C | 47.7% | 0hPa | 3.0V | 00:00:00 | 00:21:45 | 00:00:00 | |
| 9A1FER-10 | 2026-08-31 11:23:09 | 45.82479 | 16.06331 | 65° | 26km/h | 2554m | 5.3m/s | 10.8°C | 47.5% | 0hPa | 3.0V | 00:00:00 | 00:21:43 | 00:00:00 | |
| 9A1FER-3 | 2026-08-31 11:22:56 | 45.82433 | 16.06231 | 65° | 26km/h | 2480m | 5.9m/s | 11.4°C | 43.1% | 0hPa | 3.0V | 00:00:00 | 00:21:30 | 00:00:00 | |
| 9A1FER-10 | 2026-08-31 11:22:54 | 45.82427 | 16.06215 | 63° | 26km/h | 2469m | 5.6m/s | 11.5°C | 43.5% | 0hPa | 3.0V | 00:00:00 | 00:21:28 | 00:00:00 | |
| 9A1FER-3 | 2026-08-31 11:22:41 | 45.82386 | 16.06115 | 68° | 22km/h | 2416m | 5.4m/s | 12.1°C | 38.9% | 0hPa | 3.0V | 00:00:00 | 00:21:15 | 00:00:00 | |
| 9A1FER-10 | 2026-08-31 11:22:39 | 45.82381 | 16.06097 | 72° | 22km/h | 2406m | 5.1m/s | 12.2°C | 39.1% | 0hPa | 3.0V | 00:00:00 | 00:21:13 | 00:00:00 | |
| 9A1FER-3 | 2026-08-31 11:22:26 | 45.82352 | 16.06008 | 82° | 20km/h | 2337m | 3.5m/s | 12.6°C | 43.9% | 0hPa | 3.0V | 00:00:00 | 00:21:00 | 00:00:00 | |
| 9A1FER-10 | 2026-08-31 11:22:24 | 45.82350 | 16.05994 | 78° | 20km/h | 2329m | 3.9m/s | 12.7°C | 44.2% | 0hPa | 3.0V | 00:00:00 | 00:20:58 | 00:00:00 | |
| 9A1FER-3 | 2026-08-31 11:22:11 | 45.82330 | 16.05901 | 77° | 24km/h | 2266m | 5.8m/s | 13.0°C | 52.6% | 0hPa | 3.0V | 00:00:00 | 00:20:45 | 00:00:00 | |
| 9A1FER-10 | 2026-08-31 11:22:09 | 45.82328 | 16.05889 | 73° | 26km/h | 2252m | 6.8m/s | 13.0°C | 54.1% | 0hPa | 3.0V | 00:00:00 | 00:20:43 | 00:00:00 | |
| 9A1FER-3 | 2026-08-31 11:21:56 | 45.82305 | 16.05777 | 87° | 29km/h | 2192m | 5.0m/s | 13.4°C | 59.9% | 0hPa | 3.0V | 00:00:00 | 00:20:30 | 00:00:00 | |
| 9A1FER-10 | 2026-08-31 11:21:54 | 45.82304 | 16.05755 | 87° | 27km/h | 2183m | 4.4m/s | 13.5°C | 60.3% | 0hPa | 3.0V | 00:00:00 | 00:20:28 | 00:00:00 | |
| 9A1FER-3 | 2026-08-31 11:21:41 | 45.82288 | 16.05624 | 78° | 27km/h | 2124m | 5.3m/s | 13.6°C | 72.1% | 0hPa | 3.0V | 00:00:00 | 00:20:15 | 00:00:00 | |
| 9A1FER-10 | 2026-08-31 11:21:39 | 45.82286 | 16.05606 | 79° | 27km/h | 2114m | 5.6m/s | 13.6°C | 73.0% | 0hPa | 3.0V | 00:00:00 | 00:20:13 | 00:00:00 | |
| 9A1FER-3 | 2026-08-31 11:21:26 | 45.82275 | 16.05479 | 92° | 29km/h | 2060m | 3.7m/s | 14.0°C | 71.2% | 0hPa | 3.0V | 00:00:00 | 00:20:00 | 08:30:00 | |
| 9A1FER-10 | 2026-08-31 11:21:24 | 45.82274 | 16.05456 | 85° | 27km/h | 2051m | 2.9m/s | 14.1°C | 71.0% | 0hPa | 3.0V | 00:00:00 | 00:19:58 | 08:30:00 | |
| 9A1FER-3 | 2026-08-31 11:21:11 | 45.82275 | 16.05325 | 81° | 26km/h | 1995m | 6.3m/s | 14.6°C | 68.6% | 0hPa | 3.0V | 00:00:00 | 00:19:45 | 00:00:00 | |
| 9A1FER-10 | 2026-08-31 11:21:09 | 45.82271 | 16.05306 | 78° | 26km/h | 1985m | 4.3m/s | 14.7°C | 68.0% | 0hPa | 3.0V | 00:00:00 | 00:19:43 | 00:00:00 | |
| 9A1FER-3 | 2026-08-31 11:20:56 | 45.82270 | 16.05184 | 86° | 20km/h | 1932m | 2.4m/s | 15.2°C | 64.2% | 0hPa | 3.0V | 00:00:00 | 00:19:30 | 00:00:00 | |
| 9A1FER-10 | 2026-08-31 11:20:54 | 45.82270 | 16.05166 | 97° | 20km/h | 1925m | 3.2m/s | 15.2°C | 63.8% | 0hPa | 3.0V | 00:00:00 | 00:19:28 | 00:00:00 | |
| 9A1FER-3 | 2026-08-31 11:20:41 | 45.82257 | 16.05082 | 97° | 16km/h | 1873m | 3.1m/s | 15.4°C | 60.3% | 0hPa | 3.0V | 00:00:00 | 00:19:15 | 00:00:00 | |
| 9A1FER-3 | 2026-08-31 11:20:26 | 45.82251 | 16.04995 | 83° | 16km/h | 1797m | 4.9m/s | 16.0°C | 60.5% | 0hPa | 3.0V | 00:00:00 | 00:19:00 | 00:00:00 | |
| 9A1FER-10 | 2026-08-31 11:20:24 | 45.82250 | 16.04983 | 85° | 16km/h | 1786m | 4.6m/s | 16.1°C | 59.9% | 0hPa | 3.0V | 00:00:00 | 00:18:58 | 00:00:00 | |
| 9A1FER-3 | 2026-08-31 11:20:11 | 45.82253 | 16.04907 | 73° | 18km/h | 1730m | 4.4m/s | 16.7°C | 58.0% | 0hPa | 3.0V | 00:00:00 | 00:18:45 | 00:00:00 | |
| 9A1FER-10 | 2026-08-31 11:20:09 | 45.82253 | 16.04897 | 100° | 18km/h | 1719m | 6.8m/s | 16.8°C | 57.6% | 0hPa | 3.0V | 00:00:00 | 00:18:43 | 00:00:00 | |
| 9A1FER-3 | 2026-08-31 11:19:56 | 45.82253 | 16.04810 | 98° | 18km/h | 1667m | 3.1m/s | 17.3°C | 56.6% | 0hPa | 3.0V | 00:00:00 | 00:18:30 | 00:00:00 | |
| 9A1FER-10 | 2026-08-31 11:19:54 | 45.82253 | 16.04796 | 89° | 18km/h | 1659m | 3.5m/s | 17.4°C | 55.6% | 0hPa | 3.0V | 00:00:00 | 00:18:28 | 00:00:00 | |
| 9A1FER-3 | 2026-08-31 11:19:41 | 45.82249 | 16.04710 | 72° | 22km/h | 1601m | 4.4m/s | 18.0°C | 54.0% | 0hPa | 3.0V | 00:00:00 | 00:18:15 | 00:00:00 | |
| 9A1FER-10 | 2026-08-31 11:19:39 | 45.82246 | 16.04696 | 70° | 22km/h | 1594m | 4.3m/s | 18.0°C | 54.1% | 0hPa | 3.0V | 00:00:00 | 00:18:13 | 00:00:00 | |
| 9A1FER-3 | 2026-08-31 11:19:26 | 45.82226 | 16.04599 | 99° | 18km/h | 1539m | 3.5m/s | 18.6°C | 52.8% | 0hPa | 3.0V | 00:00:00 | 00:18:00 | 00:00:00 | |
| 9A1FER-10 | 2026-08-31 11:19:24 | 45.82227 | 16.04589 | 103° | 18km/h | 1533m | 3.4m/s | 18.6°C | 52.4% | 0hPa | 3.0V | 00:00:00 | 00:17:58 | 00:00:00 | |
| 9A1FER-3 | 2026-08-31 11:19:11 | 45.82229 | 16.04506 | 66° | 16km/h | 1470m | 3.9m/s | 19.2°C | 49.9% | 0hPa | 3.0V | 00:00:00 | 00:17:45 | 08:30:00 | |
| 9A1FER-10 | 2026-08-31 11:19:09 | 45.82225 | 16.04493 | 67° | 16km/h | 1463m | 3.5m/s | 19.3°C | 49.6% | 0hPa | 3.0V | 00:00:00 | 00:17:43 | 08:30:00 | |
| 9A1FER-3 | 2026-08-31 11:18:56 | 45.82218 | 16.04423 | 103° | 18km/h | 1397m | 4.8m/s | 19.9°C | 45.3% | 0hPa | 3.0V | 00:00:00 | 00:17:30 | 00:00:00 | |
| 9A1FER-10 | 2026-08-31 11:18:54 | 45.82219 | 16.04412 | 88° | 18km/h | 1386m | 5.4m/s | 20.0°C | 45.8% | 0hPa | 3.0V | 00:00:00 | 00:17:28 | 00:00:00 | |
| 9A1FER-3 | 2026-08-31 11:18:41 | 45.82211 | 16.04327 | 92° | 16km/h | 1328m | 6.3m/s | 20.5°C | 43.1% | 0hPa | 3.0V | 00:00:00 | 00:17:15 | 00:00:00 | |
| 9A1FER-10 | 2026-08-31 11:18:39 | 45.82211 | 16.04314 | 88° | 16km/h | 1317m | 5.4m/s | 20.7°C | 42.7% | 0hPa | 3.0V | 00:00:00 | 00:17:13 | 00:00:00 | |
| 9A1FER-3 | 2026-08-31 11:18:26 | 45.82219 | 16.04244 | 107° | 18km/h | 1253m | 5.7m/s | 21.2°C | 42.0% | 0hPa | 3.0V | 00:00:00 | 00:17:00 | 00:00:00 | |
| 9A1FER-10 | 2026-08-31 11:18:24 | 45.82220 | 16.04232 | 91° | 18km/h | 1241m | 5.6m/s | 21.3°C | 42.7% | 0hPa | 3.0V | 00:00:00 | 00:16:58 | 00:00:00 | |
| 9A1FER-3 | 2026-08-31 11:18:11 | 45.82222 | 16.04145 | 62° | 15km/h | 1181m | 3.9m/s | 21.9°C | 42.5% | 0hPa | 3.0V | 00:00:00 | 00:16:45 | 00:00:00 | |
| 9A1FER-10 | 2026-08-31 11:18:09 | 45.82220 | 16.04140 | 89° | 16km/h | 1172m | 3.7m/s | 21.9°C | 43.0% | 0hPa | 3.0V | 00:00:00 | 00:16:43 | 00:00:00 | |
| 9A1FER-3 | 2026-08-31 11:17:56 | 45.82219 | 16.04065 | 76° | 16km/h | 1113m | 4.1m/s | 22.0°C | 52.3% | 0hPa | 3.0V | 00:00:00 | 00:16:30 | 00:00:00 | |
| 9A1FER-10 | 2026-08-31 11:17:54 | 45.82217 | 16.04050 | 92° | 16km/h | 1105m | 5.0m/s | 22.0°C | 52.3% | 0hPa | 3.0V | 00:00:00 | 00:16:28 | 00:00:00 | |
| 9A1FER-3 | 2026-08-31 11:17:41 | 45.82226 | 16.03984 | 105° | 15km/h | 1049m | 3.7m/s | 22.7°C | 49.2% | 0hPa | 3.0V | 00:00:00 | 00:16:15 | 00:00:00 | |
| 9A1FER-10 | 2026-08-31 11:17:39 | 45.82227 | 16.03969 | 89° | 15km/h | 1040m | 5.5m/s | 22.7°C | 49.9% | 0hPa | 3.0V | 00:00:00 | 00:16:13 | 00:00:00 | |
| 9A1FER-3 | 2026-08-31 11:17:26 | 45.82240 | 16.03916 | 66° | 11km/h | 974m | 7.1m/s | 23.3°C | 49.2% | 0hPa | 3.0V | 00:00:00 | 00:16:00 | 00:00:00 | |
| 9A1FER-10 | 2026-08-31 11:17:24 | 45.82236 | 16.03905 | 63° | 11km/h | 963m | 3.8m/s | 23.4°C | 49.2% | 0hPa | 3.0V | 00:00:00 | 00:15:58 | 00:00:00 | |
| 9A1FER-3 | 2026-08-31 11:17:11 | 45.82241 | 16.03859 | 81° | 9km/h | 898m | 4.8m/s | 24.1°C | 46.1% | 0hPa | 3.0V | 00:00:00 | 00:15:45 | 00:00:00 | |
| 9A1FER-10 | 2026-08-31 11:17:09 | 45.82239 | 16.03853 | 59° | 9km/h | 889m | 5.0m/s | 24.2°C | 46.8% | 0hPa | 3.0V | 00:00:00 | 00:15:43 | 00:00:00 | |
| 9A1FER-3 | 2026-08-31 11:16:56 | 45.82232 | 16.03817 | 94° | 11km/h | 815m | 6.0m/s | 25.1°C | 41.9% | 0hPa | 3.0V | 00:00:00 | 00:15:30 | 08:30:00 | |
| 9A1FER-10 | 2026-08-31 11:16:54 | 45.82231 | 16.03808 | 78° | 11km/h | 806m | 5.1m/s | 25.0°C | 43.9% | 0hPa | 3.0V | 00:00:00 | 00:15:28 | 08:30:00 | |
| 9A1FER-3 | 2026-08-31 11:16:41 | 45.82242 | 16.03762 | 112° | 15km/h | 749m | 5.7m/s | 25.8°C | 40.0% | 0hPa | 3.0V | 00:00:00 | 00:15:15 | 00:00:00 | |
| 9A1FER-3 | 2026-08-31 11:16:26 | 45.82253 | 16.03687 | 98° | 11km/h | 682m | 4.9m/s | 26.3°C | 40.6% | 0hPa | 3.0V | 00:00:00 | 00:15:00 | 00:00:00 | |
| 9A1FER-10 | 2026-08-31 11:16:24 | 45.82256 | 16.03681 | 143° | 11km/h | 673m | 3.2m/s | 26.2°C | 42.1% | 0hPa | 3.0V | 00:00:00 | 00:14:58 | 00:00:00 | |
| 9A1FER-3 | 2026-08-31 11:16:11 | 45.82271 | 16.03634 | 112° | 13km/h | 621m | 4.1m/s | 26.5°C | 0% | 0hPa | 3.0V | 00:00:00 | 00:14:45 | 00:00:00 | |
| 9A1FER-10 | 2026-08-31 11:16:09 | 45.82274 | 16.03628 | 128° | 13km/h | 611m | 4.8m/s | 26.5°C | 0% | 0hPa | 3.0V | 00:00:00 | 00:14:43 | 00:00:00 | |
| 9A1FER-3 | 2026-08-31 11:15:56 | 45.82275 | 16.03571 | 101° | 13km/h | 554m | 4.2m/s | 0°C | 0% | 0hPa | 0V | 00:00:00 | 00:14:30 | 00:00:00 | |
| 9A1FER-10 | 2026-08-31 11:15:54 | 45.82275 | 16.03561 | 77° | 15km/h | 546m | 3.8m/s | 0°C | 0% | 0hPa | 0V | 00:00:00 | 00:14:28 | 00:00:00 | |
| 9A1FER-3 | 2026-08-31 11:15:41 | 45.82250 | 16.03518 | 98° | 15km/h | 495m | 5.6m/s | 0°C | 0% | 0hPa | 0V | 00:00:00 | 00:14:15 | 00:00:00 | |
| 9A1FER-10 | 2026-08-31 11:15:39 | 45.82251 | 16.03508 | 86° | 15km/h | 486m | 4.9m/s | 0°C | 0% | 0hPa | 0V | 00:00:00 | 00:14:13 | 00:00:00 | |
| 9A1FER-3 | 2026-08-31 11:15:26 | 45.82215 | 16.03468 | 31° | 16km/h | 430m | 2.8m/s | 0°C | 0% | 0hPa | 0V | 00:00:00 | 00:14:00 | 00:00:00 | |
| 9A1FER-10 | 2026-08-31 11:15:24 | 45.82207 | 16.03461 | 34° | 16km/h | 423m | 4.3m/s | 0°C | 0% | 0hPa | 0V | 00:00:00 | 00:13:58 | 00:00:00 | |
| 9A1FER-3 | 2026-08-31 11:15:11 | 45.82173 | 16.03418 | 1° | 16km/h | 368m | 5.0m/s | 0°C | 0% | 0hPa | 0V | 00:00:00 | 00:13:45 | 00:00:00 | |
| 9A1FER-10 | 2026-08-31 11:15:09 | 45.82170 | 16.03419 | 204° | 18km/h | 357m | 5.0m/s | 0°C | 0% | 0hPa | 0V | 00:00:00 | 00:13:43 | 00:00:00 | |
| 9A1FER-3 | 2026-08-31 11:14:56 | 45.82132 | 16.03402 | 83° | 18km/h | 304m | 3.0m/s | 0°C | 0% | 0hPa | 0V | 00:00:00 | 00:13:30 | 00:00:00 | |
| 9A1FER-10 | 2026-08-31 11:14:54 | 45.82133 | 16.03395 | 250° | 16km/h | 298m | 3.6m/s | 0°C | 0% | 0hPa | 0V | 00:00:00 | 00:13:28 | 00:00:00 | |
| 9A1FER-10 | 2026-08-31 11:14:39 | 45.82086 | 16.03382 | 346° | 15km/h | 221m | 5.0m/s | 0°C | 0% | 0hPa | 0V | 00:00:00 | 00:13:13 | 00:00:00 | |
| 9A1FER-3 | 2026-08-31 11:14:39 | 45.82086 | 16.03382 | 346° | 15km/h | 221m | 5.0m/s | 0°C | 0% | 0hPa | 0V | 00:00:00 | 00:13:13 | 00:00:00 |